<?xml version='1.0' encoding='UTF-8'?><gpx version="1.1" creator="JPX - https://github.com/jenetics/jpx" xmlns="http://www.topografix.com/GPX/1/1"><trk><trkseg><trkpt lat="43.782596769397394" lon="10.92202983042726"><ele>66.0</ele><time>2026-03-29T08:21:29.273Z</time></trkpt><trkpt lat="43.782553543965264" lon="10.921949069612682"><ele>66.0</ele><time>2026-03-29T08:21:35.001Z</time></trkpt><trkpt lat="43.782515601150195" lon="10.921863677428677"><ele>66.0</ele><time>2026-03-29T08:21:49Z</time></trkpt><trkpt lat="43.7824866346457" lon="10.921785246297699"><ele>66.0</ele><time>2026-03-29T08:21:54Z</time></trkpt><trkpt lat="43.78254893007" lon="10.921730118754065"><ele>66.0</ele><time>2026-03-29T08:21:59Z</time></trkpt><trkpt lat="43.78260502270378" lon="10.921679939067095"><ele>66.0</ele><time>2026-03-29T08:22:04Z</time></trkpt><trkpt lat="43.7826610118609" lon="10.921627744682342"><ele>66.0</ele><time>2026-03-29T08:22:08Z</time></trkpt><trkpt lat="43.78272090682678" lon="10.92157203120236"><ele>64.85714285714286</ele><time>2026-03-29T08:22:12Z</time></trkpt><trkpt lat="43.782776659566714" lon="10.921527003936575"><ele>63.71428571428572</ele><time>2026-03-29T08:22:14.999Z</time></trkpt><trkpt lat="43.78282670849763" lon="10.921468542844325"><ele>62.57142857142858</ele><time>2026-03-29T08:22:17.999Z</time></trkpt><trkpt lat="43.78288442100307" lon="10.92142442661898"><ele>61.42857142857143</ele><time>2026-03-29T08:22:20.999Z</time></trkpt><trkpt lat="43.78295491512645" lon="10.921496241571573"><ele>60.28571428571429</ele><time>2026-03-29T08:22:23.999Z</time></trkpt><trkpt lat="43.78302719108459" lon="10.921509970752066"><ele>59.14285714285715</ele><time>2026-03-29T08:22:26.999Z</time></trkpt><trkpt lat="43.783073220976235" lon="10.921575023300397"><ele>58.00000000000001</ele><time>2026-03-29T08:22:29.999Z</time></trkpt><trkpt lat="43.783112248561764" lon="10.921666371858434"><ele>58.666666666666664</ele><time>2026-03-29T08:22:33.999Z</time></trkpt><trkpt lat="43.783166943204584" lon="10.921750532249566"><ele>59.33333333333333</ele><time>2026-03-29T08:22:37.999Z</time></trkpt><trkpt lat="43.7832064354837" lon="10.921846444074264"><ele>60.0</ele><time>2026-03-29T08:22:41.999Z</time></trkpt><trkpt lat="43.78323722378107" lon="10.921922557120158"><ele>60.66666666666667</ele><time>2026-03-29T08:22:44.999Z</time></trkpt><trkpt lat="43.78328253601165" lon="10.922010269810896"><ele>61.333333333333336</ele><time>2026-03-29T08:22:48.999Z</time></trkpt><trkpt lat="43.783317970862214" lon="10.92211304871281"><ele>62.0</ele><time>2026-03-29T08:22:52.999Z</time></trkpt><trkpt lat="43.783343161837145" lon="10.922225347489327"><ele>62.00000000000001</ele><time>2026-03-29T08:22:56.999Z</time></trkpt><trkpt lat="43.78337548937334" lon="10.922332597852552"><ele>62.0</ele><time>2026-03-29T08:23:00.999Z</time></trkpt><trkpt lat="43.78342088919265" lon="10.922425438214457"><ele>62.0</ele><time>2026-03-29T08:23:04.999Z</time></trkpt><trkpt lat="43.78347007854313" lon="10.92251572142915"><ele>62.0</ele><time>2026-03-29T08:23:08.999Z</time></trkpt><trkpt lat="43.783509777824406" lon="10.92259494061952"><ele>62.00000000000001</ele><time>2026-03-29T08:23:11.999Z</time></trkpt><trkpt lat="43.78356242204834" lon="10.922659976557991"><ele>62.0</ele><time>2026-03-29T08:23:14.998Z</time></trkpt><trkpt lat="43.78360679661605" lon="10.922751563584711"><ele>62.00000000000001</ele><time>2026-03-29T08:23:18.998Z</time></trkpt><trkpt lat="43.78364018564372" lon="10.922825623034754"><ele>62.0</ele><time>2026-03-29T08:23:21.998Z</time></trkpt><trkpt lat="43.78367537619449" lon="10.922911799616436"><ele>62.0</ele><time>2026-03-29T08:23:24.998Z</time></trkpt><trkpt lat="43.78372075753148" lon="10.923008636434716"><ele>62.0</ele><time>2026-03-29T08:23:28.998Z</time></trkpt><trkpt lat="43.78378171965541" lon="10.92307808620849"><ele>62.00000000000001</ele><time>2026-03-29T08:23:32.998Z</time></trkpt><trkpt lat="43.783800376625905" lon="10.923193498836014"><ele>62.0</ele><time>2026-03-29T08:23:36.998Z</time></trkpt><trkpt lat="43.78384430919097" lon="10.923288861781678"><ele>62.00000000000001</ele><time>2026-03-29T08:23:40.998Z</time></trkpt><trkpt lat="43.783879282014574" lon="10.923385902080948"><ele>62.0</ele><time>2026-03-29T08:23:44.998Z</time></trkpt><trkpt lat="43.78390185893912" lon="10.923469204422942"><ele>62.0</ele><time>2026-03-29T08:23:47.998Z</time></trkpt><trkpt lat="43.7839376104374" lon="10.923543099629505"><ele>62.0</ele><time>2026-03-29T08:23:50.998Z</time></trkpt><trkpt lat="43.78398381297658" lon="10.923644452912562"><ele>62.00000000000001</ele><time>2026-03-29T08:23:54.998Z</time></trkpt><trkpt lat="43.78401688117047" lon="10.923742944701907"><ele>62.0</ele><time>2026-03-29T08:23:58.998Z</time></trkpt><trkpt lat="43.78406232620885" lon="10.923833734780438"><ele>63.16666666666667</ele><time>2026-03-29T08:24:02.998Z</time></trkpt><trkpt lat="43.78410043626155" lon="10.923921327519881"><ele>64.33333333333334</ele><time>2026-03-29T08:24:06.998Z</time></trkpt><trkpt lat="43.78414576557753" lon="10.924010486928177"><ele>65.5</ele><time>2026-03-29T08:24:10.998Z</time></trkpt><trkpt lat="43.78419123377052" lon="10.924090188443563"><ele>66.66666666666667</ele><time>2026-03-29T08:24:14.998Z</time></trkpt><trkpt lat="43.78422397791422" lon="10.924186704476988"><ele>67.83333333333333</ele><time>2026-03-29T08:24:18.998Z</time></trkpt><trkpt lat="43.784260038338054" lon="10.924285954764796"><ele>69.0</ele><time>2026-03-29T08:24:22.997Z</time></trkpt><trkpt lat="43.78430981095962" lon="10.924356071789129"><ele>69.28571428571429</ele><time>2026-03-29T08:24:26.997Z</time></trkpt><trkpt lat="43.78434532352953" lon="10.924455600221359"><ele>69.57142857142858</ele><time>2026-03-29T08:24:30.997Z</time></trkpt><trkpt lat="43.78441654706833" lon="10.924474529605442"><ele>69.85714285714286</ele><time>2026-03-29T08:24:33.997Z</time></trkpt><trkpt lat="43.78446895792931" lon="10.924547299182974"><ele>70.14285714285714</ele><time>2026-03-29T08:24:37.997Z</time></trkpt><trkpt lat="43.784497854300795" lon="10.924633517361015"><ele>70.42857142857142</ele><time>2026-03-29T08:24:40.997Z</time></trkpt><trkpt lat="43.78454445242667" lon="10.924699552334111"><ele>70.71428571428571</ele><time>2026-03-29T08:24:43.997Z</time></trkpt><trkpt lat="43.784588532861235" lon="10.92476958564178"><ele>71.0</ele><time>2026-03-29T08:24:46.997Z</time></trkpt><trkpt lat="43.78464005175901" lon="10.924832399782671"><ele>71.14285714285714</ele><time>2026-03-29T08:24:49.997Z</time></trkpt><trkpt lat="43.784698384435245" lon="10.924867404125616"><ele>71.28571428571428</ele><time>2026-03-29T08:24:52.997Z</time></trkpt><trkpt lat="43.784752490112524" lon="10.924922003147"><ele>71.42857142857143</ele><time>2026-03-29T08:24:55.997Z</time></trkpt><trkpt lat="43.784818005470356" lon="10.924978222479824"><ele>71.57142857142857</ele><time>2026-03-29T08:24:59.997Z</time></trkpt><trkpt lat="43.784859553491934" lon="10.925046606427959"><ele>71.71428571428572</ele><time>2026-03-29T08:25:02.997Z</time></trkpt><trkpt lat="43.78492275987426" lon="10.925109177208293"><ele>71.85714285714286</ele><time>2026-03-29T08:25:06.997Z</time></trkpt><trkpt lat="43.784981119691686" lon="10.925166429174704"><ele>72.0</ele><time>2026-03-29T08:25:09.997Z</time></trkpt><trkpt lat="43.78505355439231" lon="10.925218097856268"><ele>71.57142857142858</ele><time>2026-03-29T08:25:13.997Z</time></trkpt><trkpt lat="43.78510328970423" lon="10.925272435009179"><ele>71.14285714285714</ele><time>2026-03-29T08:25:16.997Z</time></trkpt><trkpt lat="43.785169385861906" lon="10.925340974648947"><ele>70.71428571428572</ele><time>2026-03-29T08:25:20.997Z</time></trkpt><trkpt lat="43.78522752933819" lon="10.925377617285523"><ele>70.28571428571429</ele><time>2026-03-29T08:25:23.997Z</time></trkpt><trkpt lat="43.78528666988794" lon="10.925416203260655"><ele>69.85714285714286</ele><time>2026-03-29T08:25:26.997Z</time></trkpt><trkpt lat="43.785357666220904" lon="10.925471238359702"><ele>69.42857142857143</ele><time>2026-03-29T08:25:30.996Z</time></trkpt><trkpt lat="43.785406856953415" lon="10.9255556428342"><ele>69.0</ele><time>2026-03-29T08:25:34.996Z</time></trkpt><trkpt lat="43.78545206412344" lon="10.925635188739799"><ele>69.83333333333333</ele><time>2026-03-29T08:25:38.996Z</time></trkpt><trkpt lat="43.78549306728101" lon="10.925731214368238"><ele>70.66666666666667</ele><time>2026-03-29T08:25:42.996Z</time></trkpt><trkpt lat="43.78550358624118" lon="10.925826664493751"><ele>71.5</ele><time>2026-03-29T08:25:46.996Z</time></trkpt><trkpt lat="43.78555637116621" lon="10.925914531440045"><ele>72.33333333333334</ele><time>2026-03-29T08:25:50.996Z</time></trkpt><trkpt lat="43.78560532121785" lon="10.925992329496061"><ele>73.16666666666667</ele><time>2026-03-29T08:25:54.996Z</time></trkpt><trkpt lat="43.78564947218471" lon="10.926083401912791"><ele>74.0</ele><time>2026-03-29T08:25:58.996Z</time></trkpt><trkpt lat="43.78567619472555" lon="10.9261723480297"><ele>74.0</ele><time>2026-03-29T08:26:02.996Z</time></trkpt><trkpt lat="43.78571351967937" lon="10.926271535240518"><ele>74.0</ele><time>2026-03-29T08:26:06.996Z</time></trkpt><trkpt lat="43.785760590732025" lon="10.926348115609017"><ele>74.0</ele><time>2026-03-29T08:26:10.996Z</time></trkpt><trkpt lat="43.78580983234014" lon="10.926431743837888"><ele>74.0</ele><time>2026-03-29T08:26:14.996Z</time></trkpt><trkpt lat="43.78585803528918" lon="10.926527154664802"><ele>74.0</ele><time>2026-03-29T08:26:18.996Z</time></trkpt><trkpt lat="43.78590977411735" lon="10.926584170625363"><ele>74.0</ele><time>2026-03-29T08:26:21.996Z</time></trkpt><trkpt lat="43.785967259714944" lon="10.926657310086064"><ele>74.5</ele><time>2026-03-29T08:26:25.996Z</time></trkpt><trkpt lat="43.78601187049298" lon="10.926718869263686"><ele>75.0</ele><time>2026-03-29T08:26:28.996Z</time></trkpt><trkpt lat="43.78606864766038" lon="10.92678113493903"><ele>75.5</ele><time>2026-03-29T08:26:31.996Z</time></trkpt><trkpt lat="43.78613015144474" lon="10.92685157916993"><ele>76.0</ele><time>2026-03-29T08:26:35.996Z</time></trkpt><trkpt lat="43.78619574306597" lon="10.926920812644624"><ele>76.5</ele><time>2026-03-29T08:26:39.995Z</time></trkpt><trkpt lat="43.78626507420603" lon="10.926967809853698"><ele>77.0</ele><time>2026-03-29T08:26:43.995Z</time></trkpt><trkpt lat="43.78632813649037" lon="10.927031310129728"><ele>77.0</ele><time>2026-03-29T08:26:47.995Z</time></trkpt><trkpt lat="43.78639860383382" lon="10.927071861789349"><ele>77.0</ele><time>2026-03-29T08:26:51.995Z</time></trkpt><trkpt lat="43.786457808162965" lon="10.927140491993304"><ele>77.0</ele><time>2026-03-29T08:26:55.995Z</time></trkpt><trkpt lat="43.78652221433661" lon="10.927205880899985"><ele>77.0</ele><time>2026-03-29T08:26:59.995Z</time></trkpt><trkpt lat="43.78658544134132" lon="10.927261954212183"><ele>77.0</ele><time>2026-03-29T08:27:03.995Z</time></trkpt><trkpt lat="43.786657809134" lon="10.927310959247219"><ele>77.0</ele><time>2026-03-29T08:27:07.995Z</time></trkpt><trkpt lat="43.7867155115701" lon="10.92734838250492"><ele>77.0</ele><time>2026-03-29T08:27:10.995Z</time></trkpt><trkpt lat="43.78678878760255" lon="10.927394922832333"><ele>77.0</ele><time>2026-03-29T08:27:14.995Z</time></trkpt><trkpt lat="43.78686061477487" lon="10.927439235615513"><ele>77.0</ele><time>2026-03-29T08:27:18.995Z</time></trkpt><trkpt lat="43.78692493169355" lon="10.927473484756387"><ele>77.0</ele><time>2026-03-29T08:27:21.995Z</time></trkpt><trkpt lat="43.786978489872695" lon="10.927519638020474"><ele>77.0</ele><time>2026-03-29T08:27:24.995Z</time></trkpt><trkpt lat="43.78704095904445" lon="10.927555964031749"><ele>77.0</ele><time>2026-03-29T08:27:27.995Z</time></trkpt><trkpt lat="43.78710826189913" lon="10.92759632733882"><ele>77.0</ele><time>2026-03-29T08:27:30.995Z</time></trkpt><trkpt lat="43.78717837341029" lon="10.927637514505664"><ele>76.28571428571429</ele><time>2026-03-29T08:27:33.995Z</time></trkpt><trkpt lat="43.787246816599115" lon="10.9276883613622"><ele>75.57142857142857</ele><time>2026-03-29T08:27:36.995Z</time></trkpt><trkpt lat="43.78731062451141" lon="10.92773314243452"><ele>74.85714285714286</ele><time>2026-03-29T08:27:39.995Z</time></trkpt><trkpt lat="43.787378018895986" lon="10.92776635123769"><ele>74.14285714285714</ele><time>2026-03-29T08:27:42.995Z</time></trkpt><trkpt lat="43.78744705976726" lon="10.927810743796382"><ele>73.42857142857143</ele><time>2026-03-29T08:27:45.994Z</time></trkpt><trkpt lat="43.78750605243182" lon="10.92785068773109"><ele>72.71428571428572</ele><time>2026-03-29T08:27:48.994Z</time></trkpt><trkpt lat="43.78757300298584" lon="10.92789814770976"><ele>72.0</ele><time>2026-03-29T08:27:51.994Z</time></trkpt><trkpt lat="43.787632912335816" lon="10.927968050534044"><ele>73.66666666666667</ele><time>2026-03-29T08:27:54.994Z</time></trkpt><trkpt lat="43.78771019678161" lon="10.928017036022563"><ele>75.33333333333333</ele><time>2026-03-29T08:27:57.994Z</time></trkpt><trkpt lat="43.787772704373516" lon="10.928078347265902"><ele>77.0</ele><time>2026-03-29T08:28:00.994Z</time></trkpt><trkpt lat="43.78783149281131" lon="10.92813473960277"><ele>78.66666666666666</ele><time>2026-03-29T08:28:03.994Z</time></trkpt><trkpt lat="43.787907971661156" lon="10.928164488326876"><ele>80.33333333333333</ele><time>2026-03-29T08:28:06.994Z</time></trkpt><trkpt lat="43.78797852824734" lon="10.928199979528124"><ele>82.0</ele><time>2026-03-29T08:28:09.994Z</time></trkpt><trkpt lat="43.78805112306465" lon="10.928227876521982"><ele>81.99999999999999</ele><time>2026-03-29T08:28:12.994Z</time></trkpt><trkpt lat="43.78811914283964" lon="10.92826236507592"><ele>82.0</ele><time>2026-03-29T08:28:15.994Z</time></trkpt><trkpt lat="43.78818942744974" lon="10.928282878845213"><ele>82.0</ele><time>2026-03-29T08:28:18.994Z</time></trkpt><trkpt lat="43.788257083885014" lon="10.928321386616698"><ele>82.0</ele><time>2026-03-29T08:28:21.994Z</time></trkpt><trkpt lat="43.78833034337257" lon="10.928345641524082"><ele>82.0</ele><time>2026-03-29T08:28:24.994Z</time></trkpt><trkpt lat="43.78839821047085" lon="10.928355229605849"><ele>81.99999999999999</ele><time>2026-03-29T08:28:27.994Z</time></trkpt><trkpt lat="43.788463562266685" lon="10.928372702042083"><ele>82.0</ele><time>2026-03-29T08:28:30.994Z</time></trkpt><trkpt lat="43.78852740442086" lon="10.928377798720968"><ele>82.28571428571428</ele><time>2026-03-29T08:28:33.994Z</time></trkpt><trkpt lat="43.78858981290576" lon="10.928397831941387"><ele>82.57142857142857</ele><time>2026-03-29T08:28:36.994Z</time></trkpt><trkpt lat="43.788658402813795" lon="10.928414390066003"><ele>82.85714285714286</ele><time>2026-03-29T08:28:39.994Z</time></trkpt><trkpt lat="43.788723385787165" lon="10.928412153359586"><ele>83.14285714285714</ele><time>2026-03-29T08:28:42.994Z</time></trkpt><trkpt lat="43.78879078372036" lon="10.928429160332088"><ele>83.42857142857143</ele><time>2026-03-29T08:28:45.994Z</time></trkpt><trkpt lat="43.78886934090912" lon="10.928462178237313"><ele>83.71428571428571</ele><time>2026-03-29T08:28:49.994Z</time></trkpt><trkpt lat="43.78894644116138" lon="10.928512437663416"><ele>84.0</ele><time>2026-03-29T08:28:53.993Z</time></trkpt><trkpt lat="43.78899461353745" lon="10.928580354179458"><ele>84.0</ele><time>2026-03-29T08:28:56.993Z</time></trkpt><trkpt lat="43.789059565199295" lon="10.928651338176708"><ele>84.0</ele><time>2026-03-29T08:29:00.993Z</time></trkpt><trkpt lat="43.78910992657935" lon="10.92870929281108"><ele>84.0</ele><time>2026-03-29T08:29:03.993Z</time></trkpt><trkpt lat="43.789181415194584" lon="10.928765648759533"><ele>84.0</ele><time>2026-03-29T08:29:07.993Z</time></trkpt><trkpt lat="43.78924371426353" lon="10.928830598146119"><ele>84.0</ele><time>2026-03-29T08:29:11.993Z</time></trkpt><trkpt lat="43.78931956387687" lon="10.928887128744114"><ele>84.0</ele><time>2026-03-29T08:29:15.993Z</time></trkpt><trkpt lat="43.78937769079258" lon="10.928921427740905"><ele>85.14285714285714</ele><time>2026-03-29T08:29:18.993Z</time></trkpt><trkpt lat="43.78943698749743" lon="10.928959340259985"><ele>86.28571428571428</ele><time>2026-03-29T08:29:21.993Z</time></trkpt><trkpt lat="43.78951609790063" lon="10.92897083520871"><ele>87.42857142857143</ele><time>2026-03-29T08:29:25.993Z</time></trkpt><trkpt lat="43.78959338552341" lon="10.928942408025149"><ele>88.57142857142857</ele><time>2026-03-29T08:29:29.993Z</time></trkpt><trkpt lat="43.789661047203154" lon="10.928936111795316"><ele>89.71428571428571</ele><time>2026-03-29T08:29:33.993Z</time></trkpt><trkpt lat="43.78973511252639" lon="10.92895197817451"><ele>90.85714285714286</ele><time>2026-03-29T08:29:37.993Z</time></trkpt><trkpt lat="43.78980714014129" lon="10.928983134051661"><ele>92.0</ele><time>2026-03-29T08:29:41.993Z</time></trkpt><trkpt lat="43.78987764782042" lon="10.929001972784558"><ele>92.0</ele><time>2026-03-29T08:29:45.993Z</time></trkpt><trkpt lat="43.789953896158956" lon="10.929026024642393"><ele>92.0</ele><time>2026-03-29T08:29:49.993Z</time></trkpt><trkpt lat="43.7900324467075" lon="10.929040688995128"><ele>92.0</ele><time>2026-03-29T08:29:53.993Z</time></trkpt><trkpt lat="43.79010929308988" lon="10.92905566825588"><ele>92.0</ele><time>2026-03-29T08:29:57.993Z</time></trkpt><trkpt lat="43.79018699385304" lon="10.92907368872771"><ele>92.0</ele><time>2026-03-29T08:30:01.992Z</time></trkpt><trkpt lat="43.790245706488435" lon="10.929111514051899"><ele>92.0</ele><time>2026-03-29T08:30:04.992Z</time></trkpt><trkpt lat="43.7903227275169" lon="10.929147397997145"><ele>92.83333333333334</ele><time>2026-03-29T08:30:08.992Z</time></trkpt><trkpt lat="43.79039860429772" lon="10.929194185886088"><ele>93.66666666666667</ele><time>2026-03-29T08:30:12.992Z</time></trkpt><trkpt lat="43.79045859071145" lon="10.929223790148315"><ele>94.5</ele><time>2026-03-29T08:30:15.992Z</time></trkpt><trkpt lat="43.79054034102021" lon="10.929256765392667"><ele>95.33333333333334</ele><time>2026-03-29T08:30:19.992Z</time></trkpt><trkpt lat="43.790603284964114" lon="10.929285568925957"><ele>96.16666666666667</ele><time>2026-03-29T08:30:23.992Z</time></trkpt><trkpt lat="43.79067822707742" lon="10.929306579605273"><ele>97.0</ele><time>2026-03-29T08:30:27.992Z</time></trkpt><trkpt lat="43.79075319866655" lon="10.929325194336336"><ele>98.28571428571428</ele><time>2026-03-29T08:30:31.992Z</time></trkpt><trkpt lat="43.79082213057707" lon="10.9293624348804"><ele>99.57142857142858</ele><time>2026-03-29T08:30:35.992Z</time></trkpt><trkpt lat="43.79089259966965" lon="10.929397694597588"><ele>100.85714285714286</ele><time>2026-03-29T08:30:39.992Z</time></trkpt><trkpt lat="43.79095759430938" lon="10.92941801746517"><ele>102.14285714285714</ele><time>2026-03-29T08:30:43.992Z</time></trkpt><trkpt lat="43.79103024843437" lon="10.929454629296949"><ele>103.42857142857142</ele><time>2026-03-29T08:30:48.992Z</time></trkpt><trkpt lat="43.79110210941678" lon="10.92947280274285"><ele>104.71428571428572</ele><time>2026-03-29T08:30:53.992Z</time></trkpt><trkpt lat="43.7911673486975" lon="10.929508549688222"><ele>106.0</ele><time>2026-03-29T08:30:58.992Z</time></trkpt><trkpt lat="43.791230380976636" lon="10.929547959278137"><ele>107.28571428571429</ele><time>2026-03-29T08:31:03.992Z</time></trkpt><trkpt lat="43.79129545621793" lon="10.929580870989614"><ele>108.57142857142856</ele><time>2026-03-29T08:31:07.992Z</time></trkpt><trkpt lat="43.79137066982986" lon="10.929597592229207"><ele>109.85714285714285</ele><time>2026-03-29T08:31:11.991Z</time></trkpt><trkpt lat="43.79144189077923" lon="10.929606275088759"><ele>111.14285714285714</ele><time>2026-03-29T08:31:15.991Z</time></trkpt><trkpt lat="43.79150202980166" lon="10.92963283341258"><ele>112.42857142857142</ele><time>2026-03-29T08:31:18.991Z</time></trkpt><trkpt lat="43.79156631104231" lon="10.929650192507657"><ele>113.7142857142857</ele><time>2026-03-29T08:31:22.991Z</time></trkpt><trkpt lat="43.791632717619784" lon="10.9296539813698"><ele>114.99999999999999</ele><time>2026-03-29T08:31:26.991Z</time></trkpt><trkpt lat="43.791695841227366" lon="10.929683803558326"><ele>114.99999999999999</ele><time>2026-03-29T08:31:30.991Z</time></trkpt><trkpt lat="43.79174188646592" lon="10.92974830109522"><ele>115.0</ele><time>2026-03-29T08:31:34.991Z</time></trkpt><trkpt lat="43.79173024478276" lon="10.929834576532686"><ele>114.99999999999999</ele><time>2026-03-29T08:31:38.991Z</time></trkpt><trkpt lat="43.791686982072164" lon="10.92989896358384"><ele>114.99999999999999</ele><time>2026-03-29T08:31:44.991Z</time></trkpt><trkpt lat="43.791636728683955" lon="10.929954621894828"><ele>115.0</ele><time>2026-03-29T08:31:49.991Z</time></trkpt><trkpt lat="43.79159158235511" lon="10.930034839797393"><ele>114.99999999999999</ele><time>2026-03-29T08:31:55.991Z</time></trkpt><trkpt lat="43.79155334483088" lon="10.930115441896445"><ele>114.99999999999999</ele><time>2026-03-29T08:32:01.991Z</time></trkpt><trkpt lat="43.79158429466956" lon="10.930197725695487"><ele>114.7142857142857</ele><time>2026-03-29T08:32:06.991Z</time></trkpt><trkpt lat="43.79164441640121" lon="10.930240204824553"><ele>114.42857142857142</ele><time>2026-03-29T08:32:09.991Z</time></trkpt><trkpt lat="43.79171306850795" lon="10.930288995549232"><ele>114.14285714285714</ele><time>2026-03-29T08:32:14.991Z</time></trkpt><trkpt lat="43.79177112357633" lon="10.93032902922777"><ele>113.85714285714285</ele><time>2026-03-29T08:32:18.99Z</time></trkpt><trkpt lat="43.791834957171154" lon="10.930365031710496"><ele>113.57142857142856</ele><time>2026-03-29T08:32:22.99Z</time></trkpt><trkpt lat="43.791901526360334" lon="10.930411886750711"><ele>113.28571428571429</ele><time>2026-03-29T08:32:27.99Z</time></trkpt><trkpt lat="43.79195331159136" lon="10.930472046658549"><ele>113.0</ele><time>2026-03-29T08:32:31.99Z</time></trkpt><trkpt lat="43.79201045723264" lon="10.930520829494522"><ele>114.85714285714286</ele><time>2026-03-29T08:32:35.99Z</time></trkpt><trkpt lat="43.792078548250096" lon="10.930574435233787"><ele>116.71428571428571</ele><time>2026-03-29T08:32:39.99Z</time></trkpt><trkpt lat="43.792136870218485" lon="10.93061035440465"><ele>118.57142857142857</ele><time>2026-03-29T08:32:43.99Z</time></trkpt><trkpt lat="43.792207039439845" lon="10.930649150681763"><ele>120.42857142857143</ele><time>2026-03-29T08:32:47.99Z</time></trkpt><trkpt lat="43.79227194796095" lon="10.930683599189289"><ele>122.28571428571428</ele><time>2026-03-29T08:32:51.99Z</time></trkpt><trkpt lat="43.7923342369737" lon="10.9307488274663"><ele>124.14285714285714</ele><time>2026-03-29T08:32:55.99Z</time></trkpt><trkpt lat="43.79239238258599" lon="10.93079173739791"><ele>126.0</ele><time>2026-03-29T08:32:59.99Z</time></trkpt><trkpt lat="43.79245952006395" lon="10.93083312548749"><ele>127.14285714285714</ele><time>2026-03-29T08:33:03.99Z</time></trkpt><trkpt lat="43.7925195920004" lon="10.930894399012915"><ele>128.28571428571428</ele><time>2026-03-29T08:33:07.99Z</time></trkpt><trkpt lat="43.79258474102329" lon="10.930945609848518"><ele>129.42857142857144</ele><time>2026-03-29T08:33:11.99Z</time></trkpt><trkpt lat="43.792641594603644" lon="10.931001658530649"><ele>130.57142857142856</ele><time>2026-03-29T08:33:15.99Z</time></trkpt><trkpt lat="43.792708978877336" lon="10.931036604809862"><ele>131.71428571428572</ele><time>2026-03-29T08:33:19.99Z</time></trkpt><trkpt lat="43.79278699006216" lon="10.931074576829626"><ele>132.85714285714286</ele><time>2026-03-29T08:33:23.99Z</time></trkpt><trkpt lat="43.79283253662511" lon="10.931139614873816"><ele>134.0</ele><time>2026-03-29T08:33:26.989Z</time></trkpt><trkpt lat="43.79289209256811" lon="10.931174281550271"><ele>134.0</ele><time>2026-03-29T08:33:29.989Z</time></trkpt><trkpt lat="43.79295818472818" lon="10.931221088792634"><ele>134.0</ele><time>2026-03-29T08:33:33.989Z</time></trkpt><trkpt lat="43.79301512244341" lon="10.931283724443533"><ele>134.0</ele><time>2026-03-29T08:33:37.989Z</time></trkpt><trkpt lat="43.79307471500119" lon="10.931336440310552"><ele>134.0</ele><time>2026-03-29T08:33:41.989Z</time></trkpt><trkpt lat="43.79313525616475" lon="10.931407415210721"><ele>134.0</ele><time>2026-03-29T08:33:45.989Z</time></trkpt><trkpt lat="43.79319325636999" lon="10.931468854887669"><ele>134.0</ele><time>2026-03-29T08:33:49.989Z</time></trkpt><trkpt lat="43.79325175275501" lon="10.931517141420558"><ele>134.0</ele><time>2026-03-29T08:33:53.989Z</time></trkpt><trkpt lat="43.79330900977174" lon="10.931480068057533"><ele>134.0</ele><time>2026-03-29T08:33:57.989Z</time></trkpt><trkpt lat="43.793371227043465" lon="10.931440570820488"><ele>134.0</ele><time>2026-03-29T08:34:02.989Z</time></trkpt><trkpt lat="43.793449966496595" lon="10.931470739632955"><ele>134.0</ele><time>2026-03-29T08:34:07.989Z</time></trkpt><trkpt lat="43.79350195852331" lon="10.931535507335061"><ele>134.0</ele><time>2026-03-29T08:34:12.989Z</time></trkpt><trkpt lat="43.79351626054013" lon="10.931625052664424"><ele>134.0</ele><time>2026-03-29T08:34:18.989Z</time></trkpt><trkpt lat="43.79354623646241" lon="10.93171986143879"><ele>134.0</ele><time>2026-03-29T08:34:23.989Z</time></trkpt><trkpt lat="43.79357540778908" lon="10.93181043843724"><ele>134.0</ele><time>2026-03-29T08:34:28.989Z</time></trkpt><trkpt lat="43.7935883499379" lon="10.931909779267873"><ele>135.71428571428572</ele><time>2026-03-29T08:34:33.988Z</time></trkpt><trkpt lat="43.79363569262255" lon="10.931987887274694"><ele>137.42857142857142</ele><time>2026-03-29T08:34:39.988Z</time></trkpt><trkpt lat="43.793705717294905" lon="10.932009064785277"><ele>139.14285714285714</ele><time>2026-03-29T08:34:43.988Z</time></trkpt><trkpt lat="43.7937742058099" lon="10.93198382080814"><ele>140.85714285714286</ele><time>2026-03-29T08:34:47.988Z</time></trkpt><trkpt lat="43.793846787529255" lon="10.93201533551293"><ele>142.57142857142858</ele><time>2026-03-29T08:34:52.988Z</time></trkpt><trkpt lat="43.793911659907614" lon="10.931998847971004"><ele>144.28571428571428</ele><time>2026-03-29T08:34:56.988Z</time></trkpt><trkpt lat="43.79398046487311" lon="10.93198316555785"><ele>146.0</ele><time>2026-03-29T08:35:01.988Z</time></trkpt><trkpt lat="43.79404504307525" lon="10.931980280008583"><ele>146.0</ele><time>2026-03-29T08:35:05.988Z</time></trkpt><trkpt lat="43.79410973212042" lon="10.931985973891784"><ele>146.0</ele><time>2026-03-29T08:35:09.988Z</time></trkpt><trkpt lat="43.79418411193056" lon="10.93199008384332"><ele>146.0</ele><time>2026-03-29T08:35:14.988Z</time></trkpt><trkpt lat="43.79424863858129" lon="10.931990945990307"><ele>146.0</ele><time>2026-03-29T08:35:18.988Z</time></trkpt><trkpt lat="43.794305426788995" lon="10.932035725744898"><ele>146.0</ele><time>2026-03-29T08:35:22.988Z</time></trkpt><trkpt lat="43.79436749712805" lon="10.932088613326394"><ele>146.0</ele><time>2026-03-29T08:35:26.988Z</time></trkpt><trkpt lat="43.79441981473209" lon="10.932142645774494"><ele>146.0</ele><time>2026-03-29T08:35:30.988Z</time></trkpt><trkpt lat="43.79446579098903" lon="10.932210129620103"><ele>145.85714285714286</ele><time>2026-03-29T08:35:34.988Z</time></trkpt><trkpt lat="43.79452781889536" lon="10.932262864542412"><ele>145.71428571428572</ele><time>2026-03-29T08:35:38.988Z</time></trkpt><trkpt lat="43.79458904548514" lon="10.932304309122323"><ele>145.57142857142858</ele><time>2026-03-29T08:35:42.987Z</time></trkpt><trkpt lat="43.79464165100156" lon="10.932370299205914"><ele>145.42857142857144</ele><time>2026-03-29T08:35:46.987Z</time></trkpt><trkpt lat="43.79470054319689" lon="10.932422042345573"><ele>145.2857142857143</ele><time>2026-03-29T08:35:50.987Z</time></trkpt><trkpt lat="43.79476794129481" lon="10.932479891426128"><ele>145.14285714285714</ele><time>2026-03-29T08:35:54.987Z</time></trkpt><trkpt lat="43.794826623950925" lon="10.932549070952241"><ele>145.0</ele><time>2026-03-29T08:35:58.987Z</time></trkpt><trkpt lat="43.79489393305293" lon="10.932601436107452"><ele>145.0</ele><time>2026-03-29T08:36:02.987Z</time></trkpt><trkpt lat="43.794946149228046" lon="10.932676755064927"><ele>145.0</ele><time>2026-03-29T08:36:06.987Z</time></trkpt><trkpt lat="43.79502274869311" lon="10.932730224974296"><ele>145.0</ele><time>2026-03-29T08:36:10.987Z</time></trkpt><trkpt lat="43.79509136887432" lon="10.932772256000444"><ele>145.0</ele><time>2026-03-29T08:36:14.987Z</time></trkpt><trkpt lat="43.795154446617616" lon="10.932842997929953"><ele>145.0</ele><time>2026-03-29T08:36:18.987Z</time></trkpt><trkpt lat="43.795213581656625" lon="10.932876345974107"><ele>145.0</ele><time>2026-03-29T08:36:21.987Z</time></trkpt><trkpt lat="43.795276921857514" lon="10.932931710680966"><ele>147.14285714285714</ele><time>2026-03-29T08:36:25.987Z</time></trkpt><trkpt lat="43.79533006736866" lon="10.93298295383691"><ele>149.2857142857143</ele><time>2026-03-29T08:36:28.987Z</time></trkpt><trkpt lat="43.79539990427445" lon="10.93304749404646"><ele>151.42857142857144</ele><time>2026-03-29T08:36:32.987Z</time></trkpt><trkpt lat="43.79545542188491" lon="10.933098123202683"><ele>153.57142857142858</ele><time>2026-03-29T08:36:35.987Z</time></trkpt><trkpt lat="43.795515082663215" lon="10.933146261309629"><ele>155.71428571428572</ele><time>2026-03-29T08:36:38.987Z</time></trkpt><trkpt lat="43.79557356055776" lon="10.933195836887187"><ele>157.85714285714286</ele><time>2026-03-29T08:36:41.987Z</time></trkpt><trkpt lat="43.79563445661146" lon="10.93327382153034"><ele>160.0</ele><time>2026-03-29T08:36:45.987Z</time></trkpt><trkpt lat="43.795683515659825" lon="10.933330236721472"><ele>161.14285714285714</ele><time>2026-03-29T08:36:48.986Z</time></trkpt><trkpt lat="43.79574172569371" lon="10.93338962800018"><ele>162.28571428571428</ele><time>2026-03-29T08:36:52.986Z</time></trkpt><trkpt lat="43.795793635961644" lon="10.933442478181439"><ele>163.42857142857144</ele><time>2026-03-29T08:36:55.986Z</time></trkpt><trkpt lat="43.79586113431924" lon="10.933506780843874"><ele>164.57142857142856</ele><time>2026-03-29T08:36:59.986Z</time></trkpt><trkpt lat="43.79591886944548" lon="10.933552191943534"><ele>165.71428571428572</ele><time>2026-03-29T08:37:02.986Z</time></trkpt><trkpt lat="43.795986463484404" lon="10.93359843373432"><ele>166.85714285714286</ele><time>2026-03-29T08:37:06.986Z</time></trkpt><trkpt lat="43.7960367931394" lon="10.93367642066287"><ele>168.0</ele><time>2026-03-29T08:37:10.986Z</time></trkpt><trkpt lat="43.79608467511582" lon="10.933767785017949"><ele>168.0</ele><time>2026-03-29T08:37:14.986Z</time></trkpt><trkpt lat="43.79612031216069" lon="10.933869072598098"><ele>168.0</ele><time>2026-03-29T08:37:18.986Z</time></trkpt><trkpt lat="43.79616813857426" lon="10.933935397707062"><ele>168.0</ele><time>2026-03-29T08:37:21.986Z</time></trkpt><trkpt lat="43.79621731040187" lon="10.933995247961297"><ele>168.0</ele><time>2026-03-29T08:37:24.986Z</time></trkpt><trkpt lat="43.79627013144153" lon="10.934045945676631"><ele>168.0</ele><time>2026-03-29T08:37:27.986Z</time></trkpt><trkpt lat="43.79631990727933" lon="10.93412809014178"><ele>168.0</ele><time>2026-03-29T08:37:31.986Z</time></trkpt><trkpt lat="43.79636344312841" lon="10.9342114292038"><ele>168.0</ele><time>2026-03-29T08:37:35.986Z</time></trkpt><trkpt lat="43.79641291057935" lon="10.934272294699786"><ele>168.28571428571428</ele><time>2026-03-29T08:37:39.986Z</time></trkpt><trkpt lat="43.79644853544783" lon="10.93434709236687"><ele>168.57142857142856</ele><time>2026-03-29T08:37:43.986Z</time></trkpt><trkpt lat="43.79649859909759" lon="10.9344300551163"><ele>168.85714285714286</ele><time>2026-03-29T08:37:47.986Z</time></trkpt><trkpt lat="43.79654247877755" lon="10.934513175807034"><ele>169.14285714285714</ele><time>2026-03-29T08:37:52.986Z</time></trkpt><trkpt lat="43.796605733011035" lon="10.934557313671174"><ele>169.42857142857142</ele><time>2026-03-29T08:37:58.985Z</time></trkpt><trkpt lat="43.79666231544143" lon="10.93460232137356"><ele>169.71428571428572</ele><time>2026-03-29T08:38:03.985Z</time></trkpt><trkpt lat="43.79671709531122" lon="10.934646011371559"><ele>170.0</ele><time>2026-03-29T08:38:08.985Z</time></trkpt><trkpt lat="43.796773238755954" lon="10.934701249979273"><ele>170.0</ele><time>2026-03-29T08:38:13.985Z</time></trkpt><trkpt lat="43.79683006973996" lon="10.934756954994425"><ele>170.0</ele><time>2026-03-29T08:38:17.985Z</time></trkpt><trkpt lat="43.796878107860685" lon="10.934822958187846"><ele>170.0</ele><time>2026-03-29T08:38:21.985Z</time></trkpt><trkpt lat="43.79690982373116" lon="10.934905516111217"><ele>170.0</ele><time>2026-03-29T08:38:25.985Z</time></trkpt><trkpt lat="43.79695909950845" lon="10.934969388623312"><ele>170.0</ele><time>2026-03-29T08:38:30.985Z</time></trkpt><trkpt lat="43.796999448741424" lon="10.935044829851932"><ele>170.0</ele><time>2026-03-29T08:38:34.985Z</time></trkpt><trkpt lat="43.79704738058844" lon="10.93511747193741"><ele>170.0</ele><time>2026-03-29T08:38:39.985Z</time></trkpt><trkpt lat="43.79708669192974" lon="10.935202316191646"><ele>173.0</ele><time>2026-03-29T08:38:44.985Z</time></trkpt><trkpt lat="43.79713251629422" lon="10.935268136533198"><ele>176.0</ele><time>2026-03-29T08:38:48.985Z</time></trkpt><trkpt lat="43.797190553765844" lon="10.93530846378707"><ele>179.0</ele><time>2026-03-29T08:38:52.985Z</time></trkpt><trkpt lat="43.797253435227645" lon="10.935352245339049"><ele>182.0</ele><time>2026-03-29T08:38:56.985Z</time></trkpt><trkpt lat="43.797318846713026" lon="10.935402329494641"><ele>185.0</ele><time>2026-03-29T08:39:01.985Z</time></trkpt><trkpt lat="43.79736911243142" lon="10.935457179726251"><ele>188.0</ele><time>2026-03-29T08:39:05.984Z</time></trkpt><trkpt lat="43.79741237656684" lon="10.935541795040564"><ele>191.0</ele><time>2026-03-29T08:39:11.984Z</time></trkpt><trkpt lat="43.797447880222535" lon="10.935623954657393"><ele>191.0</ele><time>2026-03-29T08:39:18.984Z</time></trkpt><trkpt lat="43.797481862174415" lon="10.935700447974218"><ele>191.0</ele><time>2026-03-29T08:39:22.984Z</time></trkpt><trkpt lat="43.797510494559724" lon="10.935793779196203"><ele>191.0</ele><time>2026-03-29T08:39:28.984Z</time></trkpt><trkpt lat="43.797547038619754" lon="10.93586554538614"><ele>191.0</ele><time>2026-03-29T08:39:34.984Z</time></trkpt><trkpt lat="43.79758408173932" lon="10.935939955712596"><ele>191.0</ele><time>2026-03-29T08:39:39.984Z</time></trkpt><trkpt lat="43.79765837956032" lon="10.935959813321267"><ele>191.0</ele><time>2026-03-29T08:39:44.984Z</time></trkpt><trkpt lat="43.797722325216455" lon="10.935981438212275"><ele>191.0</ele><time>2026-03-29T08:39:49.984Z</time></trkpt><trkpt lat="43.79778985920558" lon="10.935986872538503"><ele>192.57142857142858</ele><time>2026-03-29T08:39:53.984Z</time></trkpt><trkpt lat="43.79786051049008" lon="10.936015398863955"><ele>194.14285714285714</ele><time>2026-03-29T08:39:57.984Z</time></trkpt><trkpt lat="43.79793130765906" lon="10.936020830287818"><ele>195.71428571428572</ele><time>2026-03-29T08:40:01.984Z</time></trkpt><trkpt lat="43.79799859817096" lon="10.936007047917487"><ele>197.28571428571428</ele><time>2026-03-29T08:40:05.984Z</time></trkpt><trkpt lat="43.79806339781104" lon="10.935977705166906"><ele>198.85714285714283</ele><time>2026-03-29T08:40:09.984Z</time></trkpt><trkpt lat="43.79812626156108" lon="10.935953740485337"><ele>200.42857142857142</ele><time>2026-03-29T08:40:13.983Z</time></trkpt><trkpt lat="43.79819492185325" lon="10.935912804943637"><ele>202.0</ele><time>2026-03-29T08:40:17.983Z</time></trkpt><trkpt lat="43.79826101443554" lon="10.935880267934218"><ele>202.0</ele><time>2026-03-29T08:40:21.983Z</time></trkpt><trkpt lat="43.79831647680949" lon="10.93582774156382"><ele>202.0</ele><time>2026-03-29T08:40:25.983Z</time></trkpt><trkpt lat="43.798383844302734" lon="10.935795140064306"><ele>202.0</ele><time>2026-03-29T08:40:29.983Z</time></trkpt><trkpt lat="43.79844821393889" lon="10.935769404556888"><ele>202.0</ele><time>2026-03-29T08:40:33.983Z</time></trkpt><trkpt lat="43.798516190674356" lon="10.93574149428436"><ele>202.0</ele><time>2026-03-29T08:40:37.983Z</time></trkpt><trkpt lat="43.7985824323196" lon="10.9357016610113"><ele>202.0</ele><time>2026-03-29T08:40:41.983Z</time></trkpt><trkpt lat="43.79865045260361" lon="10.935704721634004"><ele>202.0</ele><time>2026-03-29T08:40:45.983Z</time></trkpt><trkpt lat="43.798701885762874" lon="10.93577513105778"><ele>202.14285714285714</ele><time>2026-03-29T08:40:49.983Z</time></trkpt><trkpt lat="43.79872077142037" lon="10.935868979450623"><ele>202.28571428571428</ele><time>2026-03-29T08:40:53.983Z</time></trkpt><trkpt lat="43.79874453613114" lon="10.935962806461422"><ele>202.42857142857144</ele><time>2026-03-29T08:40:57.983Z</time></trkpt><trkpt lat="43.79876114615286" lon="10.936062539268347"><ele>202.57142857142856</ele><time>2026-03-29T08:41:01.983Z</time></trkpt><trkpt lat="43.798783188997994" lon="10.936160329777294"><ele>202.71428571428572</ele><time>2026-03-29T08:41:05.983Z</time></trkpt><trkpt lat="43.7988012226598" lon="10.936252953238009"><ele>202.85714285714286</ele><time>2026-03-29T08:41:09.983Z</time></trkpt><trkpt lat="43.798828669249" lon="10.93634626780216"><ele>203.0</ele><time>2026-03-29T08:41:13.983Z</time></trkpt><trkpt lat="43.798857191174086" lon="10.936442836892816"><ele>203.42857142857142</ele><time>2026-03-29T08:41:17.983Z</time></trkpt><trkpt lat="43.79888776988832" lon="10.936541507117802"><ele>203.85714285714286</ele><time>2026-03-29T08:41:21.982Z</time></trkpt><trkpt lat="43.79892357243848" lon="10.936615456500524"><ele>204.28571428571428</ele><time>2026-03-29T08:41:24.982Z</time></trkpt><trkpt lat="43.798968711034426" lon="10.936711085387735"><ele>204.71428571428572</ele><time>2026-03-29T08:41:28.982Z</time></trkpt><trkpt lat="43.79902380978617" lon="10.936797581051286"><ele>205.14285714285714</ele><time>2026-03-29T08:41:32.982Z</time></trkpt><trkpt lat="43.79906722957103" lon="10.936869273389947"><ele>205.57142857142856</ele><time>2026-03-29T08:41:35.982Z</time></trkpt><trkpt lat="43.79910341221194" lon="10.936951064294911"><ele>206.0</ele><time>2026-03-29T08:41:38.997Z</time></trkpt><trkpt lat="43.799141012712646" lon="10.937030267064797"><ele>206.7142857142857</ele><time>2026-03-29T08:41:41.997Z</time></trkpt><trkpt lat="43.799172027827034" lon="10.937111803148866"><ele>207.42857142857142</ele><time>2026-03-29T08:41:44.997Z</time></trkpt><trkpt lat="43.79920496836113" lon="10.93721906609855"><ele>208.14285714285714</ele><time>2026-03-29T08:41:48.997Z</time></trkpt><trkpt lat="43.79922558105398" lon="10.937307961256476"><ele>208.85714285714283</ele><time>2026-03-29T08:41:51.997Z</time></trkpt><trkpt lat="43.79924816701208" lon="10.937396382535232"><ele>209.57142857142858</ele><time>2026-03-29T08:41:54.997Z</time></trkpt><trkpt lat="43.79927344266487" lon="10.937489211749641"><ele>210.28571428571428</ele><time>2026-03-29T08:41:57.997Z</time></trkpt><trkpt lat="43.799289629279315" lon="10.937603526705804"><ele>211.0</ele><time>2026-03-29T08:42:01.997Z</time></trkpt><trkpt lat="43.799307188547864" lon="10.937691952991306"><ele>211.0</ele><time>2026-03-29T08:42:04.997Z</time></trkpt><trkpt lat="43.799328506987855" lon="10.937803573305654"><ele>211.0</ele><time>2026-03-29T08:42:08.997Z</time></trkpt><trkpt lat="43.79933837890724" lon="10.93789168758329"><ele>211.0</ele><time>2026-03-29T08:42:11.997Z</time></trkpt><trkpt lat="43.79935461961267" lon="10.937987155474529"><ele>211.0</ele><time>2026-03-29T08:42:14.997Z</time></trkpt><trkpt lat="43.79936448363277" lon="10.938074454120143"><ele>211.0</ele><time>2026-03-29T08:42:17.997Z</time></trkpt><trkpt lat="43.7993837458639" lon="10.938168579233619"><ele>211.0</ele><time>2026-03-29T08:42:20.997Z</time></trkpt><trkpt lat="43.799401340543625" lon="10.938283921204949"><ele>211.0</ele><time>2026-03-29T08:42:24.997Z</time></trkpt><trkpt lat="43.799418070762876" lon="10.938396023398912"><ele>211.0</ele><time>2026-03-29T08:42:28.997Z</time></trkpt><trkpt lat="43.79945324882791" lon="10.938486508290453"><ele>211.0</ele><time>2026-03-29T08:42:31.997Z</time></trkpt><trkpt lat="43.7994963981635" lon="10.938588840453006"><ele>211.0</ele><time>2026-03-29T08:42:35.997Z</time></trkpt><trkpt lat="43.799525717949834" lon="10.938680037925396"><ele>211.0</ele><time>2026-03-29T08:42:38.997Z</time></trkpt><trkpt lat="43.79956600000509" lon="10.938751197811944"><ele>211.0</ele><time>2026-03-29T08:42:41.997Z</time></trkpt><trkpt lat="43.799603626940794" lon="10.938840913501867"><ele>211.0</ele><time>2026-03-29T08:42:44.997Z</time></trkpt><trkpt lat="43.79963943833269" lon="10.938928329773193"><ele>211.0</ele><time>2026-03-29T08:42:47.997Z</time></trkpt><trkpt lat="43.799678035825465" lon="10.939000300138908"><ele>211.0</ele><time>2026-03-29T08:42:50.997Z</time></trkpt><trkpt lat="43.79973864105306" lon="10.939083095865673"><ele>211.0</ele><time>2026-03-29T08:42:54.997Z</time></trkpt><trkpt lat="43.799796368715256" lon="10.939137845156536"><ele>211.0</ele><time>2026-03-29T08:42:57.997Z</time></trkpt><trkpt lat="43.79983653351992" lon="10.939214603875897"><ele>211.0</ele><time>2026-03-29T08:43:00.997Z</time></trkpt><trkpt lat="43.79990090217123" lon="10.93927150742582"><ele>211.0</ele><time>2026-03-29T08:43:03.997Z</time></trkpt><trkpt lat="43.79995904539021" lon="10.939322864660575"><ele>211.0</ele><time>2026-03-29T08:43:06.997Z</time></trkpt><trkpt lat="43.80001050217463" lon="10.939374524685796"><ele>211.0</ele><time>2026-03-29T08:43:09.997Z</time></trkpt><trkpt lat="43.80007585499635" lon="10.939425892607357"><ele>212.28571428571428</ele><time>2026-03-29T08:43:13.997Z</time></trkpt><trkpt lat="43.800148782391496" lon="10.93943412009878"><ele>213.57142857142858</ele><time>2026-03-29T08:43:17.997Z</time></trkpt><trkpt lat="43.80021823096464" lon="10.939459500019801"><ele>214.85714285714283</ele><time>2026-03-29T08:43:22.997Z</time></trkpt><trkpt lat="43.80028236558521" lon="10.939496648011653"><ele>216.14285714285714</ele><time>2026-03-29T08:43:27.997Z</time></trkpt><trkpt lat="43.80034397658744" lon="10.939526623811965"><ele>217.42857142857142</ele><time>2026-03-29T08:43:32.996Z</time></trkpt><trkpt lat="43.80040209820561" lon="10.939593231919341"><ele>218.7142857142857</ele><time>2026-03-29T08:43:37.996Z</time></trkpt><trkpt lat="43.80047023073386" lon="10.939649173560868"><ele>220.0</ele><time>2026-03-29T08:43:42.996Z</time></trkpt><trkpt lat="43.80053150328041" lon="10.939701707092906"><ele>221.1428571428571</ele><time>2026-03-29T08:43:47.996Z</time></trkpt><trkpt lat="43.800601066298974" lon="10.939738553398717"><ele>222.28571428571428</ele><time>2026-03-29T08:43:52.996Z</time></trkpt><trkpt lat="43.80066274967088" lon="10.939797778789364"><ele>223.42857142857142</ele><time>2026-03-29T08:43:57.996Z</time></trkpt><trkpt lat="43.80072116660957" lon="10.939842406926344"><ele>224.57142857142856</ele><time>2026-03-29T08:44:02.996Z</time></trkpt><trkpt lat="43.80078285540873" lon="10.939890276101554"><ele>225.7142857142857</ele><time>2026-03-29T08:44:07.996Z</time></trkpt><trkpt lat="43.80085253778866" lon="10.939935877435683"><ele>226.85714285714283</ele><time>2026-03-29T08:44:13.996Z</time></trkpt><trkpt lat="43.800910227817624" lon="10.939982257261482"><ele>228.0</ele><time>2026-03-29T08:44:19.996Z</time></trkpt><trkpt lat="43.800972403647634" lon="10.940037667212936"><ele>229.0</ele><time>2026-03-29T08:44:25.996Z</time></trkpt><trkpt lat="43.80103349680515" lon="10.940092003736657"><ele>229.99999999999997</ele><time>2026-03-29T08:44:30.997Z</time></trkpt><trkpt lat="43.80109025222728" lon="10.940135202432684"><ele>231.0</ele><time>2026-03-29T08:44:35.997Z</time></trkpt><trkpt lat="43.801140598365436" lon="10.94020091916361"><ele>232.0</ele><time>2026-03-29T08:44:42.997Z</time></trkpt><trkpt lat="43.80118570348852" lon="10.940274596292536"><ele>232.99999999999997</ele><time>2026-03-29T08:44:49.996Z</time></trkpt><trkpt lat="43.80121920023506" lon="10.940354926067267"><ele>234.0</ele><time>2026-03-29T08:44:54.996Z</time></trkpt><trkpt lat="43.80125503492992" lon="10.940457462259154"><ele>235.0</ele><time>2026-03-29T08:45:02.996Z</time></trkpt><trkpt lat="43.80123644664424" lon="10.940548486997338"><ele>235.0</ele><time>2026-03-29T08:45:10.996Z</time></trkpt><trkpt lat="43.80116841835141" lon="10.940553264374705"><ele>234.99999999999997</ele><time>2026-03-29T08:45:19.996Z</time></trkpt><trkpt lat="43.80110868289695" lon="10.940517878073567"><ele>235.0</ele><time>2026-03-29T08:45:24.996Z</time></trkpt><trkpt lat="43.80104623606383" lon="10.940501951559451"><ele>235.0</ele><time>2026-03-29T08:45:29.996Z</time></trkpt><trkpt lat="43.801015176402835" lon="10.940582020297429"><ele>234.99999999999997</ele><time>2026-03-29T08:45:34.996Z</time></trkpt><trkpt lat="43.801045954742044" lon="10.940669794203775"><ele>235.0</ele><time>2026-03-29T08:45:39.996Z</time></trkpt><trkpt lat="43.80108171430951" lon="10.940741606072281"><ele>235.0</ele><time>2026-03-29T08:45:43.996Z</time></trkpt><trkpt lat="43.80114723718615" lon="10.940793811299706"><ele>235.0</ele><time>2026-03-29T08:45:48.996Z</time></trkpt><trkpt lat="43.80119590990651" lon="10.940862347056658"><ele>234.99999999999997</ele><time>2026-03-29T08:45:53.996Z</time></trkpt><trkpt lat="43.80124193142691" lon="10.940938895146946"><ele>235.0</ele><time>2026-03-29T08:46:00.995Z</time></trkpt><trkpt lat="43.80127227493802" lon="10.941026743175113"><ele>235.0</ele><time>2026-03-29T08:46:06.995Z</time></trkpt><trkpt lat="43.801313681066276" lon="10.941099409009635"><ele>234.99999999999997</ele><time>2026-03-29T08:46:12.995Z</time></trkpt><trkpt lat="43.80135330276411" lon="10.941171414715544"><ele>235.0</ele><time>2026-03-29T08:46:17.995Z</time></trkpt><trkpt lat="43.801408093893585" lon="10.941230064983033"><ele>235.0</ele><time>2026-03-29T08:46:24.995Z</time></trkpt><trkpt lat="43.80144816121739" lon="10.941303412620028"><ele>238.14285714285714</ele><time>2026-03-29T08:46:29.995Z</time></trkpt><trkpt lat="43.801495179399815" lon="10.941382350252187"><ele>241.28571428571428</ele><time>2026-03-29T08:46:35.997Z</time></trkpt><trkpt lat="43.80153108954864" lon="10.94145567763105"><ele>244.42857142857142</ele><time>2026-03-29T08:46:42.997Z</time></trkpt><trkpt lat="43.8015677925695" lon="10.941548353002"><ele>247.57142857142856</ele><time>2026-03-29T08:46:48.997Z</time></trkpt><trkpt lat="43.80159101892398" lon="10.941646331744368"><ele>250.71428571428572</ele><time>2026-03-29T08:46:55.997Z</time></trkpt><trkpt lat="43.8016234475697" lon="10.941722400457332"><ele>253.85714285714283</ele><time>2026-03-29T08:47:00.997Z</time></trkpt><trkpt lat="43.801649265590854" lon="10.941810850800987"><ele>257.0</ele><time>2026-03-29T08:47:06.997Z</time></trkpt><trkpt lat="43.801678859449545" lon="10.941889907930793"><ele>255.85714285714283</ele><time>2026-03-29T08:47:11.997Z</time></trkpt><trkpt lat="43.801732358559086" lon="10.941966730104372"><ele>254.71428571428572</ele><time>2026-03-29T08:47:17.997Z</time></trkpt><trkpt lat="43.80176938039789" lon="10.942047647589202"><ele>253.57142857142856</ele><time>2026-03-29T08:47:22.997Z</time></trkpt><trkpt lat="43.80180947756255" lon="10.942133900188077"><ele>252.42857142857142</ele><time>2026-03-29T08:47:27.997Z</time></trkpt><trkpt lat="43.80184220780882" lon="10.94222342727669"><ele>251.28571428571428</ele><time>2026-03-29T08:47:32.997Z</time></trkpt><trkpt lat="43.801849578340565" lon="10.942326437422254"><ele>250.14285714285714</ele><time>2026-03-29T08:47:37.997Z</time></trkpt><trkpt lat="43.801856111566025" lon="10.942421163485427"><ele>249.0</ele><time>2026-03-29T08:47:43.996Z</time></trkpt><trkpt lat="43.80187422118799" lon="10.94251369258027"><ele>251.28571428571428</ele><time>2026-03-29T08:47:49.996Z</time></trkpt><trkpt lat="43.80189680494545" lon="10.942611675640826"><ele>253.57142857142856</ele><time>2026-03-29T08:47:55.996Z</time></trkpt><trkpt lat="43.80192401638046" lon="10.942694192128382"><ele>255.85714285714283</ele><time>2026-03-29T08:48:00.996Z</time></trkpt><trkpt lat="43.80195411683851" lon="10.942772450405032"><ele>258.1428571428571</ele><time>2026-03-29T08:48:05.996Z</time></trkpt><trkpt lat="43.80196705786272" lon="10.942869780430723"><ele>260.42857142857144</ele><time>2026-03-29T08:48:10.996Z</time></trkpt><trkpt lat="43.80198784418185" lon="10.942965177883607"><ele>262.71428571428567</ele><time>2026-03-29T08:48:15.996Z</time></trkpt><trkpt lat="43.8020097276787" lon="10.943065390352091"><ele>265.0</ele><time>2026-03-29T08:48:20.996Z</time></trkpt><trkpt lat="43.80204342695122" lon="10.943157759117812"><ele>264.99999999999994</ele><time>2026-03-29T08:48:25.996Z</time></trkpt><trkpt lat="43.8020662629693" lon="10.94325990258532"><ele>265.0</ele><time>2026-03-29T08:48:30.996Z</time></trkpt><trkpt lat="43.80209488047191" lon="10.943357305011622"><ele>265.0</ele><time>2026-03-29T08:48:35.996Z</time></trkpt><trkpt lat="43.8021229254801" lon="10.943437138759826"><ele>265.0</ele><time>2026-03-29T08:48:39.996Z</time></trkpt><trkpt lat="43.80215852495156" lon="10.94352714311662"><ele>265.0</ele><time>2026-03-29T08:48:44.996Z</time></trkpt><trkpt lat="43.8021845967594" lon="10.94361347925661"><ele>264.99999999999994</ele><time>2026-03-29T08:48:48.997Z</time></trkpt><trkpt lat="43.80221200857671" lon="10.94370008344635"><ele>265.0</ele><time>2026-03-29T08:48:53.997Z</time></trkpt><trkpt lat="43.80224723614802" lon="10.943788277959872"><ele>267.4285714285714</ele><time>2026-03-29T08:48:58.996Z</time></trkpt><trkpt lat="43.80225824745606" lon="10.943885318583341"><ele>269.85714285714283</ele><time>2026-03-29T08:49:03.996Z</time></trkpt><trkpt lat="43.802279997603385" lon="10.943969573120734"><ele>272.2857142857143</ele><time>2026-03-29T08:49:07.996Z</time></trkpt><trkpt lat="43.802284061186604" lon="10.944068088127002"><ele>274.71428571428567</ele><time>2026-03-29T08:49:12.996Z</time></trkpt><trkpt lat="43.80227457746594" lon="10.944164568650667"><ele>277.1428571428571</ele><time>2026-03-29T08:49:17.996Z</time></trkpt><trkpt lat="43.80224577380669" lon="10.944251348503744"><ele>279.57142857142856</ele><time>2026-03-29T08:49:22.996Z</time></trkpt><trkpt lat="43.80222922374118" lon="10.944348581287601"><ele>282.0</ele><time>2026-03-29T08:49:27.996Z</time></trkpt><trkpt lat="43.80222708432885" lon="10.944450268468936"><ele>284.0</ele><time>2026-03-29T08:49:32.996Z</time></trkpt><trkpt lat="43.8022144068346" lon="10.944549142887228"><ele>286.0</ele><time>2026-03-29T08:49:37.996Z</time></trkpt><trkpt lat="43.802207832829495" lon="10.944637181735985"><ele>288.0</ele><time>2026-03-29T08:49:41.995Z</time></trkpt><trkpt lat="43.80220554055424" lon="10.94473125883571"><ele>290.0</ele><time>2026-03-29T08:49:45.995Z</time></trkpt><trkpt lat="43.80220697610282" lon="10.944821853703893"><ele>292.0</ele><time>2026-03-29T08:49:50.995Z</time></trkpt><trkpt lat="43.802213045621905" lon="10.944912456024896"><ele>294.0</ele><time>2026-03-29T08:49:55.995Z</time></trkpt><trkpt lat="43.802219975252875" lon="10.945003066374818"><ele>296.0</ele><time>2026-03-29T08:49:59.995Z</time></trkpt><trkpt lat="43.802238181683585" lon="10.945100510933099"><ele>297.7142857142857</ele><time>2026-03-29T08:50:05.995Z</time></trkpt><trkpt lat="43.80225148949459" lon="10.945190847201564"><ele>299.42857142857144</ele><time>2026-03-29T08:50:09.995Z</time></trkpt><trkpt lat="43.802255018975956" lon="10.945284276213245"><ele>301.1428571428571</ele><time>2026-03-29T08:50:16.995Z</time></trkpt><trkpt lat="43.8022644970344" lon="10.945379850328838"><ele>302.8571428571429</ele><time>2026-03-29T08:50:22.995Z</time></trkpt><trkpt lat="43.8022808207418" lon="10.945476252971478"><ele>304.57142857142856</ele><time>2026-03-29T08:50:29.995Z</time></trkpt><trkpt lat="43.802301913551034" lon="10.945566979432911"><ele>306.2857142857143</ele><time>2026-03-29T08:50:35.995Z</time></trkpt><trkpt lat="43.80230705079983" lon="10.945668010591408"><ele>308.0</ele><time>2026-03-29T08:50:41.995Z</time></trkpt><trkpt lat="43.80229428766912" lon="10.945771266886636"><ele>308.0</ele><time>2026-03-29T08:50:48.996Z</time></trkpt><trkpt lat="43.802279364421906" lon="10.945864796028289"><ele>308.0</ele><time>2026-03-29T08:50:56.996Z</time></trkpt><trkpt lat="43.80225396950486" lon="10.945954588742627"><ele>308.0</ele><time>2026-03-29T08:51:03.996Z</time></trkpt><trkpt lat="43.802222608451586" lon="10.946037649850682"><ele>308.0</ele><time>2026-03-29T08:51:11.996Z</time></trkpt><trkpt lat="43.802176056043514" lon="10.946117442101476"><ele>308.0</ele><time>2026-03-29T08:51:18.996Z</time></trkpt><trkpt lat="43.80215850525468" lon="10.946211668687784"><ele>308.0</ele><time>2026-03-29T08:51:25.996Z</time></trkpt><trkpt lat="43.80217648607142" lon="10.94630469433658"><ele>308.0</ele><time>2026-03-29T08:51:31.996Z</time></trkpt><trkpt lat="43.80219550955518" lon="10.94640416684419"><ele>310.2857142857143</ele><time>2026-03-29T08:51:38.996Z</time></trkpt><trkpt lat="43.802245584932436" lon="10.946470811469407"><ele>312.57142857142856</ele><time>2026-03-29T08:51:45.996Z</time></trkpt><trkpt lat="43.802306988985656" lon="10.946514071716829"><ele>314.8571428571429</ele><time>2026-03-29T08:51:50.996Z</time></trkpt><trkpt lat="43.80235448000091" lon="10.946572595383914"><ele>317.1428571428571</ele><time>2026-03-29T08:51:54.996Z</time></trkpt><trkpt lat="43.80241470036465" lon="10.946629600416582"><ele>319.42857142857144</ele><time>2026-03-29T08:52:00.995Z</time></trkpt><trkpt lat="43.80247265262662" lon="10.946667477465924"><ele>321.7142857142857</ele><time>2026-03-29T08:52:05.995Z</time></trkpt><trkpt lat="43.80252711320659" lon="10.946720823398387"><ele>324.0</ele><time>2026-03-29T08:52:10.995Z</time></trkpt><trkpt lat="43.802581809886696" lon="10.946767976168182"><ele>326.14285714285717</ele><time>2026-03-29T08:52:16.995Z</time></trkpt><trkpt lat="43.8026391886695" lon="10.946817543355863"><ele>328.2857142857143</ele><time>2026-03-29T08:52:20.995Z</time></trkpt><trkpt lat="43.80269874763979" lon="10.946885896240161"><ele>330.42857142857144</ele><time>2026-03-29T08:52:25.995Z</time></trkpt><trkpt lat="43.80275869806794" lon="10.946942408063624"><ele>332.57142857142856</ele><time>2026-03-29T08:52:30.995Z</time></trkpt><trkpt lat="43.80281251700441" lon="10.946988429383264"><ele>334.7142857142857</ele><time>2026-03-29T08:52:35.995Z</time></trkpt><trkpt lat="43.80286667198181" lon="10.947052603865396"><ele>336.85714285714283</ele><time>2026-03-29T08:52:40.995Z</time></trkpt><trkpt lat="43.80291875261546" lon="10.947115391031774"><ele>339.0</ele><time>2026-03-29T08:52:46.995Z</time></trkpt><trkpt lat="43.80296757998784" lon="10.94717484664313"><ele>339.57142857142856</ele><time>2026-03-29T08:52:51.995Z</time></trkpt><trkpt lat="43.80301909048802" lon="10.947239466539072"><ele>340.14285714285717</ele><time>2026-03-29T08:52:58.996Z</time></trkpt><trkpt lat="43.803058851625075" lon="10.947307467790313"><ele>340.7142857142857</ele><time>2026-03-29T08:53:04.996Z</time></trkpt><trkpt lat="43.8030995545016" lon="10.94737815301904"><ele>341.2857142857143</ele><time>2026-03-29T08:53:09.996Z</time></trkpt><trkpt lat="43.80313521244669" lon="10.947465191285842"><ele>341.8571428571429</ele><time>2026-03-29T08:53:16.996Z</time></trkpt><trkpt lat="43.803195341414046" lon="10.947531466279282"><ele>342.42857142857144</ele><time>2026-03-29T08:53:23.996Z</time></trkpt><trkpt lat="43.80323741499993" lon="10.947611860119975"><ele>343.0</ele><time>2026-03-29T08:53:31.996Z</time></trkpt><trkpt lat="43.803291018532214" lon="10.947677446627722"><ele>345.42857142857144</ele><time>2026-03-29T08:53:36.996Z</time></trkpt><trkpt lat="43.80333961177048" lon="10.947749178936437"><ele>347.8571428571429</ele><time>2026-03-29T08:53:42.995Z</time></trkpt><trkpt lat="43.80339612936123" lon="10.947808100064414"><ele>350.2857142857143</ele><time>2026-03-29T08:53:48.995Z</time></trkpt><trkpt lat="43.803446494964895" lon="10.947863644379568"><ele>352.7142857142857</ele><time>2026-03-29T08:53:54.995Z</time></trkpt><trkpt lat="43.80350690516938" lon="10.947925246696725"><ele>355.14285714285717</ele><time>2026-03-29T08:54:01.995Z</time></trkpt><trkpt lat="43.80356121168008" lon="10.947979298638748"><ele>357.57142857142856</ele><time>2026-03-29T08:54:06.995Z</time></trkpt><trkpt lat="43.803618950849376" lon="10.948042508316487"><ele>360.0</ele><time>2026-03-29T08:54:12.995Z</time></trkpt><trkpt lat="43.80367239323408" lon="10.94809359800502"><ele>360.0</ele><time>2026-03-29T08:54:17.995Z</time></trkpt><trkpt lat="43.80372912835655" lon="10.948155022944835"><ele>360.0</ele><time>2026-03-29T08:54:22.995Z</time></trkpt><trkpt lat="43.80378779633801" lon="10.94822043230728"><ele>360.0</ele><time>2026-03-29T08:54:27.995Z</time></trkpt><trkpt lat="43.80383944590528" lon="10.948277936123155"><ele>360.0</ele><time>2026-03-29T08:54:32.995Z</time></trkpt><trkpt lat="43.80388490203004" lon="10.948345163488371"><ele>360.0</ele><time>2026-03-29T08:54:37.995Z</time></trkpt><trkpt lat="43.80393919887224" lon="10.948409386426873"><ele>360.0</ele><time>2026-03-29T08:54:43.995Z</time></trkpt><trkpt lat="43.803978415454495" lon="10.94848411224439"><ele>360.0</ele><time>2026-03-29T08:54:49.994Z</time></trkpt><trkpt lat="43.803918383979735" lon="10.948519224168333"><ele>360.0</ele><time>2026-03-29T08:54:55.994Z</time></trkpt><trkpt lat="43.80387484701974" lon="10.948450951624531"><ele>360.0</ele><time>2026-03-29T08:55:02.995Z</time></trkpt><trkpt lat="43.80381273303516" lon="10.948423952628799"><ele>360.0</ele><time>2026-03-29T08:55:09.995Z</time></trkpt><trkpt lat="43.80374407458186" lon="10.948385781015828"><ele>360.0</ele><time>2026-03-29T08:55:15.996Z</time></trkpt><trkpt lat="43.80368058370391" lon="10.948337432256034"><ele>360.0</ele><time>2026-03-29T08:55:23.996Z</time></trkpt><trkpt lat="43.80361109670644" lon="10.948327292889253"><ele>360.0</ele><time>2026-03-29T08:55:28.996Z</time></trkpt><trkpt lat="43.80354309763171" lon="10.948314081212647"><ele>360.0</ele><time>2026-03-29T08:55:34.995Z</time></trkpt><trkpt lat="43.80346918479264" lon="10.948339788303388"><ele>361.2857142857143</ele><time>2026-03-29T08:55:40.995Z</time></trkpt><trkpt lat="43.80341198679262" lon="10.948376581599828"><ele>362.5714285714286</ele><time>2026-03-29T08:55:45.995Z</time></trkpt><trkpt lat="43.8033900724199" lon="10.94847130178958"><ele>363.8571428571429</ele><time>2026-03-29T08:55:50.995Z</time></trkpt><trkpt lat="43.8034270385241" lon="10.948560605264749"><ele>365.1428571428571</ele><time>2026-03-29T08:55:56.995Z</time></trkpt><trkpt lat="43.80347923070596" lon="10.948617844895717"><ele>366.42857142857144</ele><time>2026-03-29T08:56:01.995Z</time></trkpt><trkpt lat="43.80353817390867" lon="10.948670757835412"><ele>367.7142857142857</ele><time>2026-03-29T08:56:07.995Z</time></trkpt><trkpt lat="43.80359789106022" lon="10.948719113426352"><ele>369.0</ele><time>2026-03-29T08:56:12.995Z</time></trkpt><trkpt lat="43.8036594210197" lon="10.948778667868988"><ele>371.1428571428571</ele><time>2026-03-29T08:56:18.995Z</time></trkpt><trkpt lat="43.80370731779259" lon="10.948836336322094"><ele>373.2857142857143</ele><time>2026-03-29T08:56:23.995Z</time></trkpt><trkpt lat="43.803757694748626" lon="10.948903076007568"><ele>375.42857142857144</ele><time>2026-03-29T08:56:30.995Z</time></trkpt><trkpt lat="43.80379712726401" lon="10.948983361425237"><ele>377.57142857142856</ele><time>2026-03-29T08:56:36.995Z</time></trkpt><trkpt lat="43.803847951350384" lon="10.949045041940165"><ele>379.7142857142857</ele><time>2026-03-29T08:56:42.994Z</time></trkpt><trkpt lat="43.803920763044324" lon="10.949082557642843"><ele>381.85714285714283</ele><time>2026-03-29T08:56:47.994Z</time></trkpt><trkpt lat="43.803983747957126" lon="10.949107739575695"><ele>384.0</ele><time>2026-03-29T08:56:52.994Z</time></trkpt><trkpt lat="43.804051066212374" lon="10.949144822845568"><ele>383.99999999999994</ele><time>2026-03-29T08:56:56.994Z</time></trkpt><trkpt lat="43.80410632593711" lon="10.949191908644151"><ele>384.0</ele><time>2026-03-29T08:57:00.994Z</time></trkpt><trkpt lat="43.80416829994967" lon="10.949256293868881"><ele>384.0</ele><time>2026-03-29T08:57:05.995Z</time></trkpt><trkpt lat="43.80421976621144" lon="10.949344566596698"><ele>384.0</ele><time>2026-03-29T08:57:10.996Z</time></trkpt><trkpt lat="43.80426803741285" lon="10.949402961006893"><ele>384.0</ele><time>2026-03-29T08:57:14.995Z</time></trkpt><trkpt lat="43.80432782825952" lon="10.94947691117847"><ele>383.99999999999994</ele><time>2026-03-29T08:57:19.995Z</time></trkpt><trkpt lat="43.8043719046411" lon="10.949541768625808"><ele>384.0</ele><time>2026-03-29T08:57:23.995Z</time></trkpt><trkpt lat="43.804424258161966" lon="10.949623662515847"><ele>384.4285714285714</ele><time>2026-03-29T08:57:28.995Z</time></trkpt><trkpt lat="43.804476717343896" lon="10.949689765621118"><ele>384.85714285714283</ele><time>2026-03-29T08:57:33.995Z</time></trkpt><trkpt lat="43.80452503744619" lon="10.949766926310401"><ele>385.2857142857143</ele><time>2026-03-29T08:57:38.995Z</time></trkpt><trkpt lat="43.80457384404392" lon="10.9498367206013"><ele>385.71428571428567</ele><time>2026-03-29T08:57:42.995Z</time></trkpt><trkpt lat="43.80462084516871" lon="10.949899586747856"><ele>386.14285714285717</ele><time>2026-03-29T08:57:46.995Z</time></trkpt><trkpt lat="43.804660418064216" lon="10.949979309724192"><ele>386.57142857142856</ele><time>2026-03-29T08:57:50.995Z</time></trkpt><trkpt lat="43.80471018879819" lon="10.950044884381864"><ele>387.0</ele><time>2026-03-29T08:57:54.995Z</time></trkpt><trkpt lat="43.80475289241457" lon="10.950114811374362"><ele>389.0</ele><time>2026-03-29T08:57:58.995Z</time></trkpt><trkpt lat="43.804802215735165" lon="10.95018981151134"><ele>391.0</ele><time>2026-03-29T08:58:03.995Z</time></trkpt><trkpt lat="43.804850962334484" lon="10.9502740488964"><ele>393.0</ele><time>2026-03-29T08:58:09.995Z</time></trkpt><trkpt lat="43.804880690410506" lon="10.950351293029621"><ele>395.0</ele><time>2026-03-29T08:58:13.995Z</time></trkpt><trkpt lat="43.8049116605592" lon="10.950427679360656"><ele>397.0</ele><time>2026-03-29T08:58:17.995Z</time></trkpt><trkpt lat="43.804945761925964" lon="10.950508771410702"><ele>399.0</ele><time>2026-03-29T08:58:23.994Z</time></trkpt><trkpt lat="43.80497513312441" lon="10.95059482368864"><ele>401.0</ele><time>2026-03-29T08:58:29.994Z</time></trkpt><trkpt lat="43.805005717379416" lon="10.950690508474546"><ele>401.0</ele><time>2026-03-29T08:58:35.994Z</time></trkpt><trkpt lat="43.805033707900144" lon="10.950777678393528"><ele>401.0</ele><time>2026-03-29T08:58:41.994Z</time></trkpt><trkpt lat="43.805054917996145" lon="10.950866258474752"><ele>401.0</ele><time>2026-03-29T08:58:48.994Z</time></trkpt><trkpt lat="43.80507780261268" lon="10.950952570923143"><ele>401.0</ele><time>2026-03-29T08:58:56.994Z</time></trkpt><trkpt lat="43.80509939924108" lon="10.95104641044215"><ele>401.0</ele><time>2026-03-29T08:59:02.994Z</time></trkpt><trkpt lat="43.80511517339252" lon="10.951135629706593"><ele>401.0</ele><time>2026-03-29T08:59:07.994Z</time></trkpt><trkpt lat="43.805150138772206" lon="10.951223263624183"><ele>401.0</ele><time>2026-03-29T08:59:13.995Z</time></trkpt><trkpt lat="43.805182787684956" lon="10.951310138994257"><ele>401.42857142857144</ele><time>2026-03-29T08:59:20.994Z</time></trkpt><trkpt lat="43.80520638212331" lon="10.951402443951178"><ele>401.8571428571429</ele><time>2026-03-29T08:59:26.994Z</time></trkpt><trkpt lat="43.80523959399554" lon="10.951477811899977"><ele>402.2857142857143</ele><time>2026-03-29T08:59:30.994Z</time></trkpt><trkpt lat="43.805268738575464" lon="10.951556047734554"><ele>402.7142857142857</ele><time>2026-03-29T08:59:34.994Z</time></trkpt><trkpt lat="43.80529925937514" lon="10.951645528624972"><ele>403.1428571428571</ele><time>2026-03-29T08:59:40.994Z</time></trkpt><trkpt lat="43.8052991182544" lon="10.951739805962147"><ele>403.57142857142856</ele><time>2026-03-29T08:59:45.994Z</time></trkpt><trkpt lat="43.805264005604194" lon="10.95181646680507"><ele>404.0</ele><time>2026-03-29T08:59:50.994Z</time></trkpt><trkpt lat="43.805225057896806" lon="10.95188596472649"><ele>405.7142857142857</ele><time>2026-03-29T08:59:57.994Z</time></trkpt><trkpt lat="43.80516717659198" lon="10.951961142503741"><ele>407.42857142857144</ele><time>2026-03-29T09:00:06.994Z</time></trkpt><trkpt lat="43.80511276540342" lon="10.95201810188377"><ele>409.1428571428571</ele><time>2026-03-29T09:00:13.994Z</time></trkpt><trkpt lat="43.80508843920297" lon="10.95210596624391"><ele>410.8571428571429</ele><time>2026-03-29T09:00:19.994Z</time></trkpt><trkpt lat="43.80508441382693" lon="10.95220302018983"><ele>412.5714285714286</ele><time>2026-03-29T09:00:24.994Z</time></trkpt><trkpt lat="43.805085192110695" lon="10.952291167622027"><ele>414.2857142857143</ele><time>2026-03-29T09:00:29.994Z</time></trkpt><trkpt lat="43.8050901770403" lon="10.952388053445281"><ele>416.0</ele><time>2026-03-29T09:00:36.993Z</time></trkpt><trkpt lat="43.805098344579044" lon="10.952482551092013"><ele>416.7142857142857</ele><time>2026-03-29T09:00:41.993Z</time></trkpt><trkpt lat="43.80511435422311" lon="10.952579219755087"><ele>417.42857142857144</ele><time>2026-03-29T09:00:47.993Z</time></trkpt><trkpt lat="43.80515925467018" lon="10.952647277790996"><ele>418.14285714285717</ele><time>2026-03-29T09:00:53.993Z</time></trkpt><trkpt lat="43.80523294628717" lon="10.952632085575106"><ele>418.8571428571429</ele><time>2026-03-29T09:00:58.993Z</time></trkpt><trkpt lat="43.80529285272773" lon="10.952600449024727"><ele>419.57142857142856</ele><time>2026-03-29T09:01:04.993Z</time></trkpt><trkpt lat="43.805361924088864" lon="10.952589087146755"><ele>420.28571428571433</ele><time>2026-03-29T09:01:10.993Z</time></trkpt><trkpt lat="43.80543038339536" lon="10.952572309968092"><ele>421.0</ele><time>2026-03-29T09:01:17.994Z</time></trkpt><trkpt lat="43.805468592886804" lon="10.95264842362079"><ele>424.28571428571433</ele><time>2026-03-29T09:01:22.994Z</time></trkpt><trkpt lat="43.80550828347974" lon="10.952716607716242"><ele>427.57142857142856</ele><time>2026-03-29T09:01:30.994Z</time></trkpt><trkpt lat="43.805547761459366" lon="10.952798179007928"><ele>430.8571428571429</ele><time>2026-03-29T09:01:37.994Z</time></trkpt><trkpt lat="43.80558102615744" lon="10.952875544142678"><ele>434.14285714285717</ele><time>2026-03-29T09:01:42.994Z</time></trkpt><trkpt lat="43.80561924641359" lon="10.952945257402265"><ele>437.42857142857144</ele><time>2026-03-29T09:01:48.994Z</time></trkpt><trkpt lat="43.80567152167504" lon="10.95302646838224"><ele>440.7142857142857</ele><time>2026-03-29T09:01:54.993Z</time></trkpt><trkpt lat="43.805707089659904" lon="10.95310007475578"><ele>444.0</ele><time>2026-03-29T09:02:00.993Z</time></trkpt><trkpt lat="43.80576035969027" lon="10.95317256920997"><ele>444.0</ele><time>2026-03-29T09:02:04.993Z</time></trkpt><trkpt lat="43.805812291402695" lon="10.953230641096392"><ele>444.0</ele><time>2026-03-29T09:02:09.993Z</time></trkpt><trkpt lat="43.80587639427479" lon="10.95328392025671"><ele>444.0</ele><time>2026-03-29T09:02:14.993Z</time></trkpt><trkpt lat="43.80593574387601" lon="10.953345170439666"><ele>444.0</ele><time>2026-03-29T09:02:19.993Z</time></trkpt><trkpt lat="43.805998506575236" lon="10.953395692294652"><ele>444.0</ele><time>2026-03-29T09:02:25.993Z</time></trkpt><trkpt lat="43.806022759833894" lon="10.953481473868766"><ele>444.0</ele><time>2026-03-29T09:02:35.993Z</time></trkpt><trkpt lat="43.80608843582636" lon="10.953580598618537"><ele>444.85714285714283</ele><time>2026-03-29T09:02:40.993Z</time></trkpt><trkpt lat="43.80614081695787" lon="10.953634709674356"><ele>445.7142857142858</ele><time>2026-03-29T09:02:47.993Z</time></trkpt><trkpt lat="43.80618015183116" lon="10.95371953221293"><ele>446.5714285714286</ele><time>2026-03-29T09:02:55.993Z</time></trkpt><trkpt lat="43.80622141022035" lon="10.953818143926592"><ele>447.42857142857144</ele><time>2026-03-29T09:03:02.992Z</time></trkpt><trkpt lat="43.806250655052565" lon="10.953902732831663"><ele>448.28571428571433</ele><time>2026-03-29T09:03:08.992Z</time></trkpt><trkpt lat="43.80627341693449" lon="10.953998352046389"><ele>449.1428571428572</ele><time>2026-03-29T09:03:14.992Z</time></trkpt><trkpt lat="43.806276250253994" lon="10.954096765432496"><ele>450.00000000000006</ele><time>2026-03-29T09:03:21.992Z</time></trkpt><trkpt lat="43.80628972374352" lon="10.95419087943586"><ele>452.28571428571433</ele><time>2026-03-29T09:03:29.994Z</time></trkpt><trkpt lat="43.806296636260356" lon="10.954288702145327"><ele>454.57142857142856</ele><time>2026-03-29T09:03:35.994Z</time></trkpt><trkpt lat="43.80631082849024" lon="10.954389052292523"><ele>456.8571428571429</ele><time>2026-03-29T09:03:43.994Z</time></trkpt><trkpt lat="43.80632904472013" lon="10.95447709012667"><ele>459.14285714285717</ele><time>2026-03-29T09:03:50.994Z</time></trkpt><trkpt lat="43.80635591267997" lon="10.95456964456131"><ele>461.42857142857144</ele><time>2026-03-29T09:03:56.993Z</time></trkpt><trkpt lat="43.80639412707285" lon="10.954644238412913"><ele>463.7142857142857</ele><time>2026-03-29T09:04:01.993Z</time></trkpt><trkpt lat="43.806443976069914" lon="10.954716844804112"><ele>466.0</ele><time>2026-03-29T09:04:06.993Z</time></trkpt><trkpt lat="43.80649464768512" lon="10.954780425734196"><ele>466.0</ele><time>2026-03-29T09:04:11.993Z</time></trkpt><trkpt lat="43.806542622502825" lon="10.95484171784634"><ele>466.0</ele><time>2026-03-29T09:04:16.993Z</time></trkpt><trkpt lat="43.80658794558749" lon="10.954910279919147"><ele>466.0</ele><time>2026-03-29T09:04:20.993Z</time></trkpt><trkpt lat="43.806618914340504" lon="10.95501892670035"><ele>466.0</ele><time>2026-03-29T09:04:26.993Z</time></trkpt><trkpt lat="43.80663237955574" lon="10.955118523020575"><ele>466.0</ele><time>2026-03-29T09:04:34.993Z</time></trkpt><trkpt lat="43.806645144475844" lon="10.955212939696123"><ele>466.0</ele><time>2026-03-29T09:04:39.993Z</time></trkpt><trkpt lat="43.80666277641988" lon="10.955314496856113"><ele>466.0</ele><time>2026-03-29T09:04:44.993Z</time></trkpt><trkpt lat="43.80667798842928" lon="10.955404893850627"><ele>466.8571428571429</ele><time>2026-03-29T09:04:50.993Z</time></trkpt><trkpt lat="43.8067012571418" lon="10.955489282502139"><ele>467.71428571428567</ele><time>2026-03-29T09:04:55.993Z</time></trkpt><trkpt lat="43.80674422620206" lon="10.955577065392394"><ele>468.57142857142856</ele><time>2026-03-29T09:05:00.993Z</time></trkpt><trkpt lat="43.80679409427638" lon="10.955650430287207"><ele>469.42857142857144</ele><time>2026-03-29T09:05:06.992Z</time></trkpt><trkpt lat="43.80684061182764" lon="10.955713235491988"><ele>470.28571428571433</ele><time>2026-03-29T09:05:16.992Z</time></trkpt><trkpt lat="43.80683846252287" lon="10.955800558284649"><ele>471.1428571428571</ele><time>2026-03-29T09:05:22.992Z</time></trkpt><trkpt lat="43.80682577441484" lon="10.955894740251608"><ele>472.0</ele><time>2026-03-29T09:05:27.992Z</time></trkpt><trkpt lat="43.80683664543099" lon="10.95598090561946"><ele>474.1428571428571</ele><time>2026-03-29T09:05:34.993Z</time></trkpt><trkpt lat="43.80686896044911" lon="10.95607822210265"><ele>476.28571428571433</ele><time>2026-03-29T09:05:42.992Z</time></trkpt><trkpt lat="43.8068693790203" lon="10.956175804556857"><ele>478.42857142857144</ele><time>2026-03-29T09:05:50.992Z</time></trkpt><trkpt lat="43.806887909910536" lon="10.95627585007181"><ele>480.57142857142856</ele><time>2026-03-29T09:05:57.992Z</time></trkpt><trkpt lat="43.80685571498931" lon="10.956373197474226"><ele>482.71428571428567</ele><time>2026-03-29T09:06:06.992Z</time></trkpt><trkpt lat="43.80686884725745" lon="10.956463829657327"><ele>484.8571428571429</ele><time>2026-03-29T09:06:13.992Z</time></trkpt><trkpt lat="43.80690128205591" lon="10.956554725928232"><ele>487.0</ele><time>2026-03-29T09:06:18.992Z</time></trkpt><trkpt lat="43.80689095115243" lon="10.956648928632925"><ele>487.0</ele><time>2026-03-29T09:06:25.992Z</time></trkpt><trkpt lat="43.806828335547834" lon="10.956663885976154"><ele>487.0</ele><time>2026-03-29T09:06:31.992Z</time></trkpt><trkpt lat="43.806815395014965" lon="10.956762926069743"><ele>487.0</ele><time>2026-03-29T09:06:38.992Z</time></trkpt><trkpt lat="43.8068496711486" lon="10.956845043868071"><ele>487.0</ele><time>2026-03-29T09:06:44.992Z</time></trkpt><trkpt lat="43.80685951526991" lon="10.956943219850247"><ele>487.0</ele><time>2026-03-29T09:06:50.991Z</time></trkpt><trkpt lat="43.80691392934963" lon="10.957015338837184"><ele>487.0</ele><time>2026-03-29T09:06:56.991Z</time></trkpt><trkpt lat="43.80697350023854" lon="10.957067300805273"><ele>487.0</ele><time>2026-03-29T09:07:02.991Z</time></trkpt><trkpt lat="43.80704117010754" lon="10.957133143062542"><ele>488.14285714285717</ele><time>2026-03-29T09:07:08.991Z</time></trkpt><trkpt lat="43.80707353135646" lon="10.95722313777151"><ele>489.2857142857142</ele><time>2026-03-29T09:07:13.991Z</time></trkpt><trkpt lat="43.80712920448956" lon="10.957277643891752"><ele>490.4285714285714</ele><time>2026-03-29T09:07:18.991Z</time></trkpt><trkpt lat="43.80714836168269" lon="10.957370729136002"><ele>491.57142857142856</ele><time>2026-03-29T09:07:23.991Z</time></trkpt><trkpt lat="43.807180212755156" lon="10.957458749829671"><ele>492.71428571428567</ele><time>2026-03-29T09:07:29.991Z</time></trkpt><trkpt lat="43.807174126794806" lon="10.957545651175408"><ele>493.8571428571428</ele><time>2026-03-29T09:07:35.992Z</time></trkpt><trkpt lat="43.807206207005564" lon="10.957621401346401"><ele>494.99999999999994</ele><time>2026-03-29T09:07:39.992Z</time></trkpt><trkpt lat="43.807190478541955" lon="10.957716582726924"><ele>497.1428571428571</ele><time>2026-03-29T09:07:46.992Z</time></trkpt><trkpt lat="43.807212461539514" lon="10.957811595667163"><ele>499.2857142857143</ele><time>2026-03-29T09:07:52.992Z</time></trkpt><trkpt lat="43.80723659537093" lon="10.957895359944317"><ele>501.42857142857144</ele><time>2026-03-29T09:07:57.992Z</time></trkpt><trkpt lat="43.80726933903126" lon="10.957986057575742"><ele>503.57142857142856</ele><time>2026-03-29T09:08:02.992Z</time></trkpt><trkpt lat="43.80729529662357" lon="10.958073100485699"><ele>505.7142857142858</ele><time>2026-03-29T09:08:08.992Z</time></trkpt><trkpt lat="43.80731521973143" lon="10.958161226697413"><ele>507.8571428571429</ele><time>2026-03-29T09:08:18.991Z</time></trkpt><trkpt lat="43.80732853724846" lon="10.958248020260243"><ele>510.0</ele><time>2026-03-29T09:08:25.991Z</time></trkpt><trkpt lat="43.80732563865747" lon="10.958338235720731"><ele>513.0</ele><time>2026-03-29T09:08:33.991Z</time></trkpt><trkpt lat="43.80734932391909" lon="10.95843206656591"><ele>516.0</ele><time>2026-03-29T09:08:42.991Z</time></trkpt><trkpt lat="43.80738183115878" lon="10.958513254266416"><ele>519.0</ele><time>2026-03-29T09:08:48.991Z</time></trkpt><trkpt lat="43.80740797628794" lon="10.958603417207916"><ele>522.0</ele><time>2026-03-29T09:08:54.991Z</time></trkpt><trkpt lat="43.807421942524044" lon="10.958695378927532"><ele>525.0</ele><time>2026-03-29T09:09:03.991Z</time></trkpt><trkpt lat="43.80745096916931" lon="10.958774335652206"><ele>528.0</ele><time>2026-03-29T09:09:10.991Z</time></trkpt><trkpt lat="43.80747654106991" lon="10.958869385227803"><ele>531.0</ele><time>2026-03-29T09:09:16.991Z</time></trkpt><trkpt lat="43.807517329295756" lon="10.958956468894575"><ele>531.0</ele><time>2026-03-29T09:09:23.99Z</time></trkpt><trkpt lat="43.807462072529866" lon="10.959003496653851"><ele>531.0</ele><time>2026-03-29T09:09:38.99Z</time></trkpt><trkpt lat="43.807409994920725" lon="10.958951439261908"><ele>531.0</ele><time>2026-03-29T09:09:45.991Z</time></trkpt><trkpt lat="43.80735012421942" lon="10.958906748288824"><ele>531.0</ele><time>2026-03-29T09:09:52.991Z</time></trkpt><trkpt lat="43.807298314748095" lon="10.958856321507135"><ele>531.0</ele><time>2026-03-29T09:09:58.992Z</time></trkpt><trkpt lat="43.80721864565561" lon="10.958829022588846"><ele>531.0</ele><time>2026-03-29T09:10:06.992Z</time></trkpt><trkpt lat="43.80721363424175" lon="10.958917450951027"><ele>531.0</ele><time>2026-03-29T09:10:15.991Z</time></trkpt><trkpt lat="43.8072262347566" lon="10.95900755839705"><ele>531.0</ele><time>2026-03-29T09:10:22.991Z</time></trkpt><trkpt lat="43.807249457797276" lon="10.959092076266623"><ele>531.0</ele><time>2026-03-29T09:10:29.991Z</time></trkpt><trkpt lat="43.80730593548019" lon="10.959143377833819"><ele>531.0</ele><time>2026-03-29T09:10:33.991Z</time></trkpt><trkpt lat="43.80734925702974" lon="10.959226721111504"><ele>531.0</ele><time>2026-03-29T09:10:38.991Z</time></trkpt><trkpt lat="43.80738060075419" lon="10.959303121634955"><ele>531.0</ele><time>2026-03-29T09:10:45.991Z</time></trkpt><trkpt lat="43.807417375243055" lon="10.959394246757986"><ele>531.0</ele><time>2026-03-29T09:10:52.991Z</time></trkpt><trkpt lat="43.807432433415016" lon="10.959481675489092"><ele>531.0</ele><time>2026-03-29T09:10:58.991Z</time></trkpt><trkpt lat="43.807421088776735" lon="10.959572282471028"><ele>533.8571428571429</ele><time>2026-03-29T09:11:03.991Z</time></trkpt><trkpt lat="43.80739755072004" lon="10.959655555198932"><ele>536.7142857142858</ele><time>2026-03-29T09:11:11.991Z</time></trkpt><trkpt lat="43.807350860432685" lon="10.95974127877664"><ele>539.5714285714286</ele><time>2026-03-29T09:11:20.99Z</time></trkpt><trkpt lat="43.80731909266927" lon="10.959822418382473"><ele>542.4285714285714</ele><time>2026-03-29T09:11:30.99Z</time></trkpt><trkpt lat="43.80734330098866" lon="10.959903223392253"><ele>545.2857142857142</ele><time>2026-03-29T09:11:35.99Z</time></trkpt><trkpt lat="43.80736401201351" lon="10.959988170892231"><ele>548.1428571428571</ele><time>2026-03-29T09:11:41.99Z</time></trkpt><trkpt lat="43.80738863146302" lon="10.960077699241042"><ele>551.0</ele><time>2026-03-29T09:11:48.991Z</time></trkpt><trkpt lat="43.8073995760047" lon="10.96017259931848"><ele>551.2857142857142</ele><time>2026-03-29T09:11:56.991Z</time></trkpt><trkpt lat="43.80744068681008" lon="10.960239016501223"><ele>551.5714285714286</ele><time>2026-03-29T09:12:03.991Z</time></trkpt><trkpt lat="43.807467334698984" lon="10.960323597203212"><ele>551.8571428571429</ele><time>2026-03-29T09:12:12.991Z</time></trkpt><trkpt lat="43.80752147040761" lon="10.960376268351173"><ele>552.1428571428571</ele><time>2026-03-29T09:12:19.991Z</time></trkpt><trkpt lat="43.80757923915762" lon="10.960421317058971"><ele>552.4285714285714</ele><time>2026-03-29T09:12:26.99Z</time></trkpt><trkpt lat="43.807624877280865" lon="10.960496216645243"><ele>552.7142857142857</ele><time>2026-03-29T09:12:32.99Z</time></trkpt><trkpt lat="43.80763498625081" lon="10.960590616973823"><ele>553.0</ele><time>2026-03-29T09:12:41.99Z</time></trkpt><trkpt lat="43.807671547176234" lon="10.960678157137554"><ele>553.0</ele><time>2026-03-29T09:12:48.99Z</time></trkpt><trkpt lat="43.80769681372864" lon="10.960762394639204"><ele>553.0</ele><time>2026-03-29T09:12:55.99Z</time></trkpt><trkpt lat="43.80762731290995" lon="10.960738952669109"><ele>553.0</ele><time>2026-03-29T09:13:02.99Z</time></trkpt><trkpt lat="43.80755660694127" lon="10.960783311221464"><ele>553.0</ele><time>2026-03-29T09:13:08.99Z</time></trkpt><trkpt lat="43.80752367114279" lon="10.960861169998864"><ele>553.0</ele><time>2026-03-29T09:13:13.99Z</time></trkpt><trkpt lat="43.80754570856257" lon="10.960951620967833"><ele>553.0</ele><time>2026-03-29T09:13:19.99Z</time></trkpt><trkpt lat="43.80752818440223" lon="10.961044270867344"><ele>553.0</ele><time>2026-03-29T09:13:26.99Z</time></trkpt><trkpt lat="43.807487007863685" lon="10.96111486289027"><ele>555.2857142857143</ele><time>2026-03-29T09:13:33.989Z</time></trkpt><trkpt lat="43.80749300498075" lon="10.961204356944386"><ele>557.5714285714286</ele><time>2026-03-29T09:13:39.989Z</time></trkpt><trkpt lat="43.80754959165193" lon="10.961245053034615"><ele>559.8571428571429</ele><time>2026-03-29T09:13:45.989Z</time></trkpt><trkpt lat="43.80761282432897" lon="10.961294555131255"><ele>562.1428571428571</ele><time>2026-03-29T09:13:55.991Z</time></trkpt><trkpt lat="43.8076496679006" lon="10.961375466163506"><ele>564.4285714285714</ele><time>2026-03-29T09:14:02.991Z</time></trkpt><trkpt lat="43.80765738936343" lon="10.961468495019286"><ele>566.7142857142858</ele><time>2026-03-29T09:14:07.991Z</time></trkpt><trkpt lat="43.807704517559685" lon="10.961531987834196"><ele>569.0</ele><time>2026-03-29T09:14:12.991Z</time></trkpt><trkpt lat="43.807764612994845" lon="10.961570018829228"><ele>569.0000000000001</ele><time>2026-03-29T09:14:16.991Z</time></trkpt><trkpt lat="43.80780210030769" lon="10.961641283537228"><ele>569.0</ele><time>2026-03-29T09:14:20.991Z</time></trkpt><trkpt lat="43.80783265770755" lon="10.961731834566574"><ele>569.0</ele><time>2026-03-29T09:14:24.991Z</time></trkpt><trkpt lat="43.80788696885816" lon="10.961780478688423"><ele>569.0</ele><time>2026-03-29T09:14:27.99Z</time></trkpt><trkpt lat="43.807945215125535" lon="10.961837113247721"><ele>569.0</ele><time>2026-03-29T09:14:31.99Z</time></trkpt><trkpt lat="43.80799116832452" lon="10.961898330324663"><ele>569.0000000000001</ele><time>2026-03-29T09:14:34.99Z</time></trkpt><trkpt lat="43.808001710415134" lon="10.962001409154645"><ele>569.0</ele><time>2026-03-29T09:14:38.99Z</time></trkpt><trkpt lat="43.808027534278224" lon="10.962095000188746"><ele>570.1428571428572</ele><time>2026-03-29T09:14:42.99Z</time></trkpt><trkpt lat="43.80807376964746" lon="10.962166003919572"><ele>571.2857142857143</ele><time>2026-03-29T09:14:45.99Z</time></trkpt><trkpt lat="43.808132924528216" lon="10.96224733764346"><ele>572.4285714285714</ele><time>2026-03-29T09:14:49.99Z</time></trkpt><trkpt lat="43.808152158621496" lon="10.96233526531185"><ele>573.5714285714287</ele><time>2026-03-29T09:14:53.99Z</time></trkpt><trkpt lat="43.808177585445534" lon="10.962438313767406"><ele>574.7142857142858</ele><time>2026-03-29T09:14:59.99Z</time></trkpt><trkpt lat="43.80819629413465" lon="10.962538529922423"><ele>575.8571428571429</ele><time>2026-03-29T09:15:04.99Z</time></trkpt><trkpt lat="43.80824986459886" lon="10.962597855726218"><ele>577.0</ele><time>2026-03-29T09:15:07.99Z</time></trkpt><trkpt lat="43.80827054885294" lon="10.962689913417918"><ele>578.2857142857142</ele><time>2026-03-29T09:15:13.99Z</time></trkpt><trkpt lat="43.80829903077316" lon="10.962773473916972"><ele>579.5714285714286</ele><time>2026-03-29T09:15:19.99Z</time></trkpt><trkpt lat="43.80835415898811" lon="10.962852553164357"><ele>580.8571428571429</ele><time>2026-03-29T09:15:23.99Z</time></trkpt><trkpt lat="43.80839556109254" lon="10.962930935478756"><ele>582.1428571428571</ele><time>2026-03-29T09:15:28.99Z</time></trkpt><trkpt lat="43.80843280766314" lon="10.963021715659355"><ele>583.4285714285714</ele><time>2026-03-29T09:15:35.989Z</time></trkpt><trkpt lat="43.80842110372762" lon="10.963116955735053"><ele>584.7142857142857</ele><time>2026-03-29T09:15:43.989Z</time></trkpt><trkpt lat="43.80846498853597" lon="10.963197267123535"><ele>586.0</ele><time>2026-03-29T09:15:51.989Z</time></trkpt><trkpt lat="43.8084838923724" lon="10.963286627241803"><ele>585.9999999999999</ele><time>2026-03-29T09:15:58.989Z</time></trkpt><trkpt lat="43.80843728735012" lon="10.963352983185295"><ele>586.0</ele><time>2026-03-29T09:16:04.991Z</time></trkpt><trkpt lat="43.80844294550419" lon="10.963452663853866"><ele>586.0</ele><time>2026-03-29T09:16:11.991Z</time></trkpt><trkpt lat="43.808448971732254" lon="10.96354995562774"><ele>586.0</ele><time>2026-03-29T09:16:18.99Z</time></trkpt><trkpt lat="43.8084577132874" lon="10.963640557906073"><ele>586.0</ele><time>2026-03-29T09:16:26.99Z</time></trkpt><trkpt lat="43.8084830388713" lon="10.963720778791792"><ele>585.9999999999999</ele><time>2026-03-29T09:16:32.99Z</time></trkpt><trkpt lat="43.80847303398389" lon="10.963809968275974"><ele>586.0</ele><time>2026-03-29T09:16:38.99Z</time></trkpt><trkpt lat="43.808439974138224" lon="10.963899508294375"><ele>586.5714285714286</ele><time>2026-03-29T09:16:46.99Z</time></trkpt><trkpt lat="43.808464205090765" lon="10.96398998327058"><ele>587.1428571428571</ele><time>2026-03-29T09:16:53.99Z</time></trkpt><trkpt lat="43.808516088287874" lon="10.964041475101823"><ele>587.7142857142858</ele><time>2026-03-29T09:17:01.99Z</time></trkpt><trkpt lat="43.80853960123411" lon="10.964144173568261"><ele>588.2857142857142</ele><time>2026-03-29T09:17:09.99Z</time></trkpt><trkpt lat="43.808545406558174" lon="10.964239795332713"><ele>588.8571428571429</ele><time>2026-03-29T09:17:20.989Z</time></trkpt><trkpt lat="43.80859750392719" lon="10.964305142771547"><ele>589.4285714285714</ele><time>2026-03-29T09:17:27.989Z</time></trkpt><trkpt lat="43.80864731317329" lon="10.964373175243285"><ele>590.0</ele><time>2026-03-29T09:17:33.989Z</time></trkpt><trkpt lat="43.80869507088087" lon="10.96443595756309"><ele>592.8571428571429</ele><time>2026-03-29T09:17:40.989Z</time></trkpt><trkpt lat="43.80874499472331" lon="10.964508700296058"><ele>595.7142857142858</ele><time>2026-03-29T09:17:46.989Z</time></trkpt><trkpt lat="43.808806927627145" lon="10.964546074339696"><ele>598.5714285714287</ele><time>2026-03-29T09:17:50.989Z</time></trkpt><trkpt lat="43.80886010846716" lon="10.964594365495927"><ele>601.4285714285714</ele><time>2026-03-29T09:17:54.989Z</time></trkpt><trkpt lat="43.80892122930922" lon="10.964665623137803"><ele>604.2857142857142</ele><time>2026-03-29T09:17:59.989Z</time></trkpt><trkpt lat="43.80898183090618" lon="10.964723096078119"><ele>607.1428571428572</ele><time>2026-03-29T09:18:03.989Z</time></trkpt><trkpt lat="43.80902334019091" lon="10.964789003421943"><ele>610.0</ele><time>2026-03-29T09:18:07.991Z</time></trkpt><trkpt lat="43.809035688251576" lon="10.964885453102498"><ele>610.0</ele><time>2026-03-29T09:18:14.991Z</time></trkpt><trkpt lat="43.80906199592726" lon="10.964972409190533"><ele>610.0</ele><time>2026-03-29T09:18:20.991Z</time></trkpt><trkpt lat="43.80905431450824" lon="10.965061423929425"><ele>610.0</ele><time>2026-03-29T09:18:27.991Z</time></trkpt><trkpt lat="43.80902852579313" lon="10.965149121649269"><ele>610.0</ele><time>2026-03-29T09:18:33.991Z</time></trkpt><trkpt lat="43.80907420366594" lon="10.965219514896331"><ele>610.0</ele><time>2026-03-29T09:18:39.991Z</time></trkpt><trkpt lat="43.80912299398121" lon="10.965279131397928"><ele>610.0</ele><time>2026-03-29T09:18:43.991Z</time></trkpt><trkpt lat="43.80915306349438" lon="10.965362759129315"><ele>610.0</ele><time>2026-03-29T09:18:46.991Z</time></trkpt><trkpt lat="43.8091546330621" lon="10.965460257707944"><ele>612.1428571428572</ele><time>2026-03-29T09:18:51.99Z</time></trkpt><trkpt lat="43.80915114174626" lon="10.965556427001134"><ele>614.2857142857142</ele><time>2026-03-29T09:18:58.99Z</time></trkpt><trkpt lat="43.80917429416276" lon="10.965637909027967"><ele>616.4285714285714</ele><time>2026-03-29T09:19:03.99Z</time></trkpt><trkpt lat="43.80918556237337" lon="10.96573709794885"><ele>618.5714285714287</ele><time>2026-03-29T09:19:10.99Z</time></trkpt><trkpt lat="43.809141321834716" lon="10.965801325138045"><ele>620.7142857142858</ele><time>2026-03-29T09:19:20.99Z</time></trkpt><trkpt lat="43.80907748235855" lon="10.965833100034649"><ele>622.8571428571429</ele><time>2026-03-29T09:19:28.99Z</time></trkpt><trkpt lat="43.80902961805381" lon="10.965916471495339"><ele>625.0</ele><time>2026-03-29T09:19:35.99Z</time></trkpt><trkpt lat="43.809038255271616" lon="10.96600639147085"><ele>625.7142857142858</ele><time>2026-03-29T09:19:40.99Z</time></trkpt><trkpt lat="43.80899573415602" lon="10.9660805856074"><ele>626.4285714285714</ele><time>2026-03-29T09:20:16.99Z</time></trkpt><trkpt lat="43.80894482093764" lon="10.966137172681895"><ele>627.1428571428571</ele><time>2026-03-29T09:20:37.991Z</time></trkpt><trkpt lat="43.80888046641341" lon="10.966142159916973"><ele>627.8571428571429</ele><time>2026-03-29T09:20:42.99Z</time></trkpt><trkpt lat="43.808811515962226" lon="10.966158601839496"><ele>628.5714285714286</ele><time>2026-03-29T09:20:48.99Z</time></trkpt><trkpt lat="43.8087496030459" lon="10.966192940090545"><ele>629.2857142857143</ele><time>2026-03-29T09:20:53.99Z</time></trkpt><trkpt lat="43.808691290485065" lon="10.96625307110184"><ele>630.0</ele><time>2026-03-29T09:20:59.99Z</time></trkpt><trkpt lat="43.80863434936609" lon="10.966291812093672"><ele>630.0</ele><time>2026-03-29T09:21:04.99Z</time></trkpt><trkpt lat="43.808574026681576" lon="10.96632017595104"><ele>630.0</ele><time>2026-03-29T09:21:09.99Z</time></trkpt><trkpt lat="43.808515228136734" lon="10.966354812904603"><ele>630.0</ele><time>2026-03-29T09:21:13.99Z</time></trkpt><trkpt lat="43.80844628383899" lon="10.966349628850475"><ele>630.0</ele><time>2026-03-29T09:21:17.99Z</time></trkpt><trkpt lat="43.80837760980236" lon="10.966349907908981"><ele>630.0</ele><time>2026-03-29T09:21:21.99Z</time></trkpt><trkpt lat="43.808302031182315" lon="10.96638072123468"><ele>630.0</ele><time>2026-03-29T09:21:25.99Z</time></trkpt><trkpt lat="43.80822819699056" lon="10.966391320614838"><ele>630.0</ele><time>2026-03-29T09:21:29.99Z</time></trkpt><trkpt lat="43.80816182120648" lon="10.966391215029178"><ele>629.8333333333334</ele><time>2026-03-29T09:21:32.99Z</time></trkpt><trkpt lat="43.808084480086656" lon="10.966424498766937"><ele>629.6666666666666</ele><time>2026-03-29T09:21:36.99Z</time></trkpt><trkpt lat="43.80800509337149" lon="10.966433832508097"><ele>629.5</ele><time>2026-03-29T09:21:40.99Z</time></trkpt><trkpt lat="43.80793366440541" lon="10.966457077369357"><ele>629.3333333333333</ele><time>2026-03-29T09:21:43.99Z</time></trkpt><trkpt lat="43.80786672480871" lon="10.966475901233865"><ele>629.1666666666666</ele><time>2026-03-29T09:21:46.99Z</time></trkpt><trkpt lat="43.807780066550905" lon="10.9664961589161"><ele>629.0</ele><time>2026-03-29T09:21:50.989Z</time></trkpt><trkpt lat="43.807695289481366" lon="10.966532144113936"><ele>628.0</ele><time>2026-03-29T09:21:54.989Z</time></trkpt><trkpt lat="43.80761533325441" lon="10.966562162930389"><ele>627.0</ele><time>2026-03-29T09:21:58.989Z</time></trkpt><trkpt lat="43.80754642444481" lon="10.966584887119293"><ele>626.0</ele><time>2026-03-29T09:22:01.989Z</time></trkpt><trkpt lat="43.807459217258135" lon="10.966605336451535"><ele>625.0</ele><time>2026-03-29T09:22:05.989Z</time></trkpt><trkpt lat="43.807394741166554" lon="10.966642493566377"><ele>624.0</ele><time>2026-03-29T09:22:08.989Z</time></trkpt><trkpt lat="43.807332139331635" lon="10.966667757361643"><ele>623.0</ele><time>2026-03-29T09:22:11.989Z</time></trkpt><trkpt lat="43.80725804154954" lon="10.966696459166918"><ele>621.2857142857143</ele><time>2026-03-29T09:22:15.989Z</time></trkpt><trkpt lat="43.807194188770595" lon="10.966769700946443"><ele>619.5714285714286</ele><time>2026-03-29T09:22:19.989Z</time></trkpt><trkpt lat="43.807142898902676" lon="10.966833882620735"><ele>617.8571428571429</ele><time>2026-03-29T09:22:22.99Z</time></trkpt><trkpt lat="43.807075813646165" lon="10.966907768050415"><ele>616.1428571428571</ele><time>2026-03-29T09:22:25.989Z</time></trkpt><trkpt lat="43.80702345473814" lon="10.966961958397091"><ele>614.4285714285714</ele><time>2026-03-29T09:22:28.99Z</time></trkpt><trkpt lat="43.8069617084991" lon="10.967017770939565"><ele>612.7142857142858</ele><time>2026-03-29T09:22:31.99Z</time></trkpt><trkpt lat="43.80690115038718" lon="10.967073330688326"><ele>611.0</ele><time>2026-03-29T09:22:34.989Z</time></trkpt><trkpt lat="43.80684195281903" lon="10.967123415187624"><ele>611.2857142857143</ele><time>2026-03-29T09:22:37.989Z</time></trkpt><trkpt lat="43.806766718163104" lon="10.967148732707054"><ele>611.5714285714286</ele><time>2026-03-29T09:22:40.989Z</time></trkpt><trkpt lat="43.806684704130284" lon="10.967171578703342"><ele>611.8571428571429</ele><time>2026-03-29T09:22:44.989Z</time></trkpt><trkpt lat="43.80662051724847" lon="10.96719378608058"><ele>612.1428571428571</ele><time>2026-03-29T09:22:47.989Z</time></trkpt><trkpt lat="43.8065571631413" lon="10.967224971192744"><ele>612.4285714285714</ele><time>2026-03-29T09:22:50.989Z</time></trkpt><trkpt lat="43.80649775231771" lon="10.967268852374517"><ele>612.7142857142858</ele><time>2026-03-29T09:22:53.989Z</time></trkpt><trkpt lat="43.80643739861567" lon="10.96735012654171"><ele>613.0</ele><time>2026-03-29T09:22:57.989Z</time></trkpt><trkpt lat="43.806378012347395" lon="10.967422668011459"><ele>613.0</ele><time>2026-03-29T09:23:01.989Z</time></trkpt><trkpt lat="43.80632419645292" lon="10.96747738313098"><ele>613.0</ele><time>2026-03-29T09:23:04.989Z</time></trkpt><trkpt lat="43.80625782007992" lon="10.967538038230927"><ele>613.0</ele><time>2026-03-29T09:23:08.989Z</time></trkpt><trkpt lat="43.80620358039852" lon="10.967595603082575"><ele>613.0</ele><time>2026-03-29T09:23:11.989Z</time></trkpt><trkpt lat="43.806142016786424" lon="10.967651360832626"><ele>613.0</ele><time>2026-03-29T09:23:15.989Z</time></trkpt><trkpt lat="43.80607110828213" lon="10.967713067967237"><ele>613.0</ele><time>2026-03-29T09:23:19.989Z</time></trkpt><trkpt lat="43.80601575519223" lon="10.967776721709436"><ele>613.0</ele><time>2026-03-29T09:23:23.989Z</time></trkpt><trkpt lat="43.805977236050616" lon="10.967855940656376"><ele>612.5714285714286</ele><time>2026-03-29T09:23:26.989Z</time></trkpt><trkpt lat="43.8059136926786" lon="10.967906967793553"><ele>612.1428571428571</ele><time>2026-03-29T09:23:30.989Z</time></trkpt><trkpt lat="43.8058453119449" lon="10.967955320674028"><ele>611.7142857142858</ele><time>2026-03-29T09:23:34.989Z</time></trkpt><trkpt lat="43.80577387663019" lon="10.967992957293104"><ele>611.2857142857142</ele><time>2026-03-29T09:23:38.989Z</time></trkpt><trkpt lat="43.80570427604693" lon="10.968018335564791"><ele>610.8571428571428</ele><time>2026-03-29T09:23:42.988Z</time></trkpt><trkpt lat="43.80563798773917" lon="10.968045890437322"><ele>610.4285714285714</ele><time>2026-03-29T09:23:45.988Z</time></trkpt><trkpt lat="43.80556299804486" lon="10.968075143052102"><ele>610.0</ele><time>2026-03-29T09:23:49.988Z</time></trkpt><trkpt lat="43.805497022069666" lon="10.968096598336885"><ele>610.0</ele><time>2026-03-29T09:23:52.988Z</time></trkpt><trkpt lat="43.80543790332057" lon="10.968141885522273"><ele>610.0</ele><time>2026-03-29T09:23:55.988Z</time></trkpt><trkpt lat="43.805375066987494" lon="10.968188220293293"><ele>610.0</ele><time>2026-03-29T09:23:58.988Z</time></trkpt><trkpt lat="43.80530802613278" lon="10.968215522464325"><ele>610.0</ele><time>2026-03-29T09:24:01.988Z</time></trkpt><trkpt lat="43.80524274658747" lon="10.968243136472"><ele>610.0</ele><time>2026-03-29T09:24:04.988Z</time></trkpt><trkpt lat="43.80516333837696" lon="10.96828761198699"><ele>610.0</ele><time>2026-03-29T09:24:08.988Z</time></trkpt><trkpt lat="43.80509181130649" lon="10.96831954643175"><ele>610.0</ele><time>2026-03-29T09:24:11.988Z</time></trkpt><trkpt lat="43.80501777298665" lon="10.968341948982932"><ele>608.5</ele><time>2026-03-29T09:24:14.988Z</time></trkpt><trkpt lat="43.80494815772306" lon="10.968368820954701"><ele>607.0</ele><time>2026-03-29T09:24:17.988Z</time></trkpt><trkpt lat="43.804888596679625" lon="10.968406698449172"><ele>605.5</ele><time>2026-03-29T09:24:20.988Z</time></trkpt><trkpt lat="43.80482643166247" lon="10.968452882743348"><ele>604.0</ele><time>2026-03-29T09:24:23.99Z</time></trkpt><trkpt lat="43.8047540442438" lon="10.96849752732238"><ele>602.5</ele><time>2026-03-29T09:24:26.989Z</time></trkpt><trkpt lat="43.804686879898995" lon="10.968562301572828"><ele>601.0</ele><time>2026-03-29T09:24:29.99Z</time></trkpt><trkpt lat="43.80462945020131" lon="10.968641235122066"><ele>601.0</ele><time>2026-03-29T09:24:32.989Z</time></trkpt><trkpt lat="43.804577649082454" lon="10.968716653579943"><ele>601.0</ele><time>2026-03-29T09:24:35.989Z</time></trkpt><trkpt lat="43.804519167286344" lon="10.968791693621622"><ele>601.0</ele><time>2026-03-29T09:24:38.989Z</time></trkpt><trkpt lat="43.80444740836282" lon="10.968829344194342"><ele>601.0</ele><time>2026-03-29T09:24:41.989Z</time></trkpt><trkpt lat="43.804377433270226" lon="10.968883791904876"><ele>601.0</ele><time>2026-03-29T09:24:44.989Z</time></trkpt><trkpt lat="43.8043093790945" lon="10.96893546258632"><ele>601.0</ele><time>2026-03-29T09:24:47.989Z</time></trkpt><trkpt lat="43.8042416014079" lon="10.96898717017664"><ele>601.6666666666667</ele><time>2026-03-29T09:24:50.989Z</time></trkpt><trkpt lat="43.80418471296614" lon="10.969035614624774"><ele>602.3333333333334</ele><time>2026-03-29T09:24:53.989Z</time></trkpt><trkpt lat="43.80411526272291" lon="10.969099780345642"><ele>603.0</ele><time>2026-03-29T09:24:56.989Z</time></trkpt><trkpt lat="43.80405577126911" lon="10.969163154903697"><ele>603.6666666666666</ele><time>2026-03-29T09:24:59.988Z</time></trkpt><trkpt lat="43.80399052464339" lon="10.969238837501974"><ele>604.3333333333333</ele><time>2026-03-29T09:25:02.988Z</time></trkpt><trkpt lat="43.803937920750734" lon="10.969314997438396"><ele>605.0</ele><time>2026-03-29T09:25:05.988Z</time></trkpt><trkpt lat="43.80388910081253" lon="10.969400460930569"><ele>605.0</ele><time>2026-03-29T09:25:08.988Z</time></trkpt><trkpt lat="43.80384851369953" lon="10.969481058914988"><ele>605.0</ele><time>2026-03-29T09:25:11.988Z</time></trkpt><trkpt lat="43.803824264272095" lon="10.969583904867727"><ele>605.0</ele><time>2026-03-29T09:25:14.988Z</time></trkpt><trkpt lat="43.80378339259925" lon="10.96967786287761"><ele>605.0</ele><time>2026-03-29T09:25:17.988Z</time></trkpt><trkpt lat="43.803742799582466" lon="10.969759200880992"><ele>605.0</ele><time>2026-03-29T09:25:20.988Z</time></trkpt><trkpt lat="43.80371792245169" lon="10.969875009886481"><ele>605.0</ele><time>2026-03-29T09:25:23.988Z</time></trkpt><trkpt lat="43.80367325084763" lon="10.969957807874545"><ele>606.1428571428571</ele><time>2026-03-29T09:25:26.988Z</time></trkpt><trkpt lat="43.80362174560673" lon="10.970033994045908"><ele>607.2857142857143</ele><time>2026-03-29T09:25:29.988Z</time></trkpt><trkpt lat="43.80356639544654" lon="10.970116811061498"><ele>608.4285714285714</ele><time>2026-03-29T09:25:32.988Z</time></trkpt><trkpt lat="43.803529726767316" lon="10.970209827322313"><ele>609.5714285714286</ele><time>2026-03-29T09:25:35.988Z</time></trkpt><trkpt lat="43.803481888601645" lon="10.970294451933064"><ele>610.7142857142857</ele><time>2026-03-29T09:25:38.988Z</time></trkpt><trkpt lat="43.80343508536626" lon="10.970355695087399"><ele>611.8571428571429</ele><time>2026-03-29T09:25:40.988Z</time></trkpt><trkpt lat="43.803393461325676" lon="10.970429150830048"><ele>613.0</ele><time>2026-03-29T09:25:43.988Z</time></trkpt><trkpt lat="43.80335526428005" lon="10.970508974837319"><ele>613.0</ele><time>2026-03-29T09:25:46.988Z</time></trkpt><trkpt lat="43.80330990424035" lon="10.970583988200307"><ele>613.0</ele><time>2026-03-29T09:25:49.988Z</time></trkpt><trkpt lat="43.803269488180426" lon="10.970681959032405"><ele>613.0</ele><time>2026-03-29T09:25:52.988Z</time></trkpt><trkpt lat="43.80323134065307" lon="10.970774789286263"><ele>613.0</ele><time>2026-03-29T09:25:55.987Z</time></trkpt><trkpt lat="43.80320284957241" lon="10.970867727862636"><ele>613.0</ele><time>2026-03-29T09:25:58.986Z</time></trkpt><trkpt lat="43.803172979507366" lon="10.970968762772051"><ele>613.0</ele><time>2026-03-29T09:26:01.985Z</time></trkpt><trkpt lat="43.80315120622074" lon="10.971055987535149"><ele>613.0</ele><time>2026-03-29T09:26:04.985Z</time></trkpt><trkpt lat="43.80311466031486" lon="10.971158402983443"><ele>611.8333333333334</ele><time>2026-03-29T09:26:07.984Z</time></trkpt><trkpt lat="43.80308389427723" lon="10.971238531861957"><ele>610.6666666666667</ele><time>2026-03-29T09:26:10.983Z</time></trkpt><trkpt lat="43.80304093733895" lon="10.971321120292847"><ele>609.5</ele><time>2026-03-29T09:26:13.983Z</time></trkpt><trkpt lat="43.803012385530636" lon="10.97141533679884"><ele>608.3333333333334</ele><time>2026-03-29T09:26:16.983Z</time></trkpt><trkpt lat="43.80299436116925" lon="10.971523945146345"><ele>607.1666666666666</ele><time>2026-03-29T09:26:19.982Z</time></trkpt><trkpt lat="43.802968367705056" lon="10.971643979602355"><ele>606.0</ele><time>2026-03-29T09:26:23.982Z</time></trkpt><trkpt lat="43.8029381001217" lon="10.971731841618306"><ele>603.8333333333334</ele><time>2026-03-29T09:26:26.982Z</time></trkpt><trkpt lat="43.8029067001465" lon="10.97182527570549"><ele>601.6666666666666</ele><time>2026-03-29T09:26:29.983Z</time></trkpt><trkpt lat="43.802869527608166" lon="10.971910733970818"><ele>599.5</ele><time>2026-03-29T09:26:32.984Z</time></trkpt><trkpt lat="43.80283253148761" lon="10.97201071493845"><ele>597.3333333333333</ele><time>2026-03-29T09:26:35.983Z</time></trkpt><trkpt lat="43.802777954568455" lon="10.972105029087967"><ele>595.1666666666666</ele><time>2026-03-29T09:26:38.983Z</time></trkpt><trkpt lat="43.80275164697569" lon="10.972203014313244"><ele>593.0</ele><time>2026-03-29T09:26:41.983Z</time></trkpt><trkpt lat="43.80271671192049" lon="10.972297144343656"><ele>592.9999999999999</ele><time>2026-03-29T09:26:44.983Z</time></trkpt><trkpt lat="43.802684037864005" lon="10.97239141126434"><ele>593.0</ele><time>2026-03-29T09:26:47.983Z</time></trkpt><trkpt lat="43.80264948706065" lon="10.972477756554035"><ele>593.0</ele><time>2026-03-29T09:26:50.983Z</time></trkpt><trkpt lat="43.802615154719696" lon="10.972583433718468"><ele>593.0</ele><time>2026-03-29T09:26:53.983Z</time></trkpt><trkpt lat="43.80257618911409" lon="10.972658372547983"><ele>593.0</ele><time>2026-03-29T09:26:56.983Z</time></trkpt><trkpt lat="43.80252287642004" lon="10.972745909229225"><ele>592.9999999999999</ele><time>2026-03-29T09:26:59.983Z</time></trkpt><trkpt lat="43.80246732922168" lon="10.972798925666051"><ele>593.0</ele><time>2026-03-29T09:27:02.983Z</time></trkpt><trkpt lat="43.80241591408999" lon="10.972871178238858"><ele>593.9999999999999</ele><time>2026-03-29T09:27:05.983Z</time></trkpt><trkpt lat="43.802359554421265" lon="10.972936109448934"><ele>595.0</ele><time>2026-03-29T09:27:08.982Z</time></trkpt><trkpt lat="43.80231169132184" lon="10.973006304675968"><ele>596.0</ele><time>2026-03-29T09:27:11.982Z</time></trkpt><trkpt lat="43.80225810166582" lon="10.97306624958116"><ele>597.0</ele><time>2026-03-29T09:27:14.982Z</time></trkpt><trkpt lat="43.80219666791288" lon="10.9731184532704"><ele>598.0</ele><time>2026-03-29T09:27:17.982Z</time></trkpt><trkpt lat="43.802141070842836" lon="10.973169285977336"><ele>598.9999999999999</ele><time>2026-03-29T09:27:20.982Z</time></trkpt><trkpt lat="43.802074506353335" lon="10.973229505772325"><ele>600.0</ele><time>2026-03-29T09:27:23.982Z</time></trkpt><trkpt lat="43.80202165272923" lon="10.97330485079558"><ele>598.8333333333334</ele><time>2026-03-29T09:27:26.982Z</time></trkpt><trkpt lat="43.80197080674614" lon="10.973376804532592"><ele>597.6666666666666</ele><time>2026-03-29T09:27:29.982Z</time></trkpt><trkpt lat="43.801894772485284" lon="10.973458213059697"><ele>596.5</ele><time>2026-03-29T09:27:33.982Z</time></trkpt><trkpt lat="43.80182396568167" lon="10.973489562686387"><ele>595.3333333333333</ele><time>2026-03-29T09:27:36.982Z</time></trkpt><trkpt lat="43.80177228529634" lon="10.973551106178624"><ele>594.1666666666666</ele><time>2026-03-29T09:27:39.982Z</time></trkpt><trkpt lat="43.80170191184786" lon="10.973595280149143"><ele>593.0</ele><time>2026-03-29T09:27:42.982Z</time></trkpt><trkpt lat="43.80164265499417" lon="10.973658265394842"><ele>592.9999999999999</ele><time>2026-03-29T09:27:45.982Z</time></trkpt><trkpt lat="43.8015796653106" lon="10.973711870093238"><ele>593.0</ele><time>2026-03-29T09:27:48.982Z</time></trkpt><trkpt lat="43.801515830562685" lon="10.97377315745552"><ele>593.0</ele><time>2026-03-29T09:27:51.982Z</time></trkpt><trkpt lat="43.80145727472965" lon="10.97383521825422"><ele>593.0</ele><time>2026-03-29T09:27:54.982Z</time></trkpt><trkpt lat="43.801408603911334" lon="10.973895651724643"><ele>593.0</ele><time>2026-03-29T09:27:57.982Z</time></trkpt><trkpt lat="43.80135261166942" lon="10.973957314328143"><ele>592.9999999999999</ele><time>2026-03-29T09:28:00.982Z</time></trkpt><trkpt lat="43.801299001820865" lon="10.97400809228723"><ele>593.0</ele><time>2026-03-29T09:28:03.981Z</time></trkpt><trkpt lat="43.80125277291462" lon="10.974069337283943"><ele>592.9999999999999</ele><time>2026-03-29T09:28:06.981Z</time></trkpt><trkpt lat="43.80120499907515" lon="10.974140749867397"><ele>593.0</ele><time>2026-03-29T09:28:09.981Z</time></trkpt><trkpt lat="43.80114444439258" lon="10.974188193167533"><ele>593.0</ele><time>2026-03-29T09:28:12.981Z</time></trkpt><trkpt lat="43.80108838654232" lon="10.974245353441521"><ele>593.0</ele><time>2026-03-29T09:28:15.981Z</time></trkpt><trkpt lat="43.80102354665255" lon="10.974312464284369"><ele>593.0</ele><time>2026-03-29T09:28:19.981Z</time></trkpt><trkpt lat="43.80095756036211" lon="10.97437403783447"><ele>592.9999999999999</ele><time>2026-03-29T09:28:23.981Z</time></trkpt><trkpt lat="43.80089521198361" lon="10.974434530506425"><ele>593.0</ele><time>2026-03-29T09:28:27.981Z</time></trkpt><trkpt lat="43.80084005677448" lon="10.974484570957237"><ele>593.9999999999999</ele><time>2026-03-29T09:28:31.981Z</time></trkpt><trkpt lat="43.800783225095174" lon="10.97454250507655"><ele>595.0</ele><time>2026-03-29T09:28:35.982Z</time></trkpt><trkpt lat="43.80073422616262" lon="10.974599375491222"><ele>596.0</ele><time>2026-03-29T09:28:39.982Z</time></trkpt><trkpt lat="43.80067445084382" lon="10.974664980487406"><ele>597.0</ele><time>2026-03-29T09:28:43.982Z</time></trkpt><trkpt lat="43.80062572887237" lon="10.974735293178618"><ele>598.0</ele><time>2026-03-29T09:28:47.982Z</time></trkpt><trkpt lat="43.800582640307894" lon="10.974806270243523"><ele>598.9999999999999</ele><time>2026-03-29T09:28:51.982Z</time></trkpt><trkpt lat="43.80053777836336" lon="10.974879774753397"><ele>600.0</ele><time>2026-03-29T09:28:55.982Z</time></trkpt><trkpt lat="43.800490858373394" lon="10.974944795708945"><ele>599.9999999999999</ele><time>2026-03-29T09:28:59.981Z</time></trkpt><trkpt lat="43.8004243359795" lon="10.974994982480704"><ele>600.0</ele><time>2026-03-29T09:29:03.981Z</time></trkpt><trkpt lat="43.80036782063447" lon="10.975037223765137"><ele>600.0</ele><time>2026-03-29T09:29:07.981Z</time></trkpt><trkpt lat="43.80030396867557" lon="10.975093028794461"><ele>600.0</ele><time>2026-03-29T09:29:11.981Z</time></trkpt><trkpt lat="43.8002325585819" lon="10.975140992539357"><ele>600.0</ele><time>2026-03-29T09:29:15.981Z</time></trkpt><trkpt lat="43.80015615042836" lon="10.975177578314387"><ele>599.9999999999999</ele><time>2026-03-29T09:29:19.981Z</time></trkpt><trkpt lat="43.80008963511854" lon="10.975190151528315"><ele>600.0</ele><time>2026-03-29T09:29:23.981Z</time></trkpt><trkpt lat="43.800009451730205" lon="10.975162352229438"><ele>599.9999999999999</ele><time>2026-03-29T09:29:27.981Z</time></trkpt><trkpt lat="43.79993501746106" lon="10.975145254226579"><ele>600.0</ele><time>2026-03-29T09:29:31.981Z</time></trkpt><trkpt lat="43.79985737800925" lon="10.975127190740485"><ele>600.0</ele><time>2026-03-29T09:29:35.981Z</time></trkpt><trkpt lat="43.79978496921447" lon="10.975110027895148"><ele>600.0</ele><time>2026-03-29T09:29:39.981Z</time></trkpt><trkpt lat="43.799698747497025" lon="10.975122162756648"><ele>600.0</ele><time>2026-03-29T09:29:43.981Z</time></trkpt><trkpt lat="43.79963878842532" lon="10.975151245252675"><ele>599.9999999999999</ele><time>2026-03-29T09:29:46.981Z</time></trkpt><trkpt lat="43.79957597893946" lon="10.975176957079109"><ele>600.0</ele><time>2026-03-29T09:29:49.981Z</time></trkpt><trkpt lat="43.79951946508024" lon="10.975220142082021"><ele>599.9999999999999</ele><time>2026-03-29T09:29:52.981Z</time></trkpt><trkpt lat="43.79945548437132" lon="10.97525144541056"><ele>600.0</ele><time>2026-03-29T09:29:55.981Z</time></trkpt><trkpt lat="43.79939681552127" lon="10.975295339046914"><ele>600.0</ele><time>2026-03-29T09:29:58.98Z</time></trkpt><trkpt lat="43.799335719957185" lon="10.975346447529363"><ele>600.0</ele><time>2026-03-29T09:30:01.98Z</time></trkpt><trkpt lat="43.7992702277552" lon="10.975412649500383"><ele>600.0</ele><time>2026-03-29T09:30:04.98Z</time></trkpt><trkpt lat="43.79920242565037" lon="10.975459523499417"><ele>599.9999999999999</ele><time>2026-03-29T09:30:07.98Z</time></trkpt><trkpt lat="43.79912854470102" lon="10.9755004456309"><ele>600.0</ele><time>2026-03-29T09:30:10.98Z</time></trkpt><trkpt lat="43.79906178349937" lon="10.975551577205483"><ele>599.8333333333334</ele><time>2026-03-29T09:30:13.98Z</time></trkpt><trkpt lat="43.79900305570745" lon="10.975626306889016"><ele>599.6666666666666</ele><time>2026-03-29T09:30:16.98Z</time></trkpt><trkpt lat="43.7989380828374" lon="10.975687326452721"><ele>599.5</ele><time>2026-03-29T09:30:19.98Z</time></trkpt><trkpt lat="43.79886676951087" lon="10.975746850643215"><ele>599.3333333333333</ele><time>2026-03-29T09:30:22.98Z</time></trkpt><trkpt lat="43.79881095907535" lon="10.975813666807502"><ele>599.1666666666666</ele><time>2026-03-29T09:30:25.98Z</time></trkpt><trkpt lat="43.79873677809014" lon="10.975839360291662"><ele>599.0</ele><time>2026-03-29T09:30:28.98Z</time></trkpt><trkpt lat="43.7986734533918" lon="10.975882412494014"><ele>598.5714285714286</ele><time>2026-03-29T09:30:31.98Z</time></trkpt><trkpt lat="43.79861490888115" lon="10.975932973939011"><ele>598.1428571428571</ele><time>2026-03-29T09:30:34.98Z</time></trkpt><trkpt lat="43.79855466831515" lon="10.975985560534879"><ele>597.7142857142857</ele><time>2026-03-29T09:30:37.98Z</time></trkpt><trkpt lat="43.79850181358643" lon="10.9760665695314"><ele>597.2857142857142</ele><time>2026-03-29T09:30:40.98Z</time></trkpt><trkpt lat="43.798451835892706" lon="10.97614852981441"><ele>596.8571428571428</ele><time>2026-03-29T09:30:43.982Z</time></trkpt><trkpt lat="43.79840346025129" lon="10.976228630639602"><ele>596.4285714285714</ele><time>2026-03-29T09:30:46.981Z</time></trkpt><trkpt lat="43.79835924757513" lon="10.976311916071053"><ele>596.0</ele><time>2026-03-29T09:30:49.982Z</time></trkpt><trkpt lat="43.79830064114932" lon="10.97637655196175"><ele>594.8333333333333</ele><time>2026-03-29T09:30:52.982Z</time></trkpt><trkpt lat="43.79823656362385" lon="10.97642574926042"><ele>593.6666666666666</ele><time>2026-03-29T09:30:55.982Z</time></trkpt><trkpt lat="43.79817900040914" lon="10.976477632350313"><ele>592.5</ele><time>2026-03-29T09:30:58.982Z</time></trkpt><trkpt lat="43.79812563731208" lon="10.976551018028212"><ele>591.3333333333334</ele><time>2026-03-29T09:31:01.982Z</time></trkpt><trkpt lat="43.798064470641535" lon="10.976617100657448"><ele>590.1666666666667</ele><time>2026-03-29T09:31:04.982Z</time></trkpt><trkpt lat="43.79799886505748" lon="10.976678742649394"><ele>589.0</ele><time>2026-03-29T09:31:07.981Z</time></trkpt><trkpt lat="43.79792460863555" lon="10.976730045475955"><ele>589.0</ele><time>2026-03-29T09:31:10.981Z</time></trkpt><trkpt lat="43.797841164554306" lon="10.976774325744346"><ele>589.0</ele><time>2026-03-29T09:31:13.981Z</time></trkpt><trkpt lat="43.79777476550236" lon="10.97682360769756"><ele>589.0</ele><time>2026-03-29T09:31:16.981Z</time></trkpt><trkpt lat="43.7977073845605" lon="10.976878896542361"><ele>589.0</ele><time>2026-03-29T09:31:19.981Z</time></trkpt><trkpt lat="43.797639850107075" lon="10.976936952905492"><ele>589.0</ele><time>2026-03-29T09:31:22.981Z</time></trkpt><trkpt lat="43.79757701750954" lon="10.976999374653422"><ele>589.0</ele><time>2026-03-29T09:31:25.981Z</time></trkpt><trkpt lat="43.797496832138684" lon="10.977036357860213"><ele>585.8333333333334</ele><time>2026-03-29T09:31:28.981Z</time></trkpt><trkpt lat="43.797424082100996" lon="10.97708851199093"><ele>582.6666666666667</ele><time>2026-03-29T09:31:31.981Z</time></trkpt><trkpt lat="43.79735404073415" lon="10.977130603513489"><ele>579.5</ele><time>2026-03-29T09:31:34.981Z</time></trkpt><trkpt lat="43.79728917739384" lon="10.977181351469552"><ele>576.3333333333334</ele><time>2026-03-29T09:31:37.981Z</time></trkpt><trkpt lat="43.79722220436147" lon="10.977210400564763"><ele>573.1666666666666</ele><time>2026-03-29T09:31:40.981Z</time></trkpt><trkpt lat="43.79716054601817" lon="10.977274490547181"><ele>570.0</ele><time>2026-03-29T09:31:43.981Z</time></trkpt><trkpt lat="43.79709272679004" lon="10.977331636395197"><ele>570.0</ele><time>2026-03-29T09:31:46.981Z</time></trkpt><trkpt lat="43.79703108987428" lon="10.977397460705447"><ele>570.0</ele><time>2026-03-29T09:31:49.981Z</time></trkpt><trkpt lat="43.79696515496595" lon="10.977457751883648"><ele>570.0</ele><time>2026-03-29T09:31:52.981Z</time></trkpt><trkpt lat="43.79688177235598" lon="10.977469031842613"><ele>570.0</ele><time>2026-03-29T09:31:55.981Z</time></trkpt><trkpt lat="43.79681610516661" lon="10.977524967676777"><ele>570.0</ele><time>2026-03-29T09:31:58.981Z</time></trkpt><trkpt lat="43.79675770700021" lon="10.97759493874729"><ele>570.0</ele><time>2026-03-29T09:32:01.981Z</time></trkpt><trkpt lat="43.79669441434063" lon="10.977648015122279"><ele>567.6666666666666</ele><time>2026-03-29T09:32:04.981Z</time></trkpt><trkpt lat="43.79663971031327" lon="10.977708905734813"><ele>565.3333333333334</ele><time>2026-03-29T09:32:07.98Z</time></trkpt><trkpt lat="43.79657411104263" lon="10.97776663578799"><ele>563.0</ele><time>2026-03-29T09:32:10.98Z</time></trkpt><trkpt lat="43.796507633039525" lon="10.977834337359218"><ele>560.6666666666667</ele><time>2026-03-29T09:32:13.98Z</time></trkpt><trkpt lat="43.79643412973935" lon="10.977889660485866"><ele>558.3333333333334</ele><time>2026-03-29T09:32:16.98Z</time></trkpt><trkpt lat="43.79635618999681" lon="10.977921330174993"><ele>556.0</ele><time>2026-03-29T09:32:19.98Z</time></trkpt><trkpt lat="43.796287422711806" lon="10.977992570715852"><ele>556.0</ele><time>2026-03-29T09:32:22.98Z</time></trkpt><trkpt lat="43.796239336744556" lon="10.978069449274642"><ele>556.0</ele><time>2026-03-29T09:32:25.98Z</time></trkpt><trkpt lat="43.79616777132898" lon="10.97811286737732"><ele>556.0</ele><time>2026-03-29T09:32:28.98Z</time></trkpt><trkpt lat="43.79609498740239" lon="10.97814836070794"><ele>556.0</ele><time>2026-03-29T09:32:31.98Z</time></trkpt><trkpt lat="43.796025849114486" lon="10.978204152989601"><ele>556.0</ele><time>2026-03-29T09:32:34.98Z</time></trkpt><trkpt lat="43.795958779236564" lon="10.978244826316672"><ele>556.0</ele><time>2026-03-29T09:32:37.98Z</time></trkpt><trkpt lat="43.79589100935157" lon="10.978294724335539"><ele>556.0</ele><time>2026-03-29T09:32:40.98Z</time></trkpt><trkpt lat="43.79582336231964" lon="10.978307080086717"><ele>556.0</ele><time>2026-03-29T09:32:43.98Z</time></trkpt><trkpt lat="43.79575736105001" lon="10.978268502048714"><ele>556.0</ele><time>2026-03-29T09:32:46.98Z</time></trkpt><trkpt lat="43.795819343797874" lon="10.97824409853486"><ele>556.0</ele><time>2026-03-29T09:32:53.981Z</time></trkpt><trkpt lat="43.79589240759725" lon="10.978199008923188"><ele>556.0</ele><time>2026-03-29T09:32:57.981Z</time></trkpt><trkpt lat="43.79594610952428" lon="10.978130803170002"><ele>556.0</ele><time>2026-03-29T09:33:01.982Z</time></trkpt><trkpt lat="43.79599368533039" lon="10.978072081892073"><ele>556.0</ele><time>2026-03-29T09:33:04.982Z</time></trkpt><trkpt lat="43.79604186244942" lon="10.97797867535254"><ele>556.0</ele><time>2026-03-29T09:33:08.982Z</time></trkpt><trkpt lat="43.79609294283826" lon="10.977922358905422"><ele>556.0</ele><time>2026-03-29T09:33:11.982Z</time></trkpt><trkpt lat="43.796135670904626" lon="10.977847902953483"><ele>556.0</ele><time>2026-03-29T09:33:14.982Z</time></trkpt><trkpt lat="43.79618968006801" lon="10.977792650680561"><ele>556.0</ele><time>2026-03-29T09:33:17.981Z</time></trkpt><trkpt lat="43.796237989145325" lon="10.97773521136489"><ele>556.0</ele><time>2026-03-29T09:33:20.981Z</time></trkpt><trkpt lat="43.796293022170794" lon="10.977652617554847"><ele>556.0</ele><time>2026-03-29T09:33:24.981Z</time></trkpt><trkpt lat="43.79634221708023" lon="10.977578150632434"><ele>556.0</ele><time>2026-03-29T09:33:27.981Z</time></trkpt><trkpt lat="43.79638707204688" lon="10.97749248412386"><ele>555.4285714285714</ele><time>2026-03-29T09:33:31.981Z</time></trkpt><trkpt lat="43.79645360280842" lon="10.97742071811092"><ele>554.8571428571429</ele><time>2026-03-29T09:33:35.981Z</time></trkpt><trkpt lat="43.79651459085397" lon="10.977341574932984"><ele>554.2857142857143</ele><time>2026-03-29T09:33:39.981Z</time></trkpt><trkpt lat="43.79656409751718" lon="10.977268364332673"><ele>553.7142857142858</ele><time>2026-03-29T09:33:42.981Z</time></trkpt><trkpt lat="43.79660413777915" lon="10.977199737394736"><ele>553.1428571428572</ele><time>2026-03-29T09:33:45.981Z</time></trkpt><trkpt lat="43.7966506342986" lon="10.977138797956895"><ele>552.5714285714286</ele><time>2026-03-29T09:33:48.981Z</time></trkpt><trkpt lat="43.7966948098055" lon="10.977062684000426"><ele>552.0</ele><time>2026-03-29T09:33:51.981Z</time></trkpt><trkpt lat="43.79673885200437" lon="10.97698495527609"><ele>552.0</ele><time>2026-03-29T09:33:54.981Z</time></trkpt><trkpt lat="43.79678809207338" lon="10.976910905347884"><ele>552.0</ele><time>2026-03-29T09:33:57.981Z</time></trkpt><trkpt lat="43.796836167605235" lon="10.976824935996861"><ele>552.0</ele><time>2026-03-29T09:34:00.981Z</time></trkpt><trkpt lat="43.796881734503316" lon="10.976745039900477"><ele>552.0</ele><time>2026-03-29T09:34:03.981Z</time></trkpt><trkpt lat="43.79692020855325" lon="10.976669303342577"><ele>552.0</ele><time>2026-03-29T09:34:06.981Z</time></trkpt><trkpt lat="43.79695485536955" lon="10.976586647666991"><ele>552.0</ele><time>2026-03-29T09:34:09.981Z</time></trkpt><trkpt lat="43.79701006225176" lon="10.976518595134026"><ele>552.0</ele><time>2026-03-29T09:34:12.981Z</time></trkpt><trkpt lat="43.79705743726442" lon="10.976453513398717"><ele>553.5714285714286</ele><time>2026-03-29T09:34:15.981Z</time></trkpt><trkpt lat="43.79711778502708" lon="10.976420294417212"><ele>555.1428571428572</ele><time>2026-03-29T09:34:18.98Z</time></trkpt><trkpt lat="43.79718198218316" lon="10.976402313429828"><ele>556.7142857142858</ele><time>2026-03-29T09:34:21.98Z</time></trkpt><trkpt lat="43.79724345015111" lon="10.976372933769"><ele>558.2857142857143</ele><time>2026-03-29T09:34:24.98Z</time></trkpt><trkpt lat="43.797303283343034" lon="10.976332129398546"><ele>559.8571428571429</ele><time>2026-03-29T09:34:27.98Z</time></trkpt><trkpt lat="43.797375036190545" lon="10.97630062694685"><ele>561.4285714285714</ele><time>2026-03-29T09:34:30.98Z</time></trkpt><trkpt lat="43.7974316304593" lon="10.976254680014653"><ele>563.0</ele><time>2026-03-29T09:34:33.98Z</time></trkpt><trkpt lat="43.7974951257199" lon="10.97619090332391"><ele>563.0</ele><time>2026-03-29T09:34:36.98Z</time></trkpt><trkpt lat="43.79753995915579" lon="10.976111727533803"><ele>563.0</ele><time>2026-03-29T09:34:39.98Z</time></trkpt><trkpt lat="43.79758098094496" lon="10.976033390561566"><ele>563.0</ele><time>2026-03-29T09:34:42.98Z</time></trkpt><trkpt lat="43.797600299150005" lon="10.97593375615097"><ele>563.0</ele><time>2026-03-29T09:34:45.98Z</time></trkpt><trkpt lat="43.79761756779221" lon="10.975844509522053"><ele>563.0</ele><time>2026-03-29T09:34:48.98Z</time></trkpt><trkpt lat="43.79763401495929" lon="10.97575819271877"><ele>563.0</ele><time>2026-03-29T09:34:51.98Z</time></trkpt><trkpt lat="43.79765670259971" lon="10.975644969289338"><ele>563.0</ele><time>2026-03-29T09:34:55.98Z</time></trkpt><trkpt lat="43.79765656581088" lon="10.975529527101697"><ele>560.8333333333333</ele><time>2026-03-29T09:34:59.981Z</time></trkpt><trkpt lat="43.797663882826576" lon="10.97542324758581"><ele>558.6666666666666</ele><time>2026-03-29T09:35:03.981Z</time></trkpt><trkpt lat="43.797656764603744" lon="10.975316097414822"><ele>556.5</ele><time>2026-03-29T09:35:07.981Z</time></trkpt><trkpt lat="43.79766158227866" lon="10.975226442663752"><ele>554.3333333333334</ele><time>2026-03-29T09:35:10.981Z</time></trkpt><trkpt lat="43.797665533216026" lon="10.975122330703602"><ele>552.1666666666667</ele><time>2026-03-29T09:35:14.981Z</time></trkpt><trkpt lat="43.79768876166189" lon="10.975014909347651"><ele>550.0</ele><time>2026-03-29T09:35:18.981Z</time></trkpt><trkpt lat="43.79772086522769" lon="10.974910040485437"><ele>550.1428571428571</ele><time>2026-03-29T09:35:22.981Z</time></trkpt><trkpt lat="43.797763089671264" lon="10.974837383149376"><ele>550.2857142857142</ele><time>2026-03-29T09:35:25.981Z</time></trkpt><trkpt lat="43.797784498938604" lon="10.974728203549285"><ele>550.4285714285713</ele><time>2026-03-29T09:35:29.981Z</time></trkpt><trkpt lat="43.79776297746064" lon="10.974638296577712"><ele>550.5714285714286</ele><time>2026-03-29T09:35:32.981Z</time></trkpt><trkpt lat="43.79771496927786" lon="10.974567720311018"><ele>550.7142857142857</ele><time>2026-03-29T09:35:35.981Z</time></trkpt><trkpt lat="43.79764206928223" lon="10.9745278764257"><ele>550.8571428571428</ele><time>2026-03-29T09:35:38.981Z</time></trkpt><trkpt lat="43.7975837789758" lon="10.974480959160765"><ele>551.0</ele><time>2026-03-29T09:35:41.981Z</time></trkpt><trkpt lat="43.79751563078381" lon="10.974417902462191"><ele>550.9999999999999</ele><time>2026-03-29T09:35:45.981Z</time></trkpt><trkpt lat="43.79747441486635" lon="10.974351159943028"><ele>551.0</ele><time>2026-03-29T09:35:48.981Z</time></trkpt><trkpt lat="43.797421051111975" lon="10.974282363272144"><ele>551.0</ele><time>2026-03-29T09:35:51.98Z</time></trkpt><trkpt lat="43.79738025979498" lon="10.974205096347026"><ele>551.0</ele><time>2026-03-29T09:35:54.98Z</time></trkpt><trkpt lat="43.79735301450448" lon="10.974122858463746"><ele>551.0</ele><time>2026-03-29T09:35:57.98Z</time></trkpt><trkpt lat="43.79731349872882" lon="10.974050234836396"><ele>550.9999999999999</ele><time>2026-03-29T09:36:00.98Z</time></trkpt><trkpt lat="43.797264337594875" lon="10.973977623748487"><ele>551.0</ele><time>2026-03-29T09:36:03.98Z</time></trkpt><trkpt lat="43.79721882732336" lon="10.973906161719423"><ele>552.7142857142857</ele><time>2026-03-29T09:36:06.98Z</time></trkpt><trkpt lat="43.7971689138818" lon="10.973849210129973"><ele>554.4285714285714</ele><time>2026-03-29T09:36:09.98Z</time></trkpt><trkpt lat="43.797129124739214" lon="10.973779733967964"><ele>556.1428571428571</ele><time>2026-03-29T09:36:12.98Z</time></trkpt><trkpt lat="43.79708913833015" lon="10.973697300361328"><ele>557.8571428571429</ele><time>2026-03-29T09:36:15.98Z</time></trkpt><trkpt lat="43.79705504915936" lon="10.973622893128896"><ele>559.5714285714286</ele><time>2026-03-29T09:36:18.98Z</time></trkpt><trkpt lat="43.7970294031401" lon="10.973542877751042"><ele>561.2857142857142</ele><time>2026-03-29T09:36:21.98Z</time></trkpt><trkpt lat="43.79700897611257" lon="10.973453985122495"><ele>563.0</ele><time>2026-03-29T09:36:24.98Z</time></trkpt><trkpt lat="43.79697394384421" lon="10.973380205958058"><ele>564.2857142857142</ele><time>2026-03-29T09:36:27.98Z</time></trkpt><trkpt lat="43.79695959459319" lon="10.973288767800813"><ele>565.5714285714286</ele><time>2026-03-29T09:36:30.98Z</time></trkpt><trkpt lat="43.79697694875997" lon="10.97320153177781"><ele>566.8571428571429</ele><time>2026-03-29T09:36:33.98Z</time></trkpt><trkpt lat="43.79698658069238" lon="10.973110428835724"><ele>568.1428571428571</ele><time>2026-03-29T09:36:36.98Z</time></trkpt><trkpt lat="43.796993353761124" lon="10.973013900097486"><ele>569.4285714285714</ele><time>2026-03-29T09:36:39.98Z</time></trkpt><trkpt lat="43.79703745319603" lon="10.972936697833202"><ele>570.7142857142857</ele><time>2026-03-29T09:36:42.98Z</time></trkpt><trkpt lat="43.79708948804158" lon="10.972858371374697"><ele>572.0</ele><time>2026-03-29T09:36:46.98Z</time></trkpt><trkpt lat="43.79714889324876" lon="10.972818372175484"><ele>571.9999999999999</ele><time>2026-03-29T09:36:49.979Z</time></trkpt><trkpt lat="43.79721680340291" lon="10.972810754986723"><ele>572.0</ele><time>2026-03-29T09:36:52.979Z</time></trkpt><trkpt lat="43.79727462155831" lon="10.972767253795574"><ele>572.0</ele><time>2026-03-29T09:36:55.979Z</time></trkpt><trkpt lat="43.79734748630778" lon="10.972713264772025"><ele>572.0</ele><time>2026-03-29T09:36:59.981Z</time></trkpt><trkpt lat="43.79742320488626" lon="10.97267665216513"><ele>572.0</ele><time>2026-03-29T09:37:03.98Z</time></trkpt><trkpt lat="43.79750228473235" lon="10.972644424165722"><ele>571.9999999999999</ele><time>2026-03-29T09:37:07.98Z</time></trkpt><trkpt lat="43.797566819277456" lon="10.972625485028573"><ele>572.0</ele><time>2026-03-29T09:37:10.981Z</time></trkpt><trkpt lat="43.797632364040446" lon="10.972625301886378"><ele>572.1428571428571</ele><time>2026-03-29T09:37:13.98Z</time></trkpt><trkpt lat="43.797696671366985" lon="10.972621848531734"><ele>572.2857142857142</ele><time>2026-03-29T09:37:16.98Z</time></trkpt><trkpt lat="43.79776435758213" lon="10.972608832217366"><ele>572.4285714285714</ele><time>2026-03-29T09:37:19.98Z</time></trkpt><trkpt lat="43.79784214986474" lon="10.97257381930908"><ele>572.5714285714286</ele><time>2026-03-29T09:37:23.98Z</time></trkpt><trkpt lat="43.797905449894294" lon="10.97257702924269"><ele>572.7142857142858</ele><time>2026-03-29T09:37:26.98Z</time></trkpt><trkpt lat="43.79797136890588" lon="10.972570174328707"><ele>572.8571428571429</ele><time>2026-03-29T09:37:29.98Z</time></trkpt><trkpt lat="43.798037593418684" lon="10.972556682633048"><ele>573.0</ele><time>2026-03-29T09:37:32.98Z</time></trkpt><trkpt lat="43.79811191915451" lon="10.972491572475223"><ele>573.0</ele><time>2026-03-29T09:37:36.98Z</time></trkpt><trkpt lat="43.79817033500106" lon="10.972415961885398"><ele>573.0</ele><time>2026-03-29T09:37:40.98Z</time></trkpt><trkpt lat="43.79823872392261" lon="10.972361796363538"><ele>573.0</ele><time>2026-03-29T09:37:44.979Z</time></trkpt><trkpt lat="43.79830309915912" lon="10.972301749322398"><ele>573.0</ele><time>2026-03-29T09:37:49.979Z</time></trkpt><trkpt lat="43.79836444134748" lon="10.972254760259245"><ele>573.0</ele><time>2026-03-29T09:37:53.979Z</time></trkpt><trkpt lat="43.79841864601853" lon="10.97219713730548"><ele>573.0</ele><time>2026-03-29T09:37:57.979Z</time></trkpt><trkpt lat="43.798475433737224" lon="10.972128559047302"><ele>575.8333333333334</ele><time>2026-03-29T09:38:01.979Z</time></trkpt><trkpt lat="43.798530226029676" lon="10.97205052825136"><ele>578.6666666666666</ele><time>2026-03-29T09:38:05.979Z</time></trkpt><trkpt lat="43.79858523267307" lon="10.971974815810963"><ele>581.5</ele><time>2026-03-29T09:38:09.979Z</time></trkpt><trkpt lat="43.798632684550554" lon="10.971885082513513"><ele>584.3333333333333</ele><time>2026-03-29T09:38:13.979Z</time></trkpt><trkpt lat="43.7986867110835" lon="10.97180199589458"><ele>587.1666666666666</ele><time>2026-03-29T09:38:17.979Z</time></trkpt><trkpt lat="43.79874675948473" lon="10.971759476000889"><ele>590.0</ele><time>2026-03-29T09:38:20.979Z</time></trkpt><trkpt lat="43.798814274207786" lon="10.971747363238592"><ele>590.0000000000001</ele><time>2026-03-29T09:38:23.979Z</time></trkpt><trkpt lat="43.79886958496121" lon="10.971702023241516"><ele>590.0</ele><time>2026-03-29T09:38:26.979Z</time></trkpt><trkpt lat="43.798934008312514" lon="10.97167417261526"><ele>590.0</ele><time>2026-03-29T09:38:29.979Z</time></trkpt><trkpt lat="43.799005652027944" lon="10.971649730188501"><ele>590.0</ele><time>2026-03-29T09:38:32.979Z</time></trkpt><trkpt lat="43.79906897806902" lon="10.971627178853527"><ele>590.0</ele><time>2026-03-29T09:38:35.979Z</time></trkpt><trkpt lat="43.79913771134964" lon="10.971617151249262"><ele>590.0000000000001</ele><time>2026-03-29T09:38:38.979Z</time></trkpt><trkpt lat="43.79921487684435" lon="10.971600032479829"><ele>590.0</ele><time>2026-03-29T09:38:41.979Z</time></trkpt><trkpt lat="43.79928607606705" lon="10.971571256786733"><ele>587.1428571428572</ele><time>2026-03-29T09:38:44.978Z</time></trkpt><trkpt lat="43.79934632680631" lon="10.971505310443494"><ele>584.2857142857143</ele><time>2026-03-29T09:38:47.978Z</time></trkpt><trkpt lat="43.79942338988049" lon="10.971472303937885"><ele>581.4285714285714</ele><time>2026-03-29T09:38:50.978Z</time></trkpt><trkpt lat="43.79948080850422" lon="10.971428528399553"><ele>578.5714285714287</ele><time>2026-03-29T09:38:53.978Z</time></trkpt><trkpt lat="43.79954029365347" lon="10.97138202177706"><ele>575.7142857142858</ele><time>2026-03-29T09:38:56.978Z</time></trkpt><trkpt lat="43.79961034122921" lon="10.971347439701985"><ele>572.8571428571429</ele><time>2026-03-29T09:38:59.978Z</time></trkpt><trkpt lat="43.79967396947765" lon="10.971298335430133"><ele>570.0</ele><time>2026-03-29T09:39:02.978Z</time></trkpt><trkpt lat="43.79974466212493" lon="10.971269110088215"><ele>570.0</ele><time>2026-03-29T09:39:05.98Z</time></trkpt><trkpt lat="43.79980053252387" lon="10.971210525199112"><ele>570.0</ele><time>2026-03-29T09:39:08.98Z</time></trkpt><trkpt lat="43.79986973308366" lon="10.971241614053735"><ele>570.0</ele><time>2026-03-29T09:39:12.98Z</time></trkpt><trkpt lat="43.799868667987916" lon="10.97133005336942"><ele>570.0</ele><time>2026-03-29T09:39:23.98Z</time></trkpt><trkpt lat="43.79981787350335" lon="10.971401545259024"><ele>570.0</ele><time>2026-03-29T09:39:31.98Z</time></trkpt><trkpt lat="43.799783214921035" lon="10.971475013784037"><ele>570.0</ele><time>2026-03-29T09:39:39.98Z</time></trkpt><trkpt lat="43.79973404184068" lon="10.971544145021612"><ele>570.0</ele><time>2026-03-29T09:39:46.979Z</time></trkpt><trkpt lat="43.7996672651513" lon="10.971579531543506"><ele>570.0</ele><time>2026-03-29T09:39:52.979Z</time></trkpt><trkpt lat="43.799607051467504" lon="10.971613686108173"><ele>570.0</ele><time>2026-03-29T09:39:57.979Z</time></trkpt><trkpt lat="43.79956311938321" lon="10.971684624676385"><ele>570.0</ele><time>2026-03-29T09:40:04.979Z</time></trkpt><trkpt lat="43.79949969083517" lon="10.971702494586669"><ele>570.0</ele><time>2026-03-29T09:40:10.979Z</time></trkpt><trkpt lat="43.79943521899606" lon="10.971715125209778"><ele>570.0</ele><time>2026-03-29T09:40:15.979Z</time></trkpt><trkpt lat="43.7993787147367" lon="10.9717567035238"><ele>570.0</ele><time>2026-03-29T09:40:19.979Z</time></trkpt><trkpt lat="43.79943705336075" lon="10.971803347392523"><ele>570.0</ele><time>2026-03-29T09:40:29.979Z</time></trkpt><trkpt lat="43.799501464551575" lon="10.97182431253727"><ele>572.8571428571429</ele><time>2026-03-29T09:40:35.979Z</time></trkpt><trkpt lat="43.79955510347269" lon="10.971881950473179"><ele>575.7142857142858</ele><time>2026-03-29T09:40:42.978Z</time></trkpt><trkpt lat="43.79956634423735" lon="10.971969273766799"><ele>578.5714285714287</ele><time>2026-03-29T09:40:54.978Z</time></trkpt><trkpt lat="43.79949775885756" lon="10.971975218605504"><ele>581.4285714285714</ele><time>2026-03-29T09:41:00.978Z</time></trkpt><trkpt lat="43.79943928858679" lon="10.972039528759545"><ele>584.2857142857143</ele><time>2026-03-29T09:41:09.978Z</time></trkpt><trkpt lat="43.79936876189818" lon="10.97208240095676"><ele>587.1428571428572</ele><time>2026-03-29T09:41:15.979Z</time></trkpt><trkpt lat="43.799307619415565" lon="10.972113923109333"><ele>590.0</ele><time>2026-03-29T09:41:21.979Z</time></trkpt><trkpt lat="43.79923983419861" lon="10.97211323545855"><ele>590.0000000000001</ele><time>2026-03-29T09:41:26.979Z</time></trkpt><trkpt lat="43.79917279138257" lon="10.972131161119997"><ele>590.0</ele><time>2026-03-29T09:41:32.979Z</time></trkpt><trkpt lat="43.79911199310822" lon="10.972165591182694"><ele>590.0</ele><time>2026-03-29T09:41:38.979Z</time></trkpt><trkpt lat="43.799108332596184" lon="10.972254083771444"><ele>590.0</ele><time>2026-03-29T09:41:51.979Z</time></trkpt><trkpt lat="43.79910724275777" lon="10.97234884334382"><ele>590.0</ele><time>2026-03-29T09:42:04.978Z</time></trkpt><trkpt lat="43.79905376176619" lon="10.972394959499807"><ele>590.0000000000001</ele><time>2026-03-29T09:42:14.978Z</time></trkpt><trkpt lat="43.798978282662205" lon="10.97239055170436"><ele>590.0</ele><time>2026-03-29T09:42:19.976Z</time></trkpt><trkpt lat="43.79892475605568" lon="10.972442903804335"><ele>590.0000000000001</ele><time>2026-03-29T09:42:24.967Z</time></trkpt><trkpt lat="43.79897077917318" lon="10.972518472919713"><ele>590.0</ele><time>2026-03-29T09:42:33.957Z</time></trkpt><trkpt lat="43.79893664780222" lon="10.972596703134517"><ele>590.0</ele><time>2026-03-29T09:42:43.95Z</time></trkpt><trkpt lat="43.79887147055423" lon="10.972617152179339"><ele>590.0</ele><time>2026-03-29T09:42:48.948Z</time></trkpt><trkpt lat="43.79881756383669" lon="10.972670764589141"><ele>590.0</ele><time>2026-03-29T09:42:53.947Z</time></trkpt><trkpt lat="43.798772446669645" lon="10.972738315232098"><ele>590.0000000000001</ele><time>2026-03-29T09:42:59.946Z</time></trkpt><trkpt lat="43.79871564941586" lon="10.972814170137065"><ele>590.0</ele><time>2026-03-29T09:43:05.945Z</time></trkpt><trkpt lat="43.798716972299985" lon="10.972903325983722"><ele>592.4285714285714</ele><time>2026-03-29T09:43:14.944Z</time></trkpt><trkpt lat="43.79878028485374" lon="10.97286761496988"><ele>594.8571428571429</ele><time>2026-03-29T09:43:20.946Z</time></trkpt><trkpt lat="43.798858648370135" lon="10.972839963887605"><ele>597.2857142857142</ele><time>2026-03-29T09:43:27.945Z</time></trkpt><trkpt lat="43.79892403219658" lon="10.97287914563232"><ele>599.7142857142858</ele><time>2026-03-29T09:43:36.944Z</time></trkpt><trkpt lat="43.79894209182798" lon="10.972967119642663"><ele>602.1428571428571</ele><time>2026-03-29T09:43:43.944Z</time></trkpt><trkpt lat="43.79887431930933" lon="10.972998586708167"><ele>604.5714285714286</ele><time>2026-03-29T09:43:48.944Z</time></trkpt><trkpt lat="43.798845097277265" lon="10.973078397337806"><ele>607.0</ele><time>2026-03-29T09:43:53.944Z</time></trkpt><trkpt lat="43.79884767171531" lon="10.97316604393911"><ele>606.9999999999999</ele><time>2026-03-29T09:43:59.943Z</time></trkpt><trkpt lat="43.79883731257178" lon="10.973255190173967"><ele>607.0</ele><time>2026-03-29T09:44:05.943Z</time></trkpt><trkpt lat="43.79886503074118" lon="10.97333639079929"><ele>607.0</ele><time>2026-03-29T09:44:12.943Z</time></trkpt><trkpt lat="43.79890262204448" lon="10.973413186138618"><ele>607.0</ele><time>2026-03-29T09:44:16.943Z</time></trkpt><trkpt lat="43.79895240098221" lon="10.973474018910311"><ele>607.0</ele><time>2026-03-29T09:44:23.943Z</time></trkpt><trkpt lat="43.799016175844145" lon="10.973486494160898"><ele>606.9999999999999</ele><time>2026-03-29T09:44:31.943Z</time></trkpt><trkpt lat="43.7990660632961" lon="10.97354264384523"><ele>607.0</ele><time>2026-03-29T09:44:38.942Z</time></trkpt><trkpt lat="43.79912326880193" lon="10.973594195291906"><ele>607.1428571428571</ele><time>2026-03-29T09:44:43.942Z</time></trkpt><trkpt lat="43.79919003304456" lon="10.973553792356752"><ele>607.2857142857142</ele><time>2026-03-29T09:44:48.942Z</time></trkpt><trkpt lat="43.79924278920342" lon="10.973500720522292"><ele>607.4285714285713</ele><time>2026-03-29T09:44:54.942Z</time></trkpt><trkpt lat="43.799314918467125" lon="10.973494406278698"><ele>607.5714285714286</ele><time>2026-03-29T09:44:59.942Z</time></trkpt><trkpt lat="43.79938480728318" lon="10.973510278165467"><ele>607.7142857142858</ele><time>2026-03-29T09:45:03.942Z</time></trkpt><trkpt lat="43.79944839977144" lon="10.973521703451175"><ele>607.8571428571428</ele><time>2026-03-29T09:45:06.942Z</time></trkpt><trkpt lat="43.79952197259674" lon="10.97353050543618"><ele>608.0</ele><time>2026-03-29T09:45:09.942Z</time></trkpt><trkpt lat="43.79960062048038" lon="10.973544311013814"><ele>608.0</ele><time>2026-03-29T09:45:13.941Z</time></trkpt><trkpt lat="43.799678853600255" lon="10.973578446124542"><ele>608.0</ele><time>2026-03-29T09:45:17.941Z</time></trkpt><trkpt lat="43.79972950647955" lon="10.973648688465625"><ele>608.0</ele><time>2026-03-29T09:45:21.941Z</time></trkpt><trkpt lat="43.799733934332004" lon="10.973752440971799"><ele>608.0</ele><time>2026-03-29T09:45:25.943Z</time></trkpt><trkpt lat="43.799730224007895" lon="10.973840288078087"><ele>608.0</ele><time>2026-03-29T09:45:29.943Z</time></trkpt><trkpt lat="43.799712068397504" lon="10.973924914206146"><ele>608.0</ele><time>2026-03-29T09:45:32.944Z</time></trkpt><trkpt lat="43.799705068993624" lon="10.974014253449122"><ele>608.0</ele><time>2026-03-29T09:45:35.943Z</time></trkpt><trkpt lat="43.79975532477636" lon="10.974093835245455"><ele>608.0</ele><time>2026-03-29T09:45:38.943Z</time></trkpt><trkpt lat="43.79978712494219" lon="10.974171041827052"><ele>608.0</ele><time>2026-03-29T09:45:41.943Z</time></trkpt><trkpt lat="43.799821627600345" lon="10.974254618977442"><ele>608.0</ele><time>2026-03-29T09:45:44.943Z</time></trkpt><trkpt lat="43.79985937190949" lon="10.97434014357531"><ele>608.0</ele><time>2026-03-29T09:45:47.943Z</time></trkpt><trkpt lat="43.79989064044749" lon="10.974428103096711"><ele>608.0</ele><time>2026-03-29T09:45:50.943Z</time></trkpt><trkpt lat="43.799924517558956" lon="10.97451199146818"><ele>608.0</ele><time>2026-03-29T09:45:53.943Z</time></trkpt><trkpt lat="43.79996723236622" lon="10.97459875594122"><ele>608.0</ele><time>2026-03-29T09:45:56.943Z</time></trkpt><trkpt lat="43.799999166520074" lon="10.97468318272451"><ele>608.1666666666666</ele><time>2026-03-29T09:45:59.943Z</time></trkpt><trkpt lat="43.80002999844012" lon="10.974795701763172"><ele>608.3333333333333</ele><time>2026-03-29T09:46:03.943Z</time></trkpt><trkpt lat="43.80002826057652" lon="10.974887771562926"><ele>608.5</ele><time>2026-03-29T09:46:06.943Z</time></trkpt><trkpt lat="43.79999241015499" lon="10.974969252675814"><ele>608.6666666666666</ele><time>2026-03-29T09:46:09.943Z</time></trkpt><trkpt lat="43.7999340542921" lon="10.975027415148316"><ele>608.8333333333334</ele><time>2026-03-29T09:46:12.942Z</time></trkpt><trkpt lat="43.79986720542652" lon="10.975077166197039"><ele>609.0</ele><time>2026-03-29T09:46:16.942Z</time></trkpt><trkpt lat="43.79985446704411" lon="10.97519476518664"><ele>607.7142857142857</ele><time>2026-03-29T09:46:20.942Z</time></trkpt><trkpt lat="43.79991748435976" lon="10.975246413384546"><ele>606.4285714285714</ele><time>2026-03-29T09:46:22.942Z</time></trkpt><trkpt lat="43.79999276130785" lon="10.975248998575715"><ele>605.1428571428571</ele><time>2026-03-29T09:46:25.942Z</time></trkpt><trkpt lat="43.800057285956505" lon="10.97525894780974"><ele>603.8571428571429</ele><time>2026-03-29T09:46:28.942Z</time></trkpt><trkpt lat="43.80012733246009" lon="10.975272885942344"><ele>602.5714285714286</ele><time>2026-03-29T09:46:31.942Z</time></trkpt><trkpt lat="43.80019121689871" lon="10.975266888613247"><ele>601.2857142857142</ele><time>2026-03-29T09:46:34.942Z</time></trkpt><trkpt lat="43.80025488303891" lon="10.975213004661859"><ele>600.0</ele><time>2026-03-29T09:46:37.942Z</time></trkpt><trkpt lat="43.80031618903511" lon="10.975152592796864"><ele>599.9999999999999</ele><time>2026-03-29T09:46:40.942Z</time></trkpt><trkpt lat="43.80039953731037" lon="10.975128589115206"><ele>600.0</ele><time>2026-03-29T09:46:43.942Z</time></trkpt><trkpt lat="43.800445999608144" lon="10.975060341668438"><ele>600.0</ele><time>2026-03-29T09:46:46.942Z</time></trkpt><trkpt lat="43.80050604457967" lon="10.975002012740548"><ele>600.0</ele><time>2026-03-29T09:46:49.942Z</time></trkpt><trkpt lat="43.800557059444785" lon="10.974931339890668"><ele>600.0</ele><time>2026-03-29T09:46:52.941Z</time></trkpt><trkpt lat="43.800600401849074" lon="10.974851082955473"><ele>599.9999999999999</ele><time>2026-03-29T09:46:55.941Z</time></trkpt><trkpt lat="43.800647070467704" lon="10.974781000995794"><ele>600.0</ele><time>2026-03-29T09:46:58.941Z</time></trkpt><trkpt lat="43.80070615418193" lon="10.974720786497052"><ele>599.9999999999999</ele><time>2026-03-29T09:47:01.941Z</time></trkpt><trkpt lat="43.800760466992664" lon="10.974667867428549"><ele>600.0</ele><time>2026-03-29T09:47:04.941Z</time></trkpt><trkpt lat="43.80082553365823" lon="10.974611128934132"><ele>600.0</ele><time>2026-03-29T09:47:08.941Z</time></trkpt><trkpt lat="43.80089398828971" lon="10.974569790609948"><ele>600.0</ele><time>2026-03-29T09:47:11.941Z</time></trkpt><trkpt lat="43.80095593374089" lon="10.974507962232687"><ele>600.0</ele><time>2026-03-29T09:47:14.941Z</time></trkpt><trkpt lat="43.801010772609196" lon="10.974443900479416"><ele>599.9999999999999</ele><time>2026-03-29T09:47:17.941Z</time></trkpt><trkpt lat="43.80106494049586" lon="10.97438668956534"><ele>600.0</ele><time>2026-03-29T09:47:20.941Z</time></trkpt><trkpt lat="43.8011331642739" lon="10.974326477192879"><ele>598.9999999999999</ele><time>2026-03-29T09:47:23.941Z</time></trkpt><trkpt lat="43.801196035493405" lon="10.974276653804747"><ele>598.0</ele><time>2026-03-29T09:47:26.941Z</time></trkpt><trkpt lat="43.8012637318632" lon="10.974196703951701"><ele>597.0</ele><time>2026-03-29T09:47:30.942Z</time></trkpt><trkpt lat="43.80130519356541" lon="10.974114977189306"><ele>596.0</ele><time>2026-03-29T09:47:33.942Z</time></trkpt><trkpt lat="43.80136189317645" lon="10.974035123767846"><ele>595.0</ele><time>2026-03-29T09:47:37.941Z</time></trkpt><trkpt lat="43.80141840350709" lon="10.973986422924817"><ele>593.9999999999999</ele><time>2026-03-29T09:47:40.942Z</time></trkpt><trkpt lat="43.80146770914819" lon="10.973926017414517"><ele>593.0</ele><time>2026-03-29T09:47:43.941Z</time></trkpt><trkpt lat="43.80153048744674" lon="10.97387700087718"><ele>593.0</ele><time>2026-03-29T09:47:46.941Z</time></trkpt><trkpt lat="43.80158961922306" lon="10.973821992217273"><ele>593.0</ele><time>2026-03-29T09:47:50.941Z</time></trkpt><trkpt lat="43.80165625719305" lon="10.973784085876588"><ele>593.0</ele><time>2026-03-29T09:47:53.941Z</time></trkpt><trkpt lat="43.801733508892134" lon="10.973747170642602"><ele>593.0</ele><time>2026-03-29T09:47:57.941Z</time></trkpt><trkpt lat="43.80180495678232" lon="10.97368424788877"><ele>593.0</ele><time>2026-03-29T09:48:01.941Z</time></trkpt><trkpt lat="43.80186549130216" lon="10.9736372799957"><ele>593.0</ele><time>2026-03-29T09:48:04.941Z</time></trkpt><trkpt lat="43.801928953805444" lon="10.973585207997653"><ele>592.2857142857142</ele><time>2026-03-29T09:48:08.94Z</time></trkpt><trkpt lat="43.8019866501962" lon="10.973535392223281"><ele>591.5714285714286</ele><time>2026-03-29T09:48:11.94Z</time></trkpt><trkpt lat="43.80205731793318" lon="10.97347608596547"><ele>590.8571428571429</ele><time>2026-03-29T09:48:15.94Z</time></trkpt><trkpt lat="43.80210429375101" lon="10.973410278964497"><ele>590.1428571428571</ele><time>2026-03-29T09:48:18.94Z</time></trkpt><trkpt lat="43.802151853615214" lon="10.973347327155862"><ele>589.4285714285714</ele><time>2026-03-29T09:48:21.94Z</time></trkpt><trkpt lat="43.80222203407034" lon="10.973284747224376"><ele>588.7142857142857</ele><time>2026-03-29T09:48:25.94Z</time></trkpt><trkpt lat="43.80228233188441" lon="10.973219281104734"><ele>588.0</ele><time>2026-03-29T09:48:29.94Z</time></trkpt><trkpt lat="43.80232895737543" lon="10.973158852745783"><ele>589.7142857142857</ele><time>2026-03-29T09:48:32.94Z</time></trkpt><trkpt lat="43.80237306686977" lon="10.973091443272665"><ele>591.4285714285714</ele><time>2026-03-29T09:48:36.94Z</time></trkpt><trkpt lat="43.802422349222155" lon="10.97302575719565"><ele>593.1428571428571</ele><time>2026-03-29T09:48:40.94Z</time></trkpt><trkpt lat="43.80248788577081" lon="10.972979232132195"><ele>594.8571428571429</ele><time>2026-03-29T09:48:44.939Z</time></trkpt><trkpt lat="43.802528881736286" lon="10.97290656282316"><ele>596.5714285714286</ele><time>2026-03-29T09:48:47.939Z</time></trkpt><trkpt lat="43.802561225513784" lon="10.972831391661217"><ele>598.2857142857142</ele><time>2026-03-29T09:48:51.939Z</time></trkpt><trkpt lat="43.802605519655515" lon="10.972756352790228"><ele>600.0</ele><time>2026-03-29T09:48:55.939Z</time></trkpt><trkpt lat="43.80264257171319" lon="10.972680079460142"><ele>598.9999999999999</ele><time>2026-03-29T09:48:59.939Z</time></trkpt><trkpt lat="43.80267481862052" lon="10.972591501140105"><ele>598.0</ele><time>2026-03-29T09:49:03.939Z</time></trkpt><trkpt lat="43.80271294974577" lon="10.972496873999871"><ele>597.0</ele><time>2026-03-29T09:49:07.939Z</time></trkpt><trkpt lat="43.80275176158401" lon="10.972401218058616"><ele>596.0</ele><time>2026-03-29T09:49:12.939Z</time></trkpt><trkpt lat="43.802791119175815" lon="10.972307609740565"><ele>595.0</ele><time>2026-03-29T09:49:17.939Z</time></trkpt><trkpt lat="43.80281904703154" lon="10.972224194043864"><ele>593.9999999999999</ele><time>2026-03-29T09:49:22.939Z</time></trkpt><trkpt lat="43.80285226235474" lon="10.972134687060095"><ele>593.0</ele><time>2026-03-29T09:49:26.938Z</time></trkpt><trkpt lat="43.802887736158674" lon="10.972050873344322"><ele>592.9999999999999</ele><time>2026-03-29T09:49:30.938Z</time></trkpt><trkpt lat="43.80292370670437" lon="10.971962402466747"><ele>593.0</ele><time>2026-03-29T09:49:34.938Z</time></trkpt><trkpt lat="43.802956462365444" lon="10.971874849810893"><ele>593.0</ele><time>2026-03-29T09:49:38.94Z</time></trkpt><trkpt lat="43.80298837246832" lon="10.971798333713293"><ele>593.0</ele><time>2026-03-29T09:49:42.94Z</time></trkpt><trkpt lat="43.80300877969919" lon="10.971700321297371"><ele>593.0</ele><time>2026-03-29T09:49:46.94Z</time></trkpt><trkpt lat="43.80301781815249" lon="10.971601167901483"><ele>592.9999999999999</ele><time>2026-03-29T09:49:50.939Z</time></trkpt><trkpt lat="43.803045255375885" lon="10.971513858266677"><ele>593.0</ele><time>2026-03-29T09:49:54.939Z</time></trkpt><trkpt lat="43.80306883489168" lon="10.971425886574295"><ele>594.8571428571428</ele><time>2026-03-29T09:49:58.939Z</time></trkpt><trkpt lat="43.80310140512338" lon="10.971348000230583"><ele>596.7142857142857</ele><time>2026-03-29T09:50:02.939Z</time></trkpt><trkpt lat="43.803133740309825" lon="10.97126040392055"><ele>598.5714285714286</ele><time>2026-03-29T09:50:06.939Z</time></trkpt><trkpt lat="43.80316032193308" lon="10.971173974698484"><ele>600.4285714285713</ele><time>2026-03-29T09:50:10.939Z</time></trkpt><trkpt lat="43.80316521883112" lon="10.971068233056425"><ele>602.2857142857142</ele><time>2026-03-29T09:50:14.939Z</time></trkpt><trkpt lat="43.80318760680101" lon="10.97096745416686"><ele>604.1428571428571</ele><time>2026-03-29T09:50:18.939Z</time></trkpt><trkpt lat="43.80321506056105" lon="10.970885997581677"><ele>606.0</ele><time>2026-03-29T09:50:21.939Z</time></trkpt><trkpt lat="43.80325270659988" lon="10.970810405120895"><ele>607.1666666666666</ele><time>2026-03-29T09:50:25.938Z</time></trkpt><trkpt lat="43.80328413077728" lon="10.970723434391754"><ele>608.3333333333334</ele><time>2026-03-29T09:50:29.938Z</time></trkpt><trkpt lat="43.803329485408405" lon="10.970643180798142"><ele>609.5</ele><time>2026-03-29T09:50:33.938Z</time></trkpt><trkpt lat="43.80338639846988" lon="10.970562258791983"><ele>610.6666666666667</ele><time>2026-03-29T09:50:37.938Z</time></trkpt><trkpt lat="43.80343988377252" lon="10.970489533490351"><ele>611.8333333333334</ele><time>2026-03-29T09:50:41.938Z</time></trkpt><trkpt lat="43.80348832020126" lon="10.970412376666683"><ele>613.0</ele><time>2026-03-29T09:50:45.938Z</time></trkpt><trkpt lat="43.80353984628147" lon="10.970330459552153"><ele>611.8571428571429</ele><time>2026-03-29T09:50:49.938Z</time></trkpt><trkpt lat="43.803572477722255" lon="10.970252125765818"><ele>610.7142857142857</ele><time>2026-03-29T09:50:52.938Z</time></trkpt><trkpt lat="43.80360287501668" lon="10.970164124126754"><ele>609.5714285714286</ele><time>2026-03-29T09:50:55.938Z</time></trkpt><trkpt lat="43.80365338821878" lon="10.970080782130449"><ele>608.4285714285714</ele><time>2026-03-29T09:50:59.938Z</time></trkpt><trkpt lat="43.80369286965668" lon="10.969980574516894"><ele>607.2857142857143</ele><time>2026-03-29T09:51:03.937Z</time></trkpt><trkpt lat="43.80372511799812" lon="10.969903840079652"><ele>606.1428571428571</ele><time>2026-03-29T09:51:06.937Z</time></trkpt><trkpt lat="43.80374742108651" lon="10.9698221519583"><ele>605.0</ele><time>2026-03-29T09:51:09.937Z</time></trkpt><trkpt lat="43.80378661678313" lon="10.96974211791236"><ele>605.0</ele><time>2026-03-29T09:51:12.937Z</time></trkpt><trkpt lat="43.80382277836835" lon="10.96966286738641"><ele>605.0</ele><time>2026-03-29T09:51:15.937Z</time></trkpt><trkpt lat="43.803859798313574" lon="10.969580644591934"><ele>605.0</ele><time>2026-03-29T09:51:18.937Z</time></trkpt><trkpt lat="43.803900841901715" lon="10.969497682361304"><ele>605.0</ele><time>2026-03-29T09:51:22.937Z</time></trkpt><trkpt lat="43.80394917181421" lon="10.969431042195133"><ele>605.0</ele><time>2026-03-29T09:51:25.937Z</time></trkpt><trkpt lat="43.80400439052102" lon="10.969353175261116"><ele>605.0</ele><time>2026-03-29T09:51:29.937Z</time></trkpt><trkpt lat="43.80406924253855" lon="10.969273767215215"><ele>605.0</ele><time>2026-03-29T09:51:33.937Z</time></trkpt><trkpt lat="43.80412886738917" lon="10.969229857023445"><ele>604.4285714285714</ele><time>2026-03-29T09:51:37.937Z</time></trkpt><trkpt lat="43.80420043237756" lon="10.969172500726046"><ele>603.8571428571429</ele><time>2026-03-29T09:51:41.938Z</time></trkpt><trkpt lat="43.80426391524405" lon="10.969120420180069"><ele>603.2857142857142</ele><time>2026-03-29T09:51:45.939Z</time></trkpt><trkpt lat="43.80431381400509" lon="10.969067073619847"><ele>602.7142857142858</ele><time>2026-03-29T09:51:48.938Z</time></trkpt><trkpt lat="43.80436753790069" lon="10.969015326206646"><ele>602.1428571428572</ele><time>2026-03-29T09:51:51.938Z</time></trkpt><trkpt lat="43.80442818591061" lon="10.968950457608479"><ele>601.5714285714286</ele><time>2026-03-29T09:51:55.938Z</time></trkpt><trkpt lat="43.804504504763685" lon="10.968896704054666"><ele>601.0</ele><time>2026-03-29T09:51:59.938Z</time></trkpt><trkpt lat="43.80455229178996" lon="10.968839320402065"><ele>601.0</ele><time>2026-03-29T09:52:02.938Z</time></trkpt><trkpt lat="43.804620209200436" lon="10.968771396577383"><ele>601.0</ele><time>2026-03-29T09:52:06.937Z</time></trkpt><trkpt lat="43.80468453693848" lon="10.968694311405194"><ele>601.0</ele><time>2026-03-29T09:52:10.937Z</time></trkpt><trkpt lat="43.80475011530146" lon="10.968634318023682"><ele>601.0</ele><time>2026-03-29T09:52:14.937Z</time></trkpt><trkpt lat="43.80481074561675" lon="10.968602606391313"><ele>601.0</ele><time>2026-03-29T09:52:17.937Z</time></trkpt><trkpt lat="43.80487927286443" lon="10.968573225731626"><ele>601.0</ele><time>2026-03-29T09:52:21.937Z</time></trkpt><trkpt lat="43.80495863382403" lon="10.968551974119887"><ele>601.0</ele><time>2026-03-29T09:52:25.937Z</time></trkpt><trkpt lat="43.805018848425675" lon="10.96852000324902"><ele>601.0</ele><time>2026-03-29T09:52:28.937Z</time></trkpt><trkpt lat="43.80508888686204" lon="10.96847083019386"><ele>601.0</ele><time>2026-03-29T09:52:32.937Z</time></trkpt><trkpt lat="43.80515836937218" lon="10.968425351182765"><ele>601.0</ele><time>2026-03-29T09:52:36.937Z</time></trkpt><trkpt lat="43.80523362707306" lon="10.968391287086327"><ele>601.0</ele><time>2026-03-29T09:52:39.937Z</time></trkpt><trkpt lat="43.805289503951606" lon="10.96833655861352"><ele>601.0</ele><time>2026-03-29T09:52:42.937Z</time></trkpt><trkpt lat="43.80536059388706" lon="10.96829347318364"><ele>601.0</ele><time>2026-03-29T09:52:45.936Z</time></trkpt><trkpt lat="43.805424311470404" lon="10.968267570810516"><ele>602.5</ele><time>2026-03-29T09:52:48.936Z</time></trkpt><trkpt lat="43.80547972689347" lon="10.968219677636947"><ele>604.0</ele><time>2026-03-29T09:52:51.936Z</time></trkpt><trkpt lat="43.80556221842418" lon="10.968199773074073"><ele>605.5</ele><time>2026-03-29T09:52:55.936Z</time></trkpt><trkpt lat="43.805629405588036" lon="10.968163920914133"><ele>607.0</ele><time>2026-03-29T09:52:58.936Z</time></trkpt><trkpt lat="43.80570047209551" lon="10.968138309825333"><ele>608.5</ele><time>2026-03-29T09:53:01.936Z</time></trkpt><trkpt lat="43.805771523727714" lon="10.968094672059236"><ele>610.0</ele><time>2026-03-29T09:53:04.936Z</time></trkpt><trkpt lat="43.80584840428048" lon="10.96804129299144"><ele>610.0</ele><time>2026-03-29T09:53:08.936Z</time></trkpt><trkpt lat="43.805903095085974" lon="10.967992546127508"><ele>610.0</ele><time>2026-03-29T09:53:11.936Z</time></trkpt><trkpt lat="43.805969633220535" lon="10.967936960555392"><ele>610.0</ele><time>2026-03-29T09:53:14.936Z</time></trkpt><trkpt lat="43.80603152887663" lon="10.967893589300491"><ele>610.0</ele><time>2026-03-29T09:53:17.936Z</time></trkpt><trkpt lat="43.80609713229279" lon="10.967866442433376"><ele>610.0</ele><time>2026-03-29T09:53:20.936Z</time></trkpt><trkpt lat="43.806161873138805" lon="10.967846217577153"><ele>610.0</ele><time>2026-03-29T09:53:23.935Z</time></trkpt><trkpt lat="43.806221960794375" lon="10.967819296270806"><ele>610.0</ele><time>2026-03-29T09:53:26.935Z</time></trkpt><trkpt lat="43.80629667845731" lon="10.967780601432363"><ele>607.5</ele><time>2026-03-29T09:53:30.935Z</time></trkpt><trkpt lat="43.806363180876716" lon="10.96776411155541"><ele>605.0</ele><time>2026-03-29T09:53:33.935Z</time></trkpt><trkpt lat="43.80643402440788" lon="10.967736716967044"><ele>602.5</ele><time>2026-03-29T09:53:37.935Z</time></trkpt><trkpt lat="43.80651584001134" lon="10.967750662431518"><ele>600.0</ele><time>2026-03-29T09:53:41.935Z</time></trkpt><trkpt lat="43.806589161469326" lon="10.96771797315068"><ele>597.5</ele><time>2026-03-29T09:53:44.935Z</time></trkpt><trkpt lat="43.80667233612237" lon="10.967708035104193"><ele>595.0</ele><time>2026-03-29T09:53:48.937Z</time></trkpt><trkpt lat="43.80674020393655" lon="10.96770338203818"><ele>595.0</ele><time>2026-03-29T09:53:52.937Z</time></trkpt><trkpt lat="43.80681966889401" lon="10.96772221678878"><ele>595.0</ele><time>2026-03-29T09:53:56.936Z</time></trkpt><trkpt lat="43.80689098421856" lon="10.96772072836257"><ele>595.0</ele><time>2026-03-29T09:53:59.936Z</time></trkpt><trkpt lat="43.806976369496326" lon="10.967734832817483"><ele>595.0</ele><time>2026-03-29T09:54:04.937Z</time></trkpt><trkpt lat="43.80705027686688" lon="10.967722265542378"><ele>595.0</ele><time>2026-03-29T09:54:08.937Z</time></trkpt><trkpt lat="43.80711586390517" lon="10.967700527349054"><ele>595.0</ele><time>2026-03-29T09:54:11.937Z</time></trkpt><trkpt lat="43.807200056699166" lon="10.967700599373861"><ele>591.3333333333334</ele><time>2026-03-29T09:54:14.936Z</time></trkpt><trkpt lat="43.80726995169736" lon="10.967718033064237"><ele>587.6666666666667</ele><time>2026-03-29T09:54:17.936Z</time></trkpt><trkpt lat="43.807342031343886" lon="10.967720954029788"><ele>584.0</ele><time>2026-03-29T09:54:20.936Z</time></trkpt><trkpt lat="43.8074173360993" lon="10.967731979495943"><ele>580.3333333333334</ele><time>2026-03-29T09:54:23.936Z</time></trkpt><trkpt lat="43.8074919630476" lon="10.967735499476655"><ele>576.6666666666666</ele><time>2026-03-29T09:54:26.936Z</time></trkpt><trkpt lat="43.80756920015651" lon="10.967746765558793"><ele>573.0</ele><time>2026-03-29T09:54:29.936Z</time></trkpt><trkpt lat="43.80764464089723" lon="10.967786830770445"><ele>574.3333333333334</ele><time>2026-03-29T09:54:32.936Z</time></trkpt><trkpt lat="43.80771705511552" lon="10.967790120149944"><ele>575.6666666666666</ele><time>2026-03-29T09:54:35.936Z</time></trkpt><trkpt lat="43.807792275363134" lon="10.967823449372997"><ele>577.0</ele><time>2026-03-29T09:54:38.936Z</time></trkpt><trkpt lat="43.80786587495124" lon="10.967865260809235"><ele>578.3333333333333</ele><time>2026-03-29T09:54:41.936Z</time></trkpt><trkpt lat="43.807933948304175" lon="10.967869304489977"><ele>579.6666666666666</ele><time>2026-03-29T09:54:44.936Z</time></trkpt><trkpt lat="43.80801025198521" lon="10.967918881742749"><ele>581.0</ele><time>2026-03-29T09:54:47.936Z</time></trkpt><trkpt lat="43.80808256693202" lon="10.967949405985062"><ele>581.0</ele><time>2026-03-29T09:54:50.936Z</time></trkpt><trkpt lat="43.80815674510689" lon="10.968008893863264"><ele>581.0</ele><time>2026-03-29T09:54:53.935Z</time></trkpt><trkpt lat="43.808233480616" lon="10.968024655535125"><ele>581.0</ele><time>2026-03-29T09:54:56.935Z</time></trkpt><trkpt lat="43.8083058033186" lon="10.96803582255332"><ele>581.0</ele><time>2026-03-29T09:54:59.935Z</time></trkpt><trkpt lat="43.80838476667857" lon="10.968041202114534"><ele>581.0</ele><time>2026-03-29T09:55:02.935Z</time></trkpt><trkpt lat="43.808472236427434" lon="10.968037712111983"><ele>581.0</ele><time>2026-03-29T09:55:05.935Z</time></trkpt><trkpt lat="43.808536390817686" lon="10.968033390363306"><ele>581.1666666666666</ele><time>2026-03-29T09:55:08.935Z</time></trkpt><trkpt lat="43.80860856029158" lon="10.968057839825315"><ele>581.3333333333333</ele><time>2026-03-29T09:55:11.935Z</time></trkpt><trkpt lat="43.80867402987675" lon="10.968081680963543"><ele>581.5</ele><time>2026-03-29T09:55:14.935Z</time></trkpt><trkpt lat="43.808740482320154" lon="10.968110597670961"><ele>581.6666666666666</ele><time>2026-03-29T09:55:17.935Z</time></trkpt><trkpt lat="43.80881605418595" lon="10.968165983895314"><ele>581.8333333333334</ele><time>2026-03-29T09:55:20.935Z</time></trkpt><trkpt lat="43.80888176337985" lon="10.96823806895873"><ele>582.0</ele><time>2026-03-29T09:55:23.935Z</time></trkpt><trkpt lat="43.80894830759045" lon="10.968267625698685"><ele>582.0</ele><time>2026-03-29T09:55:26.935Z</time></trkpt><trkpt lat="43.809012314758796" lon="10.968303275968793"><ele>582.0</ele><time>2026-03-29T09:55:29.935Z</time></trkpt><trkpt lat="43.809085624397945" lon="10.96828487423293"><ele>582.0</ele><time>2026-03-29T09:55:32.934Z</time></trkpt><trkpt lat="43.80915244534193" lon="10.968302861273592"><ele>582.0</ele><time>2026-03-29T09:55:34.934Z</time></trkpt><trkpt lat="43.809227848137674" lon="10.968292775504397"><ele>582.0</ele><time>2026-03-29T09:55:37.934Z</time></trkpt><trkpt lat="43.80929750810054" lon="10.968331030803977"><ele>582.0</ele><time>2026-03-29T09:55:40.934Z</time></trkpt><trkpt lat="43.809373926306755" lon="10.968354636480784"><ele>582.0</ele><time>2026-03-29T09:55:43.934Z</time></trkpt><trkpt lat="43.809447402521904" lon="10.968414892768367"><ele>577.7142857142857</ele><time>2026-03-29T09:55:46.934Z</time></trkpt><trkpt lat="43.809508738021414" lon="10.968483625816706"><ele>573.4285714285713</ele><time>2026-03-29T09:55:49.934Z</time></trkpt><trkpt lat="43.809539125403674" lon="10.968577632404303"><ele>569.1428571428571</ele><time>2026-03-29T09:55:52.934Z</time></trkpt><trkpt lat="43.80958992760355" lon="10.968637324594772"><ele>564.8571428571429</ele><time>2026-03-29T09:55:55.935Z</time></trkpt><trkpt lat="43.80965115972126" lon="10.96867250871597"><ele>560.5714285714287</ele><time>2026-03-29T09:55:58.935Z</time></trkpt><trkpt lat="43.80971827624072" lon="10.96868413304666"><ele>556.2857142857143</ele><time>2026-03-29T09:56:01.936Z</time></trkpt><trkpt lat="43.80976824589086" lon="10.968753654016092"><ele>552.0</ele><time>2026-03-29T09:56:04.935Z</time></trkpt><trkpt lat="43.80983188490187" lon="10.968748976440297"><ele>552.0</ele><time>2026-03-29T09:56:07.935Z</time></trkpt><trkpt lat="43.80990149466513" lon="10.96877430249663"><ele>552.0</ele><time>2026-03-29T09:56:10.935Z</time></trkpt><trkpt lat="43.80997215439046" lon="10.968807794045398"><ele>552.0</ele><time>2026-03-29T09:56:13.935Z</time></trkpt><trkpt lat="43.81003066596065" lon="10.9688409430998"><ele>552.0</ele><time>2026-03-29T09:56:16.934Z</time></trkpt><trkpt lat="43.810093700598344" lon="10.968854090501708"><ele>552.0</ele><time>2026-03-29T09:56:18.934Z</time></trkpt><trkpt lat="43.81016834684272" lon="10.968860722636439"><ele>552.0</ele><time>2026-03-29T09:56:22.934Z</time></trkpt><trkpt lat="43.81021416959747" lon="10.968786287035647"><ele>552.0</ele><time>2026-03-29T09:56:25.934Z</time></trkpt><trkpt lat="43.81028320343949" lon="10.968721654410631"><ele>550.6666666666666</ele><time>2026-03-29T09:56:28.934Z</time></trkpt><trkpt lat="43.810356031157795" lon="10.96867056466047"><ele>549.3333333333334</ele><time>2026-03-29T09:56:31.934Z</time></trkpt><trkpt lat="43.81038202057411" lon="10.968562453043516"><ele>548.0</ele><time>2026-03-29T09:56:34.934Z</time></trkpt><trkpt lat="43.81042584032289" lon="10.968472083000718"><ele>546.6666666666667</ele><time>2026-03-29T09:56:37.934Z</time></trkpt><trkpt lat="43.81046823843019" lon="10.968402207906356"><ele>545.3333333333334</ele><time>2026-03-29T09:56:40.934Z</time></trkpt><trkpt lat="43.81049333596046" lon="10.968309643212992"><ele>544.0</ele><time>2026-03-29T09:56:43.934Z</time></trkpt><trkpt lat="43.810543101127855" lon="10.968219220790678"><ele>543.9999999999999</ele><time>2026-03-29T09:56:47.934Z</time></trkpt><trkpt lat="43.81060395933911" lon="10.96813214715349"><ele>544.0</ele><time>2026-03-29T09:56:51.934Z</time></trkpt><trkpt lat="43.810655775981566" lon="10.96807431957443"><ele>544.0</ele><time>2026-03-29T09:56:54.933Z</time></trkpt><trkpt lat="43.810721482631315" lon="10.968045670980024"><ele>544.0</ele><time>2026-03-29T09:56:57.933Z</time></trkpt><trkpt lat="43.81078667259066" lon="10.968027254774446"><ele>544.0</ele><time>2026-03-29T09:57:00.933Z</time></trkpt><trkpt lat="43.81085037034142" lon="10.96799220043571"><ele>543.9999999999999</ele><time>2026-03-29T09:57:03.933Z</time></trkpt><trkpt lat="43.810921698341126" lon="10.967919276671095"><ele>544.0</ele><time>2026-03-29T09:57:07.933Z</time></trkpt><trkpt lat="43.81097967853196" lon="10.967834847278956"><ele>540.5</ele><time>2026-03-29T09:57:10.933Z</time></trkpt><trkpt lat="43.81101169992209" lon="10.967740594970822"><ele>537.0</ele><time>2026-03-29T09:57:13.933Z</time></trkpt><trkpt lat="43.81104232569704" lon="10.967631943226852"><ele>533.5</ele><time>2026-03-29T09:57:16.933Z</time></trkpt><trkpt lat="43.811072541360986" lon="10.967519185820038"><ele>530.0</ele><time>2026-03-29T09:57:19.933Z</time></trkpt><trkpt lat="43.81111823447597" lon="10.96742775043676"><ele>526.5</ele><time>2026-03-29T09:57:22.933Z</time></trkpt><trkpt lat="43.81113063350805" lon="10.967328731822738"><ele>523.0</ele><time>2026-03-29T09:57:25.933Z</time></trkpt><trkpt lat="43.811147170950086" lon="10.967216165915987"><ele>523.0</ele><time>2026-03-29T09:57:29.933Z</time></trkpt><trkpt lat="43.81118251357543" lon="10.967055576267853"><ele>523.0</ele><time>2026-03-29T09:57:34.932Z</time></trkpt><trkpt lat="43.81119774787639" lon="10.966933793402042"><ele>523.0</ele><time>2026-03-29T09:57:38.932Z</time></trkpt><trkpt lat="43.8112300848307" lon="10.966834779623472"><ele>523.0</ele><time>2026-03-29T09:57:41.932Z</time></trkpt><trkpt lat="43.81123664570522" lon="10.966735653987394"><ele>523.0</ele><time>2026-03-29T09:57:44.932Z</time></trkpt><trkpt lat="43.811258200916406" lon="10.966639111983904"><ele>523.0</ele><time>2026-03-29T09:57:47.932Z</time></trkpt><trkpt lat="43.81127323871687" lon="10.966527580005287"><ele>525.3333333333334</ele><time>2026-03-29T09:57:50.932Z</time></trkpt><trkpt lat="43.8113059915193" lon="10.96643530086952"><ele>527.6666666666667</ele><time>2026-03-29T09:57:53.932Z</time></trkpt><trkpt lat="43.81135488154441" lon="10.966338153115423"><ele>530.0</ele><time>2026-03-29T09:57:56.932Z</time></trkpt><trkpt lat="43.81139835444433" lon="10.96624459732799"><ele>532.3333333333334</ele><time>2026-03-29T09:57:59.934Z</time></trkpt><trkpt lat="43.81145153985648" lon="10.96617046664345"><ele>534.6666666666666</ele><time>2026-03-29T09:58:02.933Z</time></trkpt><trkpt lat="43.81148907170195" lon="10.966092359141287"><ele>537.0</ele><time>2026-03-29T09:58:05.934Z</time></trkpt><trkpt lat="43.81153140295562" lon="10.96601135079084"><ele>536.9999999999999</ele><time>2026-03-29T09:58:08.934Z</time></trkpt><trkpt lat="43.8115812902652" lon="10.96594530305434"><ele>537.0</ele><time>2026-03-29T09:58:11.936Z</time></trkpt><trkpt lat="43.811614091098036" lon="10.965869379318695"><ele>537.0</ele><time>2026-03-29T09:58:14.938Z</time></trkpt><trkpt lat="43.81165765370443" lon="10.965804830632353"><ele>537.0</ele><time>2026-03-29T09:58:17.94Z</time></trkpt><trkpt lat="43.81172374821128" lon="10.965748798831639"><ele>537.0</ele><time>2026-03-29T09:58:20.941Z</time></trkpt><trkpt lat="43.81177439887743" lon="10.965681421924604"><ele>536.9999999999999</ele><time>2026-03-29T09:58:23.942Z</time></trkpt><trkpt lat="43.8118236008248" lon="10.965613796559643"><ele>537.0</ele><time>2026-03-29T09:58:26.943Z</time></trkpt><trkpt lat="43.81186828888095" lon="10.965534312727748"><ele>536.4285714285713</ele><time>2026-03-29T09:58:29.944Z</time></trkpt><trkpt lat="43.81192922826952" lon="10.965469912613608"><ele>535.8571428571429</ele><time>2026-03-29T09:58:32.945Z</time></trkpt><trkpt lat="43.81197818748457" lon="10.965398917366718"><ele>535.2857142857142</ele><time>2026-03-29T09:58:35.945Z</time></trkpt><trkpt lat="43.812019744881084" lon="10.965318984211711"><ele>534.7142857142857</ele><time>2026-03-29T09:58:38.946Z</time></trkpt><trkpt lat="43.81209149944705" lon="10.965267994634784"><ele>534.1428571428571</ele><time>2026-03-29T09:58:41.946Z</time></trkpt><trkpt lat="43.8121456342455" lon="10.965209004445791"><ele>533.5714285714286</ele><time>2026-03-29T09:58:44.946Z</time></trkpt><trkpt lat="43.812210010377605" lon="10.965140287563507"><ele>533.0</ele><time>2026-03-29T09:58:48.946Z</time></trkpt><trkpt lat="43.81227317878913" lon="10.965097133413087"><ele>533.0</ele><time>2026-03-29T09:58:51.946Z</time></trkpt><trkpt lat="43.812322141841506" lon="10.965011572307258"><ele>533.0</ele><time>2026-03-29T09:58:55.947Z</time></trkpt><trkpt lat="43.81238218404515" lon="10.964964686372655"><ele>533.0</ele><time>2026-03-29T09:58:58.947Z</time></trkpt><trkpt lat="43.81242429526847" lon="10.964877711154815"><ele>533.0</ele><time>2026-03-29T09:59:01.947Z</time></trkpt><trkpt lat="43.8124646366529" lon="10.96479722403287"><ele>533.0</ele><time>2026-03-29T09:59:04.947Z</time></trkpt><trkpt lat="43.812486554713296" lon="10.964698558716302"><ele>533.0</ele><time>2026-03-29T09:59:07.947Z</time></trkpt><trkpt lat="43.81248928367186" lon="10.964600873688159"><ele>533.0</ele><time>2026-03-29T09:59:10.947Z</time></trkpt><trkpt lat="43.812513071314655" lon="10.96449505542559"><ele>533.0</ele><time>2026-03-29T09:59:13.947Z</time></trkpt><trkpt lat="43.812534807998944" lon="10.964384751461598"><ele>533.0</ele><time>2026-03-29T09:59:16.947Z</time></trkpt><trkpt lat="43.81253402058671" lon="10.964288360491771"><ele>533.0</ele><time>2026-03-29T09:59:19.947Z</time></trkpt><trkpt lat="43.81251375536462" lon="10.964180889912171"><ele>533.0</ele><time>2026-03-29T09:59:23.947Z</time></trkpt><trkpt lat="43.81251009295509" lon="10.964085497089505"><ele>533.0</ele><time>2026-03-29T09:59:26.947Z</time></trkpt><trkpt lat="43.812514600949655" lon="10.96398986889165"><ele>533.0</ele><time>2026-03-29T09:59:29.946Z</time></trkpt><trkpt lat="43.81251179597771" lon="10.963896353789806"><ele>533.0</ele><time>2026-03-29T09:59:32.946Z</time></trkpt><trkpt lat="43.81255605103711" lon="10.96381308946364"><ele>533.0</ele><time>2026-03-29T09:59:35.946Z</time></trkpt><trkpt lat="43.812623423896355" lon="10.963762242616466"><ele>533.0</ele><time>2026-03-29T09:59:39.946Z</time></trkpt><trkpt lat="43.81268336820405" lon="10.963707992475669"><ele>533.0</ele><time>2026-03-29T09:59:43.946Z</time></trkpt><trkpt lat="43.81273945700874" lon="10.963664500457087"><ele>533.0</ele><time>2026-03-29T09:59:46.946Z</time></trkpt><trkpt lat="43.81280118227678" lon="10.963610254085019"><ele>533.0</ele><time>2026-03-29T09:59:49.946Z</time></trkpt><trkpt lat="43.81285358186968" lon="10.963544401020847"><ele>533.0</ele><time>2026-03-29T09:59:52.946Z</time></trkpt><trkpt lat="43.812899255580696" lon="10.963446470120624"><ele>533.0</ele><time>2026-03-29T09:59:55.946Z</time></trkpt><trkpt lat="43.81293382936127" lon="10.963342857777276"><ele>533.0</ele><time>2026-03-29T09:59:58.946Z</time></trkpt><trkpt lat="43.81297454344684" lon="10.963263590623566"><ele>533.0</ele><time>2026-03-29T10:00:01.946Z</time></trkpt><trkpt lat="43.813004564288704" lon="10.963166366118845"><ele>533.0</ele><time>2026-03-29T10:00:04.946Z</time></trkpt><trkpt lat="43.8130213287275" lon="10.963071982903225"><ele>533.0</ele><time>2026-03-29T10:00:07.947Z</time></trkpt><trkpt lat="43.81305423929914" lon="10.962980706040844"><ele>533.0</ele><time>2026-03-29T10:00:10.947Z</time></trkpt><trkpt lat="43.81308791811182" lon="10.96290221199305"><ele>533.0</ele><time>2026-03-29T10:00:13.947Z</time></trkpt><trkpt lat="43.813126406606685" lon="10.962808282550398"><ele>533.0</ele><time>2026-03-29T10:00:16.948Z</time></trkpt><trkpt lat="43.81316340437413" lon="10.962737120816163"><ele>533.0</ele><time>2026-03-29T10:00:19.947Z</time></trkpt><trkpt lat="43.813217894078626" lon="10.962678833224196"><ele>533.0</ele><time>2026-03-29T10:00:22.947Z</time></trkpt><trkpt lat="43.81329615893556" lon="10.96265045813331"><ele>533.0</ele><time>2026-03-29T10:00:26.947Z</time></trkpt><trkpt lat="43.81335937262027" lon="10.96262731834005"><ele>533.0</ele><time>2026-03-29T10:00:29.947Z</time></trkpt><trkpt lat="43.81342388852042" lon="10.962565773524247"><ele>533.0</ele><time>2026-03-29T10:00:32.947Z</time></trkpt><trkpt lat="43.81349136639691" lon="10.96251140519967"><ele>533.0</ele><time>2026-03-29T10:00:35.947Z</time></trkpt><trkpt lat="43.81355001604556" lon="10.962467805293057"><ele>533.0</ele><time>2026-03-29T10:00:38.947Z</time></trkpt><trkpt lat="43.81362357751465" lon="10.962440202400552"><ele>533.3333333333333</ele><time>2026-03-29T10:00:41.947Z</time></trkpt><trkpt lat="43.813686805935724" lon="10.962394965278424"><ele>533.6666666666666</ele><time>2026-03-29T10:00:44.947Z</time></trkpt><trkpt lat="43.81375389952728" lon="10.962371659418466"><ele>534.0</ele><time>2026-03-29T10:00:47.947Z</time></trkpt><trkpt lat="43.81382790658164" lon="10.96235374523484"><ele>534.3333333333334</ele><time>2026-03-29T10:00:50.947Z</time></trkpt><trkpt lat="43.813910842854895" lon="10.96230657870677"><ele>534.6666666666667</ele><time>2026-03-29T10:00:54.947Z</time></trkpt><trkpt lat="43.81396177579432" lon="10.962226728924255"><ele>535.0</ele><time>2026-03-29T10:00:57.946Z</time></trkpt><trkpt lat="43.81402647526364" lon="10.962180332732231"><ele>535.0</ele><time>2026-03-29T10:01:00.946Z</time></trkpt><trkpt lat="43.8140858485978" lon="10.962100490497015"><ele>535.0</ele><time>2026-03-29T10:01:03.946Z</time></trkpt><trkpt lat="43.8140960027162" lon="10.961999674740532"><ele>535.0</ele><time>2026-03-29T10:01:06.946Z</time></trkpt><trkpt lat="43.81416180061102" lon="10.961908475890727"><ele>535.0</ele><time>2026-03-29T10:01:09.946Z</time></trkpt><trkpt lat="43.81421936326174" lon="10.961812741318075"><ele>535.0</ele><time>2026-03-29T10:01:13.946Z</time></trkpt><trkpt lat="43.814259078123754" lon="10.961728621515352"><ele>535.0</ele><time>2026-03-29T10:01:16.946Z</time></trkpt><trkpt lat="43.81431317578686" lon="10.961681923045981"><ele>533.5714285714286</ele><time>2026-03-29T10:01:19.946Z</time></trkpt><trkpt lat="43.81435907053502" lon="10.96160978061579"><ele>532.1428571428571</ele><time>2026-03-29T10:01:22.946Z</time></trkpt><trkpt lat="43.81440820279334" lon="10.961547341619456"><ele>530.7142857142858</ele><time>2026-03-29T10:01:25.946Z</time></trkpt><trkpt lat="43.81446403221139" lon="10.961470009370647"><ele>529.2857142857142</ele><time>2026-03-29T10:01:29.946Z</time></trkpt><trkpt lat="43.81451750043041" lon="10.961422785697406"><ele>527.8571428571429</ele><time>2026-03-29T10:01:32.946Z</time></trkpt><trkpt lat="43.8145692410964" lon="10.96136441869064"><ele>526.4285714285714</ele><time>2026-03-29T10:01:35.946Z</time></trkpt><trkpt lat="43.81464798754655" lon="10.961345040292798"><ele>525.0</ele><time>2026-03-29T10:01:38.946Z</time></trkpt><trkpt lat="43.81470945884246" lon="10.961317359315133"><ele>525.0</ele><time>2026-03-29T10:01:42.946Z</time></trkpt><trkpt lat="43.8147866475626" lon="10.961282698467055"><ele>525.0</ele><time>2026-03-29T10:01:46.945Z</time></trkpt><trkpt lat="43.814853173480806" lon="10.961241538085188"><ele>525.0</ele><time>2026-03-29T10:01:50.945Z</time></trkpt><trkpt lat="43.81491200848704" lon="10.961192860955558"><ele>525.0</ele><time>2026-03-29T10:01:53.945Z</time></trkpt><trkpt lat="43.81497632966507" lon="10.961127788665468"><ele>525.0</ele><time>2026-03-29T10:01:56.945Z</time></trkpt><trkpt lat="43.81504144897186" lon="10.961044013352556"><ele>525.0</ele><time>2026-03-29T10:02:00.945Z</time></trkpt><trkpt lat="43.81510851464576" lon="10.961002701098005"><ele>525.4285714285714</ele><time>2026-03-29T10:02:04.945Z</time></trkpt><trkpt lat="43.815174317951765" lon="10.960972814549516"><ele>525.8571428571429</ele><time>2026-03-29T10:02:07.945Z</time></trkpt><trkpt lat="43.815251628772614" lon="10.960944171509473"><ele>526.2857142857142</ele><time>2026-03-29T10:02:11.946Z</time></trkpt><trkpt lat="43.815327312802026" lon="10.960897645698243"><ele>526.7142857142858</ele><time>2026-03-29T10:02:15.946Z</time></trkpt><trkpt lat="43.815377589664614" lon="10.96083948105424"><ele>527.1428571428571</ele><time>2026-03-29T10:02:18.946Z</time></trkpt><trkpt lat="43.815424994644516" lon="10.960763151958693"><ele>527.5714285714286</ele><time>2026-03-29T10:02:21.946Z</time></trkpt><trkpt lat="43.815474369755684" lon="10.96069815567748"><ele>528.0</ele><time>2026-03-29T10:02:24.946Z</time></trkpt><trkpt lat="43.815529681576876" lon="10.960623053475372"><ele>528.0</ele><time>2026-03-29T10:02:27.946Z</time></trkpt><trkpt lat="43.815582600119896" lon="10.960530929064696"><ele>528.0</ele><time>2026-03-29T10:02:31.946Z</time></trkpt><trkpt lat="43.81562398246115" lon="10.960459589109389"><ele>528.0</ele><time>2026-03-29T10:02:34.946Z</time></trkpt><trkpt lat="43.81567066470304" lon="10.96039636632471"><ele>528.0</ele><time>2026-03-29T10:02:37.946Z</time></trkpt><trkpt lat="43.81571507498541" lon="10.96033174236762"><ele>528.0</ele><time>2026-03-29T10:02:40.946Z</time></trkpt><trkpt lat="43.81577601124507" lon="10.960274599984864"><ele>528.0</ele><time>2026-03-29T10:02:44.946Z</time></trkpt><trkpt lat="43.815854382917074" lon="10.960252087587053"><ele>528.0</ele><time>2026-03-29T10:02:47.946Z</time></trkpt><trkpt lat="43.81587905167772" lon="10.96015549359157"><ele>528.0</ele><time>2026-03-29T10:02:50.946Z</time></trkpt><trkpt lat="43.815913667802704" lon="10.960075948349166"><ele>528.0</ele><time>2026-03-29T10:02:53.946Z</time></trkpt><trkpt lat="43.81593749881145" lon="10.95998255468769"><ele>528.0</ele><time>2026-03-29T10:02:56.946Z</time></trkpt><trkpt lat="43.81594980157075" lon="10.95987919746817"><ele>528.0</ele><time>2026-03-29T10:02:59.945Z</time></trkpt><trkpt lat="43.81596968460141" lon="10.959794591926316"><ele>528.0</ele><time>2026-03-29T10:03:02.945Z</time></trkpt><trkpt lat="43.815977098176724" lon="10.95970398452447"><ele>528.0</ele><time>2026-03-29T10:03:05.945Z</time></trkpt><trkpt lat="43.815992719463516" lon="10.959618011935154"><ele>528.0</ele><time>2026-03-29T10:03:08.945Z</time></trkpt><trkpt lat="43.81601119848961" lon="10.959528949972222"><ele>529.3333333333334</ele><time>2026-03-29T10:03:11.945Z</time></trkpt><trkpt lat="43.81604972676116" lon="10.959428649464046"><ele>530.6666666666666</ele><time>2026-03-29T10:03:14.945Z</time></trkpt><trkpt lat="43.81608877718636" lon="10.959327795328532"><ele>532.0</ele><time>2026-03-29T10:03:17.945Z</time></trkpt><trkpt lat="43.81613900847175" lon="10.959234105438066"><ele>533.3333333333333</ele><time>2026-03-29T10:03:20.945Z</time></trkpt><trkpt lat="43.8161549394595" lon="10.959118405184066"><ele>534.6666666666666</ele><time>2026-03-29T10:03:24.945Z</time></trkpt><trkpt lat="43.81619792073027" lon="10.959040446235058"><ele>536.0</ele><time>2026-03-29T10:03:27.945Z</time></trkpt><trkpt lat="43.816235604535144" lon="10.958958384183422"><ele>536.0</ele><time>2026-03-29T10:03:31.945Z</time></trkpt><trkpt lat="43.816263803256156" lon="10.958878984910593"><ele>536.0</ele><time>2026-03-29T10:03:35.945Z</time></trkpt><trkpt lat="43.816311134006206" lon="10.95880114759464"><ele>536.0</ele><time>2026-03-29T10:03:45.944Z</time></trkpt><trkpt lat="43.81635074491581" lon="10.958721617619632"><ele>536.0</ele><time>2026-03-29T10:03:49.944Z</time></trkpt><trkpt lat="43.81638966281709" lon="10.958628202389745"><ele>536.0</ele><time>2026-03-29T10:03:53.944Z</time></trkpt><trkpt lat="43.81645721018033" lon="10.958558197509177"><ele>536.0</ele><time>2026-03-29T10:03:58.944Z</time></trkpt><trkpt lat="43.8165079483595" lon="10.958487259098165"><ele>536.0</ele><time>2026-03-29T10:04:01.944Z</time></trkpt><trkpt lat="43.81658226965214" lon="10.958447958348115"><ele>536.0</ele><time>2026-03-29T10:04:05.944Z</time></trkpt><trkpt lat="43.81666368257471" lon="10.958448616380185"><ele>536.0</ele><time>2026-03-29T10:04:09.944Z</time></trkpt><trkpt lat="43.81674505871424" lon="10.958461252983849"><ele>536.0</ele><time>2026-03-29T10:04:13.944Z</time></trkpt><trkpt lat="43.81681597163084" lon="10.958447714130171"><ele>536.0</ele><time>2026-03-29T10:04:16.944Z</time></trkpt><trkpt lat="43.816898525408945" lon="10.958458646148689"><ele>536.0</ele><time>2026-03-29T10:04:20.945Z</time></trkpt><trkpt lat="43.81697796831697" lon="10.958461027415627"><ele>536.0</ele><time>2026-03-29T10:04:24.944Z</time></trkpt><trkpt lat="43.817057824633814" lon="10.95845792481028"><ele>535.1428571428571</ele><time>2026-03-29T10:04:27.944Z</time></trkpt><trkpt lat="43.81712206878008" lon="10.958457230073746"><ele>534.2857142857142</ele><time>2026-03-29T10:04:30.945Z</time></trkpt><trkpt lat="43.81719159297737" lon="10.958442069498371"><ele>533.4285714285713</ele><time>2026-03-29T10:04:33.945Z</time></trkpt><trkpt lat="43.81726055111066" lon="10.95842964323329"><ele>532.5714285714286</ele><time>2026-03-29T10:04:36.945Z</time></trkpt><trkpt lat="43.817328639597264" lon="10.958426725766557"><ele>531.7142857142857</ele><time>2026-03-29T10:04:39.945Z</time></trkpt><trkpt lat="43.81740436148669" lon="10.958441389368854"><ele>530.8571428571428</ele><time>2026-03-29T10:04:42.945Z</time></trkpt><trkpt lat="43.817473565954636" lon="10.958452137646372"><ele>530.0</ele><time>2026-03-29T10:04:45.945Z</time></trkpt><trkpt lat="43.81753764650154" lon="10.958466808259537"><ele>529.9999999999999</ele><time>2026-03-29T10:04:47.945Z</time></trkpt><trkpt lat="43.817607083629845" lon="10.958456277048676"><ele>530.0</ele><time>2026-03-29T10:04:50.944Z</time></trkpt><trkpt lat="43.81766471976047" lon="10.958413892191624"><ele>530.0</ele><time>2026-03-29T10:04:53.944Z</time></trkpt><trkpt lat="43.81772653773861" lon="10.95837071146498"><ele>530.0</ele><time>2026-03-29T10:04:56.944Z</time></trkpt><trkpt lat="43.817796173911" lon="10.958358345292348"><ele>530.0</ele><time>2026-03-29T10:04:59.944Z</time></trkpt><trkpt lat="43.81786449306284" lon="10.95832397419869"><ele>529.9999999999999</ele><time>2026-03-29T10:05:02.944Z</time></trkpt><trkpt lat="43.81793427025865" lon="10.958259331132993"><ele>530.0</ele><time>2026-03-29T10:05:06.944Z</time></trkpt><trkpt lat="43.81799612245089" lon="10.95823910281244"><ele>525.4285714285713</ele><time>2026-03-29T10:05:09.944Z</time></trkpt><trkpt lat="43.8180513758201" lon="10.958196098256044"><ele>520.8571428571429</ele><time>2026-03-29T10:05:12.944Z</time></trkpt><trkpt lat="43.81811177494124" lon="10.958153928425322"><ele>516.2857142857142</ele><time>2026-03-29T10:05:15.944Z</time></trkpt><trkpt lat="43.81817335829725" lon="10.958085183277879"><ele>511.71428571428567</ele><time>2026-03-29T10:05:18.944Z</time></trkpt><trkpt lat="43.81822360630159" lon="10.958002213671035"><ele>507.1428571428571</ele><time>2026-03-29T10:05:21.944Z</time></trkpt><trkpt lat="43.81826802792283" lon="10.957914308337331"><ele>502.57142857142856</ele><time>2026-03-29T10:05:24.944Z</time></trkpt><trkpt lat="43.818319911914706" lon="10.957825237560732"><ele>498.0</ele><time>2026-03-29T10:05:27.944Z</time></trkpt><trkpt lat="43.818356850758256" lon="10.957720399554368"><ele>498.0</ele><time>2026-03-29T10:05:30.944Z</time></trkpt><trkpt lat="43.818397275558915" lon="10.957642047802313"><ele>497.99999999999994</ele><time>2026-03-29T10:05:33.944Z</time></trkpt><trkpt lat="43.81844817316464" lon="10.95755739907916"><ele>498.0</ele><time>2026-03-29T10:05:37.943Z</time></trkpt><trkpt lat="43.818478872830205" lon="10.95745918239138"><ele>498.0</ele><time>2026-03-29T10:05:40.943Z</time></trkpt><trkpt lat="43.81853071898435" lon="10.957400939764568"><ele>497.99999999999994</ele><time>2026-03-29T10:05:43.943Z</time></trkpt><trkpt lat="43.81860297326373" lon="10.957359874581078"><ele>498.0</ele><time>2026-03-29T10:05:46.943Z</time></trkpt><trkpt lat="43.81865787139277" lon="10.957308911108315"><ele>498.0</ele><time>2026-03-29T10:05:49.943Z</time></trkpt><trkpt lat="43.81868496687116" lon="10.957224684045606"><ele>496.1666666666667</ele><time>2026-03-29T10:05:52.943Z</time></trkpt><trkpt lat="43.81863395731956" lon="10.957160163760234"><ele>494.33333333333337</ele><time>2026-03-29T10:05:57.943Z</time></trkpt><trkpt lat="43.818588996388385" lon="10.95703318760694"><ele>492.5</ele><time>2026-03-29T10:06:00.943Z</time></trkpt><trkpt lat="43.81853787480178" lon="10.956959983357068"><ele>490.6666666666667</ele><time>2026-03-29T10:06:03.943Z</time></trkpt><trkpt lat="43.818482980784545" lon="10.956910809868951"><ele>488.83333333333337</ele><time>2026-03-29T10:06:06.943Z</time></trkpt><trkpt lat="43.818415631671684" lon="10.956861583531063"><ele>487.0</ele><time>2026-03-29T10:06:09.943Z</time></trkpt><trkpt lat="43.81833253224515" lon="10.956860024910759"><ele>487.00000000000006</ele><time>2026-03-29T10:06:13.943Z</time></trkpt><trkpt lat="43.8182698387336" lon="10.956873789906872"><ele>487.0</ele><time>2026-03-29T10:06:16.943Z</time></trkpt><trkpt lat="43.818192142066" lon="10.9569085486992"><ele>487.0</ele><time>2026-03-29T10:06:19.942Z</time></trkpt><trkpt lat="43.81812478222474" lon="10.956926672550685"><ele>487.0</ele><time>2026-03-29T10:06:22.942Z</time></trkpt><trkpt lat="43.81806348095535" lon="10.95700354592843"><ele>487.00000000000006</ele><time>2026-03-29T10:06:25.943Z</time></trkpt><trkpt lat="43.81799229013876" lon="10.957057929603264"><ele>487.0</ele><time>2026-03-29T10:06:28.943Z</time></trkpt><trkpt lat="43.81792450753675" lon="10.957105312505403"><ele>487.0</ele><time>2026-03-29T10:06:31.944Z</time></trkpt><trkpt lat="43.817867052231044" lon="10.957162210438865"><ele>487.0</ele><time>2026-03-29T10:06:34.944Z</time></trkpt><trkpt lat="43.81780599371725" lon="10.957213956256691"><ele>487.0</ele><time>2026-03-29T10:06:37.943Z</time></trkpt><trkpt lat="43.81774236130066" lon="10.957197854737332"><ele>487.0</ele><time>2026-03-29T10:06:39.943Z</time></trkpt><trkpt lat="43.817657580862125" lon="10.957197836171485"><ele>487.0</ele><time>2026-03-29T10:06:42.943Z</time></trkpt><trkpt lat="43.81759059254914" lon="10.957170184346463"><ele>487.0</ele><time>2026-03-29T10:06:45.943Z</time></trkpt><trkpt lat="43.81752519575911" lon="10.95709070311074"><ele>487.0</ele><time>2026-03-29T10:06:48.943Z</time></trkpt><trkpt lat="43.81750751643105" lon="10.957006167272192"><ele>486.14285714285717</ele><time>2026-03-29T10:06:51.943Z</time></trkpt><trkpt lat="43.81750247953243" lon="10.95689929994399"><ele>485.2857142857142</ele><time>2026-03-29T10:06:55.943Z</time></trkpt><trkpt lat="43.817472116925266" lon="10.956803947690766"><ele>484.4285714285714</ele><time>2026-03-29T10:06:58.943Z</time></trkpt><trkpt lat="43.817460134438114" lon="10.956706290952619"><ele>483.57142857142856</ele><time>2026-03-29T10:07:01.943Z</time></trkpt><trkpt lat="43.81741496381937" lon="10.956630173182502"><ele>482.71428571428567</ele><time>2026-03-29T10:07:04.942Z</time></trkpt><trkpt lat="43.81737368629464" lon="10.956553937453252"><ele>481.8571428571428</ele><time>2026-03-29T10:07:07.942Z</time></trkpt><trkpt lat="43.81731957560622" lon="10.956474519928292"><ele>480.99999999999994</ele><time>2026-03-29T10:07:10.942Z</time></trkpt><trkpt lat="43.81726981460215" lon="10.956363840138108"><ele>479.50000000000006</ele><time>2026-03-29T10:07:14.942Z</time></trkpt><trkpt lat="43.81722183689894" lon="10.95627053360462"><ele>478.0</ele><time>2026-03-29T10:07:17.942Z</time></trkpt><trkpt lat="43.81715968752699" lon="10.956198711352183"><ele>476.5</ele><time>2026-03-29T10:07:20.942Z</time></trkpt><trkpt lat="43.81709770982358" lon="10.956132650974803"><ele>475.0</ele><time>2026-03-29T10:07:23.942Z</time></trkpt><trkpt lat="43.81703138686656" lon="10.956077697225394"><ele>473.50000000000006</ele><time>2026-03-29T10:07:26.942Z</time></trkpt><trkpt lat="43.816965959523095" lon="10.95601173733198"><ele>472.0</ele><time>2026-03-29T10:07:29.942Z</time></trkpt><trkpt lat="43.81690635416374" lon="10.955958762436165"><ele>472.0</ele><time>2026-03-29T10:07:32.942Z</time></trkpt><trkpt lat="43.816847791644406" lon="10.955893473251075"><ele>472.0</ele><time>2026-03-29T10:07:35.942Z</time></trkpt><trkpt lat="43.81680023357046" lon="10.955825443456524"><ele>472.0</ele><time>2026-03-29T10:07:38.942Z</time></trkpt><trkpt lat="43.81674580457627" lon="10.955753873529995"><ele>472.0</ele><time>2026-03-29T10:07:41.942Z</time></trkpt><trkpt lat="43.816686785601554" lon="10.955663352126512"><ele>472.0</ele><time>2026-03-29T10:07:45.942Z</time></trkpt><trkpt lat="43.81663389722002" lon="10.955615934534377"><ele>472.0</ele><time>2026-03-29T10:07:48.941Z</time></trkpt><trkpt lat="43.81659090339945" lon="10.955535076974092"><ele>472.0</ele><time>2026-03-29T10:07:52.941Z</time></trkpt><trkpt lat="43.816508277924854" lon="10.95550563982297"><ele>471.42857142857144</ele><time>2026-03-29T10:07:55.941Z</time></trkpt><trkpt lat="43.816443693899934" lon="10.955504748395317"><ele>470.8571428571429</ele><time>2026-03-29T10:07:58.941Z</time></trkpt><trkpt lat="43.816377913503835" lon="10.955525433418472"><ele>470.28571428571433</ele><time>2026-03-29T10:08:01.941Z</time></trkpt><trkpt lat="43.816338745763076" lon="10.95562206107881"><ele>469.7142857142857</ele><time>2026-03-29T10:08:04.941Z</time></trkpt><trkpt lat="43.81634108369818" lon="10.955715560698806"><ele>469.1428571428572</ele><time>2026-03-29T10:08:07.941Z</time></trkpt><trkpt lat="43.81635274661839" lon="10.95582370592085"><ele>468.5714285714286</ele><time>2026-03-29T10:08:11.941Z</time></trkpt><trkpt lat="43.81635783886386" lon="10.95591293028236"><ele>468.0</ele><time>2026-03-29T10:08:14.941Z</time></trkpt><trkpt lat="43.81637677665362" lon="10.956017677993842"><ele>468.0</ele><time>2026-03-29T10:08:17.941Z</time></trkpt><trkpt lat="43.816363742056936" lon="10.956107126454691"><ele>468.00000000000006</ele><time>2026-03-29T10:08:20.941Z</time></trkpt><trkpt lat="43.81630355946213" lon="10.956159669204132"><ele>468.0</ele><time>2026-03-29T10:08:23.941Z</time></trkpt><trkpt lat="43.816231675431986" lon="10.95617902014095"><ele>468.0</ele><time>2026-03-29T10:08:26.941Z</time></trkpt><trkpt lat="43.816165508821236" lon="10.956201486187966"><ele>468.00000000000006</ele><time>2026-03-29T10:08:29.943Z</time></trkpt><trkpt lat="43.81609806615417" lon="10.95619504013411"><ele>468.0</ele><time>2026-03-29T10:08:32.942Z</time></trkpt><trkpt lat="43.81602536048712" lon="10.956167136780314"><ele>468.0</ele><time>2026-03-29T10:08:35.942Z</time></trkpt><trkpt lat="43.815952357037794" lon="10.956135282379398"><ele>468.0</ele><time>2026-03-29T10:08:38.942Z</time></trkpt><trkpt lat="43.81588310945697" lon="10.956096809550022"><ele>468.0</ele><time>2026-03-29T10:08:42.942Z</time></trkpt><trkpt lat="43.81580386079258" lon="10.95608506060798"><ele>468.0</ele><time>2026-03-29T10:08:46.942Z</time></trkpt><trkpt lat="43.81572281780449" lon="10.95609608054679"><ele>468.0</ele><time>2026-03-29T10:08:50.942Z</time></trkpt><trkpt lat="43.81564971800127" lon="10.956105595080436"><ele>468.0</ele><time>2026-03-29T10:08:53.942Z</time></trkpt><trkpt lat="43.81558089626373" lon="10.956108602158814"><ele>468.0</ele><time>2026-03-29T10:08:56.942Z</time></trkpt><trkpt lat="43.81549089475689" lon="10.956125524419946"><ele>468.0</ele><time>2026-03-29T10:09:00.941Z</time></trkpt><trkpt lat="43.815420028757096" lon="10.956122729789788"><ele>468.00000000000006</ele><time>2026-03-29T10:09:03.941Z</time></trkpt><trkpt lat="43.81535560219986" lon="10.956134225036378"><ele>468.0</ele><time>2026-03-29T10:09:06.941Z</time></trkpt><trkpt lat="43.815291865721484" lon="10.956150078495215"><ele>468.0</ele><time>2026-03-29T10:09:09.941Z</time></trkpt><trkpt lat="43.81522749571406" lon="10.956151952920944"><ele>468.00000000000006</ele><time>2026-03-29T10:09:12.941Z</time></trkpt><trkpt lat="43.81516271869527" lon="10.956155126853917"><ele>468.0</ele><time>2026-03-29T10:09:15.941Z</time></trkpt><trkpt lat="43.81510747983715" lon="10.956203592121936"><ele>468.0</ele><time>2026-03-29T10:09:18.941Z</time></trkpt><trkpt lat="43.815052759601706" lon="10.956259366284211"><ele>467.8571428571429</ele><time>2026-03-29T10:09:21.941Z</time></trkpt><trkpt lat="43.81499185697412" lon="10.95629169715153"><ele>467.7142857142858</ele><time>2026-03-29T10:09:24.941Z</time></trkpt><trkpt lat="43.81491041632349" lon="10.956316548851541"><ele>467.57142857142856</ele><time>2026-03-29T10:09:28.941Z</time></trkpt><trkpt lat="43.81484115358505" lon="10.956335206930552"><ele>467.42857142857144</ele><time>2026-03-29T10:09:32.941Z</time></trkpt><trkpt lat="43.814773405703384" lon="10.956344195619142"><ele>467.2857142857143</ele><time>2026-03-29T10:09:36.941Z</time></trkpt><trkpt lat="43.814706353386434" lon="10.95633509131773"><ele>467.1428571428571</ele><time>2026-03-29T10:09:42.941Z</time></trkpt><trkpt lat="43.81463706070216" lon="10.956335207369243"><ele>466.99999999999994</ele><time>2026-03-29T10:09:46.94Z</time></trkpt><trkpt lat="43.8145582523111" lon="10.956328214606211"><ele>466.99999999999994</ele><time>2026-03-29T10:09:51.94Z</time></trkpt><trkpt lat="43.81449127876708" lon="10.956351599900426"><ele>467.0</ele><time>2026-03-29T10:09:56.94Z</time></trkpt><trkpt lat="43.81443693890484" lon="10.956419636694186"><ele>466.99999999999994</ele><time>2026-03-29T10:10:03.94Z</time></trkpt><trkpt lat="43.814399629428735" lon="10.95649198491176"><ele>466.99999999999994</ele><time>2026-03-29T10:10:07.94Z</time></trkpt><trkpt lat="43.81436814142925" lon="10.956587035248793"><ele>467.0</ele><time>2026-03-29T10:10:14.94Z</time></trkpt><trkpt lat="43.81433819564242" lon="10.956683998370183"><ele>466.99999999999994</ele><time>2026-03-29T10:10:19.94Z</time></trkpt><trkpt lat="43.814333805613785" lon="10.956780400466355"><ele>466.99999999999994</ele><time>2026-03-29T10:10:25.94Z</time></trkpt><trkpt lat="43.81430702041778" lon="10.95686913830559"><ele>467.99999999999994</ele><time>2026-03-29T10:10:29.94Z</time></trkpt><trkpt lat="43.81426992923066" lon="10.956953855417494"><ele>469.0</ele><time>2026-03-29T10:10:33.939Z</time></trkpt><trkpt lat="43.81425099914633" lon="10.957040295347165"><ele>469.99999999999994</ele><time>2026-03-29T10:10:36.941Z</time></trkpt><trkpt lat="43.814214695122494" lon="10.957141922009294"><ele>470.99999999999994</ele><time>2026-03-29T10:10:40.941Z</time></trkpt><trkpt lat="43.814190877523195" lon="10.957247467589053"><ele>472.0</ele><time>2026-03-29T10:10:45.941Z</time></trkpt><trkpt lat="43.81417861447208" lon="10.957338405282247"><ele>472.99999999999994</ele><time>2026-03-29T10:10:49.942Z</time></trkpt><trkpt lat="43.81414432960022" lon="10.957426320437643"><ele>473.99999999999994</ele><time>2026-03-29T10:10:53.942Z</time></trkpt><trkpt lat="43.81413680431352" lon="10.957533418191575"><ele>476.1666666666667</ele><time>2026-03-29T10:10:57.941Z</time></trkpt><trkpt lat="43.814127947083655" lon="10.957621833904552"><ele>478.33333333333337</ele><time>2026-03-29T10:11:00.941Z</time></trkpt><trkpt lat="43.8141021469806" lon="10.957748359118462"><ele>480.5</ele><time>2026-03-29T10:11:04.941Z</time></trkpt><trkpt lat="43.81400723484506" lon="10.957759879843787"><ele>482.6666666666667</ele><time>2026-03-29T10:11:07.941Z</time></trkpt><trkpt lat="43.81395699610162" lon="10.957665449841407"><ele>484.83333333333337</ele><time>2026-03-29T10:11:10.941Z</time></trkpt><trkpt lat="43.813893112700136" lon="10.957634070846897"><ele>487.0</ele><time>2026-03-29T10:11:14.941Z</time></trkpt><trkpt lat="43.813837484941025" lon="10.957563282160335"><ele>485.28571428571433</ele><time>2026-03-29T10:11:20.941Z</time></trkpt><trkpt lat="43.81378901738103" lon="10.957481066711736"><ele>483.57142857142856</ele><time>2026-03-29T10:11:24.941Z</time></trkpt><trkpt lat="43.813733009730726" lon="10.95742503909528"><ele>481.8571428571429</ele><time>2026-03-29T10:11:28.941Z</time></trkpt><trkpt lat="43.81367490458608" lon="10.957374442058734"><ele>480.14285714285717</ele><time>2026-03-29T10:11:32.941Z</time></trkpt><trkpt lat="43.81361346401859" lon="10.957331200828202"><ele>478.42857142857144</ele><time>2026-03-29T10:11:36.941Z</time></trkpt><trkpt lat="43.813551089149996" lon="10.95728423588343"><ele>476.7142857142857</ele><time>2026-03-29T10:11:40.941Z</time></trkpt><trkpt lat="43.81348723999621" lon="10.957214536098363"><ele>475.0</ele><time>2026-03-29T10:11:44.94Z</time></trkpt><trkpt lat="43.813417706173645" lon="10.957160971169213"><ele>475.0</ele><time>2026-03-29T10:11:48.94Z</time></trkpt><trkpt lat="43.8133622445366" lon="10.957118506048745"><ele>475.00000000000006</ele><time>2026-03-29T10:11:51.94Z</time></trkpt><trkpt lat="43.81329530721626" lon="10.957076528108837"><ele>475.0</ele><time>2026-03-29T10:11:55.94Z</time></trkpt><trkpt lat="43.81322820713033" lon="10.95703228826181"><ele>475.0</ele><time>2026-03-29T10:11:58.94Z</time></trkpt><trkpt lat="43.8131833648287" lon="10.956954967768821"><ele>475.00000000000006</ele><time>2026-03-29T10:12:01.94Z</time></trkpt><trkpt lat="43.8131629973047" lon="10.956862665078214"><ele>475.0</ele><time>2026-03-29T10:12:04.94Z</time></trkpt><trkpt lat="43.81313120957854" lon="10.9567731350389"><ele>475.0</ele><time>2026-03-29T10:12:08.94Z</time></trkpt><trkpt lat="43.813143808287464" lon="10.956678739111227"><ele>472.42857142857144</ele><time>2026-03-29T10:12:11.94Z</time></trkpt><trkpt lat="43.81315973134026" lon="10.956576965710488"><ele>469.8571428571429</ele><time>2026-03-29T10:12:16.94Z</time></trkpt><trkpt lat="43.81312797925671" lon="10.956479483218827"><ele>467.28571428571433</ele><time>2026-03-29T10:12:20.94Z</time></trkpt><trkpt lat="43.813133698079746" lon="10.95638177409834"><ele>464.7142857142858</ele><time>2026-03-29T10:12:23.94Z</time></trkpt><trkpt lat="43.813092858406264" lon="10.956287184779189"><ele>462.14285714285717</ele><time>2026-03-29T10:12:27.939Z</time></trkpt><trkpt lat="43.81305942524673" lon="10.956197449404218"><ele>459.57142857142867</ele><time>2026-03-29T10:12:30.939Z</time></trkpt><trkpt lat="43.81304029099309" lon="10.95610032210387"><ele>457.00000000000006</ele><time>2026-03-29T10:12:33.939Z</time></trkpt><trkpt lat="43.813015487096315" lon="10.956004153131632"><ele>457.00000000000006</ele><time>2026-03-29T10:12:36.939Z</time></trkpt><trkpt lat="43.81298824044653" lon="10.955879376665658"><ele>457.0</ele><time>2026-03-29T10:12:40.939Z</time></trkpt><trkpt lat="43.81296147814765" lon="10.955792896731598"><ele>457.0</ele><time>2026-03-29T10:12:43.94Z</time></trkpt><trkpt lat="43.81292613687099" lon="10.95569479357021"><ele>457.0</ele><time>2026-03-29T10:12:47.94Z</time></trkpt><trkpt lat="43.81292406141741" lon="10.955589429307814"><ele>457.00000000000006</ele><time>2026-03-29T10:12:50.94Z</time></trkpt><trkpt lat="43.81290806227668" lon="10.955490937826685"><ele>457.0</ele><time>2026-03-29T10:12:53.941Z</time></trkpt><trkpt lat="43.812896859256895" lon="10.955404510001758"><ele>454.85714285714295</ele><time>2026-03-29T10:12:56.94Z</time></trkpt><trkpt lat="43.81289017518443" lon="10.95530649496837"><ele>452.7142857142857</ele><time>2026-03-29T10:13:00.94Z</time></trkpt><trkpt lat="43.81284659776607" lon="10.955224436310768"><ele>450.5714285714286</ele><time>2026-03-29T10:13:04.94Z</time></trkpt><trkpt lat="43.81281330044671" lon="10.955117459124533"><ele>448.42857142857144</ele><time>2026-03-29T10:13:08.94Z</time></trkpt><trkpt lat="43.81278235310829" lon="10.955040325191433"><ele>446.28571428571433</ele><time>2026-03-29T10:13:11.94Z</time></trkpt><trkpt lat="43.81276605436296" lon="10.954930867056865"><ele>444.14285714285717</ele><time>2026-03-29T10:13:15.939Z</time></trkpt><trkpt lat="43.81278517544561" lon="10.954831170750978"><ele>442.0</ele><time>2026-03-29T10:13:18.939Z</time></trkpt><trkpt lat="43.81272737860683" lon="10.954749689411726"><ele>440.6666666666667</ele><time>2026-03-29T10:13:22.939Z</time></trkpt><trkpt lat="43.812674224612124" lon="10.954686755563657"><ele>439.33333333333337</ele><time>2026-03-29T10:13:26.939Z</time></trkpt><trkpt lat="43.81261509973354" lon="10.954627049278013"><ele>438.0</ele><time>2026-03-29T10:13:29.939Z</time></trkpt><trkpt lat="43.81255211793552" lon="10.954581350251457"><ele>436.66666666666663</ele><time>2026-03-29T10:13:32.939Z</time></trkpt><trkpt lat="43.812495198166644" lon="10.95450949334491"><ele>435.3333333333333</ele><time>2026-03-29T10:13:35.939Z</time></trkpt><trkpt lat="43.81244046892364" lon="10.954427849750878"><ele>434.0</ele><time>2026-03-29T10:13:38.939Z</time></trkpt><trkpt lat="43.81243240893223" lon="10.954318576327152"><ele>434.0</ele><time>2026-03-29T10:13:41.939Z</time></trkpt><trkpt lat="43.81238937984001" lon="10.954236839427901"><ele>434.0</ele><time>2026-03-29T10:13:45.939Z</time></trkpt><trkpt lat="43.812329506989144" lon="10.954202006787042"><ele>434.0</ele><time>2026-03-29T10:13:48.939Z</time></trkpt><trkpt lat="43.812274350775816" lon="10.954259894411052"><ele>434.0</ele><time>2026-03-29T10:13:50.939Z</time></trkpt><trkpt lat="43.81223254003081" lon="10.95432798070139"><ele>434.0</ele><time>2026-03-29T10:13:53.939Z</time></trkpt><trkpt lat="43.81217477000253" lon="10.954412104894498"><ele>434.0</ele><time>2026-03-29T10:13:57.939Z</time></trkpt><trkpt lat="43.81212676858683" lon="10.954505019074308"><ele>434.0</ele><time>2026-03-29T10:14:01.938Z</time></trkpt><trkpt lat="43.812082526771945" lon="10.954588537496674"><ele>433.99999999999994</ele><time>2026-03-29T10:14:04.938Z</time></trkpt><trkpt lat="43.81204165445658" lon="10.95467393537984"><ele>434.0</ele><time>2026-03-29T10:14:07.938Z</time></trkpt><trkpt lat="43.81202112515878" lon="10.954788645916901"><ele>434.0</ele><time>2026-03-29T10:14:10.938Z</time></trkpt><trkpt lat="43.81202644698327" lon="10.954906301385401"><ele>434.0</ele><time>2026-03-29T10:14:14.938Z</time></trkpt><trkpt lat="43.81206477367001" lon="10.955005285361134"><ele>433.99999999999994</ele><time>2026-03-29T10:14:17.938Z</time></trkpt><trkpt lat="43.81213487323513" lon="10.955046912383116"><ele>434.0</ele><time>2026-03-29T10:14:20.938Z</time></trkpt><trkpt lat="43.81219494170768" lon="10.95508465899728"><ele>434.14285714285717</ele><time>2026-03-29T10:14:23.938Z</time></trkpt><trkpt lat="43.81224880946883" lon="10.955147094417201"><ele>434.2857142857143</ele><time>2026-03-29T10:14:26.938Z</time></trkpt><trkpt lat="43.81226776178592" lon="10.955246287946789"><ele>434.42857142857144</ele><time>2026-03-29T10:14:29.938Z</time></trkpt><trkpt lat="43.81226609795485" lon="10.95533466658517"><ele>434.57142857142856</ele><time>2026-03-29T10:14:32.938Z</time></trkpt><trkpt lat="43.81225313402412" lon="10.955426028769612"><ele>434.7142857142857</ele><time>2026-03-29T10:14:35.938Z</time></trkpt><trkpt lat="43.81221277364743" lon="10.955534230056877"><ele>434.8571428571429</ele><time>2026-03-29T10:14:39.938Z</time></trkpt><trkpt lat="43.81218829271978" lon="10.955623516373624"><ele>435.0</ele><time>2026-03-29T10:14:42.938Z</time></trkpt><trkpt lat="43.81217011130613" lon="10.955738110390687"><ele>435.00000000000006</ele><time>2026-03-29T10:14:46.937Z</time></trkpt><trkpt lat="43.81216320407153" lon="10.955831089903299"><ele>435.0</ele><time>2026-03-29T10:14:49.939Z</time></trkpt><trkpt lat="43.812146580950504" lon="10.95592085953083"><ele>435.0</ele><time>2026-03-29T10:14:52.939Z</time></trkpt><trkpt lat="43.812132570482916" lon="10.956017985705987"><ele>435.0</ele><time>2026-03-29T10:14:55.939Z</time></trkpt><trkpt lat="43.8121526376119" lon="10.95610820930869"><ele>435.0</ele><time>2026-03-29T10:14:58.939Z</time></trkpt><trkpt lat="43.81216319482461" lon="10.956200720641833"><ele>435.00000000000006</ele><time>2026-03-29T10:15:01.939Z</time></trkpt><trkpt lat="43.812191412226426" lon="10.956295767938643"><ele>435.0</ele><time>2026-03-29T10:15:04.939Z</time></trkpt><trkpt lat="43.81222390727096" lon="10.956386646678684"><ele>436.00000000000006</ele><time>2026-03-29T10:15:07.939Z</time></trkpt><trkpt lat="43.81222808036349" lon="10.956476271974296"><ele>437.0</ele><time>2026-03-29T10:15:10.939Z</time></trkpt><trkpt lat="43.8122045162089" lon="10.956600786870387"><ele>438.0</ele><time>2026-03-29T10:15:15.939Z</time></trkpt><trkpt lat="43.81213216798657" lon="10.956647305282461"><ele>439.0</ele><time>2026-03-29T10:15:19.939Z</time></trkpt><trkpt lat="43.81205493460851" lon="10.956667316560193"><ele>440.0</ele><time>2026-03-29T10:15:23.939Z</time></trkpt><trkpt lat="43.81199134664129" lon="10.956675370274722"><ele>441.00000000000006</ele><time>2026-03-29T10:15:27.939Z</time></trkpt><trkpt lat="43.811923730387775" lon="10.95666877803007"><ele>442.0</ele><time>2026-03-29T10:15:30.938Z</time></trkpt><trkpt lat="43.81185283834266" lon="10.956673413996908"><ele>442.00000000000006</ele><time>2026-03-29T10:15:34.938Z</time></trkpt><trkpt lat="43.811785593729155" lon="10.956682563915964"><ele>442.0</ele><time>2026-03-29T10:15:38.938Z</time></trkpt><trkpt lat="43.81172241302413" lon="10.95668147362116"><ele>442.0</ele><time>2026-03-29T10:15:42.938Z</time></trkpt><trkpt lat="43.81165159817187" lon="10.956682899953076"><ele>442.0</ele><time>2026-03-29T10:15:46.938Z</time></trkpt><trkpt lat="43.81157184740313" lon="10.956691942378953"><ele>442.0</ele><time>2026-03-29T10:15:50.938Z</time></trkpt><trkpt lat="43.81150014045539" lon="10.95669329716769"><ele>442.00000000000006</ele><time>2026-03-29T10:15:54.938Z</time></trkpt><trkpt lat="43.81142653899998" lon="10.956728874694019"><ele>442.0</ele><time>2026-03-29T10:15:58.938Z</time></trkpt><trkpt lat="43.81138651039108" lon="10.956834452630094"><ele>442.00000000000006</ele><time>2026-03-29T10:16:02.938Z</time></trkpt><trkpt lat="43.811364434290915" lon="10.956926084330957"><ele>442.0</ele><time>2026-03-29T10:16:05.938Z</time></trkpt><trkpt lat="43.81136650691198" lon="10.957028983539509"><ele>442.0</ele><time>2026-03-29T10:16:09.938Z</time></trkpt><trkpt lat="43.81138718925592" lon="10.957130944626238"><ele>442.0</ele><time>2026-03-29T10:16:12.938Z</time></trkpt><trkpt lat="43.81139289975512" lon="10.957243108388726"><ele>442.00000000000006</ele><time>2026-03-29T10:16:16.937Z</time></trkpt><trkpt lat="43.81138245071699" lon="10.957343356124767"><ele>442.0</ele><time>2026-03-29T10:16:19.937Z</time></trkpt><trkpt lat="43.81137706054661" lon="10.95745209845986"><ele>442.00000000000006</ele><time>2026-03-29T10:16:22.937Z</time></trkpt><trkpt lat="43.8113400058985" lon="10.957530317499454"><ele>442.0</ele><time>2026-03-29T10:16:25.937Z</time></trkpt><trkpt lat="43.81128148498193" lon="10.957584816091474"><ele>442.0</ele><time>2026-03-29T10:16:28.937Z</time></trkpt><trkpt lat="43.811219147116745" lon="10.957604987396794"><ele>442.0</ele><time>2026-03-29T10:16:31.937Z</time></trkpt><trkpt lat="43.8111437868557" lon="10.95762377488056"><ele>442.0</ele><time>2026-03-29T10:16:35.937Z</time></trkpt><trkpt lat="43.811065231272906" lon="10.957671873782347"><ele>442.00000000000006</ele><time>2026-03-29T10:16:39.937Z</time></trkpt><trkpt lat="43.81100710333013" lon="10.9577207406434"><ele>442.0</ele><time>2026-03-29T10:16:42.937Z</time></trkpt><trkpt lat="43.81093870835723" lon="10.957750970514377"><ele>439.5714285714286</ele><time>2026-03-29T10:16:45.937Z</time></trkpt><trkpt lat="43.81087151122665" lon="10.957771028715865"><ele>437.14285714285717</ele><time>2026-03-29T10:16:48.937Z</time></trkpt><trkpt lat="43.810826300133954" lon="10.957846454701189"><ele>434.7142857142857</ele><time>2026-03-29T10:16:51.937Z</time></trkpt><trkpt lat="43.81080325000415" lon="10.95794439231969"><ele>432.28571428571433</ele><time>2026-03-29T10:16:54.938Z</time></trkpt><trkpt lat="43.810778033373694" lon="10.958026778607195"><ele>429.85714285714283</ele><time>2026-03-29T10:16:57.938Z</time></trkpt><trkpt lat="43.81074579905897" lon="10.958146496262648"><ele>427.42857142857144</ele><time>2026-03-29T10:17:01.939Z</time></trkpt><trkpt lat="43.810725650129605" lon="10.958246063998372"><ele>425.0</ele><time>2026-03-29T10:17:04.938Z</time></trkpt><trkpt lat="43.81072275375477" lon="10.958340520257268"><ele>426.0</ele><time>2026-03-29T10:17:07.938Z</time></trkpt><trkpt lat="43.81071028909331" lon="10.958439093557521"><ele>427.0</ele><time>2026-03-29T10:17:10.938Z</time></trkpt><trkpt lat="43.81072988060611" lon="10.958538256722617"><ele>428.0</ele><time>2026-03-29T10:17:13.938Z</time></trkpt><trkpt lat="43.81075050390613" lon="10.958625392258522"><ele>429.0</ele><time>2026-03-29T10:17:16.937Z</time></trkpt><trkpt lat="43.8107654543185" lon="10.958730029910612"><ele>430.0</ele><time>2026-03-29T10:17:19.937Z</time></trkpt><trkpt lat="43.81074081549011" lon="10.958834935512122"><ele>431.0</ele><time>2026-03-29T10:17:22.937Z</time></trkpt><trkpt lat="43.810717696960225" lon="10.958927397908422"><ele>432.0</ele><time>2026-03-29T10:17:25.937Z</time></trkpt><trkpt lat="43.810724201669714" lon="10.959026581768226"><ele>432.0</ele><time>2026-03-29T10:17:28.937Z</time></trkpt><trkpt lat="43.810732112965596" lon="10.959128873454985"><ele>432.0</ele><time>2026-03-29T10:17:31.937Z</time></trkpt><trkpt lat="43.81077194988409" lon="10.95922511688874"><ele>432.0</ele><time>2026-03-29T10:17:34.937Z</time></trkpt><trkpt lat="43.81078279595161" lon="10.959324310221016"><ele>432.0</ele><time>2026-03-29T10:17:37.937Z</time></trkpt><trkpt lat="43.81078148789529" lon="10.95943764379851"><ele>432.0</ele><time>2026-03-29T10:17:40.937Z</time></trkpt><trkpt lat="43.81078271331919" lon="10.959535258938597"><ele>432.0</ele><time>2026-03-29T10:17:44.937Z</time></trkpt><trkpt lat="43.810779950607355" lon="10.959626864834535"><ele>432.0</ele><time>2026-03-29T10:17:51.937Z</time></trkpt><trkpt lat="43.810727755373684" lon="10.959681892971515"><ele>433.6</ele><time>2026-03-29T10:18:07.936Z</time></trkpt><trkpt lat="43.81063489987355" lon="10.959639907949098"><ele>435.20000000000005</ele><time>2026-03-29T10:18:41.936Z</time></trkpt><trkpt lat="43.81057901673334" lon="10.959703074656826"><ele>436.8</ele><time>2026-03-29T10:18:58.937Z</time></trkpt><trkpt lat="43.81066003507874" lon="10.959621038244535"><ele>438.4</ele><time>2026-03-29T10:19:30.936Z</time></trkpt><trkpt lat="43.810767450064645" lon="10.959591403723426"><ele>440.0</ele><time>2026-03-29T10:21:11.936Z</time></trkpt><trkpt lat="43.81078307163627" lon="10.959495104325287"><ele>439.99999999999994</ele><time>2026-03-29T10:21:21.935Z</time></trkpt><trkpt lat="43.81077886676841" lon="10.959402550042087"><ele>440.0</ele><time>2026-03-29T10:21:29.935Z</time></trkpt><trkpt lat="43.810765629201015" lon="10.959300198610215"><ele>440.0</ele><time>2026-03-29T10:21:36.935Z</time></trkpt><trkpt lat="43.810725867880414" lon="10.959227601918652"><ele>440.0</ele><time>2026-03-29T10:21:41.935Z</time></trkpt><trkpt lat="43.81066205711946" lon="10.959175528419953"><ele>440.0</ele><time>2026-03-29T10:21:45.935Z</time></trkpt><trkpt lat="43.810608084108814" lon="10.959130190537316"><ele>439.99999999999994</ele><time>2026-03-29T10:21:49.935Z</time></trkpt><trkpt lat="43.810584571847784" lon="10.959033275603668"><ele>440.0</ele><time>2026-03-29T10:21:54.935Z</time></trkpt><trkpt lat="43.81055438615042" lon="10.958938926742"><ele>438.85714285714283</ele><time>2026-03-29T10:21:58.935Z</time></trkpt><trkpt lat="43.81052047003198" lon="10.95885551420373"><ele>437.7142857142857</ele><time>2026-03-29T10:22:03.934Z</time></trkpt><trkpt lat="43.81046394763262" lon="10.958787977790923"><ele>436.57142857142856</ele><time>2026-03-29T10:22:08.934Z</time></trkpt><trkpt lat="43.810420285004746" lon="10.958714486872333"><ele>435.42857142857144</ele><time>2026-03-29T10:22:12.934Z</time></trkpt><trkpt lat="43.81040560179174" lon="10.95862813228714"><ele>434.2857142857143</ele><time>2026-03-29T10:22:16.934Z</time></trkpt><trkpt lat="43.8103695619816" lon="10.958542723874407"><ele>433.1428571428571</ele><time>2026-03-29T10:22:20.934Z</time></trkpt><trkpt lat="43.81034058605029" lon="10.958453634643924"><ele>432.0</ele><time>2026-03-29T10:22:24.934Z</time></trkpt><trkpt lat="43.8103096981713" lon="10.958350178365574"><ele>430.8333333333333</ele><time>2026-03-29T10:22:30.934Z</time></trkpt><trkpt lat="43.81028336357122" lon="10.958245024943885"><ele>429.66666666666663</ele><time>2026-03-29T10:22:34.934Z</time></trkpt><trkpt lat="43.81025392026082" lon="10.95815001732328"><ele>428.5</ele><time>2026-03-29T10:22:38.934Z</time></trkpt><trkpt lat="43.810242088257525" lon="10.958054104551707"><ele>427.3333333333333</ele><time>2026-03-29T10:22:42.934Z</time></trkpt><trkpt lat="43.81019502185088" lon="10.957962664429482"><ele>426.16666666666663</ele><time>2026-03-29T10:22:47.934Z</time></trkpt><trkpt lat="43.810153550413965" lon="10.957882312944422"><ele>425.0</ele><time>2026-03-29T10:22:53.933Z</time></trkpt><trkpt lat="43.81013079528946" lon="10.957778586847803"><ele>423.0</ele><time>2026-03-29T10:22:57.933Z</time></trkpt><trkpt lat="43.810122236043206" lon="10.957682673273185"><ele>421.0</ele><time>2026-03-29T10:23:01.933Z</time></trkpt><trkpt lat="43.81008584828366" lon="10.957601008819768"><ele>419.0</ele><time>2026-03-29T10:23:05.933Z</time></trkpt><trkpt lat="43.81006574904519" lon="10.957491069483037"><ele>417.0</ele><time>2026-03-29T10:23:09.933Z</time></trkpt><trkpt lat="43.81005360404023" lon="10.95739289771256"><ele>415.0</ele><time>2026-03-29T10:23:13.934Z</time></trkpt><trkpt lat="43.8100478008693" lon="10.957276611553235"><ele>413.0</ele><time>2026-03-29T10:23:17.935Z</time></trkpt><trkpt lat="43.81009210117406" lon="10.9572019727977"><ele>411.0</ele><time>2026-03-29T10:23:20.935Z</time></trkpt><trkpt lat="43.81013440608426" lon="10.957123642314528"><ele>411.57142857142856</ele><time>2026-03-29T10:23:23.935Z</time></trkpt><trkpt lat="43.81015939991755" lon="10.957018179779968"><ele>412.1428571428571</ele><time>2026-03-29T10:23:27.935Z</time></trkpt><trkpt lat="43.81020606522567" lon="10.95693228750199"><ele>412.7142857142857</ele><time>2026-03-29T10:23:31.935Z</time></trkpt><trkpt lat="43.810215758066505" lon="10.956818337523757"><ele>413.2857142857143</ele><time>2026-03-29T10:23:35.934Z</time></trkpt><trkpt lat="43.81019520517922" lon="10.956729915170133"><ele>413.8571428571429</ele><time>2026-03-29T10:23:38.934Z</time></trkpt><trkpt lat="43.810178932155296" lon="10.956625479531894"><ele>414.42857142857144</ele><time>2026-03-29T10:23:42.934Z</time></trkpt><trkpt lat="43.81019042370624" lon="10.956539698146372"><ele>415.0</ele><time>2026-03-29T10:23:45.934Z</time></trkpt><trkpt lat="43.810168125100176" lon="10.956456075614014"><ele>411.0</ele><time>2026-03-29T10:23:48.934Z</time></trkpt><trkpt lat="43.810149915644224" lon="10.956363234403701"><ele>407.0</ele><time>2026-03-29T10:23:51.934Z</time></trkpt><trkpt lat="43.8101443539346" lon="10.956261871211893"><ele>403.0</ele><time>2026-03-29T10:23:54.934Z</time></trkpt><trkpt lat="43.8101155039728" lon="10.956170381331859"><ele>399.0</ele><time>2026-03-29T10:23:58.934Z</time></trkpt><trkpt lat="43.810115416230836" lon="10.956057639972858"><ele>395.0</ele><time>2026-03-29T10:24:01.934Z</time></trkpt><trkpt lat="43.81010899293655" lon="10.955970543512457"><ele>391.0</ele><time>2026-03-29T10:24:05.934Z</time></trkpt><trkpt lat="43.810118213844405" lon="10.955882223257433"><ele>387.0</ele><time>2026-03-29T10:24:09.934Z</time></trkpt><trkpt lat="43.810071382715236" lon="10.955803796159756"><ele>384.8333333333333</ele><time>2026-03-29T10:24:15.934Z</time></trkpt><trkpt lat="43.81008386613018" lon="10.955706800613854"><ele>382.6666666666667</ele><time>2026-03-29T10:24:19.933Z</time></trkpt><trkpt lat="43.81010593613619" lon="10.955609531160963"><ele>380.5</ele><time>2026-03-29T10:24:25.933Z</time></trkpt><trkpt lat="43.81008689681013" lon="10.955508781652117"><ele>378.33333333333337</ele><time>2026-03-29T10:24:29.933Z</time></trkpt><trkpt lat="43.81007971877703" lon="10.955406129153628"><ele>376.1666666666667</ele><time>2026-03-29T10:24:34.933Z</time></trkpt><trkpt lat="43.810087838566034" lon="10.955294259000915"><ele>374.0</ele><time>2026-03-29T10:24:38.933Z</time></trkpt><trkpt lat="43.81013294866315" lon="10.955205566365693"><ele>374.7142857142857</ele><time>2026-03-29T10:24:42.933Z</time></trkpt><trkpt lat="43.81017491312433" lon="10.955126482574206"><ele>375.42857142857144</ele><time>2026-03-29T10:24:46.933Z</time></trkpt><trkpt lat="43.81019706648177" lon="10.955039477904926"><ele>376.14285714285717</ele><time>2026-03-29T10:24:50.933Z</time></trkpt><trkpt lat="43.81022199523656" lon="10.954953999466435"><ele>376.8571428571429</ele><time>2026-03-29T10:24:55.933Z</time></trkpt><trkpt lat="43.81025129077392" lon="10.954872142040193"><ele>377.57142857142856</ele><time>2026-03-29T10:25:00.933Z</time></trkpt><trkpt lat="43.81025307115852" lon="10.95477925176889"><ele>378.28571428571433</ele><time>2026-03-29T10:25:04.932Z</time></trkpt><trkpt lat="43.81022698731491" lon="10.95468963407619"><ele>379.0</ele><time>2026-03-29T10:25:09.932Z</time></trkpt><trkpt lat="43.81022040143352" lon="10.954580232304743"><ele>379.00000000000006</ele><time>2026-03-29T10:25:14.932Z</time></trkpt><trkpt lat="43.810233448830786" lon="10.954493396764882"><ele>379.0</ele><time>2026-03-29T10:25:19.933Z</time></trkpt><trkpt lat="43.81024023962147" lon="10.954393472138861"><ele>379.0</ele><time>2026-03-29T10:25:24.933Z</time></trkpt><trkpt lat="43.81026426801511" lon="10.954291220370832"><ele>379.0</ele><time>2026-03-29T10:25:28.933Z</time></trkpt><trkpt lat="43.81028453779452" lon="10.954187946149677"><ele>379.0</ele><time>2026-03-29T10:25:32.934Z</time></trkpt><trkpt lat="43.81026356724291" lon="10.954079159067605"><ele>379.00000000000006</ele><time>2026-03-29T10:25:36.933Z</time></trkpt><trkpt lat="43.81026492890854" lon="10.953973787063983"><ele>379.0</ele><time>2026-03-29T10:25:40.933Z</time></trkpt><trkpt lat="43.81027148542402" lon="10.953886487100815"><ele>379.00000000000006</ele><time>2026-03-29T10:25:43.933Z</time></trkpt><trkpt lat="43.81025479036501" lon="10.953798978839954"><ele>379.0</ele><time>2026-03-29T10:25:46.933Z</time></trkpt><trkpt lat="43.810222392203364" lon="10.953696195173269"><ele>379.0</ele><time>2026-03-29T10:25:50.933Z</time></trkpt><trkpt lat="43.81022077460179" lon="10.95360196001558"><ele>379.0</ele><time>2026-03-29T10:25:53.933Z</time></trkpt><trkpt lat="43.810212112766976" lon="10.953507615266412"><ele>379.0</ele><time>2026-03-29T10:25:56.933Z</time></trkpt><trkpt lat="43.810187537852215" lon="10.953423552039732"><ele>379.00000000000006</ele><time>2026-03-29T10:25:59.933Z</time></trkpt><trkpt lat="43.81018325917025" lon="10.953325310531351"><ele>379.0</ele><time>2026-03-29T10:26:02.933Z</time></trkpt><trkpt lat="43.810173617206594" lon="10.953220582146995"><ele>379.00000000000006</ele><time>2026-03-29T10:26:06.933Z</time></trkpt><trkpt lat="43.81018365834864" lon="10.953114156971127"><ele>379.0</ele><time>2026-03-29T10:26:09.933Z</time></trkpt><trkpt lat="43.810186855966386" lon="10.953017507918117"><ele>379.0</ele><time>2026-03-29T10:26:12.933Z</time></trkpt><trkpt lat="43.81019559272818" lon="10.952918584145472"><ele>379.0</ele><time>2026-03-29T10:26:15.933Z</time></trkpt><trkpt lat="43.810223854566125" lon="10.952833561345232"><ele>379.0</ele><time>2026-03-29T10:26:18.933Z</time></trkpt><trkpt lat="43.81021964424855" lon="10.952743618134006"><ele>379.00000000000006</ele><time>2026-03-29T10:26:21.932Z</time></trkpt><trkpt lat="43.8102321476506" lon="10.95264237890419"><ele>379.0</ele><time>2026-03-29T10:26:24.932Z</time></trkpt><trkpt lat="43.81025514125061" lon="10.952532504881635"><ele>379.00000000000006</ele><time>2026-03-29T10:26:28.932Z</time></trkpt><trkpt lat="43.81030301614922" lon="10.952449141270243"><ele>379.0</ele><time>2026-03-29T10:26:31.932Z</time></trkpt><trkpt lat="43.81034752823459" lon="10.952365796506895"><ele>379.0</ele><time>2026-03-29T10:26:34.932Z</time></trkpt><trkpt lat="43.81039304801601" lon="10.952290899931697"><ele>379.0</ele><time>2026-03-29T10:26:38.932Z</time></trkpt><trkpt lat="43.810410350803515" lon="10.952202307896396"><ele>379.0</ele><time>2026-03-29T10:26:41.932Z</time></trkpt><trkpt lat="43.81039357683279" lon="10.952101085002566"><ele>379.00000000000006</ele><time>2026-03-29T10:26:44.932Z</time></trkpt><trkpt lat="43.81038082483083" lon="10.951998826506664"><ele>379.0</ele><time>2026-03-29T10:26:48.932Z</time></trkpt><trkpt lat="43.810377037833895" lon="10.951903801556169"><ele>379.00000000000006</ele><time>2026-03-29T10:26:51.932Z</time></trkpt><trkpt lat="43.81037034840233" lon="10.95180388931149"><ele>379.0</ele><time>2026-03-29T10:26:54.932Z</time></trkpt><trkpt lat="43.810371470863885" lon="10.951705824123152"><ele>379.0</ele><time>2026-03-29T10:26:57.932Z</time></trkpt><trkpt lat="43.810368242401644" lon="10.95159973810776"><ele>379.0</ele><time>2026-03-29T10:27:00.932Z</time></trkpt><trkpt lat="43.810376485547344" lon="10.951507624486776"><ele>379.0</ele><time>2026-03-29T10:27:03.932Z</time></trkpt><trkpt lat="43.81036528314109" lon="10.951418389094176"><ele>379.00000000000006</ele><time>2026-03-29T10:27:06.931Z</time></trkpt><trkpt lat="43.81032312361303" lon="10.951322188632988"><ele>379.0</ele><time>2026-03-29T10:27:09.931Z</time></trkpt><trkpt lat="43.81028822171821" lon="10.951231509262263"><ele>377.7142857142857</ele><time>2026-03-29T10:27:12.931Z</time></trkpt><trkpt lat="43.810281914464" lon="10.95112976528443"><ele>376.42857142857144</ele><time>2026-03-29T10:27:15.931Z</time></trkpt><trkpt lat="43.810294570592056" lon="10.951032036869725"><ele>375.1428571428571</ele><time>2026-03-29T10:27:18.931Z</time></trkpt><trkpt lat="43.81026892453087" lon="10.950937490700406"><ele>373.8571428571429</ele><time>2026-03-29T10:27:21.931Z</time></trkpt><trkpt lat="43.81027934423367" lon="10.950835335540768"><ele>372.57142857142856</ele><time>2026-03-29T10:27:24.932Z</time></trkpt><trkpt lat="43.8102805712547" lon="10.950743475730766"><ele>371.2857142857143</ele><time>2026-03-29T10:27:27.932Z</time></trkpt><trkpt lat="43.81032782224741" lon="10.950679838056057"><ele>370.0</ele><time>2026-03-29T10:27:30.932Z</time></trkpt><trkpt lat="43.81040884179824" lon="10.950682173287007"><ele>366.99999999999994</ele><time>2026-03-29T10:27:34.932Z</time></trkpt><trkpt lat="43.81047229744294" lon="10.9506910525872"><ele>364.0</ele><time>2026-03-29T10:27:38.932Z</time></trkpt><trkpt lat="43.81054513457419" lon="10.950687079382078"><ele>361.0</ele><time>2026-03-29T10:27:42.932Z</time></trkpt><trkpt lat="43.81062126061131" lon="10.950671869997924"><ele>358.0</ele><time>2026-03-29T10:27:46.932Z</time></trkpt><trkpt lat="43.81069320512463" lon="10.950661211292791"><ele>355.0</ele><time>2026-03-29T10:27:50.932Z</time></trkpt><trkpt lat="43.810769146139755" lon="10.950666291661616"><ele>351.99999999999994</ele><time>2026-03-29T10:27:54.932Z</time></trkpt><trkpt lat="43.8108396383736" lon="10.95067655847287"><ele>349.0</ele><time>2026-03-29T10:27:58.931Z</time></trkpt><trkpt lat="43.810902030924595" lon="10.950698499306545"><ele>348.99999999999994</ele><time>2026-03-29T10:28:01.931Z</time></trkpt><trkpt lat="43.81096518723594" lon="10.9507056713151"><ele>349.0</ele><time>2026-03-29T10:28:04.931Z</time></trkpt><trkpt lat="43.811031623709496" lon="10.950674085653167"><ele>349.0</ele><time>2026-03-29T10:28:08.931Z</time></trkpt><trkpt lat="43.81109111308567" lon="10.950704187134104"><ele>349.0</ele><time>2026-03-29T10:28:11.931Z</time></trkpt><trkpt lat="43.81116127421103" lon="10.950709806149048"><ele>349.0</ele><time>2026-03-29T10:28:15.931Z</time></trkpt><trkpt lat="43.8112324791342" lon="10.950701905516112"><ele>348.99999999999994</ele><time>2026-03-29T10:28:19.931Z</time></trkpt><trkpt lat="43.811300445186546" lon="10.950725411533922"><ele>349.0</ele><time>2026-03-29T10:28:23.931Z</time></trkpt><trkpt lat="43.8113555577485" lon="10.950773194410422"><ele>348.85714285714283</ele><time>2026-03-29T10:28:26.931Z</time></trkpt><trkpt lat="43.81144347704747" lon="10.950779669910991"><ele>348.7142857142857</ele><time>2026-03-29T10:28:30.931Z</time></trkpt><trkpt lat="43.81151051276986" lon="10.95079973104337"><ele>348.57142857142856</ele><time>2026-03-29T10:28:34.931Z</time></trkpt><trkpt lat="43.811575306409104" lon="10.950827970193826"><ele>348.42857142857144</ele><time>2026-03-29T10:28:39.931Z</time></trkpt><trkpt lat="43.811622409658895" lon="10.950900703673724"><ele>348.2857142857143</ele><time>2026-03-29T10:28:44.93Z</time></trkpt><trkpt lat="43.81168627572659" lon="10.950945114997483"><ele>348.1428571428571</ele><time>2026-03-29T10:28:48.93Z</time></trkpt><trkpt lat="43.81174293257232" lon="10.951004139249031"><ele>348.0</ele><time>2026-03-29T10:28:52.93Z</time></trkpt><trkpt lat="43.81180359341981" lon="10.951063994449626"><ele>350.42857142857144</ele><time>2026-03-29T10:28:56.93Z</time></trkpt><trkpt lat="43.81187202022456" lon="10.951105015825632"><ele>352.8571428571429</ele><time>2026-03-29T10:29:00.93Z</time></trkpt><trkpt lat="43.81192897590068" lon="10.951155408616618"><ele>355.28571428571433</ele><time>2026-03-29T10:29:04.93Z</time></trkpt><trkpt lat="43.811989775441695" lon="10.951215574580543"><ele>357.7142857142857</ele><time>2026-03-29T10:29:08.93Z</time></trkpt><trkpt lat="43.81205101514651" lon="10.951277190307394"><ele>360.14285714285717</ele><time>2026-03-29T10:29:13.93Z</time></trkpt><trkpt lat="43.81211388991319" lon="10.95131631095716"><ele>362.5714285714286</ele><time>2026-03-29T10:29:17.93Z</time></trkpt><trkpt lat="43.81216711502638" lon="10.951397236974463"><ele>365.0</ele><time>2026-03-29T10:29:21.93Z</time></trkpt><trkpt lat="43.812205765954445" lon="10.951467487475607"><ele>365.0</ele><time>2026-03-29T10:29:24.93Z</time></trkpt><trkpt lat="43.81227439172473" lon="10.951533072739027"><ele>365.0</ele><time>2026-03-29T10:29:29.931Z</time></trkpt><trkpt lat="43.81233360578785" lon="10.951595639158503"><ele>365.0</ele><time>2026-03-29T10:29:36.931Z</time></trkpt><trkpt lat="43.81238182773546" lon="10.951672012123865"><ele>365.0</ele><time>2026-03-29T10:29:41.931Z</time></trkpt><trkpt lat="43.81243727392862" lon="10.951724986590646"><ele>365.0</ele><time>2026-03-29T10:29:46.931Z</time></trkpt><trkpt lat="43.812492898508474" lon="10.951813285818659"><ele>365.0</ele><time>2026-03-29T10:29:50.931Z</time></trkpt><trkpt lat="43.81256927828801" lon="10.95183257360551"><ele>365.00000000000006</ele><time>2026-03-29T10:29:54.931Z</time></trkpt><trkpt lat="43.81264809271247" lon="10.9517999371912"><ele>365.0</ele><time>2026-03-29T10:29:58.931Z</time></trkpt><trkpt lat="43.81272163457906" lon="10.951832058982646"><ele>365.0</ele><time>2026-03-29T10:30:03.931Z</time></trkpt><trkpt lat="43.81277184673655" lon="10.951899718035095"><ele>365.0</ele><time>2026-03-29T10:30:06.93Z</time></trkpt><trkpt lat="43.81282356893449" lon="10.951955434425335"><ele>365.0</ele><time>2026-03-29T10:30:09.93Z</time></trkpt><trkpt lat="43.81288103301117" lon="10.952021687105711"><ele>365.00000000000006</ele><time>2026-03-29T10:30:13.93Z</time></trkpt><trkpt lat="43.81292245930055" lon="10.95211159948214"><ele>365.0</ele><time>2026-03-29T10:30:16.93Z</time></trkpt><trkpt lat="43.81296367099733" lon="10.952186054257329"><ele>365.00000000000006</ele><time>2026-03-29T10:30:19.93Z</time></trkpt><trkpt lat="43.81300514530373" lon="10.95228306657261"><ele>365.0</ele><time>2026-03-29T10:30:22.93Z</time></trkpt><trkpt lat="43.813041844624415" lon="10.952364417775986"><ele>365.0</ele><time>2026-03-29T10:30:25.93Z</time></trkpt><trkpt lat="43.81310530608963" lon="10.95244902438744"><ele>365.0</ele><time>2026-03-29T10:30:29.93Z</time></trkpt><trkpt lat="43.81314796954052" lon="10.952528394978668"><ele>365.0</ele><time>2026-03-29T10:30:32.93Z</time></trkpt><trkpt lat="43.813185547214495" lon="10.952602058823048"><ele>365.00000000000006</ele><time>2026-03-29T10:30:35.93Z</time></trkpt><trkpt lat="43.81321905245741" lon="10.952680944200898"><ele>365.0</ele><time>2026-03-29T10:30:38.93Z</time></trkpt><trkpt lat="43.81322471047226" lon="10.952773826268647"><ele>367.28571428571433</ele><time>2026-03-29T10:30:41.93Z</time></trkpt><trkpt lat="43.81324920919924" lon="10.952889144451941"><ele>369.57142857142856</ele><time>2026-03-29T10:30:45.93Z</time></trkpt><trkpt lat="43.81327683582102" lon="10.952973572225211"><ele>371.8571428571429</ele><time>2026-03-29T10:30:48.93Z</time></trkpt><trkpt lat="43.813315040119946" lon="10.953045254365238"><ele>374.14285714285717</ele><time>2026-03-29T10:30:51.929Z</time></trkpt><trkpt lat="43.813369062746546" lon="10.953111780125957"><ele>376.42857142857144</ele><time>2026-03-29T10:30:54.929Z</time></trkpt><trkpt lat="43.81342404911035" lon="10.953165774988213"><ele>378.7142857142857</ele><time>2026-03-29T10:31:03.929Z</time></trkpt><trkpt lat="43.81349573418213" lon="10.953132940424242"><ele>381.0</ele><time>2026-03-29T10:31:12.929Z</time></trkpt><trkpt lat="43.8135435094237" lon="10.953069036212801"><ele>382.8333333333333</ele><time>2026-03-29T10:31:24.929Z</time></trkpt><trkpt lat="43.813571855195455" lon="10.95298592793134"><ele>384.66666666666663</ele><time>2026-03-29T10:31:31.929Z</time></trkpt><trkpt lat="43.813569668297426" lon="10.9528625874353"><ele>386.5</ele><time>2026-03-29T10:31:35.929Z</time></trkpt><trkpt lat="43.81359088541757" lon="10.952753997927005"><ele>388.3333333333333</ele><time>2026-03-29T10:31:39.929Z</time></trkpt><trkpt lat="43.81361438469915" lon="10.952660678340303"><ele>390.16666666666663</ele><time>2026-03-29T10:31:42.93Z</time></trkpt><trkpt lat="43.813624362745415" lon="10.952539905679139"><ele>392.0</ele><time>2026-03-29T10:31:46.93Z</time></trkpt><trkpt lat="43.813645491710716" lon="10.952445262823577"><ele>392.0</ele><time>2026-03-29T10:31:49.929Z</time></trkpt><trkpt lat="43.81366267225273" lon="10.952348026865401"><ele>392.0</ele><time>2026-03-29T10:31:53.929Z</time></trkpt><trkpt lat="43.81367096639902" lon="10.952247860091045"><ele>392.0</ele><time>2026-03-29T10:31:57.929Z</time></trkpt><trkpt lat="43.813690345793866" lon="10.952142064950413"><ele>392.0</ele><time>2026-03-29T10:32:00.929Z</time></trkpt><trkpt lat="43.81369024877606" lon="10.95204583974029"><ele>392.0</ele><time>2026-03-29T10:32:03.929Z</time></trkpt><trkpt lat="43.813700066667124" lon="10.951949820926863"><ele>392.0</ele><time>2026-03-29T10:32:06.929Z</time></trkpt><trkpt lat="43.81372602185665" lon="10.951858812060328"><ele>392.0</ele><time>2026-03-29T10:32:09.928Z</time></trkpt><trkpt lat="43.81373289073528" lon="10.95175284478713"><ele>390.14285714285717</ele><time>2026-03-29T10:32:12.928Z</time></trkpt><trkpt lat="43.8137501476082" lon="10.951665271357381"><ele>388.2857142857143</ele><time>2026-03-29T10:32:15.928Z</time></trkpt><trkpt lat="43.81377146898853" lon="10.951565876852275"><ele>386.42857142857144</ele><time>2026-03-29T10:32:18.928Z</time></trkpt><trkpt lat="43.813799218310514" lon="10.951453394911331"><ele>384.57142857142856</ele><time>2026-03-29T10:32:22.928Z</time></trkpt><trkpt lat="43.813822557440766" lon="10.951360746273862"><ele>382.7142857142857</ele><time>2026-03-29T10:32:25.928Z</time></trkpt><trkpt lat="43.813830357160235" lon="10.951266961813346"><ele>380.8571428571429</ele><time>2026-03-29T10:32:28.928Z</time></trkpt><trkpt lat="43.81385145034668" lon="10.951173569028516"><ele>379.0</ele><time>2026-03-29T10:32:31.928Z</time></trkpt><trkpt lat="43.81387609837465" lon="10.951089191226986"><ele>379.0</ele><time>2026-03-29T10:32:34.928Z</time></trkpt><trkpt lat="43.81387369208853" lon="10.950985390446762"><ele>379.0</ele><time>2026-03-29T10:32:37.928Z</time></trkpt><trkpt lat="43.81390671572787" lon="10.950898055602641"><ele>379.0</ele><time>2026-03-29T10:32:40.928Z</time></trkpt><trkpt lat="43.81396256740488" lon="10.950827928803335"><ele>379.0</ele><time>2026-03-29T10:32:43.928Z</time></trkpt><trkpt lat="43.8140201395562" lon="10.950740288916876"><ele>379.0</ele><time>2026-03-29T10:32:46.928Z</time></trkpt><trkpt lat="43.81409087443143" lon="10.950661759357871"><ele>379.0</ele><time>2026-03-29T10:32:49.928Z</time></trkpt><trkpt lat="43.814156563077745" lon="10.950584460560927"><ele>379.66666666666663</ele><time>2026-03-29T10:32:52.928Z</time></trkpt><trkpt lat="43.81423984240291" lon="10.950539981435753"><ele>380.3333333333333</ele><time>2026-03-29T10:32:55.927Z</time></trkpt><trkpt lat="43.81431236651371" lon="10.950500191354399"><ele>381.0</ele><time>2026-03-29T10:32:58.927Z</time></trkpt><trkpt lat="43.81439113647288" lon="10.950466044099986"><ele>381.6666666666667</ele><time>2026-03-29T10:33:01.927Z</time></trkpt><trkpt lat="43.814472869601786" lon="10.950421063277199"><ele>382.33333333333337</ele><time>2026-03-29T10:33:04.927Z</time></trkpt><trkpt lat="43.81453857669959" lon="10.950378034506516"><ele>383.0</ele><time>2026-03-29T10:33:07.927Z</time></trkpt><trkpt lat="43.814598834254596" lon="10.95032159885877"><ele>383.0</ele><time>2026-03-29T10:33:10.927Z</time></trkpt><trkpt lat="43.81466109408352" lon="10.95026380449716"><ele>383.0</ele><time>2026-03-29T10:33:13.927Z</time></trkpt><trkpt lat="43.814731583437826" lon="10.950207434871754"><ele>383.0</ele><time>2026-03-29T10:33:16.927Z</time></trkpt><trkpt lat="43.81479975190753" lon="10.950165712080496"><ele>383.0</ele><time>2026-03-29T10:33:19.927Z</time></trkpt><trkpt lat="43.81487451835193" lon="10.950122670557867"><ele>383.0</ele><time>2026-03-29T10:33:22.927Z</time></trkpt><trkpt lat="43.814930210793285" lon="10.950061851391169"><ele>383.0</ele><time>2026-03-29T10:33:25.927Z</time></trkpt><trkpt lat="43.814962505140016" lon="10.949977420016376"><ele>380.0</ele><time>2026-03-29T10:33:29.927Z</time></trkpt><trkpt lat="43.8149310632817" lon="10.94989245777473"><ele>377.0</ele><time>2026-03-29T10:33:32.927Z</time></trkpt><trkpt lat="43.81486964997251" lon="10.949855988152613"><ele>374.0</ele><time>2026-03-29T10:33:35.927Z</time></trkpt><trkpt lat="43.814810036765785" lon="10.949786663809201"><ele>371.0</ele><time>2026-03-29T10:33:39.926Z</time></trkpt><trkpt lat="43.814744972517516" lon="10.949731692896787"><ele>368.0</ele><time>2026-03-29T10:33:43.928Z</time></trkpt><trkpt lat="43.814706090218706" lon="10.94965584619512"><ele>365.0</ele><time>2026-03-29T10:33:46.929Z</time></trkpt><trkpt lat="43.814688878817236" lon="10.949566810442336"><ele>362.0</ele><time>2026-03-29T10:33:49.928Z</time></trkpt><trkpt lat="43.81461726186106" lon="10.949536786987307"><ele>362.0</ele><time>2026-03-29T10:33:53.928Z</time></trkpt><trkpt lat="43.81454531375215" lon="10.949498271654537"><ele>362.0</ele><time>2026-03-29T10:33:57.928Z</time></trkpt><trkpt lat="43.81446901011182" lon="10.949460455160885"><ele>362.0</ele><time>2026-03-29T10:34:01.928Z</time></trkpt><trkpt lat="43.81439650863168" lon="10.949417957994633"><ele>362.0</ele><time>2026-03-29T10:34:05.928Z</time></trkpt><trkpt lat="43.81435023847706" lon="10.94935002234679"><ele>362.0</ele><time>2026-03-29T10:34:08.928Z</time></trkpt><trkpt lat="43.8142836731625" lon="10.949306625877544"><ele>362.0</ele><time>2026-03-29T10:34:12.928Z</time></trkpt><trkpt lat="43.814259200271955" lon="10.949222266046373"><ele>362.0</ele><time>2026-03-29T10:34:17.928Z</time></trkpt><trkpt lat="43.814238943181856" lon="10.949131415328374"><ele>360.42857142857144</ele><time>2026-03-29T10:34:21.928Z</time></trkpt><trkpt lat="43.81421768448228" lon="10.949044528991829"><ele>358.85714285714283</ele><time>2026-03-29T10:34:24.928Z</time></trkpt><trkpt lat="43.81417998439247" lon="10.948968616067217"><ele>357.28571428571433</ele><time>2026-03-29T10:34:27.928Z</time></trkpt><trkpt lat="43.81414080112154" lon="10.94889411042996"><ele>355.7142857142857</ele><time>2026-03-29T10:34:31.928Z</time></trkpt><trkpt lat="43.81406087099757" lon="10.948893154216954"><ele>354.14285714285717</ele><time>2026-03-29T10:34:36.927Z</time></trkpt><trkpt lat="43.813975624292794" lon="10.948915279831663"><ele>352.5714285714286</ele><time>2026-03-29T10:34:40.927Z</time></trkpt><trkpt lat="43.813914380370505" lon="10.948952667489817"><ele>351.0</ele><time>2026-03-29T10:34:43.927Z</time></trkpt><trkpt lat="43.813842153136" lon="10.948982409803559"><ele>351.00000000000006</ele><time>2026-03-29T10:34:46.927Z</time></trkpt><trkpt lat="43.81375620636428" lon="10.949012872402122"><ele>351.0</ele><time>2026-03-29T10:34:50.927Z</time></trkpt><trkpt lat="43.813690339252055" lon="10.949070305565824"><ele>351.0</ele><time>2026-03-29T10:34:54.927Z</time></trkpt><trkpt lat="43.8136313709557" lon="10.9491142616916"><ele>351.0</ele><time>2026-03-29T10:34:57.927Z</time></trkpt><trkpt lat="43.813559985793425" lon="10.949123190437183"><ele>351.0</ele><time>2026-03-29T10:35:01.927Z</time></trkpt><trkpt lat="43.813497156884274" lon="10.949114304936352"><ele>351.00000000000006</ele><time>2026-03-29T10:35:05.927Z</time></trkpt><trkpt lat="43.813429028695346" lon="10.94909878397582"><ele>351.0</ele><time>2026-03-29T10:35:09.927Z</time></trkpt><trkpt lat="43.81336886368" lon="10.949032847318694"><ele>351.00000000000006</ele><time>2026-03-29T10:35:14.927Z</time></trkpt><trkpt lat="43.81330283541513" lon="10.948964349488586"><ele>351.0</ele><time>2026-03-29T10:35:19.926Z</time></trkpt><trkpt lat="43.81326122488863" lon="10.94889574061838"><ele>351.0</ele><time>2026-03-29T10:35:22.926Z</time></trkpt><trkpt lat="43.813202050671194" lon="10.948817523941372"><ele>351.0</ele><time>2026-03-29T10:35:26.926Z</time></trkpt><trkpt lat="43.813143601057654" lon="10.948751001473314"><ele>351.0</ele><time>2026-03-29T10:35:30.926Z</time></trkpt><trkpt lat="43.81309599042948" lon="10.948691695270211"><ele>351.00000000000006</ele><time>2026-03-29T10:35:33.926Z</time></trkpt><trkpt lat="43.813056236083256" lon="10.948619555804818"><ele>351.0</ele><time>2026-03-29T10:35:36.926Z</time></trkpt><trkpt lat="43.81300347183213" lon="10.94854406443792"><ele>351.00000000000006</ele><time>2026-03-29T10:35:40.926Z</time></trkpt><trkpt lat="43.812999047160204" lon="10.94844777475639"><ele>351.0</ele><time>2026-03-29T10:35:43.926Z</time></trkpt><trkpt lat="43.81298820935176" lon="10.948340507521275"><ele>351.0</ele><time>2026-03-29T10:35:47.927Z</time></trkpt><trkpt lat="43.812993206386764" lon="10.948238568918175"><ele>351.0</ele><time>2026-03-29T10:35:50.927Z</time></trkpt><trkpt lat="43.81297735595617" lon="10.948145937627231"><ele>351.0</ele><time>2026-03-29T10:35:53.927Z</time></trkpt><trkpt lat="43.81296379879209" lon="10.948050610969096"><ele>351.00000000000006</ele><time>2026-03-29T10:35:56.926Z</time></trkpt><trkpt lat="43.81292524997668" lon="10.947977565835357"><ele>351.0</ele><time>2026-03-29T10:35:59.927Z</time></trkpt><trkpt lat="43.812902244002615" lon="10.947883484673591"><ele>349.8333333333333</ele><time>2026-03-29T10:36:02.927Z</time></trkpt><trkpt lat="43.81283175489577" lon="10.94787561435201"><ele>348.6666666666667</ele><time>2026-03-29T10:36:05.927Z</time></trkpt><trkpt lat="43.81274882208586" lon="10.947888002235846"><ele>347.5</ele><time>2026-03-29T10:36:09.927Z</time></trkpt><trkpt lat="43.81266007376917" lon="10.947867198983525"><ele>346.33333333333337</ele><time>2026-03-29T10:36:13.927Z</time></trkpt><trkpt lat="43.812583114995874" lon="10.947844521220354"><ele>345.1666666666667</ele><time>2026-03-29T10:36:16.927Z</time></trkpt><trkpt lat="43.812499439103256" lon="10.947874739450505"><ele>344.0</ele><time>2026-03-29T10:36:20.927Z</time></trkpt><trkpt lat="43.81242833284721" lon="10.94789720162856"><ele>344.00000000000006</ele><time>2026-03-29T10:36:23.927Z</time></trkpt><trkpt lat="43.812351920072146" lon="10.947898283548637"><ele>344.0</ele><time>2026-03-29T10:36:27.926Z</time></trkpt><trkpt lat="43.812282553651656" lon="10.94789723884945"><ele>344.0</ele><time>2026-03-29T10:36:30.796Z</time></trkpt><trkpt lat="43.81221335101831" lon="10.947865769658387"><ele>344.0</ele><time>2026-03-29T10:36:33.796Z</time></trkpt><trkpt lat="43.8121398761873" lon="10.947866255934006"><ele>344.0</ele><time>2026-03-29T10:36:36.796Z</time></trkpt><trkpt lat="43.81206991369721" lon="10.947837037430116"><ele>344.00000000000006</ele><time>2026-03-29T10:36:39.796Z</time></trkpt><trkpt lat="43.812009723447055" lon="10.947775858464672"><ele>344.0</ele><time>2026-03-29T10:36:42.796Z</time></trkpt><trkpt lat="43.81195063506" lon="10.947704569395706"><ele>344.0</ele><time>2026-03-29T10:36:45.796Z</time></trkpt><trkpt lat="43.81189405064607" lon="10.947628319157387"><ele>344.0</ele><time>2026-03-29T10:36:48.796Z</time></trkpt><trkpt lat="43.81182759053356" lon="10.947583643273154"><ele>344.0</ele><time>2026-03-29T10:36:51.796Z</time></trkpt><trkpt lat="43.81175963301248" lon="10.947522784976252"><ele>344.0</ele><time>2026-03-29T10:36:54.796Z</time></trkpt><trkpt lat="43.81170026034392" lon="10.947459504672496"><ele>344.0</ele><time>2026-03-29T10:36:57.795Z</time></trkpt><trkpt lat="43.81165302135467" lon="10.94736584166769"><ele>344.0</ele><time>2026-03-29T10:37:01.795Z</time></trkpt><trkpt lat="43.81161299451282" lon="10.947290453438422"><ele>346.28571428571433</ele><time>2026-03-29T10:37:05.795Z</time></trkpt><trkpt lat="43.81155936900606" lon="10.947217733831025"><ele>348.57142857142856</ele><time>2026-03-29T10:37:09.795Z</time></trkpt><trkpt lat="43.81150137532066" lon="10.947151947951129"><ele>350.8571428571429</ele><time>2026-03-29T10:37:13.795Z</time></trkpt><trkpt lat="43.81145120375967" lon="10.947086318237847"><ele>353.14285714285717</ele><time>2026-03-29T10:37:18.794Z</time></trkpt><trkpt lat="43.811383949096275" lon="10.947040299431464"><ele>355.42857142857144</ele><time>2026-03-29T10:37:23.794Z</time></trkpt><trkpt lat="43.81132509889412" lon="10.946976809420429"><ele>357.7142857142857</ele><time>2026-03-29T10:37:28.794Z</time></trkpt><trkpt lat="43.81125917137295" lon="10.946917055694293"><ele>360.0</ele><time>2026-03-29T10:37:32.794Z</time></trkpt><trkpt lat="43.81120300095158" lon="10.946851384810923"><ele>360.0</ele><time>2026-03-29T10:37:36.794Z</time></trkpt><trkpt lat="43.81115311918696" lon="10.946769775822188"><ele>360.0</ele><time>2026-03-29T10:37:40.793Z</time></trkpt><trkpt lat="43.81110958109825" lon="10.946682842375987"><ele>360.0</ele><time>2026-03-29T10:37:44.793Z</time></trkpt><trkpt lat="43.811082412667936" lon="10.946583360803164"><ele>360.0</ele><time>2026-03-29T10:37:48.793Z</time></trkpt><trkpt lat="43.811065005977454" lon="10.94649660431006"><ele>360.0</ele><time>2026-03-29T10:37:51.793Z</time></trkpt><trkpt lat="43.811075573079655" lon="10.946387040004202"><ele>360.0</ele><time>2026-03-29T10:37:55.794Z</time></trkpt><trkpt lat="43.81111550448993" lon="10.946280352688209"><ele>362.85714285714283</ele><time>2026-03-29T10:37:59.793Z</time></trkpt><trkpt lat="43.811134287694834" lon="10.946195833082733"><ele>365.7142857142857</ele><time>2026-03-29T10:38:02.794Z</time></trkpt><trkpt lat="43.811149956316875" lon="10.946106120014797"><ele>368.57142857142856</ele><time>2026-03-29T10:38:05.793Z</time></trkpt><trkpt lat="43.81117237247811" lon="10.946024166558146"><ele>371.42857142857144</ele><time>2026-03-29T10:38:08.793Z</time></trkpt><trkpt lat="43.811156607827066" lon="10.945935310117337"><ele>374.28571428571433</ele><time>2026-03-29T10:38:11.793Z</time></trkpt><trkpt lat="43.81113009467459" lon="10.945840693862515"><ele>377.14285714285717</ele><time>2026-03-29T10:38:14.793Z</time></trkpt><trkpt lat="43.81110299742225" lon="10.945754272911508"><ele>380.0</ele><time>2026-03-29T10:38:17.793Z</time></trkpt><trkpt lat="43.81106108104614" lon="10.945679104189155"><ele>381.1666666666667</ele><time>2026-03-29T10:38:20.792Z</time></trkpt><trkpt lat="43.81101040236319" lon="10.945584594122447"><ele>382.33333333333337</ele><time>2026-03-29T10:38:24.792Z</time></trkpt><trkpt lat="43.810956579196834" lon="10.94565274628686"><ele>383.5</ele><time>2026-03-29T10:38:28.792Z</time></trkpt><trkpt lat="43.81088952335594" lon="10.945651372882786"><ele>384.6666666666667</ele><time>2026-03-29T10:38:31.792Z</time></trkpt><trkpt lat="43.81082027770548" lon="10.945592250482862"><ele>385.8333333333333</ele><time>2026-03-29T10:38:34.792Z</time></trkpt><trkpt lat="43.81074740038522" lon="10.945528583171836"><ele>387.0</ele><time>2026-03-29T10:38:38.792Z</time></trkpt><trkpt lat="43.8106937207442" lon="10.945461817186052"><ele>381.5</ele><time>2026-03-29T10:38:41.791Z</time></trkpt><trkpt lat="43.810658353037645" lon="10.9453527465411"><ele>376.0</ele><time>2026-03-29T10:38:45.791Z</time></trkpt><trkpt lat="43.81063466959677" lon="10.945240540365424"><ele>370.5</ele><time>2026-03-29T10:38:49.791Z</time></trkpt><trkpt lat="43.810566499839474" lon="10.945174025271145"><ele>365.0</ele><time>2026-03-29T10:38:53.791Z</time></trkpt><trkpt lat="43.81050459291768" lon="10.945141155638204"><ele>359.5</ele><time>2026-03-29T10:38:56.791Z</time></trkpt><trkpt lat="43.81042697610687" lon="10.945119157722372"><ele>354.0</ele><time>2026-03-29T10:39:00.79Z</time></trkpt><trkpt lat="43.810362486759544" lon="10.945106759656241"><ele>354.0</ele><time>2026-03-29T10:39:03.79Z</time></trkpt><trkpt lat="43.81029563662485" lon="10.945081661806897"><ele>354.0</ele><time>2026-03-29T10:39:06.79Z</time></trkpt><trkpt lat="43.810236651104546" lon="10.945018025736909"><ele>354.0</ele><time>2026-03-29T10:39:10.79Z</time></trkpt><trkpt lat="43.81022927451223" lon="10.944922103268556"><ele>354.0</ele><time>2026-03-29T10:39:13.79Z</time></trkpt><trkpt lat="43.81029407653805" lon="10.944868364031358"><ele>354.0</ele><time>2026-03-29T10:39:17.79Z</time></trkpt><trkpt lat="43.810357683742595" lon="10.944864859713274"><ele>354.0</ele><time>2026-03-29T10:39:20.79Z</time></trkpt><trkpt lat="43.810419832490666" lon="10.944829535287086"><ele>354.0</ele><time>2026-03-29T10:39:24.789Z</time></trkpt><trkpt lat="43.810452458702606" lon="10.944753602421077"><ele>355.3333333333333</ele><time>2026-03-29T10:39:27.789Z</time></trkpt><trkpt lat="43.8104538850035" lon="10.944649612321571"><ele>356.6666666666667</ele><time>2026-03-29T10:39:30.789Z</time></trkpt><trkpt lat="43.81044650432151" lon="10.944545224011348"><ele>358.0</ele><time>2026-03-29T10:39:33.789Z</time></trkpt><trkpt lat="43.81041047382208" lon="10.944441695297698"><ele>359.33333333333337</ele><time>2026-03-29T10:39:36.789Z</time></trkpt><trkpt lat="43.81037591725336" lon="10.944333854176156"><ele>360.6666666666667</ele><time>2026-03-29T10:39:39.789Z</time></trkpt><trkpt lat="43.8103535254848" lon="10.944223620648023"><ele>362.0</ele><time>2026-03-29T10:39:42.788Z</time></trkpt><trkpt lat="43.8103176940546" lon="10.944130837594834"><ele>362.5</ele><time>2026-03-29T10:39:45.788Z</time></trkpt><trkpt lat="43.810270379063006" lon="10.944030944971823"><ele>363.0</ele><time>2026-03-29T10:39:49.788Z</time></trkpt><trkpt lat="43.81023365396736" lon="10.94394408210511"><ele>363.5</ele><time>2026-03-29T10:39:52.788Z</time></trkpt><trkpt lat="43.81019284179258" lon="10.94385545487059"><ele>364.0</ele><time>2026-03-29T10:39:55.788Z</time></trkpt><trkpt lat="43.81015778587662" lon="10.943776249544808"><ele>364.5</ele><time>2026-03-29T10:39:58.79Z</time></trkpt><trkpt lat="43.81012707820001" lon="10.943685289000166"><ele>365.0</ele><time>2026-03-29T10:40:01.789Z</time></trkpt><trkpt lat="43.810088071306005" lon="10.94358280894799"><ele>360.0</ele><time>2026-03-29T10:40:05.79Z</time></trkpt><trkpt lat="43.81007155168136" lon="10.943472074110735"><ele>355.0</ele><time>2026-03-29T10:40:08.79Z</time></trkpt><trkpt lat="43.81007079435032" lon="10.943373840386558"><ele>350.0</ele><time>2026-03-29T10:40:11.789Z</time></trkpt><trkpt lat="43.8100833695225" lon="10.943282898818564"><ele>345.0</ele><time>2026-03-29T10:40:14.789Z</time></trkpt><trkpt lat="43.81009990400554" lon="10.943185902207935"><ele>340.0</ele><time>2026-03-29T10:40:17.789Z</time></trkpt><trkpt lat="43.810086747575404" lon="10.94308082058203"><ele>335.0</ele><time>2026-03-29T10:40:20.789Z</time></trkpt><trkpt lat="43.81003897650908" lon="10.942989331624739"><ele>335.0</ele><time>2026-03-29T10:40:23.788Z</time></trkpt><trkpt lat="43.80998565517657" lon="10.942907356999674"><ele>335.0</ele><time>2026-03-29T10:40:26.788Z</time></trkpt><trkpt lat="43.809930204943676" lon="10.942831242497823"><ele>335.0</ele><time>2026-03-29T10:40:29.788Z</time></trkpt><trkpt lat="43.80984343380899" lon="10.942784734910543"><ele>335.0</ele><time>2026-03-29T10:40:33.788Z</time></trkpt><trkpt lat="43.80977294724121" lon="10.942766538843209"><ele>335.0</ele><time>2026-03-29T10:40:36.788Z</time></trkpt><trkpt lat="43.80968078077214" lon="10.942751002736589"><ele>335.0</ele><time>2026-03-29T10:40:39.788Z</time></trkpt><trkpt lat="43.809602823022026" lon="10.942763530227998"><ele>335.0</ele><time>2026-03-29T10:40:42.788Z</time></trkpt><trkpt lat="43.80951431368058" lon="10.942738900723171"><ele>335.0</ele><time>2026-03-29T10:40:45.787Z</time></trkpt><trkpt lat="43.809448283138835" lon="10.94273051442959"><ele>335.0</ele><time>2026-03-29T10:40:47.787Z</time></trkpt><trkpt lat="43.809378918055565" lon="10.942699370882746"><ele>335.0</ele><time>2026-03-29T10:40:50.787Z</time></trkpt><trkpt lat="43.809301536910766" lon="10.942689294932315"><ele>335.0</ele><time>2026-03-29T10:40:53.787Z</time></trkpt><trkpt lat="43.809236044311675" lon="10.94267871191613"><ele>335.0</ele><time>2026-03-29T10:40:56.787Z</time></trkpt><trkpt lat="43.80915559683199" lon="10.942650856855831"><ele>333.83333333333337</ele><time>2026-03-29T10:40:59.787Z</time></trkpt><trkpt lat="43.8090848369642" lon="10.942624507749361"><ele>332.6666666666667</ele><time>2026-03-29T10:41:02.787Z</time></trkpt><trkpt lat="43.80901667871724" lon="10.94257365722012"><ele>331.5</ele><time>2026-03-29T10:41:05.786Z</time></trkpt><trkpt lat="43.80895259397123" lon="10.942511747211256"><ele>330.3333333333333</ele><time>2026-03-29T10:41:08.786Z</time></trkpt><trkpt lat="43.80887807954613" lon="10.942466406346655"><ele>329.16666666666663</ele><time>2026-03-29T10:41:11.786Z</time></trkpt><trkpt lat="43.808802158014565" lon="10.942427704340385"><ele>328.0</ele><time>2026-03-29T10:41:14.786Z</time></trkpt><trkpt lat="43.80872429986541" lon="10.942395534791265"><ele>328.0</ele><time>2026-03-29T10:41:17.786Z</time></trkpt><trkpt lat="43.80864762861129" lon="10.942384539540322"><ele>328.0</ele><time>2026-03-29T10:41:20.786Z</time></trkpt><trkpt lat="43.80857804461238" lon="10.942371872334586"><ele>328.0</ele><time>2026-03-29T10:41:23.786Z</time></trkpt><trkpt lat="43.808495016523466" lon="10.942365383904091"><ele>328.0</ele><time>2026-03-29T10:41:26.785Z</time></trkpt><trkpt lat="43.80841109546423" lon="10.94235694579315"><ele>328.0</ele><time>2026-03-29T10:41:29.785Z</time></trkpt><trkpt lat="43.80833744110207" lon="10.94237393988084"><ele>328.0</ele><time>2026-03-29T10:41:32.785Z</time></trkpt><trkpt lat="43.808248714768844" lon="10.942377498791297"><ele>325.8333333333333</ele><time>2026-03-29T10:41:35.785Z</time></trkpt><trkpt lat="43.8081646214946" lon="10.942375088520643"><ele>323.66666666666663</ele><time>2026-03-29T10:41:38.785Z</time></trkpt><trkpt lat="43.80807778450406" lon="10.942350680239905"><ele>321.5</ele><time>2026-03-29T10:41:41.785Z</time></trkpt><trkpt lat="43.8080056601564" lon="10.942311964492818"><ele>319.3333333333333</ele><time>2026-03-29T10:41:44.785Z</time></trkpt><trkpt lat="43.80793366736999" lon="10.942263293793335"><ele>317.1666666666667</ele><time>2026-03-29T10:41:47.784Z</time></trkpt><trkpt lat="43.80785970541808" lon="10.942243185913238"><ele>315.0</ele><time>2026-03-29T10:41:50.784Z</time></trkpt><trkpt lat="43.807770447436184" lon="10.942260831475778"><ele>315.0</ele><time>2026-03-29T10:41:53.784Z</time></trkpt><trkpt lat="43.80769707032307" lon="10.942285201178061"><ele>315.0</ele><time>2026-03-29T10:41:56.784Z</time></trkpt><trkpt lat="43.80761040131925" lon="10.942283480146573"><ele>315.0</ele><time>2026-03-29T10:41:59.784Z</time></trkpt><trkpt lat="43.80752969244381" lon="10.942274604786455"><ele>315.0</ele><time>2026-03-29T10:42:02.784Z</time></trkpt><trkpt lat="43.80744725672598" lon="10.9422718423399"><ele>315.0</ele><time>2026-03-29T10:42:05.785Z</time></trkpt><trkpt lat="43.80737289188779" lon="10.942258646278797"><ele>315.0</ele><time>2026-03-29T10:42:08.785Z</time></trkpt><trkpt lat="43.80728783806087" lon="10.942214659906266"><ele>313.1666666666667</ele><time>2026-03-29T10:42:11.785Z</time></trkpt><trkpt lat="43.80720425634374" lon="10.942187178390743"><ele>311.3333333333333</ele><time>2026-03-29T10:42:14.785Z</time></trkpt><trkpt lat="43.80712339275885" lon="10.942161745337897"><ele>309.5</ele><time>2026-03-29T10:42:17.785Z</time></trkpt><trkpt lat="43.80705506338849" lon="10.942147417578717"><ele>307.66666666666663</ele><time>2026-03-29T10:42:20.785Z</time></trkpt><trkpt lat="43.806976376897744" lon="10.94211014077915"><ele>305.8333333333333</ele><time>2026-03-29T10:42:23.785Z</time></trkpt><trkpt lat="43.80689711535919" lon="10.9420572922404"><ele>304.0</ele><time>2026-03-29T10:42:26.784Z</time></trkpt><trkpt lat="43.806818397282804" lon="10.942005903502311"><ele>304.5</ele><time>2026-03-29T10:42:29.784Z</time></trkpt><trkpt lat="43.806746509122156" lon="10.941941599255905"><ele>305.0</ele><time>2026-03-29T10:42:32.784Z</time></trkpt><trkpt lat="43.806687890843634" lon="10.94187074028364"><ele>305.5</ele><time>2026-03-29T10:42:35.784Z</time></trkpt><trkpt lat="43.806632268537015" lon="10.94178965126484"><ele>306.0</ele><time>2026-03-29T10:42:38.784Z</time></trkpt><trkpt lat="43.806579275541814" lon="10.941700462118371"><ele>306.5</ele><time>2026-03-29T10:42:41.784Z</time></trkpt><trkpt lat="43.80653705146045" lon="10.941607445292231"><ele>307.0</ele><time>2026-03-29T10:42:44.784Z</time></trkpt><trkpt lat="43.80650380283679" lon="10.941519744540813"><ele>307.0</ele><time>2026-03-29T10:42:47.783Z</time></trkpt><trkpt lat="43.8064494260245" lon="10.941445588894032"><ele>307.0</ele><time>2026-03-29T10:42:50.783Z</time></trkpt><trkpt lat="43.80636900677541" lon="10.941432194982351"><ele>307.0</ele><time>2026-03-29T10:42:53.783Z</time></trkpt><trkpt lat="43.80629266197678" lon="10.94138498992929"><ele>307.0</ele><time>2026-03-29T10:42:56.783Z</time></trkpt><trkpt lat="43.80623254893092" lon="10.941299644220335"><ele>307.0</ele><time>2026-03-29T10:42:59.783Z</time></trkpt><trkpt lat="43.80619099451564" lon="10.941216759541755"><ele>307.0</ele><time>2026-03-29T10:43:02.783Z</time></trkpt><trkpt lat="43.80617005829938" lon="10.941129122126329"><ele>306.99999999999994</ele><time>2026-03-29T10:43:05.783Z</time></trkpt><trkpt lat="43.80620458424773" lon="10.941033006946771"><ele>307.0</ele><time>2026-03-29T10:43:08.782Z</time></trkpt><trkpt lat="43.806238678586034" lon="10.940946031544733"><ele>307.0</ele><time>2026-03-29T10:43:11.782Z</time></trkpt><trkpt lat="43.80628587883943" lon="10.940877751637618"><ele>307.0</ele><time>2026-03-29T10:43:15.782Z</time></trkpt><trkpt lat="43.80636438393743" lon="10.9408311882368"><ele>307.0</ele><time>2026-03-29T10:43:19.782Z</time></trkpt><trkpt lat="43.80642936509485" lon="10.9408114296194"><ele>306.99999999999994</ele><time>2026-03-29T10:43:22.782Z</time></trkpt><trkpt lat="43.806492641719316" lon="10.94079104884152"><ele>307.0</ele><time>2026-03-29T10:43:25.782Z</time></trkpt><trkpt lat="43.80656217933316" lon="10.940750218502927"><ele>306.57142857142856</ele><time>2026-03-29T10:43:28.781Z</time></trkpt><trkpt lat="43.80660757889379" lon="10.940686164272806"><ele>306.1428571428571</ele><time>2026-03-29T10:43:31.781Z</time></trkpt><trkpt lat="43.80666373759537" lon="10.940617086248933"><ele>305.71428571428567</ele><time>2026-03-29T10:43:34.781Z</time></trkpt><trkpt lat="43.80671312216986" lon="10.940562308171726"><ele>305.2857142857143</ele><time>2026-03-29T10:43:36.781Z</time></trkpt><trkpt lat="43.80674704269745" lon="10.940479681856402"><ele>304.8571428571429</ele><time>2026-03-29T10:43:39.781Z</time></trkpt><trkpt lat="43.806765657060126" lon="10.940378013302466"><ele>304.4285714285714</ele><time>2026-03-29T10:43:42.781Z</time></trkpt><trkpt lat="43.80675751402834" lon="10.9402842022638"><ele>304.0</ele><time>2026-03-29T10:43:45.781Z</time></trkpt><trkpt lat="43.80673087701619" lon="10.940169443945651"><ele>304.0</ele><time>2026-03-29T10:43:48.78Z</time></trkpt><trkpt lat="43.80668996944868" lon="10.940070147068985"><ele>304.0</ele><time>2026-03-29T10:43:51.78Z</time></trkpt><trkpt lat="43.80665203750777" lon="10.939995557927553"><ele>304.0</ele><time>2026-03-29T10:43:54.78Z</time></trkpt><trkpt lat="43.80660132189074" lon="10.939914775982281"><ele>304.0</ele><time>2026-03-29T10:43:57.78Z</time></trkpt><trkpt lat="43.80653887267074" lon="10.939839268021588"><ele>304.0</ele><time>2026-03-29T10:44:00.78Z</time></trkpt><trkpt lat="43.80649540506765" lon="10.939761870709654"><ele>304.0</ele><time>2026-03-29T10:44:03.78Z</time></trkpt><trkpt lat="43.80644514545523" lon="10.939677381847975"><ele>303.5</ele><time>2026-03-29T10:44:06.78Z</time></trkpt><trkpt lat="43.80640463971517" lon="10.939579029494366"><ele>303.0</ele><time>2026-03-29T10:44:09.779Z</time></trkpt><trkpt lat="43.8063538575667" lon="10.939487031728595"><ele>302.5</ele><time>2026-03-29T10:44:12.78Z</time></trkpt><trkpt lat="43.80630815454659" lon="10.939394190724842"><ele>302.0</ele><time>2026-03-29T10:44:15.781Z</time></trkpt><trkpt lat="43.80624334521018" lon="10.939310008763035"><ele>301.5</ele><time>2026-03-29T10:44:18.78Z</time></trkpt><trkpt lat="43.80618115423501" lon="10.939234064823227"><ele>301.0</ele><time>2026-03-29T10:44:21.78Z</time></trkpt><trkpt lat="43.806128769006634" lon="10.939141281429977"><ele>302.3333333333333</ele><time>2026-03-29T10:44:24.78Z</time></trkpt><trkpt lat="43.80608644541648" lon="10.93904072492957"><ele>303.66666666666663</ele><time>2026-03-29T10:44:27.78Z</time></trkpt><trkpt lat="43.80609077864014" lon="10.938938808185366"><ele>305.0</ele><time>2026-03-29T10:44:30.78Z</time></trkpt><trkpt lat="43.80611308514601" lon="10.938826853433234"><ele>306.3333333333333</ele><time>2026-03-29T10:44:33.779Z</time></trkpt><trkpt lat="43.80611033387049" lon="10.938717662536146"><ele>307.6666666666667</ele><time>2026-03-29T10:44:36.779Z</time></trkpt><trkpt lat="43.806105249166315" lon="10.938595416010042"><ele>309.0</ele><time>2026-03-29T10:44:39.779Z</time></trkpt><trkpt lat="43.80607061613739" lon="10.938492318423926"><ele>309.0</ele><time>2026-03-29T10:44:42.779Z</time></trkpt><trkpt lat="43.80602210667902" lon="10.938384600819175"><ele>309.0</ele><time>2026-03-29T10:44:45.779Z</time></trkpt><trkpt lat="43.80595682124659" lon="10.9383101411259"><ele>309.0</ele><time>2026-03-29T10:44:48.779Z</time></trkpt><trkpt lat="43.80589315952627" lon="10.938227950065002"><ele>309.0</ele><time>2026-03-29T10:44:51.779Z</time></trkpt><trkpt lat="43.80585453951302" lon="10.938151604453017"><ele>309.0</ele><time>2026-03-29T10:44:53.778Z</time></trkpt><trkpt lat="43.80578728536641" lon="10.938072501260253"><ele>309.0</ele><time>2026-03-29T10:44:56.778Z</time></trkpt><trkpt lat="43.805714101270716" lon="10.937999307391653"><ele>305.5714285714286</ele><time>2026-03-29T10:44:59.778Z</time></trkpt><trkpt lat="43.80567382763353" lon="10.937920069792918"><ele>302.14285714285717</ele><time>2026-03-29T10:45:01.778Z</time></trkpt><trkpt lat="43.80563222428284" lon="10.937818066664345"><ele>298.7142857142857</ele><time>2026-03-29T10:45:04.778Z</time></trkpt><trkpt lat="43.805609494235334" lon="10.937735140295718"><ele>295.28571428571433</ele><time>2026-03-29T10:45:06.778Z</time></trkpt><trkpt lat="43.80560427547796" lon="10.93764214725265"><ele>291.8571428571429</ele><time>2026-03-29T10:45:08.778Z</time></trkpt><trkpt lat="43.805601023765696" lon="10.937526615529455"><ele>288.42857142857144</ele><time>2026-03-29T10:45:11.778Z</time></trkpt><trkpt lat="43.80560942870265" lon="10.937438633232297"><ele>285.0</ele><time>2026-03-29T10:45:13.778Z</time></trkpt><trkpt lat="43.80561065939368" lon="10.937348767529583"><ele>285.0</ele><time>2026-03-29T10:45:15.777Z</time></trkpt><trkpt lat="43.805543220378524" lon="10.937357278306036"><ele>285.0</ele><time>2026-03-29T10:45:20.777Z</time></trkpt><trkpt lat="43.80547027975412" lon="10.937355533642654"><ele>285.0</ele><time>2026-03-29T10:45:28.777Z</time></trkpt><trkpt lat="43.80539811623891" lon="10.937314976307277"><ele>285.0</ele><time>2026-03-29T10:45:34.777Z</time></trkpt><trkpt lat="43.805254050738725" lon="10.93727937147481"><ele>285.0</ele><time>2026-03-29T10:45:36.776Z</time></trkpt><trkpt lat="43.80518292880858" lon="10.937267449071099"><ele>285.0</ele><time>2026-03-29T10:45:41.776Z</time></trkpt><trkpt lat="43.80510661316812" lon="10.93723880728011"><ele>281.8333333333333</ele><time>2026-03-29T10:45:45.776Z</time></trkpt><trkpt lat="43.80501859492564" lon="10.937201685301769"><ele>278.6666666666667</ele><time>2026-03-29T10:45:49.776Z</time></trkpt><trkpt lat="43.80495145497268" lon="10.937154466159663"><ele>275.5</ele><time>2026-03-29T10:45:53.776Z</time></trkpt><trkpt lat="43.80494729294083" lon="10.937051387731564"><ele>272.33333333333337</ele><time>2026-03-29T10:45:57.775Z</time></trkpt><trkpt lat="43.805005041943915" lon="10.936993301727615"><ele>269.1666666666667</ele><time>2026-03-29T10:46:00.775Z</time></trkpt><trkpt lat="43.804938672956375" lon="10.937002100248788"><ele>266.0</ele><time>2026-03-29T10:46:05.775Z</time></trkpt><trkpt lat="43.80487461769145" lon="10.937048278210195"><ele>266.0</ele><time>2026-03-29T10:46:08.775Z</time></trkpt><trkpt lat="43.804834785414755" lon="10.937122672726439"><ele>266.0</ele><time>2026-03-29T10:46:11.775Z</time></trkpt><trkpt lat="43.80479438457152" lon="10.937227817039094"><ele>266.0</ele><time>2026-03-29T10:46:14.775Z</time></trkpt><trkpt lat="43.80475753564149" lon="10.937322486079967"><ele>266.0</ele><time>2026-03-29T10:46:17.776Z</time></trkpt><trkpt lat="43.80472773745326" lon="10.93742268342443"><ele>266.0</ele><time>2026-03-29T10:46:20.777Z</time></trkpt><trkpt lat="43.804699478087535" lon="10.93753014814545"><ele>266.0</ele><time>2026-03-29T10:46:23.777Z</time></trkpt><trkpt lat="43.80467180377093" lon="10.93764410005403"><ele>265.6666666666667</ele><time>2026-03-29T10:46:26.776Z</time></trkpt><trkpt lat="43.804667408726964" lon="10.937760321820996"><ele>265.33333333333337</ele><time>2026-03-29T10:46:29.776Z</time></trkpt><trkpt lat="43.804660847194455" lon="10.937851314781065"><ele>265.0</ele><time>2026-03-29T10:46:31.776Z</time></trkpt><trkpt lat="43.804679366466345" lon="10.937970187550128"><ele>264.6666666666667</ele><time>2026-03-29T10:46:34.776Z</time></trkpt><trkpt lat="43.80473195012244" lon="10.938060009696656"><ele>264.3333333333333</ele><time>2026-03-29T10:46:37.775Z</time></trkpt><trkpt lat="43.80476982171889" lon="10.93816266901274"><ele>264.0</ele><time>2026-03-29T10:46:40.775Z</time></trkpt><trkpt lat="43.804794023530924" lon="10.938274195695271"><ele>264.1666666666667</ele><time>2026-03-29T10:46:43.775Z</time></trkpt><trkpt lat="43.804790306072746" lon="10.938385265887343"><ele>264.3333333333333</ele><time>2026-03-29T10:46:46.775Z</time></trkpt><trkpt lat="43.80475222336303" lon="10.938468915395969"><ele>264.5</ele><time>2026-03-29T10:46:48.775Z</time></trkpt><trkpt lat="43.80470580205461" lon="10.938556125907738"><ele>264.66666666666663</ele><time>2026-03-29T10:46:51.775Z</time></trkpt><trkpt lat="43.804628841492175" lon="10.938617870836746"><ele>264.8333333333333</ele><time>2026-03-29T10:46:54.775Z</time></trkpt><trkpt lat="43.8045600676869" lon="10.938684285333807"><ele>265.0</ele><time>2026-03-29T10:46:57.774Z</time></trkpt><trkpt lat="43.804472197943106" lon="10.938747356689703"><ele>265.0</ele><time>2026-03-29T10:47:00.774Z</time></trkpt><trkpt lat="43.804407180142064" lon="10.938804704654634"><ele>265.0</ele><time>2026-03-29T10:47:03.774Z</time></trkpt><trkpt lat="43.804326893312535" lon="10.938870054593007"><ele>265.0</ele><time>2026-03-29T10:47:06.774Z</time></trkpt><trkpt lat="43.80424965013438" lon="10.938918196385668"><ele>265.0</ele><time>2026-03-29T10:47:09.774Z</time></trkpt><trkpt lat="43.80418682152705" lon="10.93894818185569"><ele>265.0</ele><time>2026-03-29T10:47:11.774Z</time></trkpt><trkpt lat="43.80410760364997" lon="10.938950881727925"><ele>265.0</ele><time>2026-03-29T10:47:14.774Z</time></trkpt><trkpt lat="43.8040232952495" lon="10.938965719433755"><ele>262.5</ele><time>2026-03-29T10:47:17.773Z</time></trkpt><trkpt lat="43.80393383661282" lon="10.938953269878356"><ele>260.0</ele><time>2026-03-29T10:47:20.773Z</time></trkpt><trkpt lat="43.80384537474151" lon="10.938922036095006"><ele>257.5</ele><time>2026-03-29T10:47:23.773Z</time></trkpt><trkpt lat="43.80377558774682" lon="10.93890907692052"><ele>255.0</ele><time>2026-03-29T10:47:26.773Z</time></trkpt><trkpt lat="43.80370151419144" lon="10.938883515552968"><ele>252.49999999999997</ele><time>2026-03-29T10:47:29.773Z</time></trkpt><trkpt lat="43.80363613889851" lon="10.938915825693972"><ele>250.0</ele><time>2026-03-29T10:47:32.773Z</time></trkpt><trkpt lat="43.803593042194436" lon="10.939010482555858"><ele>249.99999999999997</ele><time>2026-03-29T10:47:35.773Z</time></trkpt><trkpt lat="43.80360943895659" lon="10.939102010617082"><ele>250.0</ele><time>2026-03-29T10:47:38.772Z</time></trkpt><trkpt lat="43.80363129894219" lon="10.939193061625721"><ele>250.0</ele><time>2026-03-29T10:47:41.772Z</time></trkpt><trkpt lat="43.80369237602041" lon="10.939266459138375"><ele>250.0</ele><time>2026-03-29T10:47:44.772Z</time></trkpt><trkpt lat="43.80373056748609" lon="10.939372903345898"><ele>249.99999999999997</ele><time>2026-03-29T10:47:47.772Z</time></trkpt><trkpt lat="43.8037795207433" lon="10.93945938801785"><ele>250.0</ele><time>2026-03-29T10:47:50.772Z</time></trkpt><trkpt lat="43.80382577727379" lon="10.939559387037312"><ele>249.33333333333331</ele><time>2026-03-29T10:47:53.772Z</time></trkpt><trkpt lat="43.80389188157216" lon="10.939606275194087"><ele>248.66666666666666</ele><time>2026-03-29T10:47:56.772Z</time></trkpt><trkpt lat="43.80395791754129" lon="10.939667421968363"><ele>248.0</ele><time>2026-03-29T10:47:59.771Z</time></trkpt><trkpt lat="43.80401892399798" lon="10.939749403718269"><ele>247.33333333333331</ele><time>2026-03-29T10:48:02.771Z</time></trkpt><trkpt lat="43.804044130714324" lon="10.939846739723144"><ele>246.66666666666666</ele><time>2026-03-29T10:48:05.771Z</time></trkpt><trkpt lat="43.80403562738144" lon="10.939956716121529"><ele>246.0</ele><time>2026-03-29T10:48:08.771Z</time></trkpt><trkpt lat="43.80398731320365" lon="10.940037815135303"><ele>245.8571428571429</ele><time>2026-03-29T10:48:10.771Z</time></trkpt><trkpt lat="43.803937659666715" lon="10.940130856465409"><ele>245.71428571428572</ele><time>2026-03-29T10:48:13.771Z</time></trkpt><trkpt lat="43.80388951114437" lon="10.940214112296884"><ele>245.57142857142858</ele><time>2026-03-29T10:48:16.771Z</time></trkpt><trkpt lat="43.80383758390593" lon="10.9402930816413"><ele>245.42857142857144</ele><time>2026-03-29T10:48:19.771Z</time></trkpt><trkpt lat="43.803795390820284" lon="10.94036245895623"><ele>245.28571428571428</ele><time>2026-03-29T10:48:21.77Z</time></trkpt><trkpt lat="43.803753031045886" lon="10.94042904360619"><ele>245.14285714285714</ele><time>2026-03-29T10:48:23.773Z</time></trkpt><trkpt lat="43.803724664921305" lon="10.94052970892659"><ele>245.0</ele><time>2026-03-29T10:48:26.772Z</time></trkpt><trkpt lat="43.80371872481688" lon="10.940646368844916"><ele>245.00000000000003</ele><time>2026-03-29T10:48:29.772Z</time></trkpt><trkpt lat="43.803717223277964" lon="10.940762282979104"><ele>245.0</ele><time>2026-03-29T10:48:32.771Z</time></trkpt><trkpt lat="43.80371283137548" lon="10.940866542558743"><ele>245.0</ele><time>2026-03-29T10:48:35.771Z</time></trkpt><trkpt lat="43.803711598046156" lon="10.940970975268467"><ele>245.0</ele><time>2026-03-29T10:48:38.771Z</time></trkpt><trkpt lat="43.80369334393178" lon="10.94108118204237"><ele>245.00000000000003</ele><time>2026-03-29T10:48:41.771Z</time></trkpt><trkpt lat="43.803674795450945" lon="10.94117056407436"><ele>245.0</ele><time>2026-03-29T10:48:43.771Z</time></trkpt><trkpt lat="43.803691206071655" lon="10.941276609816555"><ele>244.33333333333334</ele><time>2026-03-29T10:48:46.771Z</time></trkpt><trkpt lat="43.803722195096135" lon="10.941372711248166"><ele>243.66666666666669</ele><time>2026-03-29T10:48:49.771Z</time></trkpt><trkpt lat="43.80374468569808" lon="10.941479068714925"><ele>243.0</ele><time>2026-03-29T10:48:52.77Z</time></trkpt><trkpt lat="43.80378571553713" lon="10.941578779670573"><ele>242.33333333333331</ele><time>2026-03-29T10:48:55.77Z</time></trkpt><trkpt lat="43.80382048458381" lon="10.94167182918374"><ele>241.66666666666666</ele><time>2026-03-29T10:48:58.77Z</time></trkpt><trkpt lat="43.80384851064139" lon="10.94176851443814"><ele>241.0</ele><time>2026-03-29T10:49:01.77Z</time></trkpt><trkpt lat="43.80385388241717" lon="10.941885730869632"><ele>238.66666666666666</ele><time>2026-03-29T10:49:04.77Z</time></trkpt><trkpt lat="43.80385548002903" lon="10.942003434729374"><ele>236.33333333333331</ele><time>2026-03-29T10:49:07.77Z</time></trkpt><trkpt lat="43.80388643127705" lon="10.94211988177714"><ele>234.0</ele><time>2026-03-29T10:49:10.77Z</time></trkpt><trkpt lat="43.80389936152461" lon="10.942229847293339"><ele>231.66666666666669</ele><time>2026-03-29T10:49:13.769Z</time></trkpt><trkpt lat="43.80395363228449" lon="10.94232743339332"><ele>229.33333333333334</ele><time>2026-03-29T10:49:16.769Z</time></trkpt><trkpt lat="43.804009470788166" lon="10.942429486358375"><ele>227.0</ele><time>2026-03-29T10:49:19.769Z</time></trkpt><trkpt lat="43.804053199954126" lon="10.942492704045883"><ele>227.50000000000003</ele><time>2026-03-29T10:49:21.769Z</time></trkpt><trkpt lat="43.80410301661591" lon="10.942560408073305"><ele>228.0</ele><time>2026-03-29T10:49:24.769Z</time></trkpt><trkpt lat="43.80417126471296" lon="10.942631971142752"><ele>228.5</ele><time>2026-03-29T10:49:27.769Z</time></trkpt><trkpt lat="43.80422990681199" lon="10.942714728654572"><ele>229.0</ele><time>2026-03-29T10:49:30.769Z</time></trkpt><trkpt lat="43.80429357379667" lon="10.942798678762236"><ele>229.50000000000003</ele><time>2026-03-29T10:49:33.768Z</time></trkpt><trkpt lat="43.80434034130923" lon="10.942904198175839"><ele>230.0</ele><time>2026-03-29T10:49:36.768Z</time></trkpt><trkpt lat="43.80437487602145" lon="10.94300733668595"><ele>230.00000000000003</ele><time>2026-03-29T10:49:39.768Z</time></trkpt><trkpt lat="43.80442713666775" lon="10.943103153743706"><ele>230.0</ele><time>2026-03-29T10:49:42.768Z</time></trkpt><trkpt lat="43.80445986674137" lon="10.943184320186749"><ele>230.0</ele><time>2026-03-29T10:49:44.768Z</time></trkpt><trkpt lat="43.80452699794121" lon="10.943274120393944"><ele>230.0</ele><time>2026-03-29T10:49:47.768Z</time></trkpt><trkpt lat="43.80458619059908" lon="10.943367109753392"><ele>230.00000000000003</ele><time>2026-03-29T10:49:50.768Z</time></trkpt><trkpt lat="43.8046417463378" lon="10.943455135253659"><ele>230.0</ele><time>2026-03-29T10:49:53.768Z</time></trkpt><trkpt lat="43.804714081901814" lon="10.943514256822858"><ele>229.71428571428567</ele><time>2026-03-29T10:49:56.767Z</time></trkpt><trkpt lat="43.80477542360296" lon="10.943588331085188"><ele>229.42857142857142</ele><time>2026-03-29T10:49:59.767Z</time></trkpt><trkpt lat="43.804796236493885" lon="10.943701947330908"><ele>229.1428571428571</ele><time>2026-03-29T10:50:02.767Z</time></trkpt><trkpt lat="43.804771688633764" lon="10.943792883116588"><ele>228.85714285714283</ele><time>2026-03-29T10:50:05.767Z</time></trkpt><trkpt lat="43.80471048150259" lon="10.943842153713925"><ele>228.57142857142856</ele><time>2026-03-29T10:50:08.767Z</time></trkpt><trkpt lat="43.804646148466105" lon="10.943799248028618"><ele>228.28571428571428</ele><time>2026-03-29T10:50:10.767Z</time></trkpt><trkpt lat="43.80460090103662" lon="10.943734274954267"><ele>228.0</ele><time>2026-03-29T10:50:12.767Z</time></trkpt><trkpt lat="43.80455291496612" lon="10.943677442683061"><ele>228.0</ele><time>2026-03-29T10:50:15.766Z</time></trkpt><trkpt lat="43.80450893072321" lon="10.943594631779346"><ele>227.99999999999997</ele><time>2026-03-29T10:50:18.766Z</time></trkpt><trkpt lat="43.80446476674446" lon="10.943527363583152"><ele>228.0</ele><time>2026-03-29T10:50:20.766Z</time></trkpt><trkpt lat="43.80441051748644" lon="10.943440673919143"><ele>228.0</ele><time>2026-03-29T10:50:23.766Z</time></trkpt><trkpt lat="43.804347137205326" lon="10.943378619068787"><ele>227.99999999999997</ele><time>2026-03-29T10:50:26.766Z</time></trkpt><trkpt lat="43.80431537288521" lon="10.943298221330728"><ele>228.0</ele><time>2026-03-29T10:50:28.767Z</time></trkpt><trkpt lat="43.80426940103931" lon="10.94322020645222"><ele>228.0</ele><time>2026-03-29T10:50:31.768Z</time></trkpt><trkpt lat="43.80419946994724" lon="10.943152841598579"><ele>226.33333333333334</ele><time>2026-03-29T10:50:34.768Z</time></trkpt><trkpt lat="43.8041390420383" lon="10.943070689108376"><ele>224.66666666666669</ele><time>2026-03-29T10:50:37.767Z</time></trkpt><trkpt lat="43.8040764536127" lon="10.943018731407166"><ele>223.0</ele><time>2026-03-29T10:50:40.767Z</time></trkpt><trkpt lat="43.80401939306163" lon="10.942976593494725"><ele>221.33333333333334</ele><time>2026-03-29T10:50:43.767Z</time></trkpt><trkpt lat="43.803962267743145" lon="10.942915912445704"><ele>219.66666666666669</ele><time>2026-03-29T10:50:46.767Z</time></trkpt><trkpt lat="43.80389932637958" lon="10.942829281367223"><ele>218.0</ele><time>2026-03-29T10:50:50.767Z</time></trkpt><trkpt lat="43.803854833710766" lon="10.942738389829596"><ele>218.00000000000003</ele><time>2026-03-29T10:50:53.767Z</time></trkpt><trkpt lat="43.803795685902145" lon="10.94266420875173"><ele>218.0</ele><time>2026-03-29T10:50:56.767Z</time></trkpt><trkpt lat="43.80371931120623" lon="10.942611430696896"><ele>218.0</ele><time>2026-03-29T10:50:59.766Z</time></trkpt><trkpt lat="43.80364195256623" lon="10.942611846131562"><ele>218.0</ele><time>2026-03-29T10:51:02.766Z</time></trkpt><trkpt lat="43.80357892744231" lon="10.942654138645956"><ele>218.00000000000003</ele><time>2026-03-29T10:51:04.766Z</time></trkpt><trkpt lat="43.80350882354763" lon="10.942691300464148"><ele>218.0</ele><time>2026-03-29T10:51:07.766Z</time></trkpt><trkpt lat="43.80345056206172" lon="10.942735381051872"><ele>217.28571428571428</ele><time>2026-03-29T10:51:10.766Z</time></trkpt><trkpt lat="43.803375046482664" lon="10.942743447907255"><ele>216.57142857142858</ele><time>2026-03-29T10:51:13.766Z</time></trkpt><trkpt lat="43.80331818762001" lon="10.942661732428899"><ele>215.85714285714283</ele><time>2026-03-29T10:51:16.766Z</time></trkpt><trkpt lat="43.80326024515185" lon="10.942600496279512"><ele>215.14285714285714</ele><time>2026-03-29T10:51:20.765Z</time></trkpt><trkpt lat="43.80321782092547" lon="10.942524102571774"><ele>214.42857142857142</ele><time>2026-03-29T10:51:23.765Z</time></trkpt><trkpt lat="43.803187560684975" lon="10.942435357735652"><ele>213.7142857142857</ele><time>2026-03-29T10:51:26.765Z</time></trkpt><trkpt lat="43.803152118449354" lon="10.942357397335941"><ele>213.0</ele><time>2026-03-29T10:51:29.765Z</time></trkpt><trkpt lat="43.80311588457466" lon="10.942274819237"><ele>212.99999999999997</ele><time>2026-03-29T10:51:32.765Z</time></trkpt><trkpt lat="43.803085416249324" lon="10.942196753505854"><ele>213.0</ele><time>2026-03-29T10:51:35.765Z</time></trkpt><trkpt lat="43.803055405449605" lon="10.942106669344069"><ele>213.0</ele><time>2026-03-29T10:51:38.765Z</time></trkpt><trkpt lat="43.8030254735021" lon="10.942016901741896"><ele>213.0</ele><time>2026-03-29T10:51:41.764Z</time></trkpt><trkpt lat="43.8029886815605" lon="10.941917734236053"><ele>213.0</ele><time>2026-03-29T10:51:44.764Z</time></trkpt><trkpt lat="43.802937379044266" lon="10.941841069457546"><ele>212.99999999999997</ele><time>2026-03-29T10:51:47.764Z</time></trkpt><trkpt lat="43.80287358913089" lon="10.94176876250692"><ele>213.0</ele><time>2026-03-29T10:51:50.764Z</time></trkpt><trkpt lat="43.802816130762835" lon="10.941703281376114"><ele>212.33333333333334</ele><time>2026-03-29T10:51:53.763Z</time></trkpt><trkpt lat="43.80275215004526" lon="10.941636544994878"><ele>211.66666666666669</ele><time>2026-03-29T10:51:56.763Z</time></trkpt><trkpt lat="43.802679878632084" lon="10.94157534809813"><ele>211.0</ele><time>2026-03-29T10:51:59.763Z</time></trkpt><trkpt lat="43.802622874951986" lon="10.941480011518653"><ele>210.33333333333334</ele><time>2026-03-29T10:52:02.763Z</time></trkpt><trkpt lat="43.80258522419667" lon="10.941377120201643"><ele>209.66666666666669</ele><time>2026-03-29T10:52:05.763Z</time></trkpt><trkpt lat="43.80253937499531" lon="10.94128088493221"><ele>209.0</ele><time>2026-03-29T10:52:08.762Z</time></trkpt><trkpt lat="43.80248131937763" lon="10.941200550460247"><ele>207.50000000000003</ele><time>2026-03-29T10:52:11.762Z</time></trkpt><trkpt lat="43.802448587792355" lon="10.941093782980529"><ele>206.0</ele><time>2026-03-29T10:52:14.762Z</time></trkpt><trkpt lat="43.80240479059102" lon="10.941001833157824"><ele>204.5</ele><time>2026-03-29T10:52:17.762Z</time></trkpt><trkpt lat="43.80238582183107" lon="10.940898261852912"><ele>203.0</ele><time>2026-03-29T10:52:20.762Z</time></trkpt><trkpt lat="43.802335855763545" lon="10.940797155923757"><ele>201.50000000000003</ele><time>2026-03-29T10:52:23.762Z</time></trkpt><trkpt lat="43.8022811669226" lon="10.940734436211189"><ele>200.0</ele><time>2026-03-29T10:52:26.762Z</time></trkpt><trkpt lat="43.80221125065852" lon="10.940695603448408"><ele>200.00000000000003</ele><time>2026-03-29T10:52:29.761Z</time></trkpt><trkpt lat="43.80215124640019" lon="10.94065344863871"><ele>200.0</ele><time>2026-03-29T10:52:31.761Z</time></trkpt><trkpt lat="43.802085978370116" lon="10.940605919435367"><ele>200.0</ele><time>2026-03-29T10:52:34.762Z</time></trkpt><trkpt lat="43.80201639256042" lon="10.940570253898548"><ele>200.0</ele><time>2026-03-29T10:52:37.762Z</time></trkpt><trkpt lat="43.801947102533774" lon="10.940517173811111"><ele>200.0</ele><time>2026-03-29T10:52:40.763Z</time></trkpt><trkpt lat="43.80189215007408" lon="10.940474238858698"><ele>200.00000000000003</ele><time>2026-03-29T10:52:43.762Z</time></trkpt><trkpt lat="43.8018407084821" lon="10.9404077292432"><ele>200.0</ele><time>2026-03-29T10:52:46.763Z</time></trkpt><trkpt lat="43.80180387541344" lon="10.940329335983586"><ele>201.2857142857143</ele><time>2026-03-29T10:52:49.762Z</time></trkpt><trkpt lat="43.80179028592477" lon="10.94023831424006"><ele>202.57142857142858</ele><time>2026-03-29T10:52:52.762Z</time></trkpt><trkpt lat="43.80177042960008" lon="10.940147373705896"><ele>203.85714285714286</ele><time>2026-03-29T10:52:55.762Z</time></trkpt><trkpt lat="43.80172706983275" lon="10.94006764808652"><ele>205.14285714285717</ele><time>2026-03-29T10:52:58.762Z</time></trkpt><trkpt lat="43.80168261225402" lon="10.939997916129531"><ele>206.42857142857142</ele><time>2026-03-29T10:53:01.761Z</time></trkpt><trkpt lat="43.801632154577824" lon="10.939905818889471"><ele>207.71428571428572</ele><time>2026-03-29T10:53:05.761Z</time></trkpt><trkpt lat="43.80158963864494" lon="10.939835008858154"><ele>209.0</ele><time>2026-03-29T10:53:08.761Z</time></trkpt><trkpt lat="43.801538319812614" lon="10.939772584699805"><ele>209.0</ele><time>2026-03-29T10:53:12.761Z</time></trkpt><trkpt lat="43.8014935564314" lon="10.939706070163394"><ele>209.0</ele><time>2026-03-29T10:53:15.761Z</time></trkpt><trkpt lat="43.801456833314994" lon="10.939618920412792"><ele>209.0</ele><time>2026-03-29T10:53:18.761Z</time></trkpt><trkpt lat="43.80140451906484" lon="10.939557756761259"><ele>209.0</ele><time>2026-03-29T10:53:21.76Z</time></trkpt><trkpt lat="43.80134348203561" lon="10.93947258449867"><ele>209.0</ele><time>2026-03-29T10:53:25.76Z</time></trkpt><trkpt lat="43.801287865691435" lon="10.93941232673176"><ele>209.0</ele><time>2026-03-29T10:53:28.76Z</time></trkpt><trkpt lat="43.801245854501964" lon="10.939345982881619"><ele>209.0</ele><time>2026-03-29T10:53:31.76Z</time></trkpt><trkpt lat="43.80117493520691" lon="10.939291783830019"><ele>209.0</ele><time>2026-03-29T10:53:40.76Z</time></trkpt><trkpt lat="43.801105048122075" lon="10.939284102039737"><ele>209.0</ele><time>2026-03-29T10:53:43.759Z</time></trkpt><trkpt lat="43.801039970393624" lon="10.939299085638494"><ele>209.0</ele><time>2026-03-29T10:53:46.759Z</time></trkpt><trkpt lat="43.80097084521243" lon="10.93928269126052"><ele>209.0</ele><time>2026-03-29T10:53:49.759Z</time></trkpt><trkpt lat="43.80089195604141" lon="10.939257796134115"><ele>209.0</ele><time>2026-03-29T10:53:53.759Z</time></trkpt><trkpt lat="43.80083733129909" lon="10.939203004816909"><ele>209.0</ele><time>2026-03-29T10:53:56.759Z</time></trkpt><trkpt lat="43.800783278294766" lon="10.93914251019189"><ele>209.0</ele><time>2026-03-29T10:53:59.759Z</time></trkpt><trkpt lat="43.80072896308723" lon="10.9390592449132"><ele>209.16666666666669</ele><time>2026-03-29T10:54:02.759Z</time></trkpt><trkpt lat="43.80067651656376" lon="10.938971728727793"><ele>209.33333333333334</ele><time>2026-03-29T10:54:05.758Z</time></trkpt><trkpt lat="43.800636062543276" lon="10.938870740418777"><ele>209.5</ele><time>2026-03-29T10:54:08.758Z</time></trkpt><trkpt lat="43.800599268824115" lon="10.938781750677187"><ele>209.66666666666669</ele><time>2026-03-29T10:54:11.758Z</time></trkpt><trkpt lat="43.80053074623825" lon="10.938721358308944"><ele>209.83333333333334</ele><time>2026-03-29T10:54:14.758Z</time></trkpt><trkpt lat="43.80046134075353" lon="10.938706157742136"><ele>210.0</ele><time>2026-03-29T10:54:17.758Z</time></trkpt><trkpt lat="43.800381931669186" lon="10.93873136095133"><ele>210.0</ele><time>2026-03-29T10:54:20.758Z</time></trkpt><trkpt lat="43.80031155676258" lon="10.938734433139038"><ele>210.0</ele><time>2026-03-29T10:54:24.758Z</time></trkpt><trkpt lat="43.80024051966867" lon="10.938780420402253"><ele>210.0</ele><time>2026-03-29T10:54:27.757Z</time></trkpt><trkpt lat="43.8001748234356" lon="10.938826013228615"><ele>210.0</ele><time>2026-03-29T10:54:31.757Z</time></trkpt><trkpt lat="43.800130212005705" lon="10.938900669624104"><ele>210.0</ele><time>2026-03-29T10:54:34.757Z</time></trkpt><trkpt lat="43.80005771145864" lon="10.938944375444528"><ele>210.0</ele><time>2026-03-29T10:54:37.757Z</time></trkpt><trkpt lat="43.8000078392594" lon="10.939003501179576"><ele>210.0</ele><time>2026-03-29T10:54:42.758Z</time></trkpt><trkpt lat="43.79994280548071" lon="10.939005102202621"><ele>210.14285714285714</ele><time>2026-03-29T10:54:46.757Z</time></trkpt><trkpt lat="43.79987498123565" lon="10.938999271813367"><ele>210.28571428571428</ele><time>2026-03-29T10:54:50.757Z</time></trkpt><trkpt lat="43.799811775223276" lon="10.939013994253617"><ele>210.42857142857144</ele><time>2026-03-29T10:54:57.757Z</time></trkpt><trkpt lat="43.7997309998617" lon="10.93897155275814"><ele>210.57142857142856</ele><time>2026-03-29T10:55:37.755Z</time></trkpt><trkpt lat="43.79969284413734" lon="10.938898405324675"><ele>210.71428571428572</ele><time>2026-03-29T10:55:46.755Z</time></trkpt><trkpt lat="43.79965893410461" lon="10.938823975874982"><ele>210.85714285714286</ele><time>2026-03-29T10:55:52.755Z</time></trkpt><trkpt lat="43.799627227545756" lon="10.938745646612308"><ele>211.0</ele><time>2026-03-29T10:55:57.754Z</time></trkpt><trkpt lat="43.799582360224456" lon="10.938653780116363"><ele>211.0</ele><time>2026-03-29T10:56:03.754Z</time></trkpt><trkpt lat="43.79955530119309" lon="10.938574684437079"><ele>211.0</ele><time>2026-03-29T10:56:07.754Z</time></trkpt><trkpt lat="43.79950768287904" lon="10.938476426067295"><ele>211.0</ele><time>2026-03-29T10:56:11.754Z</time></trkpt><trkpt lat="43.79947437813955" lon="10.938380235747609"><ele>211.0</ele><time>2026-03-29T10:56:14.754Z</time></trkpt><trkpt lat="43.799447180250844" lon="10.938292417605378"><ele>211.0</ele><time>2026-03-29T10:56:17.754Z</time></trkpt><trkpt lat="43.799432665848045" lon="10.938183868460206"><ele>211.0</ele><time>2026-03-29T10:56:20.753Z</time></trkpt><trkpt lat="43.79940529912816" lon="10.938091089113197"><ele>211.0</ele><time>2026-03-29T10:56:23.753Z</time></trkpt><trkpt lat="43.79940160886796" lon="10.937985701116487"><ele>211.0</ele><time>2026-03-29T10:56:26.753Z</time></trkpt><trkpt lat="43.799384292712915" lon="10.937892182817688"><ele>211.0</ele><time>2026-03-29T10:56:29.753Z</time></trkpt><trkpt lat="43.7993698438517" lon="10.937787443803712"><ele>211.0</ele><time>2026-03-29T10:56:33.753Z</time></trkpt><trkpt lat="43.799348105214264" lon="10.937687802400266"><ele>211.0</ele><time>2026-03-29T10:56:37.753Z</time></trkpt><trkpt lat="43.79931548540911" lon="10.937602684188464"><ele>211.0</ele><time>2026-03-29T10:56:40.752Z</time></trkpt><trkpt lat="43.79927990352923" lon="10.937507591852901"><ele>211.0</ele><time>2026-03-29T10:56:44.752Z</time></trkpt><trkpt lat="43.799255000423784" lon="10.937411583664066"><ele>211.0</ele><time>2026-03-29T10:56:48.753Z</time></trkpt><trkpt lat="43.79922707187115" lon="10.937290236654762"><ele>211.16666666666666</ele><time>2026-03-29T10:56:52.754Z</time></trkpt><trkpt lat="43.799194724828915" lon="10.937203816231163"><ele>211.33333333333331</ele><time>2026-03-29T10:56:55.753Z</time></trkpt><trkpt lat="43.79915943581134" lon="10.937123317383682"><ele>211.5</ele><time>2026-03-29T10:56:57.753Z</time></trkpt><trkpt lat="43.79912343356074" lon="10.937008831468054"><ele>211.66666666666669</ele><time>2026-03-29T10:57:00.753Z</time></trkpt><trkpt lat="43.79908793749661" lon="10.93693011185177"><ele>211.83333333333334</ele><time>2026-03-29T10:57:02.753Z</time></trkpt><trkpt lat="43.7990394091421" lon="10.936833897504847"><ele>212.0</ele><time>2026-03-29T10:57:05.753Z</time></trkpt><trkpt lat="43.79900099463647" lon="10.936734150073281"><ele>211.00000000000003</ele><time>2026-03-29T10:57:08.753Z</time></trkpt><trkpt lat="43.79896314088966" lon="10.936638609577038"><ele>210.0</ele><time>2026-03-29T10:57:11.753Z</time></trkpt><trkpt lat="43.79892593713268" lon="10.936534367113309"><ele>209.0</ele><time>2026-03-29T10:57:14.752Z</time></trkpt><trkpt lat="43.798886971903656" lon="10.936420183249659"><ele>208.0</ele><time>2026-03-29T10:57:17.752Z</time></trkpt><trkpt lat="43.79884209392895" lon="10.93631570565131"><ele>207.00000000000003</ele><time>2026-03-29T10:57:20.752Z</time></trkpt><trkpt lat="43.798804664376405" lon="10.936206009593151"><ele>206.0</ele><time>2026-03-29T10:57:23.752Z</time></trkpt><trkpt lat="43.79879242836887" lon="10.93607102605743"><ele>206.00000000000003</ele><time>2026-03-29T10:57:26.752Z</time></trkpt><trkpt lat="43.79876168428452" lon="10.93595860845521"><ele>206.0</ele><time>2026-03-29T10:57:29.752Z</time></trkpt><trkpt lat="43.79872304990033" lon="10.935802573309113"><ele>206.0</ele><time>2026-03-29T10:57:33.751Z</time></trkpt><trkpt lat="43.798647490105004" lon="10.9357406904747"><ele>206.0</ele><time>2026-03-29T10:57:36.751Z</time></trkpt><trkpt lat="43.798577129985134" lon="10.935784407314912"><ele>206.00000000000003</ele><time>2026-03-29T10:57:39.751Z</time></trkpt><trkpt lat="43.79850641665203" lon="10.93580024223408"><ele>206.0</ele><time>2026-03-29T10:57:42.751Z</time></trkpt><trkpt lat="43.798436228507974" lon="10.935835983377705"><ele>205.66666666666669</ele><time>2026-03-29T10:57:45.751Z</time></trkpt><trkpt lat="43.79835729082286" lon="10.935865016006721"><ele>205.33333333333334</ele><time>2026-03-29T10:57:48.751Z</time></trkpt><trkpt lat="43.798286053147706" lon="10.935901457846802"><ele>205.0</ele><time>2026-03-29T10:57:51.751Z</time></trkpt><trkpt lat="43.79820503388479" lon="10.93590865024122"><ele>204.66666666666669</ele><time>2026-03-29T10:57:54.75Z</time></trkpt><trkpt lat="43.79812832452199" lon="10.93595621829157"><ele>204.33333333333334</ele><time>2026-03-29T10:57:57.75Z</time></trkpt><trkpt lat="43.79804875408821" lon="10.935981197035513"><ele>204.0</ele><time>2026-03-29T10:58:00.75Z</time></trkpt><trkpt lat="43.7979714380957" lon="10.936001461043663"><ele>204.0</ele><time>2026-03-29T10:58:03.75Z</time></trkpt><trkpt lat="43.79788792939594" lon="10.935978575567193"><ele>204.0</ele><time>2026-03-29T10:58:06.75Z</time></trkpt><trkpt lat="43.797817230449276" lon="10.935965576936281"><ele>204.0</ele><time>2026-03-29T10:58:09.75Z</time></trkpt><trkpt lat="43.7977307066516" lon="10.935959954454404"><ele>204.0</ele><time>2026-03-29T10:58:12.75Z</time></trkpt><trkpt lat="43.797650559124165" lon="10.935928258686122"><ele>204.0</ele><time>2026-03-29T10:58:15.749Z</time></trkpt><trkpt lat="43.79760730301993" lon="10.935836704604347"><ele>204.0</ele><time>2026-03-29T10:58:18.749Z</time></trkpt><trkpt lat="43.797562478162654" lon="10.93576513836989"><ele>202.14285714285714</ele><time>2026-03-29T10:58:21.749Z</time></trkpt><trkpt lat="43.79753109570534" lon="10.935664732927082"><ele>200.28571428571428</ele><time>2026-03-29T10:58:25.749Z</time></trkpt><trkpt lat="43.797468393298104" lon="10.935584413311217"><ele>198.42857142857144</ele><time>2026-03-29T10:58:29.749Z</time></trkpt><trkpt lat="43.797434545828494" lon="10.935486383347495"><ele>196.57142857142856</ele><time>2026-03-29T10:58:33.749Z</time></trkpt><trkpt lat="43.797395160801514" lon="10.935413670229002"><ele>194.7142857142857</ele><time>2026-03-29T10:58:36.748Z</time></trkpt><trkpt lat="43.79734395264428" lon="10.935355385798928"><ele>192.85714285714286</ele><time>2026-03-29T10:58:39.748Z</time></trkpt><trkpt lat="43.79728041279031" lon="10.93531655359447"><ele>191.0</ele><time>2026-03-29T10:58:42.748Z</time></trkpt><trkpt lat="43.79721525620544" lon="10.935299883828957"><ele>191.0</ele><time>2026-03-29T10:58:45.748Z</time></trkpt><trkpt lat="43.79715716577316" lon="10.93525980709041"><ele>191.0</ele><time>2026-03-29T10:58:48.748Z</time></trkpt><trkpt lat="43.79710454809784" lon="10.935186498578169"><ele>191.0</ele><time>2026-03-29T10:58:51.748Z</time></trkpt><trkpt lat="43.79706542200059" lon="10.935109484153005"><ele>191.0</ele><time>2026-03-29T10:58:54.749Z</time></trkpt><trkpt lat="43.79702376308906" lon="10.935036607482209"><ele>191.0</ele><time>2026-03-29T10:58:57.749Z</time></trkpt><trkpt lat="43.79698207305423" lon="10.934951621006482"><ele>191.0</ele><time>2026-03-29T10:59:00.749Z</time></trkpt><trkpt lat="43.79693477851299" lon="10.934862231045527"><ele>191.0</ele><time>2026-03-29T10:59:03.749Z</time></trkpt><trkpt lat="43.79686686538999" lon="10.934799941029484"><ele>188.0</ele><time>2026-03-29T10:59:06.748Z</time></trkpt><trkpt lat="43.79680026785107" lon="10.934724295503921"><ele>185.0</ele><time>2026-03-29T10:59:09.748Z</time></trkpt><trkpt lat="43.796743766497755" lon="10.934673369550229"><ele>182.0</ele><time>2026-03-29T10:59:12.748Z</time></trkpt><trkpt lat="43.79668647126461" lon="10.934612364813463"><ele>179.0</ele><time>2026-03-29T10:59:15.748Z</time></trkpt><trkpt lat="43.796648339093686" lon="10.934536646063732"><ele>176.0</ele><time>2026-03-29T10:59:18.748Z</time></trkpt><trkpt lat="43.79660547012905" lon="10.934468017086681"><ele>173.0</ele><time>2026-03-29T10:59:21.748Z</time></trkpt><trkpt lat="43.796551300240466" lon="10.934398384076102"><ele>170.0</ele><time>2026-03-29T10:59:24.748Z</time></trkpt><trkpt lat="43.796502413470556" lon="10.934330833612425"><ele>170.0</ele><time>2026-03-29T10:59:27.747Z</time></trkpt><trkpt lat="43.79644431056733" lon="10.934244586681437"><ele>170.0</ele><time>2026-03-29T10:59:31.747Z</time></trkpt><trkpt lat="43.79640257050363" lon="10.93417444704821"><ele>170.0</ele><time>2026-03-29T10:59:34.747Z</time></trkpt><trkpt lat="43.7963688007213" lon="10.934100782693594"><ele>170.0</ele><time>2026-03-29T10:59:37.747Z</time></trkpt><trkpt lat="43.7963279166149" lon="10.934024070829137"><ele>170.0</ele><time>2026-03-29T10:59:40.747Z</time></trkpt><trkpt lat="43.79629283662784" lon="10.933940194954632"><ele>170.0</ele><time>2026-03-29T10:59:43.747Z</time></trkpt><trkpt lat="43.79625765697114" lon="10.9338557197373"><ele>170.0</ele><time>2026-03-29T10:59:46.747Z</time></trkpt><trkpt lat="43.79619591773411" lon="10.933794207342643"><ele>169.66666666666666</ele><time>2026-03-29T10:59:49.746Z</time></trkpt><trkpt lat="43.79618746901302" lon="10.933699179452406"><ele>169.33333333333331</ele><time>2026-03-29T10:59:52.746Z</time></trkpt><trkpt lat="43.79613763761655" lon="10.933622441623735"><ele>169.0</ele><time>2026-03-29T10:59:55.746Z</time></trkpt><trkpt lat="43.796064196537046" lon="10.933558015841223"><ele>168.66666666666666</ele><time>2026-03-29T10:59:58.746Z</time></trkpt><trkpt lat="43.79600237821623" lon="10.933506480760014"><ele>168.33333333333334</ele><time>2026-03-29T11:00:01.746Z</time></trkpt><trkpt lat="43.79592361428097" lon="10.93345649304221"><ele>168.0</ele><time>2026-03-29T11:00:04.746Z</time></trkpt><trkpt lat="43.795847690396116" lon="10.933404343932203"><ele>166.66666666666666</ele><time>2026-03-29T11:00:07.746Z</time></trkpt><trkpt lat="43.79578441114883" lon="10.933348003746024"><ele>165.33333333333334</ele><time>2026-03-29T11:00:10.745Z</time></trkpt><trkpt lat="43.79572778324774" lon="10.933278029555929"><ele>164.0</ele><time>2026-03-29T11:00:13.745Z</time></trkpt><trkpt lat="43.79566018295866" lon="10.933233210897289"><ele>162.66666666666669</ele><time>2026-03-29T11:00:16.745Z</time></trkpt><trkpt lat="43.7955988694788" lon="10.933160079000775"><ele>161.33333333333334</ele><time>2026-03-29T11:00:19.745Z</time></trkpt><trkpt lat="43.79553693879672" lon="10.933107880463222"><ele>160.0</ele><time>2026-03-29T11:00:22.745Z</time></trkpt><trkpt lat="43.795468044510336" lon="10.933033109698329"><ele>160.0</ele><time>2026-03-29T11:00:25.745Z</time></trkpt><trkpt lat="43.795399455928475" lon="10.932976673328447"><ele>160.0</ele><time>2026-03-29T11:00:28.745Z</time></trkpt><trkpt lat="43.79532965578847" lon="10.93291820688119"><ele>160.0</ele><time>2026-03-29T11:00:31.744Z</time></trkpt><trkpt lat="43.79525997367126" lon="10.932862691819212"><ele>160.0</ele><time>2026-03-29T11:00:34.744Z</time></trkpt><trkpt lat="43.79519560545709" lon="10.932787706294326"><ele>160.0</ele><time>2026-03-29T11:00:37.744Z</time></trkpt><trkpt lat="43.795129684853265" lon="10.932730185751904"><ele>160.0</ele><time>2026-03-29T11:00:40.744Z</time></trkpt><trkpt lat="43.795062636672824" lon="10.932679129017648"><ele>159.71428571428572</ele><time>2026-03-29T11:00:43.744Z</time></trkpt><trkpt lat="43.79500615985542" lon="10.932615252048873"><ele>159.42857142857144</ele><time>2026-03-29T11:00:46.744Z</time></trkpt><trkpt lat="43.79494574766087" lon="10.932536851891347"><ele>159.14285714285717</ele><time>2026-03-29T11:00:49.744Z</time></trkpt><trkpt lat="43.794878650868796" lon="10.93249040839941"><ele>158.85714285714286</ele><time>2026-03-29T11:00:52.743Z</time></trkpt><trkpt lat="43.794817692446884" lon="10.932436040401209"><ele>158.57142857142858</ele><time>2026-03-29T11:00:55.743Z</time></trkpt><trkpt lat="43.794757452333364" lon="10.932391481429896"><ele>158.2857142857143</ele><time>2026-03-29T11:00:58.745Z</time></trkpt><trkpt lat="43.794692226512424" lon="10.932338527646317"><ele>158.0</ele><time>2026-03-29T11:01:01.744Z</time></trkpt><trkpt lat="43.79463495334664" lon="10.932271439308488"><ele>158.0</ele><time>2026-03-29T11:01:04.744Z</time></trkpt><trkpt lat="43.79456412689048" lon="10.932215590643837"><ele>158.0</ele><time>2026-03-29T11:01:07.744Z</time></trkpt><trkpt lat="43.79450473906227" lon="10.932152262722386"><ele>158.0</ele><time>2026-03-29T11:01:10.744Z</time></trkpt><trkpt lat="43.79443462776621" lon="10.932095359657403"><ele>158.0</ele><time>2026-03-29T11:01:13.744Z</time></trkpt><trkpt lat="43.79436803532549" lon="10.932038155446824"><ele>158.0</ele><time>2026-03-29T11:01:16.744Z</time></trkpt><trkpt lat="43.794293965393685" lon="10.931968167490634"><ele>158.0</ele><time>2026-03-29T11:01:19.744Z</time></trkpt><trkpt lat="43.79421206684458" lon="10.931980223923896"><ele>156.2857142857143</ele><time>2026-03-29T11:01:22.744Z</time></trkpt><trkpt lat="43.79413602728649" lon="10.931993974496166"><ele>154.57142857142858</ele><time>2026-03-29T11:01:25.744Z</time></trkpt><trkpt lat="43.79405837707896" lon="10.932008751062236"><ele>152.85714285714286</ele><time>2026-03-29T11:01:28.743Z</time></trkpt><trkpt lat="43.79398757467955" lon="10.931988382122926"><ele>151.14285714285717</ele><time>2026-03-29T11:01:31.743Z</time></trkpt><trkpt lat="43.793923258929695" lon="10.931999929402547"><ele>149.42857142857144</ele><time>2026-03-29T11:01:34.743Z</time></trkpt><trkpt lat="43.79385299421595" lon="10.931981878729248"><ele>147.71428571428572</ele><time>2026-03-29T11:01:37.743Z</time></trkpt><trkpt lat="43.79378642146295" lon="10.931970946402117"><ele>146.0</ele><time>2026-03-29T11:01:40.743Z</time></trkpt><trkpt lat="43.79370173841805" lon="10.931937207643234"><ele>146.0</ele><time>2026-03-29T11:01:44.743Z</time></trkpt><trkpt lat="43.79367352211952" lon="10.931825539813035"><ele>146.0</ele><time>2026-03-29T11:01:48.742Z</time></trkpt><trkpt lat="43.79365374221646" lon="10.93173937405672"><ele>146.0</ele><time>2026-03-29T11:01:51.742Z</time></trkpt><trkpt lat="43.7936390368454" lon="10.931631046314765"><ele>146.0</ele><time>2026-03-29T11:01:55.742Z</time></trkpt><trkpt lat="43.79358605643862" lon="10.93157439689315"><ele>146.0</ele><time>2026-03-29T11:01:58.742Z</time></trkpt><trkpt lat="43.79356412795136" lon="10.931472514051338"><ele>146.0</ele><time>2026-03-29T11:02:02.742Z</time></trkpt><trkpt lat="43.79357465003436" lon="10.931363172346972"><ele>146.0</ele><time>2026-03-29T11:02:06.742Z</time></trkpt><trkpt lat="43.79363391753349" lon="10.931301949107112"><ele>146.0</ele><time>2026-03-29T11:02:09.741Z</time></trkpt><trkpt lat="43.79367662065172" lon="10.931229281666676"><ele>146.0</ele><time>2026-03-29T11:02:13.741Z</time></trkpt><trkpt lat="43.7937210963319" lon="10.931148297809653"><ele>146.0</ele><time>2026-03-29T11:02:17.741Z</time></trkpt><trkpt lat="43.793756328016435" lon="10.931064912281649"><ele>146.0</ele><time>2026-03-29T11:02:20.741Z</time></trkpt><trkpt lat="43.79380985564491" lon="10.930980966052156"><ele>146.0</ele><time>2026-03-29T11:02:23.741Z</time></trkpt><trkpt lat="43.79387278964893" lon="10.930910857525003"><ele>146.0</ele><time>2026-03-29T11:02:26.741Z</time></trkpt><trkpt lat="43.79394464256996" lon="10.930893950298534"><ele>146.0</ele><time>2026-03-29T11:02:29.74Z</time></trkpt><trkpt lat="43.794025900772354" lon="10.930900607259709"><ele>146.0</ele><time>2026-03-29T11:02:32.74Z</time></trkpt><trkpt lat="43.79409944404256" lon="10.930908485026887"><ele>146.0</ele><time>2026-03-29T11:02:35.74Z</time></trkpt><trkpt lat="43.79417259350509" lon="10.930902119496249"><ele>146.0</ele><time>2026-03-29T11:02:38.74Z</time></trkpt><trkpt lat="43.79423669660511" lon="10.930893622963094"><ele>146.0</ele><time>2026-03-29T11:02:41.74Z</time></trkpt><trkpt lat="43.79430281577947" lon="10.930873470509145"><ele>146.0</ele><time>2026-03-29T11:02:44.74Z</time></trkpt><trkpt lat="43.79436453955891" lon="10.930854292472077"><ele>146.0</ele><time>2026-03-29T11:02:47.74Z</time></trkpt><trkpt lat="43.79443634708882" lon="10.930857299491636"><ele>143.71428571428572</ele><time>2026-03-29T11:02:50.739Z</time></trkpt><trkpt lat="43.7945049836775" lon="10.93085040556048"><ele>141.42857142857144</ele><time>2026-03-29T11:02:53.739Z</time></trkpt><trkpt lat="43.794581745895115" lon="10.93084720823966"><ele>139.14285714285717</ele><time>2026-03-29T11:02:56.739Z</time></trkpt><trkpt lat="43.79466156930593" lon="10.930837134535162"><ele>136.85714285714286</ele><time>2026-03-29T11:02:59.739Z</time></trkpt><trkpt lat="43.794733789808724" lon="10.930817600831983"><ele>134.57142857142858</ele><time>2026-03-29T11:03:02.739Z</time></trkpt><trkpt lat="43.79480505104736" lon="10.930799279179107"><ele>132.2857142857143</ele><time>2026-03-29T11:03:05.74Z</time></trkpt><trkpt lat="43.794878900461185" lon="10.930799321177984"><ele>130.0</ele><time>2026-03-29T11:03:08.741Z</time></trkpt><trkpt lat="43.794952100563535" lon="10.930794241872647"><ele>130.0</ele><time>2026-03-29T11:03:11.74Z</time></trkpt><trkpt lat="43.79502466523677" lon="10.93077169488374"><ele>130.0</ele><time>2026-03-29T11:03:14.74Z</time></trkpt><trkpt lat="43.79510696368703" lon="10.930775696823233"><ele>130.0</ele><time>2026-03-29T11:03:17.74Z</time></trkpt><trkpt lat="43.79519090496394" lon="10.930778511693072"><ele>130.0</ele><time>2026-03-29T11:03:20.74Z</time></trkpt><trkpt lat="43.79526942209432" lon="10.93075940874698"><ele>130.0</ele><time>2026-03-29T11:03:23.74Z</time></trkpt><trkpt lat="43.79534738729182" lon="10.930713032543762"><ele>130.0</ele><time>2026-03-29T11:03:26.74Z</time></trkpt><trkpt lat="43.79538212009621" lon="10.930633979300202"><ele>130.33333333333334</ele><time>2026-03-29T11:03:28.74Z</time></trkpt><trkpt lat="43.795394944382146" lon="10.930547982459899"><ele>130.66666666666669</ele><time>2026-03-29T11:03:30.74Z</time></trkpt><trkpt lat="43.79539587892356" lon="10.93043789378923"><ele>131.0</ele><time>2026-03-29T11:03:33.739Z</time></trkpt><trkpt lat="43.79541938828034" lon="10.93032589415074"><ele>131.33333333333334</ele><time>2026-03-29T11:03:36.739Z</time></trkpt><trkpt lat="43.7954350790009" lon="10.930199957022968"><ele>131.66666666666666</ele><time>2026-03-29T11:03:39.739Z</time></trkpt><trkpt lat="43.795449262323835" lon="10.930090303432687"><ele>132.0</ele><time>2026-03-29T11:03:42.739Z</time></trkpt><trkpt lat="43.79546679609985" lon="10.92998196814304"><ele>132.0</ele><time>2026-03-29T11:03:45.739Z</time></trkpt><trkpt lat="43.795484103687784" lon="10.92987050541267"><ele>132.0</ele><time>2026-03-29T11:03:48.739Z</time></trkpt><trkpt lat="43.79549316256493" lon="10.92976031842789"><ele>132.0</ele><time>2026-03-29T11:03:51.739Z</time></trkpt><trkpt lat="43.795501261653456" lon="10.92965495756687"><ele>132.0</ele><time>2026-03-29T11:03:54.738Z</time></trkpt><trkpt lat="43.7954813840548" lon="10.929552055019983"><ele>132.0</ele><time>2026-03-29T11:03:57.738Z</time></trkpt><trkpt lat="43.795439976778205" lon="10.929465795310985"><ele>132.0</ele><time>2026-03-29T11:04:00.738Z</time></trkpt><trkpt lat="43.79540868174342" lon="10.92938165412728"><ele>132.0</ele><time>2026-03-29T11:04:03.738Z</time></trkpt><trkpt lat="43.795370288471624" lon="10.929301194585626"><ele>132.0</ele><time>2026-03-29T11:04:06.738Z</time></trkpt><trkpt lat="43.795326562942606" lon="10.929228425061902"><ele>132.0</ele><time>2026-03-29T11:04:09.738Z</time></trkpt><trkpt lat="43.795269620730245" lon="10.929151134496394"><ele>132.0</ele><time>2026-03-29T11:04:12.738Z</time></trkpt><trkpt lat="43.795223704086865" lon="10.92905834042401"><ele>132.0</ele><time>2026-03-29T11:04:15.737Z</time></trkpt><trkpt lat="43.795148688970905" lon="10.929016404323603"><ele>132.0</ele><time>2026-03-29T11:04:18.737Z</time></trkpt><trkpt lat="43.79508081739729" lon="10.928978605808219"><ele>130.57142857142856</ele><time>2026-03-29T11:04:21.737Z</time></trkpt><trkpt lat="43.79501634610098" lon="10.92894089994862"><ele>129.14285714285714</ele><time>2026-03-29T11:04:24.737Z</time></trkpt><trkpt lat="43.79496823333236" lon="10.928870442837496"><ele>127.71428571428571</ele><time>2026-03-29T11:04:27.737Z</time></trkpt><trkpt lat="43.79491377694531" lon="10.928798660355689"><ele>126.28571428571428</ele><time>2026-03-29T11:04:30.737Z</time></trkpt><trkpt lat="43.79486171772081" lon="10.92873872811652"><ele>124.85714285714286</ele><time>2026-03-29T11:04:33.737Z</time></trkpt><trkpt lat="43.79480087282885" lon="10.928695285446413"><ele>123.42857142857142</ele><time>2026-03-29T11:04:36.736Z</time></trkpt><trkpt lat="43.794737612542704" lon="10.928660622669042"><ele>121.99999999999999</ele><time>2026-03-29T11:04:39.736Z</time></trkpt><trkpt lat="43.79467398966304" lon="10.928611615203573"><ele>121.99999999999999</ele><time>2026-03-29T11:04:42.736Z</time></trkpt><trkpt lat="43.794616852963735" lon="10.92856523057673"><ele>122.0</ele><time>2026-03-29T11:04:45.736Z</time></trkpt><trkpt lat="43.794556353135654" lon="10.92852936814935"><ele>121.99999999999999</ele><time>2026-03-29T11:04:48.736Z</time></trkpt><trkpt lat="43.79447776125007" lon="10.928484873911982"><ele>121.99999999999999</ele><time>2026-03-29T11:04:52.736Z</time></trkpt><trkpt lat="43.79442263573633" lon="10.928430568040495"><ele>122.0</ele><time>2026-03-29T11:04:55.735Z</time></trkpt><trkpt lat="43.79437333365064" lon="10.928369895757468"><ele>121.99999999999999</ele><time>2026-03-29T11:04:58.735Z</time></trkpt><trkpt lat="43.7943303181143" lon="10.928304884198818"><ele>121.99999999999999</ele><time>2026-03-29T11:05:01.735Z</time></trkpt><trkpt lat="43.7942810830555" lon="10.928247166912403"><ele>120.83333333333333</ele><time>2026-03-29T11:05:04.735Z</time></trkpt><trkpt lat="43.79422203225145" lon="10.928174756993684"><ele>119.66666666666666</ele><time>2026-03-29T11:05:08.735Z</time></trkpt><trkpt lat="43.79415985595876" lon="10.928097981858087"><ele>118.5</ele><time>2026-03-29T11:05:12.736Z</time></trkpt><trkpt lat="43.79410228727442" lon="10.928028283480327"><ele>117.33333333333334</ele><time>2026-03-29T11:05:16.735Z</time></trkpt><trkpt lat="43.794049699849424" lon="10.927951817001809"><ele>116.16666666666667</ele><time>2026-03-29T11:05:20.736Z</time></trkpt><trkpt lat="43.79399110857042" lon="10.927880733708454"><ele>115.0</ele><time>2026-03-29T11:05:24.735Z</time></trkpt><trkpt lat="43.79392172460045" lon="10.927807051976753"><ele>115.00000000000001</ele><time>2026-03-29T11:05:28.735Z</time></trkpt><trkpt lat="43.79387348965815" lon="10.927743015524552"><ele>115.0</ele><time>2026-03-29T11:05:31.735Z</time></trkpt><trkpt lat="43.79381884023634" lon="10.927660906633411"><ele>115.0</ele><time>2026-03-29T11:05:35.735Z</time></trkpt><trkpt lat="43.79375536878372" lon="10.927585923739494"><ele>115.0</ele><time>2026-03-29T11:05:39.734Z</time></trkpt><trkpt lat="43.79368832959861" lon="10.9275088455988"><ele>115.00000000000001</ele><time>2026-03-29T11:05:43.734Z</time></trkpt><trkpt lat="43.79361708568885" lon="10.927455360434205"><ele>115.0</ele><time>2026-03-29T11:05:47.734Z</time></trkpt><trkpt lat="43.79355042638189" lon="10.927394284910882"><ele>115.7142857142857</ele><time>2026-03-29T11:05:51.734Z</time></trkpt><trkpt lat="43.793494165073035" lon="10.927335094602938"><ele>116.42857142857142</ele><time>2026-03-29T11:05:54.734Z</time></trkpt><trkpt lat="43.7934186411008" lon="10.927280650369946"><ele>117.14285714285714</ele><time>2026-03-29T11:05:58.734Z</time></trkpt><trkpt lat="43.793365649624825" lon="10.927229976316463"><ele>117.85714285714285</ele><time>2026-03-29T11:06:01.733Z</time></trkpt><trkpt lat="43.793310481454306" lon="10.927184083168195"><ele>118.57142857142856</ele><time>2026-03-29T11:06:04.733Z</time></trkpt><trkpt lat="43.793261529226974" lon="10.927125545288492"><ele>119.28571428571429</ele><time>2026-03-29T11:06:07.733Z</time></trkpt><trkpt lat="43.79321407019212" lon="10.927056882590733"><ele>120.0</ele><time>2026-03-29T11:06:10.733Z</time></trkpt><trkpt lat="43.79315393700106" lon="10.926972139962869"><ele>120.0</ele><time>2026-03-29T11:06:14.733Z</time></trkpt><trkpt lat="43.793106691729584" lon="10.92691328217501"><ele>120.0</ele><time>2026-03-29T11:06:17.733Z</time></trkpt><trkpt lat="43.79305437957941" lon="10.926845193575728"><ele>120.0</ele><time>2026-03-29T11:06:20.733Z</time></trkpt><trkpt lat="43.7930020728946" lon="10.926776749135781"><ele>120.0</ele><time>2026-03-29T11:06:23.732Z</time></trkpt><trkpt lat="43.79295179335805" lon="10.926707574624194"><ele>120.0</ele><time>2026-03-29T11:06:26.732Z</time></trkpt><trkpt lat="43.792903178792145" lon="10.926640996494294"><ele>120.0</ele><time>2026-03-29T11:06:29.732Z</time></trkpt><trkpt lat="43.79285810163762" lon="10.926576529390184"><ele>120.0</ele><time>2026-03-29T11:06:32.732Z</time></trkpt><trkpt lat="43.792801627364135" lon="10.92653241982467"><ele>120.0</ele><time>2026-03-29T11:06:35.732Z</time></trkpt><trkpt lat="43.79274459114231" lon="10.926474242355052"><ele>120.0</ele><time>2026-03-29T11:06:38.732Z</time></trkpt><trkpt lat="43.79270017089904" lon="10.926389741428364"><ele>120.0</ele><time>2026-03-29T11:06:41.732Z</time></trkpt><trkpt lat="43.792635445892955" lon="10.926331988735026"><ele>120.0</ele><time>2026-03-29T11:06:44.731Z</time></trkpt><trkpt lat="43.79257163383804" lon="10.926270755930195"><ele>120.0</ele><time>2026-03-29T11:06:47.731Z</time></trkpt><trkpt lat="43.79251168249796" lon="10.926201073397602"><ele>120.0</ele><time>2026-03-29T11:06:50.731Z</time></trkpt><trkpt lat="43.792453101177564" lon="10.92613415318531"><ele>120.0</ele><time>2026-03-29T11:06:53.731Z</time></trkpt><trkpt lat="43.79239394996851" lon="10.926071485989786"><ele>120.0</ele><time>2026-03-29T11:06:56.731Z</time></trkpt><trkpt lat="43.79234514394419" lon="10.925992099649203"><ele>120.0</ele><time>2026-03-29T11:06:59.731Z</time></trkpt><trkpt lat="43.792290999450984" lon="10.92593903527335"><ele>120.0</ele><time>2026-03-29T11:07:02.731Z</time></trkpt><trkpt lat="43.79223854646505" lon="10.925845303127959"><ele>120.0</ele><time>2026-03-29T11:07:06.73Z</time></trkpt><trkpt lat="43.792186087057964" lon="10.925753232832058"><ele>120.0</ele><time>2026-03-29T11:07:10.73Z</time></trkpt><trkpt lat="43.79213621450209" lon="10.925655592638016"><ele>119.28571428571429</ele><time>2026-03-29T11:07:14.73Z</time></trkpt><trkpt lat="43.79208266317393" lon="10.925591626404083"><ele>118.57142857142856</ele><time>2026-03-29T11:07:17.899Z</time></trkpt><trkpt lat="43.79203169715035" lon="10.92549958283027"><ele>117.85714285714285</ele><time>2026-03-29T11:07:21.9Z</time></trkpt><trkpt lat="43.79202185680303" lon="10.925401360479718"><ele>117.14285714285714</ele><time>2026-03-29T11:07:24.9Z</time></trkpt><trkpt lat="43.79199999541252" lon="10.925297589930508"><ele>116.42857142857142</ele><time>2026-03-29T11:07:27.9Z</time></trkpt><trkpt lat="43.791970723760514" lon="10.925210062929033"><ele>115.7142857142857</ele><time>2026-03-29T11:07:30.9Z</time></trkpt><trkpt lat="43.79193754539138" lon="10.92512438819142"><ele>114.99999999999999</ele><time>2026-03-29T11:07:33.9Z</time></trkpt><trkpt lat="43.79188968507325" lon="10.925054939016649"><ele>114.99999999999999</ele><time>2026-03-29T11:07:36.9Z</time></trkpt><trkpt lat="43.79184827541616" lon="10.92497286830836"><ele>115.0</ele><time>2026-03-29T11:07:39.9Z</time></trkpt><trkpt lat="43.79180921963734" lon="10.924885709212598"><ele>114.99999999999999</ele><time>2026-03-29T11:07:42.9Z</time></trkpt><trkpt lat="43.791761228230676" lon="10.92479721954827"><ele>114.99999999999999</ele><time>2026-03-29T11:07:45.9Z</time></trkpt><trkpt lat="43.791686459973334" lon="10.924758746834925"><ele>115.0</ele><time>2026-03-29T11:07:48.9Z</time></trkpt><trkpt lat="43.79162260301493" lon="10.924780889764339"><ele>114.99999999999999</ele><time>2026-03-29T11:07:51.9Z</time></trkpt><trkpt lat="43.791551724948874" lon="10.924820409510563"><ele>114.99999999999999</ele><time>2026-03-29T11:07:55.9Z</time></trkpt><trkpt lat="43.79148430659115" lon="10.924880461581461"><ele>114.99999999999999</ele><time>2026-03-29T11:07:59.9Z</time></trkpt><trkpt lat="43.79142976277883" lon="10.924931691267481"><ele>115.0</ele><time>2026-03-29T11:08:02.9Z</time></trkpt><trkpt lat="43.791375378414614" lon="10.924983766407841"><ele>114.99999999999999</ele><time>2026-03-29T11:08:05.9Z</time></trkpt><trkpt lat="43.79131226315776" lon="10.92503687772992"><ele>114.99999999999999</ele><time>2026-03-29T11:08:09.9Z</time></trkpt><trkpt lat="43.79122939609573" lon="10.925019840404422"><ele>115.0</ele><time>2026-03-29T11:08:13.9Z</time></trkpt><trkpt lat="43.79115532846542" lon="10.924995444612083"><ele>114.99999999999999</ele><time>2026-03-29T11:08:18.9Z</time></trkpt><trkpt lat="43.791087595926385" lon="10.92497432820889"><ele>114.99999999999999</ele><time>2026-03-29T11:08:21.9Z</time></trkpt><trkpt lat="43.791022138495705" lon="10.92495582971369"><ele>112.83333333333334</ele><time>2026-03-29T11:08:24.9Z</time></trkpt><trkpt lat="43.790948663097595" lon="10.924932092944978"><ele>110.66666666666667</ele><time>2026-03-29T11:08:27.9Z</time></trkpt><trkpt lat="43.79087606110461" lon="10.924920446996943"><ele>108.5</ele><time>2026-03-29T11:08:30.9Z</time></trkpt><trkpt lat="43.79079957871336" lon="10.924904497342805"><ele>106.33333333333334</ele><time>2026-03-29T11:08:33.9Z</time></trkpt><trkpt lat="43.79072155351927" lon="10.924911197617392"><ele>104.16666666666667</ele><time>2026-03-29T11:08:36.9Z</time></trkpt><trkpt lat="43.79064305719601" lon="10.9249303925004"><ele>102.0</ele><time>2026-03-29T11:08:39.9Z</time></trkpt><trkpt lat="43.79056411276503" lon="10.924931563132196"><ele>102.0</ele><time>2026-03-29T11:08:42.9Z</time></trkpt><trkpt lat="43.79048488019243" lon="10.924919990754853"><ele>102.0</ele><time>2026-03-29T11:08:45.9Z</time></trkpt><trkpt lat="43.79040633014945" lon="10.924922250596211"><ele>102.0</ele><time>2026-03-29T11:08:48.899Z</time></trkpt><trkpt lat="43.79033634350626" lon="10.924915732566161"><ele>102.0</ele><time>2026-03-29T11:08:51.899Z</time></trkpt><trkpt lat="43.790269296120854" lon="10.924884671570481"><ele>102.0</ele><time>2026-03-29T11:08:54.899Z</time></trkpt><trkpt lat="43.79019302088071" lon="10.924873580743894"><ele>102.0</ele><time>2026-03-29T11:08:57.899Z</time></trkpt><trkpt lat="43.790119842878944" lon="10.924855335894897"><ele>101.33333333333333</ele><time>2026-03-29T11:09:00.899Z</time></trkpt><trkpt lat="43.79004391543111" lon="10.9248042163998"><ele>100.66666666666666</ele><time>2026-03-29T11:09:03.899Z</time></trkpt><trkpt lat="43.78996414344454" lon="10.924751459303229"><ele>100.0</ele><time>2026-03-29T11:09:06.899Z</time></trkpt><trkpt lat="43.78988036738633" lon="10.924709726211685"><ele>99.33333333333333</ele><time>2026-03-29T11:09:09.899Z</time></trkpt><trkpt lat="43.78982799734174" lon="10.924655863384086"><ele>98.66666666666666</ele><time>2026-03-29T11:09:11.899Z</time></trkpt><trkpt lat="43.78975329968433" lon="10.924602824437725"><ele>98.0</ele><time>2026-03-29T11:09:14.899Z</time></trkpt><trkpt lat="43.789686138644235" lon="10.924559568633162"><ele>98.0</ele><time>2026-03-29T11:09:17.899Z</time></trkpt><trkpt lat="43.78962017436151" lon="10.924505365568058"><ele>98.0</ele><time>2026-03-29T11:09:20.899Z</time></trkpt><trkpt lat="43.789572741813686" lon="10.924414721622876"><ele>98.0</ele><time>2026-03-29T11:09:23.9Z</time></trkpt><trkpt lat="43.789546832935535" lon="10.924322667714087"><ele>98.0</ele><time>2026-03-29T11:09:26.901Z</time></trkpt><trkpt lat="43.789529047470744" lon="10.924235848364427"><ele>98.0</ele><time>2026-03-29T11:09:29.9Z</time></trkpt><trkpt lat="43.789527179053366" lon="10.924140373812115"><ele>98.0</ele><time>2026-03-29T11:09:32.9Z</time></trkpt><trkpt lat="43.789533423695765" lon="10.924051883601132"><ele>98.0</ele><time>2026-03-29T11:09:35.901Z</time></trkpt><trkpt lat="43.789524985368026" lon="10.923958896406774"><ele>97.28571428571429</ele><time>2026-03-29T11:09:38.9Z</time></trkpt><trkpt lat="43.78950461851264" lon="10.923860213899944"><ele>96.57142857142857</ele><time>2026-03-29T11:09:41.9Z</time></trkpt><trkpt lat="43.78945224261937" lon="10.92378169661616"><ele>95.85714285714286</ele><time>2026-03-29T11:09:44.9Z</time></trkpt><trkpt lat="43.78939042814035" lon="10.923738338469999"><ele>95.14285714285714</ele><time>2026-03-29T11:09:47.9Z</time></trkpt><trkpt lat="43.789324651467595" lon="10.923709518736619"><ele>94.42857142857143</ele><time>2026-03-29T11:09:50.9Z</time></trkpt><trkpt lat="43.78925504523001" lon="10.923696520942784"><ele>93.71428571428572</ele><time>2026-03-29T11:09:53.9Z</time></trkpt><trkpt lat="43.789181828557176" lon="10.923670477281192"><ele>93.0</ele><time>2026-03-29T11:09:56.9Z</time></trkpt><trkpt lat="43.78910736533746" lon="10.923644898388039"><ele>93.0</ele><time>2026-03-29T11:09:59.9Z</time></trkpt><trkpt lat="43.78902722655192" lon="10.92362821674997"><ele>93.0</ele><time>2026-03-29T11:10:02.9Z</time></trkpt><trkpt lat="43.78894953582826" lon="10.923647296824909"><ele>93.0</ele><time>2026-03-29T11:10:05.9Z</time></trkpt><trkpt lat="43.78888060725615" lon="10.923646943507794"><ele>93.0</ele><time>2026-03-29T11:10:08.9Z</time></trkpt><trkpt lat="43.7887989664955" lon="10.92362984838311"><ele>93.0</ele><time>2026-03-29T11:10:11.9Z</time></trkpt><trkpt lat="43.788709370127464" lon="10.923613254613935"><ele>93.0</ele><time>2026-03-29T11:10:14.9Z</time></trkpt><trkpt lat="43.78864467725291" lon="10.92360074655405"><ele>93.0</ele><time>2026-03-29T11:10:16.9Z</time></trkpt><trkpt lat="43.78856171552755" lon="10.923616132057857"><ele>93.0</ele><time>2026-03-29T11:10:19.9Z</time></trkpt><trkpt lat="43.78848020895491" lon="10.923633603209081"><ele>93.0</ele><time>2026-03-29T11:10:22.9Z</time></trkpt><trkpt lat="43.78839419859574" lon="10.92363940930605"><ele>93.0</ele><time>2026-03-29T11:10:25.9Z</time></trkpt><trkpt lat="43.78831673619789" lon="10.923633246862972"><ele>93.0</ele><time>2026-03-29T11:10:28.9Z</time></trkpt><trkpt lat="43.7882447527825" lon="10.923558550673395"><ele>93.0</ele><time>2026-03-29T11:10:31.899Z</time></trkpt><trkpt lat="43.78821394707141" lon="10.923454557038887"><ele>90.66666666666667</ele><time>2026-03-29T11:10:34.899Z</time></trkpt><trkpt lat="43.788178576751214" lon="10.923350070094317"><ele>88.33333333333333</ele><time>2026-03-29T11:10:37.899Z</time></trkpt><trkpt lat="43.788143951261546" lon="10.923237631661852"><ele>86.0</ele><time>2026-03-29T11:10:40.899Z</time></trkpt><trkpt lat="43.788102248814425" lon="10.923140063910417"><ele>83.66666666666666</ele><time>2026-03-29T11:10:43.899Z</time></trkpt><trkpt lat="43.788069337344986" lon="10.923044338362734"><ele>81.33333333333333</ele><time>2026-03-29T11:10:46.899Z</time></trkpt><trkpt lat="43.78801313398188" lon="10.92296583906478"><ele>79.0</ele><time>2026-03-29T11:10:49.899Z</time></trkpt><trkpt lat="43.787954376887896" lon="10.9228856436718"><ele>79.0</ele><time>2026-03-29T11:10:52.899Z</time></trkpt><trkpt lat="43.787900926120884" lon="10.922802234612908"><ele>79.0</ele><time>2026-03-29T11:10:55.899Z</time></trkpt><trkpt lat="43.787869964456476" lon="10.922712799091498"><ele>79.0</ele><time>2026-03-29T11:10:58.899Z</time></trkpt><trkpt lat="43.78782314334039" lon="10.922621610522329"><ele>79.0</ele><time>2026-03-29T11:11:01.899Z</time></trkpt><trkpt lat="43.7877836147667" lon="10.92252553236822"><ele>79.0</ele><time>2026-03-29T11:11:04.899Z</time></trkpt><trkpt lat="43.787761400218244" lon="10.92242695138158"><ele>79.0</ele><time>2026-03-29T11:11:07.899Z</time></trkpt><trkpt lat="43.78773367213296" lon="10.92232295088428"><ele>78.16666666666666</ele><time>2026-03-29T11:11:10.899Z</time></trkpt><trkpt lat="43.78769729042103" lon="10.92221860437236"><ele>77.33333333333333</ele><time>2026-03-29T11:11:13.899Z</time></trkpt><trkpt lat="43.78768256087092" lon="10.92213007322528"><ele>76.5</ele><time>2026-03-29T11:11:15.899Z</time></trkpt><trkpt lat="43.7876536750315" lon="10.922022281652804"><ele>75.66666666666667</ele><time>2026-03-29T11:11:18.899Z</time></trkpt><trkpt lat="43.787620338378716" lon="10.921919642143568"><ele>74.83333333333334</ele><time>2026-03-29T11:11:21.899Z</time></trkpt><trkpt lat="43.78755259408529" lon="10.921835466490283"><ele>74.0</ele><time>2026-03-29T11:11:24.898Z</time></trkpt><trkpt lat="43.78749439716652" lon="10.921902542351777"><ele>74.0</ele><time>2026-03-29T11:11:27.898Z</time></trkpt><trkpt lat="43.78743569373135" lon="10.921965748192873"><ele>74.0</ele><time>2026-03-29T11:11:30.9Z</time></trkpt><trkpt lat="43.78738218005016" lon="10.922019548446276"><ele>74.0</ele><time>2026-03-29T11:11:33.9Z</time></trkpt><trkpt lat="43.78730047557898" lon="10.922046300925667"><ele>74.0</ele><time>2026-03-29T11:11:36.9Z</time></trkpt><trkpt lat="43.78723911273228" lon="10.922125880102612"><ele>74.0</ele><time>2026-03-29T11:11:39.899Z</time></trkpt><trkpt lat="43.78721871519279" lon="10.922223896599624"><ele>74.0</ele><time>2026-03-29T11:11:42.899Z</time></trkpt><trkpt lat="43.78722043678888" lon="10.92232711409233"><ele>74.0</ele><time>2026-03-29T11:11:45.899Z</time></trkpt><trkpt lat="43.7872099227715" lon="10.922434911437625"><ele>74.0</ele><time>2026-03-29T11:11:48.899Z</time></trkpt><trkpt lat="43.787208818729916" lon="10.922540379902038"><ele>74.0</ele><time>2026-03-29T11:11:51.899Z</time></trkpt><trkpt lat="43.78720634370548" lon="10.92264798757205"><ele>74.0</ele><time>2026-03-29T11:11:54.899Z</time></trkpt><trkpt lat="43.787205628701074" lon="10.922746900870907"><ele>74.0</ele><time>2026-03-29T11:11:57.899Z</time></trkpt><trkpt lat="43.78719348435495" lon="10.92285843536729"><ele>74.0</ele><time>2026-03-29T11:12:00.899Z</time></trkpt><trkpt lat="43.787199646037976" lon="10.922959946363692"><ele>73.85714285714286</ele><time>2026-03-29T11:12:03.899Z</time></trkpt><trkpt lat="43.787196560020504" lon="10.923068335377735"><ele>73.71428571428571</ele><time>2026-03-29T11:12:06.899Z</time></trkpt><trkpt lat="43.78720481119187" lon="10.923164253727059"><ele>73.57142857142857</ele><time>2026-03-29T11:12:09.899Z</time></trkpt><trkpt lat="43.78721505924295" lon="10.92325968145517"><ele>73.42857142857143</ele><time>2026-03-29T11:12:12.899Z</time></trkpt><trkpt lat="43.787227396337485" lon="10.923359088095383"><ele>73.28571428571429</ele><time>2026-03-29T11:12:15.899Z</time></trkpt><trkpt lat="43.78723926385014" lon="10.923455035618089"><ele>73.14285714285714</ele><time>2026-03-29T11:12:18.899Z</time></trkpt><trkpt lat="43.78725973696617" lon="10.923563955701853"><ele>73.0</ele><time>2026-03-29T11:12:21.899Z</time></trkpt><trkpt lat="43.787269767381076" lon="10.923666788978116"><ele>72.66666666666666</ele><time>2026-03-29T11:12:24.899Z</time></trkpt><trkpt lat="43.78729486457597" lon="10.923773878630696"><ele>72.33333333333333</ele><time>2026-03-29T11:12:27.899Z</time></trkpt><trkpt lat="43.78733026285845" lon="10.923862655287417"><ele>72.0</ele><time>2026-03-29T11:12:30.899Z</time></trkpt><trkpt lat="43.78736571361254" lon="10.923961759192032"><ele>71.66666666666667</ele><time>2026-03-29T11:12:33.899Z</time></trkpt><trkpt lat="43.78739035490957" lon="10.924066595421646"><ele>71.33333333333334</ele><time>2026-03-29T11:12:36.898Z</time></trkpt><trkpt lat="43.78742965150679" lon="10.924172652078113"><ele>71.0</ele><time>2026-03-29T11:12:39.898Z</time></trkpt><trkpt lat="43.787469277127535" lon="10.92427679632486"><ele>70.33333333333334</ele><time>2026-03-29T11:12:42.898Z</time></trkpt><trkpt lat="43.78751059571274" lon="10.924361186244548"><ele>69.66666666666667</ele><time>2026-03-29T11:12:45.898Z</time></trkpt><trkpt lat="43.78755301873697" lon="10.924441360684073"><ele>69.0</ele><time>2026-03-29T11:12:48.898Z</time></trkpt><trkpt lat="43.787587587211505" lon="10.924534796563147"><ele>68.33333333333333</ele><time>2026-03-29T11:12:51.898Z</time></trkpt><trkpt lat="43.78762099331501" lon="10.924641601556626"><ele>67.66666666666666</ele><time>2026-03-29T11:12:54.898Z</time></trkpt><trkpt lat="43.78765373554758" lon="10.924742065635183"><ele>67.0</ele><time>2026-03-29T11:12:57.898Z</time></trkpt><trkpt lat="43.78768424055392" lon="10.92484840531966"><ele>68.28571428571429</ele><time>2026-03-29T11:13:01.898Z</time></trkpt><trkpt lat="43.787703642126864" lon="10.92493186879208"><ele>69.57142857142857</ele><time>2026-03-29T11:13:04.898Z</time></trkpt><trkpt lat="43.78770492403451" lon="10.9250533156721"><ele>70.85714285714286</ele><time>2026-03-29T11:13:08.898Z</time></trkpt><trkpt lat="43.78768850711878" lon="10.92514490919822"><ele>72.14285714285714</ele><time>2026-03-29T11:13:11.898Z</time></trkpt><trkpt lat="43.787690962441516" lon="10.925236904431019"><ele>73.42857142857143</ele><time>2026-03-29T11:13:14.898Z</time></trkpt><trkpt lat="43.78771336670464" lon="10.925325070697774"><ele>74.71428571428571</ele><time>2026-03-29T11:13:17.898Z</time></trkpt><trkpt lat="43.78774950603365" lon="10.925415909750258"><ele>76.0</ele><time>2026-03-29T11:13:20.898Z</time></trkpt><trkpt lat="43.78780519127618" lon="10.925496403743809"><ele>76.0</ele><time>2026-03-29T11:13:24.898Z</time></trkpt><trkpt lat="43.78786652217432" lon="10.925555943714448"><ele>76.0</ele><time>2026-03-29T11:13:28.897Z</time></trkpt><trkpt lat="43.7879063877329" lon="10.925631653650546"><ele>76.0</ele><time>2026-03-29T11:13:31.897Z</time></trkpt><trkpt lat="43.787913871004505" lon="10.925733499307473"><ele>76.0</ele><time>2026-03-29T11:13:34.899Z</time></trkpt><trkpt lat="43.7879131649256" lon="10.925822493972749"><ele>76.0</ele><time>2026-03-29T11:13:37.899Z</time></trkpt><trkpt lat="43.787911094903976" lon="10.925924957420204"><ele>76.0</ele><time>2026-03-29T11:13:40.899Z</time></trkpt><trkpt lat="43.78787134589091" lon="10.926015175303279"><ele>76.0</ele><time>2026-03-29T11:13:43.899Z</time></trkpt><trkpt lat="43.78782199265501" lon="10.926071595216746"><ele>76.5</ele><time>2026-03-29T11:13:46.899Z</time></trkpt><trkpt lat="43.78777438329154" lon="10.92613421590743"><ele>77.0</ele><time>2026-03-29T11:13:50.898Z</time></trkpt><trkpt lat="43.78771996636246" lon="10.926178908243022"><ele>77.5</ele><time>2026-03-29T11:13:54.898Z</time></trkpt><trkpt lat="43.78765704581266" lon="10.926205885822698"><ele>78.0</ele><time>2026-03-29T11:13:58.898Z</time></trkpt><trkpt lat="43.78753053694289" lon="10.92612154547547"><ele>78.5</ele><time>2026-03-29T11:14:18.898Z</time></trkpt><trkpt lat="43.78747145936865" lon="10.926072758124656"><ele>79.0</ele><time>2026-03-29T11:14:28.898Z</time></trkpt><trkpt lat="43.78740219595393" lon="10.92603788089351"><ele>80.14285714285715</ele><time>2026-03-29T11:14:36.898Z</time></trkpt><trkpt lat="43.787393404287236" lon="10.926127547091532"><ele>81.28571428571429</ele><time>2026-03-29T11:14:51.897Z</time></trkpt><trkpt lat="43.78743163431768" lon="10.926211187913378"><ele>82.42857142857143</ele><time>2026-03-29T11:14:58.897Z</time></trkpt><trkpt lat="43.78745310471085" lon="10.926309651598583"><ele>83.57142857142858</ele><time>2026-03-29T11:15:07.897Z</time></trkpt><trkpt lat="43.7874230299663" lon="10.92638957611043"><ele>84.71428571428572</ele><time>2026-03-29T11:15:15.897Z</time></trkpt><trkpt lat="43.787401644162834" lon="10.9264836055419"><ele>85.85714285714286</ele><time>2026-03-29T11:15:23.897Z</time></trkpt><trkpt lat="43.7873856829429" lon="10.926570897092754"><ele>87.0</ele><time>2026-03-29T11:15:31.896Z</time></trkpt><trkpt lat="43.78728374476613" lon="10.926411375254311"><ele>87.0</ele><time>2026-03-29T11:15:42.898Z</time></trkpt><trkpt lat="43.78721101741987" lon="10.926390136617204"><ele>87.0</ele><time>2026-03-29T11:15:46.898Z</time></trkpt><trkpt lat="43.78714249977033" lon="10.926374930769127"><ele>87.0</ele><time>2026-03-29T11:15:50.899Z</time></trkpt><trkpt lat="43.78706126455282" lon="10.926385694953558"><ele>87.0</ele><time>2026-03-29T11:15:54.898Z</time></trkpt><trkpt lat="43.78698542505233" lon="10.926353734733064"><ele>87.0</ele><time>2026-03-29T11:15:58.898Z</time></trkpt><trkpt lat="43.786920184193896" lon="10.926336124452263"><ele>87.0</ele><time>2026-03-29T11:16:01.898Z</time></trkpt><trkpt lat="43.786844302664036" lon="10.926374396457035"><ele>87.16666666666667</ele><time>2026-03-29T11:16:05.898Z</time></trkpt><trkpt lat="43.7867788809305" lon="10.926433672096637"><ele>87.33333333333333</ele><time>2026-03-29T11:16:08.898Z</time></trkpt><trkpt lat="43.78671671521663" lon="10.926491423286638"><ele>87.5</ele><time>2026-03-29T11:16:11.898Z</time></trkpt><trkpt lat="43.7866466612236" lon="10.926503887418322"><ele>87.66666666666666</ele><time>2026-03-29T11:16:15.898Z</time></trkpt><trkpt lat="43.78657955883002" lon="10.92645123557215"><ele>87.83333333333333</ele><time>2026-03-29T11:16:20.898Z</time></trkpt><trkpt lat="43.78654900753556" lon="10.92636232818147"><ele>88.0</ele><time>2026-03-29T11:16:24.898Z</time></trkpt><trkpt lat="43.78648918182644" lon="10.926289349829094"><ele>88.0</ele><time>2026-03-29T11:16:28.897Z</time></trkpt><trkpt lat="43.78642908018155" lon="10.926222815196594"><ele>88.0</ele><time>2026-03-29T11:16:32.897Z</time></trkpt><trkpt lat="43.78636863823108" lon="10.926181889907106"><ele>88.0</ele><time>2026-03-29T11:16:35.897Z</time></trkpt><trkpt lat="43.78630809557598" lon="10.926147206791619"><ele>88.0</ele><time>2026-03-29T11:16:38.897Z</time></trkpt><trkpt lat="43.786241814543686" lon="10.926080588923687"><ele>88.0</ele><time>2026-03-29T11:16:42.897Z</time></trkpt><trkpt lat="43.78617784056503" lon="10.92600696745125"><ele>88.0</ele><time>2026-03-29T11:16:46.897Z</time></trkpt><trkpt lat="43.786124835249744" lon="10.925958525340521"><ele>88.0</ele><time>2026-03-29T11:16:49.897Z</time></trkpt><trkpt lat="43.7860562360247" lon="10.92593245602956"><ele>86.71428571428572</ele><time>2026-03-29T11:16:53.897Z</time></trkpt><trkpt lat="43.78597632390031" lon="10.925889910040365"><ele>85.42857142857143</ele><time>2026-03-29T11:16:57.897Z</time></trkpt><trkpt lat="43.78591194909307" lon="10.925842403451536"><ele>84.14285714285714</ele><time>2026-03-29T11:17:00.897Z</time></trkpt><trkpt lat="43.785854422283606" lon="10.925798561810224"><ele>82.85714285714286</ele><time>2026-03-29T11:17:03.897Z</time></trkpt><trkpt lat="43.785802850979465" lon="10.925733992913266"><ele>81.57142857142857</ele><time>2026-03-29T11:17:06.897Z</time></trkpt><trkpt lat="43.78574784813128" lon="10.925673438378503"><ele>80.28571428571429</ele><time>2026-03-29T11:17:09.897Z</time></trkpt><trkpt lat="43.7856980853117" lon="10.925613720131242"><ele>79.0</ele><time>2026-03-29T11:17:12.897Z</time></trkpt><trkpt lat="43.78564316240047" lon="10.925545191123222"><ele>79.00000000000001</ele><time>2026-03-29T11:17:15.897Z</time></trkpt><trkpt lat="43.785591714360834" lon="10.925494490696726"><ele>79.0</ele><time>2026-03-29T11:17:18.897Z</time></trkpt><trkpt lat="43.78552896951175" lon="10.92544473368327"><ele>79.0</ele><time>2026-03-29T11:17:21.896Z</time></trkpt><trkpt lat="43.78547455416643" lon="10.925391646888277"><ele>79.0</ele><time>2026-03-29T11:17:24.896Z</time></trkpt><trkpt lat="43.785411098990096" lon="10.925330225342336"><ele>79.0</ele><time>2026-03-29T11:17:27.896Z</time></trkpt><trkpt lat="43.7853368436073" lon="10.925286473172623"><ele>79.00000000000001</ele><time>2026-03-29T11:17:31.896Z</time></trkpt><trkpt lat="43.78526672299141" lon="10.925250293266204"><ele>79.0</ele><time>2026-03-29T11:17:34.896Z</time></trkpt><trkpt lat="43.78520686264798" lon="10.925196841855673"><ele>78.00000000000001</ele><time>2026-03-29T11:17:37.896Z</time></trkpt><trkpt lat="43.78514121493167" lon="10.925122213054955"><ele>77.0</ele><time>2026-03-29T11:17:41.896Z</time></trkpt><trkpt lat="43.785068654095674" lon="10.925095934562501"><ele>76.0</ele><time>2026-03-29T11:17:44.896Z</time></trkpt><trkpt lat="43.78500291890015" lon="10.925068463970105"><ele>75.0</ele><time>2026-03-29T11:17:47.898Z</time></trkpt><trkpt lat="43.78493828275621" lon="10.925019088845248"><ele>74.0</ele><time>2026-03-29T11:17:50.898Z</time></trkpt><trkpt lat="43.78486578911719" lon="10.925005776993002"><ele>73.00000000000001</ele><time>2026-03-29T11:17:53.898Z</time></trkpt><trkpt lat="43.784802172722095" lon="10.924982157969444"><ele>72.0</ele><time>2026-03-29T11:17:56.898Z</time></trkpt><trkpt lat="43.78473222855646" lon="10.924946702403423"><ele>72.00000000000001</ele><time>2026-03-29T11:17:59.898Z</time></trkpt><trkpt lat="43.784692694439684" lon="10.924870433064571"><ele>72.0</ele><time>2026-03-29T11:18:02.898Z</time></trkpt><trkpt lat="43.784635028636195" lon="10.924808769535185"><ele>72.0</ele><time>2026-03-29T11:18:05.898Z</time></trkpt><trkpt lat="43.784602329252245" lon="10.924721063519184"><ele>72.0</ele><time>2026-03-29T11:18:08.898Z</time></trkpt><trkpt lat="43.78453948770825" lon="10.92464602532394"><ele>72.0</ele><time>2026-03-29T11:18:11.898Z</time></trkpt><trkpt lat="43.784486258522264" lon="10.924572978419821"><ele>72.00000000000001</ele><time>2026-03-29T11:18:14.898Z</time></trkpt><trkpt lat="43.784436698839684" lon="10.924501777869935"><ele>72.0</ele><time>2026-03-29T11:18:17.897Z</time></trkpt><trkpt lat="43.78439621133259" lon="10.924404219679786"><ele>72.00000000000001</ele><time>2026-03-29T11:18:21.897Z</time></trkpt><trkpt lat="43.78435404327492" lon="10.924338322174451"><ele>72.0</ele><time>2026-03-29T11:18:24.897Z</time></trkpt><trkpt lat="43.78430280464216" lon="10.924279831437996"><ele>72.0</ele><time>2026-03-29T11:18:27.897Z</time></trkpt><trkpt lat="43.784246218653976" lon="10.924223649085862"><ele>72.0</ele><time>2026-03-29T11:18:30.897Z</time></trkpt><trkpt lat="43.78418847713332" lon="10.924165305625452"><ele>72.0</ele><time>2026-03-29T11:18:33.897Z</time></trkpt><trkpt lat="43.78416172470608" lon="10.924072299716428"><ele>72.00000000000001</ele><time>2026-03-29T11:18:36.897Z</time></trkpt><trkpt lat="43.78412878636415" lon="10.923972967075688"><ele>72.0</ele><time>2026-03-29T11:18:39.897Z</time></trkpt><trkpt lat="43.784110432275604" lon="10.923869146649006"><ele>71.5</ele><time>2026-03-29T11:18:42.897Z</time></trkpt><trkpt lat="43.78408044273726" lon="10.92376757065576"><ele>71.0</ele><time>2026-03-29T11:18:45.897Z</time></trkpt><trkpt lat="43.78404072280988" lon="10.923678535931137"><ele>70.5</ele><time>2026-03-29T11:18:48.897Z</time></trkpt><trkpt lat="43.78399191093229" lon="10.923598074466065"><ele>70.0</ele><time>2026-03-29T11:18:51.897Z</time></trkpt><trkpt lat="43.78395383191666" lon="10.92349418222926"><ele>69.5</ele><time>2026-03-29T11:18:54.897Z</time></trkpt><trkpt lat="43.78391125134707" lon="10.923397033129445"><ele>69.0</ele><time>2026-03-29T11:18:57.897Z</time></trkpt><trkpt lat="43.783871515300106" lon="10.923287168666336"><ele>67.83333333333333</ele><time>2026-03-29T11:19:00.897Z</time></trkpt><trkpt lat="43.78383622360822" lon="10.923191813034064"><ele>66.66666666666667</ele><time>2026-03-29T11:19:03.897Z</time></trkpt><trkpt lat="43.78380564251627" lon="10.923079518136863"><ele>65.5</ele><time>2026-03-29T11:19:06.897Z</time></trkpt><trkpt lat="43.78377759770542" lon="10.922976251098893"><ele>64.33333333333334</ele><time>2026-03-29T11:19:09.896Z</time></trkpt><trkpt lat="43.78373988453875" lon="10.922871165689878"><ele>63.16666666666667</ele><time>2026-03-29T11:19:12.896Z</time></trkpt><trkpt lat="43.78370308611124" lon="10.922783362101846"><ele>62.0</ele><time>2026-03-29T11:19:15.896Z</time></trkpt><trkpt lat="43.78366150676216" lon="10.922687053159965"><ele>62.00000000000001</ele><time>2026-03-29T11:19:18.896Z</time></trkpt><trkpt lat="43.783622514657274" lon="10.922601636029613"><ele>62.0</ele><time>2026-03-29T11:19:21.896Z</time></trkpt><trkpt lat="43.783573938596405" lon="10.922513069161992"><ele>62.0</ele><time>2026-03-29T11:19:24.896Z</time></trkpt><trkpt lat="43.78351660915608" lon="10.92244477064619"><ele>62.0</ele><time>2026-03-29T11:19:27.896Z</time></trkpt><trkpt lat="43.78347936705975" lon="10.92234724007278"><ele>62.00000000000001</ele><time>2026-03-29T11:19:30.896Z</time></trkpt><trkpt lat="43.78343597003971" lon="10.922262622502188"><ele>62.0</ele><time>2026-03-29T11:19:33.896Z</time></trkpt><trkpt lat="43.783372797762176" lon="10.922210692957417"><ele>62.00000000000001</ele><time>2026-03-29T11:19:36.896Z</time></trkpt><trkpt lat="43.78331054003229" lon="10.922128500809153"><ele>62.0</ele><time>2026-03-29T11:19:39.896Z</time></trkpt><trkpt lat="43.78326690252864" lon="10.922038720369272"><ele>62.0</ele><time>2026-03-29T11:19:42.896Z</time></trkpt><trkpt lat="43.78323332430261" lon="10.92194560974314"><ele>62.0</ele><time>2026-03-29T11:19:45.896Z</time></trkpt><trkpt lat="43.78319739734848" lon="10.921853484471422"><ele>62.00000000000001</ele><time>2026-03-29T11:19:48.896Z</time></trkpt><trkpt lat="43.783163496134286" lon="10.921764608418169"><ele>62.0</ele><time>2026-03-29T11:19:51.896Z</time></trkpt><trkpt lat="43.783119797012496" lon="10.921665126489465"><ele>61.42857142857143</ele><time>2026-03-29T11:19:54.897Z</time></trkpt><trkpt lat="43.78308265191634" lon="10.921578469680227"><ele>60.85714285714286</ele><time>2026-03-29T11:19:57.897Z</time></trkpt><trkpt lat="43.783045237706055" lon="10.921489028797795"><ele>60.28571428571429</ele><time>2026-03-29T11:20:01.897Z</time></trkpt><trkpt lat="43.78299033135009" lon="10.921411637421436"><ele>59.71428571428572</ele><time>2026-03-29T11:20:05.897Z</time></trkpt><trkpt lat="43.7829147424872" lon="10.921407637165913"><ele>59.142857142857146</ele><time>2026-03-29T11:20:10.897Z</time></trkpt><trkpt lat="43.78285029282586" lon="10.921449849108566"><ele>58.571428571428584</ele><time>2026-03-29T11:20:15.897Z</time></trkpt><trkpt lat="43.78278707676157" lon="10.921483569227247"><ele>58.00000000000001</ele><time>2026-03-29T11:20:21.897Z</time></trkpt><trkpt lat="43.782735600396194" lon="10.921537104005276"><ele>58.0</ele><time>2026-03-29T11:20:26.896Z</time></trkpt><trkpt lat="43.78267312150598" lon="10.921585928043779"><ele>59.0</ele><time>2026-03-29T11:20:32.896Z</time></trkpt><trkpt lat="43.782615209106474" lon="10.921632335974945"><ele>59.0</ele><time>2026-03-29T11:20:38.896Z</time></trkpt><trkpt lat="43.782558578891155" lon="10.921687858352783"><ele>59.0</ele><time>2026-03-29T11:20:44.896Z</time></trkpt><trkpt lat="43.782497737905544" lon="10.921736669178328"><ele>66.0</ele><time>2026-03-29T11:20:51.896Z</time></trkpt><trkpt lat="43.78245256140191" lon="10.921803060865523"><ele>66.0</ele><time>2026-03-29T11:20:57.896Z</time></trkpt><trkpt lat="43.78248306391958" lon="10.921883323527636"><ele>66.0</ele><time>2026-03-29T11:21:03.896Z</time></trkpt></trkseg></trk></gpx>